<?xml version="1.0" encoding="UTF-8" standalone="no" ?>
<gpx xmlns="http://www.topografix.com/GPX/1/1" xmlns:xsi="http://www.w3.org/2001/XMLSchema-instance" xsi:schemaLocation="http://www.topografix.com/GPX/1/1 http://www.topografix.com/GPX/1/1/gpx.xsd" version="1.1" creator="VisuGPX - https://www.visugpx.com">
  <metadata>
    <name>La tour d'aigues à Volx</name>
    <desc><![CDATA[Première partie à tester si B0 ou pas]]></desc>
  </metadata>
  <wpt lat="43.82369" lon="5.59363">
    <ele>601.8</ele>
    <name><![CDATA[Départ piste plus de B0]]></name>
    <desc><![CDATA[Départ piste plus de B0 . C'était à partir de là qu'il n'y avait plus de B0 lors de la rando du 01/05/2022]]></desc>
  </wpt>
  <wpt lat="44.39437" lon="5.79779">
    <ele>942.2</ele>
    <name><![CDATA[Entée dans le cirque]]></name>
  </wpt>
  <trk>
    <name><![CDATA[La tour d'aigues à grambois en trail]]></name>
    <extensions>
      <line xmlns="http://www.topografix.com/GPX/gpx_style/0/2">
        <color>ef2929</color>
        <width>4</width>
      </line>
    </extensions>
    <trkseg>
      <trkpt lat="43.72954" lon="5.55108">
        <ele>254.693</ele>
        <time>2021-04-23T15:32:50Z</time>
        <extensions>
          <visugpx:TrkExtension xmlns:visugpx="https://www.visugpx.com/editgpx/">
            <visugpx:node>8</visugpx:node>
            </visugpx:TrkExtension>
        </extensions>
      </trkpt>
      <trkpt lat="43.72953" lon="5.55108">
        <ele>254.565</ele>
        <time>2021-04-23T15:33:10Z</time>
      </trkpt>
      <trkpt lat="43.72953" lon="5.55106">
        <ele>254.721</ele>
        <time>2021-04-23T15:33:30Z</time>
      </trkpt>
      <trkpt lat="43.72953" lon="5.55101">
        <ele>254.908</ele>
        <time>2021-04-23T15:33:50Z</time>
      </trkpt>
      <trkpt lat="43.7295" lon="5.55097">
        <ele>254.946</ele>
        <time>2021-04-23T15:34:10Z</time>
      </trkpt>
      <trkpt lat="43.72947" lon="5.55095">
        <ele>254.71</ele>
        <time>2021-04-23T15:34:30Z</time>
      </trkpt>
      <trkpt lat="43.72948" lon="5.55091">
        <ele>255.181</ele>
        <time>2021-04-23T15:34:50Z</time>
      </trkpt>
      <trkpt lat="43.7295" lon="5.55086">
        <ele>255.575</ele>
        <time>2021-04-23T15:35:10Z</time>
      </trkpt>
      <trkpt lat="43.72953" lon="5.55076">
        <ele>256.659</ele>
        <time>2021-04-23T15:35:30Z</time>
      </trkpt>
      <trkpt lat="43.72957" lon="5.55074">
        <ele>257.226</ele>
        <time>2021-04-23T15:35:50Z</time>
      </trkpt>
      <trkpt lat="43.72959" lon="5.55074">
        <ele>257.388</ele>
        <time>2021-04-23T15:36:10Z</time>
      </trkpt>
      <trkpt lat="43.72972" lon="5.55076">
        <ele>258.748</ele>
        <time>2021-04-23T15:36:30Z</time>
      </trkpt>
      <trkpt lat="43.72979" lon="5.55078">
        <ele>259.354</ele>
        <time>2021-04-23T15:36:50Z</time>
      </trkpt>
      <trkpt lat="43.73" lon="5.55093">
        <ele>260.756</ele>
        <time>2021-04-23T15:37:10Z</time>
      </trkpt>
      <trkpt lat="43.7301" lon="5.55092">
        <ele>262.011</ele>
        <time>2021-04-23T15:37:30Z</time>
      </trkpt>
      <trkpt lat="43.73094" lon="5.54965">
        <ele>267.808</ele>
        <time>2021-04-23T15:37:50Z</time>
      </trkpt>
      <trkpt lat="43.73111" lon="5.54935">
        <ele>268.592</ele>
        <time>2021-04-23T15:38:10Z</time>
      </trkpt>
      <trkpt lat="43.73131" lon="5.54955">
        <ele>268.726</ele>
        <time>2021-04-23T15:38:30Z</time>
      </trkpt>
      <trkpt lat="43.73162" lon="5.54987">
        <ele>269.437</ele>
        <time>2021-04-23T15:38:50Z</time>
      </trkpt>
      <trkpt lat="43.73181" lon="5.55008">
        <ele>269.631</ele>
        <time>2021-04-23T15:39:10Z</time>
      </trkpt>
      <trkpt lat="43.73195" lon="5.55024">
        <ele>269.525</ele>
        <time>2021-04-23T15:39:30Z</time>
      </trkpt>
      <trkpt lat="43.732" lon="5.55029">
        <ele>269.452</ele>
        <time>2021-04-23T15:39:50Z</time>
      </trkpt>
      <trkpt lat="43.73203" lon="5.55032">
        <ele>269.494</ele>
        <time>2021-04-23T15:40:10Z</time>
      </trkpt>
      <trkpt lat="43.73216" lon="5.55045">
        <ele>269.144</ele>
        <time>2021-04-23T15:40:30Z</time>
      </trkpt>
      <trkpt lat="43.73229" lon="5.55057">
        <ele>268.871</ele>
        <time>2021-04-23T15:40:50Z</time>
      </trkpt>
      <trkpt lat="43.73242" lon="5.55066">
        <ele>268.541</ele>
        <time>2021-04-23T15:41:10Z</time>
      </trkpt>
      <trkpt lat="43.73259" lon="5.55077">
        <ele>269.315</ele>
        <time>2021-04-23T15:41:30Z</time>
      </trkpt>
      <trkpt lat="43.73272" lon="5.55085">
        <ele>269.908</ele>
        <time>2021-04-23T15:41:50Z</time>
      </trkpt>
      <trkpt lat="43.73283" lon="5.55096">
        <ele>270.474</ele>
        <time>2021-04-23T15:42:10Z</time>
      </trkpt>
      <trkpt lat="43.73294" lon="5.55109">
        <ele>270.878</ele>
        <time>2021-04-23T15:42:30Z</time>
      </trkpt>
      <trkpt lat="43.73302" lon="5.55119">
        <ele>271.119</ele>
        <time>2021-04-23T15:42:50Z</time>
      </trkpt>
      <trkpt lat="43.73312" lon="5.55133">
        <ele>271.533</ele>
        <time>2021-04-23T15:43:10Z</time>
      </trkpt>
      <trkpt lat="43.73372" lon="5.5522">
        <ele>274.277</ele>
        <time>2021-04-23T15:43:30Z</time>
      </trkpt>
      <trkpt lat="43.73381" lon="5.55232">
        <ele>274.634</ele>
        <time>2021-04-23T15:43:50Z</time>
      </trkpt>
      <trkpt lat="43.73408" lon="5.55268">
        <ele>275.666</ele>
        <time>2021-04-23T15:44:10Z</time>
      </trkpt>
      <trkpt lat="43.73417" lon="5.55276">
        <ele>276.026</ele>
        <time>2021-04-23T15:44:30Z</time>
      </trkpt>
      <trkpt lat="43.73426" lon="5.55281">
        <ele>276.471</ele>
        <time>2021-04-23T15:44:50Z</time>
      </trkpt>
      <trkpt lat="43.73445" lon="5.55294">
        <ele>276.741</ele>
        <time>2021-04-23T15:45:10Z</time>
      </trkpt>
      <trkpt lat="43.73472" lon="5.55314">
        <ele>275.715</ele>
        <time>2021-04-23T15:45:30Z</time>
      </trkpt>
      <trkpt lat="43.73509" lon="5.55335">
        <ele>274.608</ele>
        <time>2021-04-23T15:45:50Z</time>
      </trkpt>
      <trkpt lat="43.73539" lon="5.55356">
        <ele>273.674</ele>
        <time>2021-04-23T15:46:10Z</time>
      </trkpt>
      <trkpt lat="43.73538" lon="5.55401">
        <ele>272.378</ele>
        <time>2021-04-23T15:46:30Z</time>
      </trkpt>
      <trkpt lat="43.73542" lon="5.55569">
        <ele>263.819</ele>
        <time>2021-04-23T15:46:50Z</time>
      </trkpt>
      <trkpt lat="43.73546" lon="5.55683">
        <ele>257.993</ele>
        <time>2021-04-23T15:47:10Z</time>
      </trkpt>
      <trkpt lat="43.73542" lon="5.55693">
        <ele>257.537</ele>
        <time>2021-04-23T15:47:30Z</time>
      </trkpt>
      <trkpt lat="43.73546" lon="5.55706">
        <ele>257.584</ele>
        <time>2021-04-23T15:47:50Z</time>
      </trkpt>
      <trkpt lat="43.73549" lon="5.55718">
        <ele>257.426</ele>
        <time>2021-04-23T15:48:10Z</time>
      </trkpt>
      <trkpt lat="43.73561" lon="5.55772">
        <ele>256.776</ele>
        <time>2021-04-23T15:48:30Z</time>
      </trkpt>
      <trkpt lat="43.73571" lon="5.5582">
        <ele>257.968</ele>
        <time>2021-04-23T15:48:50Z</time>
      </trkpt>
      <trkpt lat="43.73575" lon="5.55837">
        <ele>258.342</ele>
        <time>2021-04-23T15:49:10Z</time>
      </trkpt>
      <trkpt lat="43.73578" lon="5.55851">
        <ele>258.626</ele>
        <time>2021-04-23T15:49:30Z</time>
      </trkpt>
      <trkpt lat="43.73585" lon="5.55877">
        <ele>259.108</ele>
        <time>2021-04-23T15:49:50Z</time>
      </trkpt>
      <trkpt lat="43.73595" lon="5.55901">
        <ele>259.643</ele>
        <time>2021-04-23T15:50:10Z</time>
      </trkpt>
      <trkpt lat="43.73613" lon="5.55932">
        <ele>260.197</ele>
        <time>2021-04-23T15:50:30Z</time>
      </trkpt>
      <trkpt lat="43.73654" lon="5.55997">
        <ele>261.438</ele>
        <time>2021-04-23T15:50:50Z</time>
      </trkpt>
      <trkpt lat="43.73692" lon="5.56061">
        <ele>262.642</ele>
        <time>2021-04-23T15:51:10Z</time>
      </trkpt>
      <trkpt lat="43.73698" lon="5.56071">
        <ele>262.756</ele>
        <time>2021-04-23T15:51:30Z</time>
      </trkpt>
      <trkpt lat="43.73703" lon="5.5608">
        <ele>262.773</ele>
        <time>2021-04-23T15:51:50Z</time>
      </trkpt>
      <trkpt lat="43.73715" lon="5.56099">
        <ele>262.925</ele>
        <time>2021-04-23T15:52:10Z</time>
      </trkpt>
      <trkpt lat="43.73716" lon="5.561">
        <ele>262.925</ele>
        <time>2021-04-23T15:52:30Z</time>
      </trkpt>
      <trkpt lat="43.73765" lon="5.5618">
        <ele>264.691</ele>
        <time>2021-04-23T15:52:50Z</time>
      </trkpt>
      <trkpt lat="43.7378" lon="5.56204">
        <ele>265.181</ele>
        <time>2021-04-23T15:53:10Z</time>
      </trkpt>
      <trkpt lat="43.7378" lon="5.56206">
        <ele>265.219</ele>
        <time>2021-04-23T15:53:30Z</time>
      </trkpt>
      <trkpt lat="43.73771" lon="5.56217">
        <ele>265.008</ele>
        <time>2021-04-23T15:53:50Z</time>
      </trkpt>
      <trkpt lat="43.7378" lon="5.56206">
        <ele>265.276</ele>
        <time>2021-04-23T15:54:10Z</time>
      </trkpt>
      <trkpt lat="43.7378" lon="5.56204">
        <ele>265.13</ele>
        <time>2021-04-23T15:54:30Z</time>
      </trkpt>
      <trkpt lat="43.73765" lon="5.5618">
        <ele>264.681</ele>
        <time>2021-04-23T15:54:50Z</time>
      </trkpt>
      <trkpt lat="43.73708" lon="5.56328">
        <ele>264.365</ele>
        <time>2021-04-23T15:55:10Z</time>
      </trkpt>
      <trkpt lat="43.73699" lon="5.56356">
        <ele>263.929</ele>
        <time>2021-04-23T15:55:30Z</time>
      </trkpt>
      <trkpt lat="43.73694" lon="5.56375">
        <ele>263.816</ele>
        <time>2021-04-23T15:55:50Z</time>
      </trkpt>
      <trkpt lat="43.73688" lon="5.56398">
        <ele>263.768</ele>
        <time>2021-04-23T15:56:10Z</time>
      </trkpt>
      <trkpt lat="43.73666" lon="5.56493">
        <ele>265.538</ele>
        <time>2021-04-23T15:56:30Z</time>
      </trkpt>
      <trkpt lat="43.73643" lon="5.56575">
        <ele>269.884</ele>
        <time>2021-04-23T15:56:50Z</time>
      </trkpt>
      <trkpt lat="43.73636" lon="5.56597">
        <ele>271.107</ele>
        <time>2021-04-23T15:57:10Z</time>
      </trkpt>
      <trkpt lat="43.73629" lon="5.56616">
        <ele>272.317</ele>
        <time>2021-04-23T15:57:30Z</time>
      </trkpt>
      <trkpt lat="43.73624" lon="5.56629">
        <ele>273.208</ele>
        <time>2021-04-23T15:57:50Z</time>
      </trkpt>
      <trkpt lat="43.73621" lon="5.56642">
        <ele>273.725</ele>
        <time>2021-04-23T15:58:10Z</time>
      </trkpt>
      <trkpt lat="43.73622" lon="5.56657">
        <ele>273.869</ele>
        <time>2021-04-23T15:58:30Z</time>
      </trkpt>
      <trkpt lat="43.73626" lon="5.56704">
        <ele>274.18</ele>
        <time>2021-04-23T15:58:50Z</time>
      </trkpt>
      <trkpt lat="43.73627" lon="5.56727">
        <ele>274.454</ele>
        <time>2021-04-23T15:59:10Z</time>
      </trkpt>
      <trkpt lat="43.73627" lon="5.56732">
        <ele>274.548</ele>
        <time>2021-04-23T15:59:30Z</time>
      </trkpt>
      <trkpt lat="43.73638" lon="5.56732">
        <ele>273.515</ele>
        <time>2021-04-23T15:59:50Z</time>
      </trkpt>
      <trkpt lat="43.73627" lon="5.56732">
        <ele>274.597</ele>
        <time>2021-04-23T16:00:10Z</time>
      </trkpt>
      <trkpt lat="43.73627" lon="5.56727">
        <ele>274.487</ele>
        <time>2021-04-23T16:00:30Z</time>
      </trkpt>
      <trkpt lat="43.73626" lon="5.56704">
        <ele>274.184</ele>
        <time>2021-04-23T16:00:50Z</time>
      </trkpt>
      <trkpt lat="43.73636" lon="5.56707">
        <ele>273.207</ele>
        <time>2021-04-23T16:01:10Z</time>
      </trkpt>
      <trkpt lat="43.73646" lon="5.56716">
        <ele>273.517</ele>
        <time>2021-04-23T16:01:30Z</time>
      </trkpt>
      <trkpt lat="43.73691" lon="5.56759">
        <ele>277.208</ele>
        <time>2021-04-23T16:01:50Z</time>
      </trkpt>
      <trkpt lat="43.73698" lon="5.56767">
        <ele>277.725</ele>
        <time>2021-04-23T16:02:10Z</time>
      </trkpt>
      <trkpt lat="43.73702" lon="5.56775">
        <ele>278.119</ele>
        <time>2021-04-23T16:02:30Z</time>
      </trkpt>
      <trkpt lat="43.73715" lon="5.56803">
        <ele>279.12</ele>
        <time>2021-04-23T16:02:50Z</time>
      </trkpt>
      <trkpt lat="43.73721" lon="5.56817">
        <ele>279.554</ele>
        <time>2021-04-23T16:03:10Z</time>
      </trkpt>
      <trkpt lat="43.73724" lon="5.56844">
        <ele>280.088</ele>
        <time>2021-04-23T16:03:30Z</time>
      </trkpt>
      <trkpt lat="43.73727" lon="5.56886">
        <ele>281.425</ele>
        <time>2021-04-23T16:03:50Z</time>
      </trkpt>
      <trkpt lat="43.7373" lon="5.56918">
        <ele>283.177</ele>
        <time>2021-04-23T16:04:10Z</time>
      </trkpt>
      <trkpt lat="43.73737" lon="5.56956">
        <ele>284.797</ele>
        <time>2021-04-23T16:04:30Z</time>
      </trkpt>
      <trkpt lat="43.73758" lon="5.57039">
        <ele>289.292</ele>
        <time>2021-04-23T16:04:50Z</time>
      </trkpt>
      <trkpt lat="43.73765" lon="5.57138">
        <ele>292.873</ele>
        <time>2021-04-23T16:05:10Z</time>
      </trkpt>
      <trkpt lat="43.73769" lon="5.57189">
        <ele>294.72</ele>
        <time>2021-04-23T16:05:30Z</time>
      </trkpt>
      <trkpt lat="43.7377" lon="5.57228">
        <ele>296.208</ele>
        <time>2021-04-23T16:05:50Z</time>
      </trkpt>
      <trkpt lat="43.73773" lon="5.57255">
        <ele>297.196</ele>
        <time>2021-04-23T16:06:10Z</time>
      </trkpt>
      <trkpt lat="43.73769" lon="5.57343">
        <ele>301.64</ele>
        <time>2021-04-23T16:06:30Z</time>
      </trkpt>
      <trkpt lat="43.73769" lon="5.57351">
        <ele>302.151</ele>
        <time>2021-04-23T16:06:50Z</time>
      </trkpt>
      <trkpt lat="43.73763" lon="5.57377">
        <ele>304.085</ele>
        <time>2021-04-23T16:07:10Z</time>
      </trkpt>
      <trkpt lat="43.73764" lon="5.57431">
        <ele>306.849</ele>
        <time>2021-04-23T16:07:30Z</time>
      </trkpt>
      <trkpt lat="43.73765" lon="5.5744">
        <ele>307.016</ele>
        <time>2021-04-23T16:07:50Z</time>
      </trkpt>
      <trkpt lat="43.73773" lon="5.57489">
        <ele>308.418</ele>
        <time>2021-04-23T16:08:10Z</time>
      </trkpt>
      <trkpt lat="43.7378" lon="5.57509">
        <ele>308.968</ele>
        <time>2021-04-23T16:08:30Z</time>
      </trkpt>
      <trkpt lat="43.73788" lon="5.57541">
        <ele>310.014</ele>
        <time>2021-04-23T16:08:50Z</time>
      </trkpt>
      <trkpt lat="43.73803" lon="5.57624">
        <ele>312.754</ele>
        <time>2021-04-23T16:09:10Z</time>
      </trkpt>
      <trkpt lat="43.73807" lon="5.57654">
        <ele>313.809</ele>
        <time>2021-04-23T16:09:30Z</time>
      </trkpt>
      <trkpt lat="43.73809" lon="5.57668">
        <ele>314.308</ele>
        <time>2021-04-23T16:09:50Z</time>
      </trkpt>
      <trkpt lat="43.73811" lon="5.57677">
        <ele>314.668</ele>
        <time>2021-04-23T16:10:10Z</time>
      </trkpt>
      <trkpt lat="43.73818" lon="5.57726">
        <ele>317.582</ele>
        <time>2021-04-23T16:10:30Z</time>
      </trkpt>
      <trkpt lat="43.73823" lon="5.57778">
        <ele>321.343</ele>
        <time>2021-04-23T16:10:50Z</time>
      </trkpt>
      <trkpt lat="43.7382" lon="5.57839">
        <ele>325.427</ele>
        <time>2021-04-23T16:11:10Z</time>
      </trkpt>
      <trkpt lat="43.73831" lon="5.57874">
        <ele>326.781</ele>
        <time>2021-04-23T16:11:30Z</time>
      </trkpt>
      <trkpt lat="43.73857" lon="5.57915">
        <ele>325.988</ele>
        <time>2021-04-23T16:11:50Z</time>
      </trkpt>
      <trkpt lat="43.7386" lon="5.5792">
        <ele>325.82</ele>
        <time>2021-04-23T16:12:10Z</time>
      </trkpt>
      <trkpt lat="43.73884" lon="5.5796">
        <ele>324.16</ele>
        <time>2021-04-23T16:12:30Z</time>
      </trkpt>
      <trkpt lat="43.73886" lon="5.57969">
        <ele>324.195</ele>
        <time>2021-04-23T16:12:50Z</time>
      </trkpt>
      <trkpt lat="43.73876" lon="5.58">
        <ele>324.949</ele>
        <time>2021-04-23T16:13:10Z</time>
      </trkpt>
      <trkpt lat="43.73875" lon="5.58039">
        <ele>324.723</ele>
        <time>2021-04-23T16:13:30Z</time>
      </trkpt>
      <trkpt lat="43.73875" lon="5.58054">
        <ele>324.608</ele>
        <time>2021-04-23T16:13:50Z</time>
      </trkpt>
      <trkpt lat="43.73878" lon="5.58068">
        <ele>324.246</ele>
        <time>2021-04-23T16:14:10Z</time>
      </trkpt>
      <trkpt lat="43.73882" lon="5.58085">
        <ele>323.82</ele>
        <time>2021-04-23T16:14:30Z</time>
      </trkpt>
      <trkpt lat="43.73882" lon="5.58109">
        <ele>323.631</ele>
        <time>2021-04-23T16:14:50Z</time>
      </trkpt>
      <trkpt lat="43.73873" lon="5.58118">
        <ele>324.015</ele>
        <time>2021-04-23T16:15:10Z</time>
      </trkpt>
      <trkpt lat="43.73866" lon="5.58124">
        <ele>324.299</ele>
        <time>2021-04-23T16:15:30Z</time>
      </trkpt>
      <trkpt lat="43.73856" lon="5.58131">
        <ele>324.536</ele>
        <time>2021-04-23T16:15:50Z</time>
      </trkpt>
      <trkpt lat="43.73848" lon="5.58138">
        <ele>324.598</ele>
        <time>2021-04-23T16:16:10Z</time>
      </trkpt>
      <trkpt lat="43.73846" lon="5.5815">
        <ele>324.178</ele>
        <time>2021-04-23T16:16:30Z</time>
      </trkpt>
      <trkpt lat="43.73851" lon="5.58158">
        <ele>323.687</ele>
        <time>2021-04-23T16:16:50Z</time>
      </trkpt>
      <trkpt lat="43.73869" lon="5.58149">
        <ele>323.542</ele>
        <time>2021-04-23T16:17:10Z</time>
      </trkpt>
      <trkpt lat="43.73886" lon="5.58133">
        <ele>323.226</ele>
        <time>2021-04-23T16:17:30Z</time>
      </trkpt>
      <trkpt lat="43.73906" lon="5.58108">
        <ele>322.108</ele>
        <time>2021-04-23T16:17:50Z</time>
      </trkpt>
      <trkpt lat="43.73929" lon="5.58092">
        <ele>320.394</ele>
        <time>2021-04-23T16:19:10Z</time>
      </trkpt>
      <trkpt lat="43.73951" lon="5.58074">
        <ele>321.148</ele>
        <time>2021-04-23T16:19:30Z</time>
      </trkpt>
      <trkpt lat="43.73969" lon="5.58046">
        <ele>321.955</ele>
        <time>2021-04-23T16:19:50Z</time>
      </trkpt>
      <trkpt lat="43.7399" lon="5.58031">
        <ele>322.947</ele>
        <time>2021-04-23T16:20:10Z</time>
      </trkpt>
      <trkpt lat="43.73988" lon="5.58029">
        <ele>322.667</ele>
        <time>2021-04-23T16:20:30Z</time>
      </trkpt>
      <trkpt lat="43.73992" lon="5.58018">
        <ele>322.414</ele>
        <time>2021-04-23T16:20:50Z</time>
      </trkpt>
      <trkpt lat="43.74097" lon="5.57951">
        <ele>327.454</ele>
        <time>2021-04-23T16:21:10Z</time>
      </trkpt>
      <trkpt lat="43.74129" lon="5.57917">
        <ele>326.409</ele>
        <time>2021-04-23T16:21:30Z</time>
      </trkpt>
      <trkpt lat="43.74151" lon="5.57916">
        <ele>326.808</ele>
        <time>2021-04-23T16:21:50Z</time>
      </trkpt>
      <trkpt lat="43.74167" lon="5.57928">
        <ele>328.318</ele>
        <time>2021-04-23T16:22:10Z</time>
      </trkpt>
      <trkpt lat="43.74172" lon="5.57926">
        <ele>328.032</ele>
        <time>2021-04-23T16:22:30Z</time>
      </trkpt>
      <trkpt lat="43.74171" lon="5.57917">
        <ele>326.873</ele>
        <time>2021-04-23T16:22:50Z</time>
      </trkpt>
      <trkpt lat="43.7415" lon="5.5789">
        <ele>323.127</ele>
        <time>2021-04-23T16:23:10Z</time>
      </trkpt>
      <trkpt lat="43.74136" lon="5.57864">
        <ele>318.661</ele>
        <time>2021-04-23T16:23:30Z</time>
      </trkpt>
      <trkpt lat="43.74129" lon="5.57843">
        <ele>314.638</ele>
        <time>2021-04-23T16:23:50Z</time>
      </trkpt>
      <trkpt lat="43.74128" lon="5.57837">
        <ele>313.72</ele>
        <time>2021-04-23T16:24:10Z</time>
      </trkpt>
      <trkpt lat="43.74135" lon="5.57836">
        <ele>314.36</ele>
        <time>2021-04-23T16:24:30Z</time>
      </trkpt>
      <trkpt lat="43.74128" lon="5.57837">
        <ele>313.767</ele>
        <time>2021-04-23T16:24:50Z</time>
      </trkpt>
      <trkpt lat="43.74127" lon="5.57828">
        <ele>312.781</ele>
        <time>2021-04-23T16:25:10Z</time>
      </trkpt>
      <trkpt lat="43.74139" lon="5.57804">
        <ele>314.519</ele>
        <time>2021-04-23T16:25:30Z</time>
      </trkpt>
      <trkpt lat="43.74143" lon="5.57779">
        <ele>315.708</ele>
        <time>2021-04-23T16:25:50Z</time>
      </trkpt>
      <trkpt lat="43.74159" lon="5.57767">
        <ele>317.413</ele>
        <time>2021-04-23T16:26:10Z</time>
      </trkpt>
      <trkpt lat="43.74218" lon="5.57853">
        <ele>321.497</ele>
        <time>2021-04-23T16:26:30Z</time>
      </trkpt>
      <trkpt lat="43.74232" lon="5.57861">
        <ele>322.788</ele>
        <time>2021-04-23T16:26:50Z</time>
      </trkpt>
      <trkpt lat="43.74243" lon="5.57857">
        <ele>323.832</ele>
        <time>2021-04-23T16:27:10Z</time>
      </trkpt>
      <trkpt lat="43.74262" lon="5.57816">
        <ele>325.526</ele>
        <time>2021-04-23T16:27:30Z</time>
      </trkpt>
      <trkpt lat="43.7428" lon="5.57807">
        <ele>328.243</ele>
        <time>2021-04-23T16:27:50Z</time>
      </trkpt>
      <trkpt lat="43.74292" lon="5.57769">
        <ele>330.125</ele>
        <time>2021-04-23T16:28:10Z</time>
      </trkpt>
      <trkpt lat="43.74293" lon="5.57752">
        <ele>330.455</ele>
        <time>2021-04-23T16:28:30Z</time>
      </trkpt>
      <trkpt lat="43.7431" lon="5.57712">
        <ele>332.132</ele>
        <time>2021-04-23T16:28:50Z</time>
      </trkpt>
      <trkpt lat="43.74333" lon="5.57687">
        <ele>333.392</ele>
        <time>2021-04-23T16:29:10Z</time>
      </trkpt>
      <trkpt lat="43.74351" lon="5.57676">
        <ele>333.311</ele>
        <time>2021-04-23T16:29:30Z</time>
      </trkpt>
      <trkpt lat="43.74351" lon="5.57678">
        <ele>333.408</ele>
        <time>2021-04-23T16:29:50Z</time>
      </trkpt>
      <trkpt lat="43.74353" lon="5.57679">
        <ele>333.66</ele>
        <time>2021-04-23T16:30:10Z</time>
      </trkpt>
      <trkpt lat="43.74351" lon="5.57678">
        <ele>333.444</ele>
        <time>2021-04-23T16:30:30Z</time>
      </trkpt>
      <trkpt lat="43.74337" lon="5.57772">
        <ele>335.225</ele>
        <time>2021-04-23T16:30:50Z</time>
      </trkpt>
      <trkpt lat="43.7433" lon="5.57804">
        <ele>335.249</ele>
        <time>2021-04-23T16:31:10Z</time>
      </trkpt>
      <trkpt lat="43.74324" lon="5.57845">
        <ele>334.553</ele>
        <time>2021-04-23T16:31:30Z</time>
      </trkpt>
      <trkpt lat="43.74324" lon="5.57867">
        <ele>334.24</ele>
        <time>2021-04-23T16:31:50Z</time>
      </trkpt>
      <trkpt lat="43.74308" lon="5.57913">
        <ele>332.252</ele>
        <time>2021-04-23T16:32:10Z</time>
      </trkpt>
      <trkpt lat="43.74308" lon="5.57927">
        <ele>332.232</ele>
        <time>2021-04-23T16:32:30Z</time>
      </trkpt>
      <trkpt lat="43.7433" lon="5.57965">
        <ele>332.939</ele>
        <time>2021-04-23T16:32:50Z</time>
      </trkpt>
      <trkpt lat="43.74352" lon="5.58015">
        <ele>338.201</ele>
        <time>2021-04-23T16:33:10Z</time>
      </trkpt>
      <trkpt lat="43.74361" lon="5.58054">
        <ele>342.121</ele>
        <time>2021-04-23T16:33:30Z</time>
      </trkpt>
      <trkpt lat="43.74362" lon="5.58106">
        <ele>345.708</ele>
        <time>2021-04-23T16:33:50Z</time>
      </trkpt>
      <trkpt lat="43.74365" lon="5.58155">
        <ele>348.74</ele>
        <time>2021-04-23T16:34:10Z</time>
      </trkpt>
      <trkpt lat="43.74366" lon="5.58157">
        <ele>349.034</ele>
        <time>2021-04-23T16:34:30Z</time>
      </trkpt>
      <trkpt lat="43.74365" lon="5.58158">
        <ele>349.055</ele>
        <time>2021-04-23T16:34:50Z</time>
      </trkpt>
      <trkpt lat="43.74366" lon="5.58157">
        <ele>349.069</ele>
        <time>2021-04-23T16:35:10Z</time>
      </trkpt>
      <trkpt lat="43.74365" lon="5.58155">
        <ele>348.763</ele>
        <time>2021-04-23T16:35:30Z</time>
      </trkpt>
      <trkpt lat="43.74359" lon="5.58164">
        <ele>348.31</ele>
        <time>2021-04-23T16:35:50Z</time>
      </trkpt>
      <trkpt lat="43.74345" lon="5.58183">
        <ele>347.162</ele>
        <time>2021-04-23T16:36:10Z</time>
      </trkpt>
      <trkpt lat="43.74328" lon="5.58184">
        <ele>344.932</ele>
        <time>2021-04-23T16:36:30Z</time>
      </trkpt>
      <trkpt lat="43.74312" lon="5.58189">
        <ele>344.142</ele>
        <time>2021-04-23T16:36:50Z</time>
      </trkpt>
      <trkpt lat="43.74295" lon="5.58207">
        <ele>344.222</ele>
        <time>2021-04-23T16:37:10Z</time>
      </trkpt>
      <trkpt lat="43.74287" lon="5.5824">
        <ele>345.614</ele>
        <time>2021-04-23T16:37:30Z</time>
      </trkpt>
      <trkpt lat="43.74286" lon="5.58263">
        <ele>347.308</ele>
        <time>2021-04-23T16:37:50Z</time>
      </trkpt>
      <trkpt lat="43.74276" lon="5.58312">
        <ele>351.051</ele>
        <time>2021-04-23T16:38:10Z</time>
      </trkpt>
      <trkpt lat="43.74272" lon="5.58345">
        <ele>353.825</ele>
        <time>2021-04-23T16:38:30Z</time>
      </trkpt>
      <trkpt lat="43.7425" lon="5.58372">
        <ele>356.636</ele>
        <time>2021-04-23T16:38:50Z</time>
      </trkpt>
      <trkpt lat="43.74245" lon="5.58385">
        <ele>357.76</ele>
        <time>2021-04-23T16:39:10Z</time>
      </trkpt>
      <trkpt lat="43.74241" lon="5.58406">
        <ele>358.544</ele>
        <time>2021-04-23T16:39:30Z</time>
      </trkpt>
      <trkpt lat="43.74228" lon="5.58418">
        <ele>358.721</ele>
        <time>2021-04-23T16:39:50Z</time>
      </trkpt>
      <trkpt lat="43.74217" lon="5.58414">
        <ele>358.413</ele>
        <time>2021-04-23T16:40:10Z</time>
      </trkpt>
      <trkpt lat="43.74199" lon="5.58405">
        <ele>357.893</ele>
        <time>2021-04-23T16:40:30Z</time>
      </trkpt>
      <trkpt lat="43.74179" lon="5.58409">
        <ele>357.533</ele>
        <time>2021-04-23T16:40:50Z</time>
      </trkpt>
      <trkpt lat="43.7416" lon="5.58402">
        <ele>357.023</ele>
        <time>2021-04-23T16:41:10Z</time>
      </trkpt>
      <trkpt lat="43.74145" lon="5.58405">
        <ele>356.815</ele>
        <time>2021-04-23T16:41:30Z</time>
      </trkpt>
      <trkpt lat="43.74129" lon="5.58416">
        <ele>356.408</ele>
        <time>2021-04-23T16:41:50Z</time>
      </trkpt>
      <trkpt lat="43.74123" lon="5.5842">
        <ele>355.745</ele>
        <time>2021-04-23T16:42:50Z</time>
      </trkpt>
      <trkpt lat="43.7411" lon="5.58441">
        <ele>354.789</ele>
        <time>2021-04-23T16:43:10Z</time>
      </trkpt>
      <trkpt lat="43.74089" lon="5.58484">
        <ele>353.163</ele>
        <time>2021-04-23T16:43:30Z</time>
      </trkpt>
      <trkpt lat="43.74088" lon="5.58512">
        <ele>353.98</ele>
        <time>2021-04-23T16:43:50Z</time>
      </trkpt>
      <trkpt lat="43.74084" lon="5.58537">
        <ele>353.512</ele>
        <time>2021-04-23T16:44:10Z</time>
      </trkpt>
      <trkpt lat="43.74081" lon="5.58601">
        <ele>353.642</ele>
        <time>2021-04-23T16:44:30Z</time>
      </trkpt>
      <trkpt lat="43.74092" lon="5.58626">
        <ele>355.424</ele>
        <time>2021-04-23T16:44:50Z</time>
      </trkpt>
      <trkpt lat="43.74097" lon="5.58635">
        <ele>356.204</ele>
        <time>2021-04-23T16:45:10Z</time>
      </trkpt>
      <trkpt lat="43.74091" lon="5.58667">
        <ele>355.714</ele>
        <time>2021-04-23T16:45:30Z</time>
      </trkpt>
      <trkpt lat="43.7408" lon="5.58672">
        <ele>354.308</ele>
        <time>2021-04-23T16:45:50Z</time>
      </trkpt>
      <trkpt lat="43.74062" lon="5.58675">
        <ele>351.949</ele>
        <time>2021-04-23T16:46:10Z</time>
      </trkpt>
      <trkpt lat="43.74041" lon="5.58659">
        <ele>348.353</ele>
        <time>2021-04-23T16:46:30Z</time>
      </trkpt>
      <trkpt lat="43.74018" lon="5.58645">
        <ele>349.554</ele>
        <time>2021-04-23T16:46:50Z</time>
      </trkpt>
      <trkpt lat="43.7401" lon="5.58651">
        <ele>350.928</ele>
        <time>2021-04-23T16:47:10Z</time>
      </trkpt>
      <trkpt lat="43.74004" lon="5.58661">
        <ele>352.052</ele>
        <time>2021-04-23T16:47:30Z</time>
      </trkpt>
      <trkpt lat="43.74008" lon="5.58672">
        <ele>351.999</ele>
        <time>2021-04-23T16:47:50Z</time>
      </trkpt>
      <trkpt lat="43.74014" lon="5.58682">
        <ele>351.331</ele>
        <time>2021-04-23T16:48:10Z</time>
      </trkpt>
      <trkpt lat="43.74018" lon="5.58704">
        <ele>351.641</ele>
        <time>2021-04-23T16:48:30Z</time>
      </trkpt>
      <trkpt lat="43.74025" lon="5.58714">
        <ele>350.892</ele>
        <time>2021-04-23T16:48:50Z</time>
      </trkpt>
      <trkpt lat="43.74029" lon="5.58734">
        <ele>350.973</ele>
        <time>2021-04-23T16:49:10Z</time>
      </trkpt>
      <trkpt lat="43.74031" lon="5.58762">
        <ele>351.62</ele>
        <time>2021-04-23T16:49:30Z</time>
      </trkpt>
      <trkpt lat="43.74029" lon="5.58776">
        <ele>352.508</ele>
        <time>2021-04-23T16:49:50Z</time>
      </trkpt>
      <trkpt lat="43.74027" lon="5.58783">
        <ele>353.036</ele>
        <time>2021-04-23T16:50:10Z</time>
      </trkpt>
      <trkpt lat="43.74019" lon="5.58789">
        <ele>354.66</ele>
        <time>2021-04-23T16:50:30Z</time>
      </trkpt>
      <trkpt lat="43.74006" lon="5.58804">
        <ele>357.881</ele>
        <time>2021-04-23T16:50:50Z</time>
      </trkpt>
      <trkpt lat="43.73987" lon="5.58835">
        <ele>363.555</ele>
        <time>2021-04-23T16:51:10Z</time>
      </trkpt>
      <trkpt lat="43.73963" lon="5.58865">
        <ele>369.379</ele>
        <time>2021-04-23T16:51:30Z</time>
      </trkpt>
      <trkpt lat="43.73959" lon="5.5888">
        <ele>371.096</ele>
        <time>2021-04-23T16:51:50Z</time>
      </trkpt>
      <trkpt lat="43.73962" lon="5.58913">
        <ele>373.038</ele>
        <time>2021-04-23T16:52:10Z</time>
      </trkpt>
      <trkpt lat="43.73968" lon="5.58928">
        <ele>373.438</ele>
        <time>2021-04-23T16:52:30Z</time>
      </trkpt>
      <trkpt lat="43.73973" lon="5.58954">
        <ele>374.661</ele>
        <time>2021-04-23T16:52:50Z</time>
      </trkpt>
      <trkpt lat="43.73966" lon="5.58982">
        <ele>377.121</ele>
        <time>2021-04-23T16:53:10Z</time>
      </trkpt>
      <trkpt lat="43.73947" lon="5.59009">
        <ele>380.513</ele>
        <time>2021-04-23T16:53:30Z</time>
      </trkpt>
      <trkpt lat="43.73925" lon="5.59026">
        <ele>382.608</ele>
        <time>2021-04-23T16:53:50Z</time>
      </trkpt>
      <trkpt lat="43.73924" lon="5.59037">
        <ele>383.243</ele>
        <time>2021-04-23T16:54:10Z</time>
      </trkpt>
      <trkpt lat="43.73924" lon="5.59064">
        <ele>384.647</ele>
        <time>2021-04-23T16:54:30Z</time>
      </trkpt>
      <trkpt lat="43.73928" lon="5.59065">
        <ele>384.652</ele>
        <time>2021-04-23T16:55:10Z</time>
      </trkpt>
      <trkpt lat="43.73914" lon="5.59079">
        <ele>385.313</ele>
        <time>2021-04-23T16:55:50Z</time>
      </trkpt>
      <trkpt lat="43.739" lon="5.59097">
        <ele>386.335</ele>
        <time>2021-04-23T16:56:10Z</time>
      </trkpt>
      <trkpt lat="43.73858" lon="5.59154">
        <ele>390.785</ele>
        <time>2021-04-23T16:56:30Z</time>
      </trkpt>
      <trkpt lat="43.7384" lon="5.59179">
        <ele>393.138</ele>
        <time>2021-04-23T16:56:50Z</time>
      </trkpt>
      <trkpt lat="43.73827" lon="5.59203">
        <ele>394.27</ele>
        <time>2021-04-23T16:57:10Z</time>
      </trkpt>
      <trkpt lat="43.73795" lon="5.59265">
        <ele>394.017</ele>
        <time>2021-04-23T16:57:30Z</time>
      </trkpt>
      <trkpt lat="43.73768" lon="5.59317">
        <ele>393.008</ele>
        <time>2021-04-23T16:57:50Z</time>
      </trkpt>
      <trkpt lat="43.73768" lon="5.59325">
        <ele>393.26</ele>
        <time>2021-04-23T16:58:10Z</time>
      </trkpt>
      <trkpt lat="43.73772" lon="5.59331">
        <ele>393.874</ele>
        <time>2021-04-23T16:58:30Z</time>
      </trkpt>
      <trkpt lat="43.73776" lon="5.59332">
        <ele>394.395</ele>
        <time>2021-04-23T16:58:50Z</time>
      </trkpt>
      <trkpt lat="43.73779" lon="5.59335">
        <ele>394.859</ele>
        <time>2021-04-23T16:59:10Z</time>
      </trkpt>
      <trkpt lat="43.73782" lon="5.59344">
        <ele>395.713</ele>
        <time>2021-04-23T16:59:30Z</time>
      </trkpt>
      <trkpt lat="43.73785" lon="5.59355">
        <ele>396.97</ele>
        <time>2021-04-23T16:59:50Z</time>
      </trkpt>
      <trkpt lat="43.73789" lon="5.59364">
        <ele>398.012</ele>
        <time>2021-04-23T17:00:10Z</time>
      </trkpt>
      <trkpt lat="43.73788" lon="5.59372">
        <ele>398.632</ele>
        <time>2021-04-23T17:00:30Z</time>
      </trkpt>
      <trkpt lat="43.73786" lon="5.59383">
        <ele>399.221</ele>
        <time>2021-04-23T17:00:50Z</time>
      </trkpt>
      <trkpt lat="43.7378" lon="5.59396">
        <ele>399.541</ele>
        <time>2021-04-23T17:01:10Z</time>
      </trkpt>
      <trkpt lat="43.73772" lon="5.59411">
        <ele>399.705</ele>
        <time>2021-04-23T17:01:30Z</time>
      </trkpt>
      <trkpt lat="43.73765" lon="5.59424">
        <ele>399.808</ele>
        <time>2021-04-23T17:01:50Z</time>
      </trkpt>
      <trkpt lat="43.73761" lon="5.59435">
        <ele>400.149</ele>
        <time>2021-04-23T17:02:10Z</time>
      </trkpt>
      <trkpt lat="43.73758" lon="5.59449">
        <ele>400.963</ele>
        <time>2021-04-23T17:02:30Z</time>
      </trkpt>
      <trkpt lat="43.73755" lon="5.59459">
        <ele>401.294</ele>
        <time>2021-04-23T17:02:50Z</time>
      </trkpt>
      <trkpt lat="43.7375" lon="5.59466">
        <ele>401.238</ele>
        <time>2021-04-23T17:03:10Z</time>
      </trkpt>
      <trkpt lat="43.73744" lon="5.59472">
        <ele>400.892</ele>
        <time>2021-04-23T17:03:30Z</time>
      </trkpt>
      <trkpt lat="43.73737" lon="5.59479">
        <ele>400.319</ele>
        <time>2021-04-23T17:03:50Z</time>
      </trkpt>
      <trkpt lat="43.7373" lon="5.59489">
        <ele>401.571</ele>
        <time>2021-04-23T17:04:10Z</time>
      </trkpt>
      <trkpt lat="43.73724" lon="5.59501">
        <ele>402.791</ele>
        <time>2021-04-23T17:04:30Z</time>
      </trkpt>
      <trkpt lat="43.73718" lon="5.59522">
        <ele>404.777</ele>
        <time>2021-04-23T17:04:50Z</time>
      </trkpt>
      <trkpt lat="43.73715" lon="5.5954">
        <ele>406.361</ele>
        <time>2021-04-23T17:05:10Z</time>
      </trkpt>
      <trkpt lat="43.73711" lon="5.5955">
        <ele>407.127</ele>
        <time>2021-04-23T17:05:30Z</time>
      </trkpt>
      <trkpt lat="43.73702" lon="5.5956">
        <ele>407.808</ele>
        <time>2021-04-23T17:05:50Z</time>
      </trkpt>
      <trkpt lat="43.73685" lon="5.59576">
        <ele>408.624</ele>
        <time>2021-04-23T17:06:10Z</time>
      </trkpt>
      <trkpt lat="43.7368" lon="5.59579">
        <ele>408.668</ele>
        <time>2021-04-23T17:06:30Z</time>
      </trkpt>
      <trkpt lat="43.73669" lon="5.59581">
        <ele>408.499</ele>
        <time>2021-04-23T17:06:50Z</time>
      </trkpt>
      <trkpt lat="43.73659" lon="5.59584">
        <ele>408.273</ele>
        <time>2021-04-23T17:07:10Z</time>
      </trkpt>
      <trkpt lat="43.73652" lon="5.5959">
        <ele>408.357</ele>
        <time>2021-04-23T17:07:30Z</time>
      </trkpt>
      <trkpt lat="43.73644" lon="5.59599">
        <ele>408.434</ele>
        <time>2021-04-23T17:07:50Z</time>
      </trkpt>
      <trkpt lat="43.73626" lon="5.59631">
        <ele>409.166</ele>
        <time>2021-04-23T17:08:10Z</time>
      </trkpt>
      <trkpt lat="43.73613" lon="5.5965">
        <ele>409.656</ele>
        <time>2021-04-23T17:08:30Z</time>
      </trkpt>
      <trkpt lat="43.73599" lon="5.5967">
        <ele>410.214</ele>
        <time>2021-04-23T17:08:50Z</time>
      </trkpt>
      <trkpt lat="43.73594" lon="5.59683">
        <ele>410.854</ele>
        <time>2021-04-23T17:09:10Z</time>
      </trkpt>
      <trkpt lat="43.73593" lon="5.59697">
        <ele>411.709</ele>
        <time>2021-04-23T17:09:30Z</time>
      </trkpt>
      <trkpt lat="43.73593" lon="5.59745">
        <ele>415.308</ele>
        <time>2021-04-23T17:09:50Z</time>
      </trkpt>
      <trkpt lat="43.73593" lon="5.59753">
        <ele>415.848</ele>
        <time>2021-04-23T17:10:10Z</time>
      </trkpt>
      <trkpt lat="43.73591" lon="5.59758">
        <ele>416.312</ele>
        <time>2021-04-23T17:10:30Z</time>
      </trkpt>
      <trkpt lat="43.73588" lon="5.59761">
        <ele>416.493</ele>
        <time>2021-04-23T17:10:50Z</time>
      </trkpt>
      <trkpt lat="43.73581" lon="5.59766">
        <ele>416.697</ele>
        <time>2021-04-23T17:11:10Z</time>
      </trkpt>
      <trkpt lat="43.73578" lon="5.59771">
        <ele>417.071</ele>
        <time>2021-04-23T17:11:30Z</time>
      </trkpt>
      <trkpt lat="43.73575" lon="5.59782">
        <ele>417.928</ele>
        <time>2021-04-23T17:11:50Z</time>
      </trkpt>
      <trkpt lat="43.73574" lon="5.59788">
        <ele>418.57</ele>
        <time>2021-04-23T17:12:10Z</time>
      </trkpt>
      <trkpt lat="43.73575" lon="5.59791">
        <ele>418.92</ele>
        <time>2021-04-23T17:12:30Z</time>
      </trkpt>
      <trkpt lat="43.73576" lon="5.59793">
        <ele>419.123</ele>
        <time>2021-04-23T17:12:50Z</time>
      </trkpt>
      <trkpt lat="43.73578" lon="5.59802">
        <ele>420.183</ele>
        <time>2021-04-23T17:13:10Z</time>
      </trkpt>
      <trkpt lat="43.73578" lon="5.59807">
        <ele>420.611</ele>
        <time>2021-04-23T17:13:30Z</time>
      </trkpt>
      <trkpt lat="43.73577" lon="5.59813">
        <ele>421.208</ele>
        <time>2021-04-23T17:13:50Z</time>
      </trkpt>
      <trkpt lat="43.73574" lon="5.59818">
        <ele>421.529</ele>
        <time>2021-04-23T17:14:10Z</time>
      </trkpt>
      <trkpt lat="43.73565" lon="5.5983">
        <ele>422.413</ele>
        <time>2021-04-23T17:14:30Z</time>
      </trkpt>
      <trkpt lat="43.7356" lon="5.59847">
        <ele>423.954</ele>
        <time>2021-04-23T17:14:50Z</time>
      </trkpt>
      <trkpt lat="43.73556" lon="5.59854">
        <ele>424.578</ele>
        <time>2021-04-23T17:15:10Z</time>
      </trkpt>
      <trkpt lat="43.73552" lon="5.59858">
        <ele>424.872</ele>
        <time>2021-04-23T17:15:30Z</time>
      </trkpt>
      <trkpt lat="43.7355" lon="5.59867">
        <ele>425.789</ele>
        <time>2021-04-23T17:15:50Z</time>
      </trkpt>
      <trkpt lat="43.73549" lon="5.59876">
        <ele>426.571</ele>
        <time>2021-04-23T17:16:10Z</time>
      </trkpt>
      <trkpt lat="43.73536" lon="5.59947">
        <ele>432.691</ele>
        <time>2021-04-23T17:16:30Z</time>
      </trkpt>
      <trkpt lat="43.73519" lon="5.60019">
        <ele>437.496</ele>
        <time>2021-04-23T17:16:50Z</time>
      </trkpt>
      <trkpt lat="43.73511" lon="5.60062">
        <ele>440.631</ele>
        <time>2021-04-23T17:17:10Z</time>
      </trkpt>
      <trkpt lat="43.73498" lon="5.60151">
        <ele>447.424</ele>
        <time>2021-04-23T17:17:30Z</time>
      </trkpt>
      <trkpt lat="43.73495" lon="5.6018">
        <ele>449.308</ele>
        <time>2021-04-23T17:17:50Z</time>
      </trkpt>
      <trkpt lat="43.73498" lon="5.60203">
        <ele>450.866</ele>
        <time>2021-04-23T17:18:10Z</time>
      </trkpt>
      <trkpt lat="43.73498" lon="5.60241">
        <ele>453.09</ele>
        <time>2021-04-23T17:18:30Z</time>
      </trkpt>
      <trkpt lat="43.73497" lon="5.60263">
        <ele>454.091</ele>
        <time>2021-04-23T17:18:50Z</time>
      </trkpt>
      <trkpt lat="43.73488" lon="5.60345">
        <ele>458.575</ele>
        <time>2021-04-23T17:19:10Z</time>
      </trkpt>
      <trkpt lat="43.73482" lon="5.60421">
        <ele>464.489</ele>
        <time>2021-04-23T17:19:30Z</time>
      </trkpt>
      <trkpt lat="43.73467" lon="5.60616">
        <ele>477.586</ele>
        <time>2021-04-23T17:19:50Z</time>
      </trkpt>
      <trkpt lat="43.7346" lon="5.60708">
        <ele>483.228</ele>
        <time>2021-04-23T17:20:10Z</time>
      </trkpt>
      <trkpt lat="43.73458" lon="5.6074">
        <ele>485.378</ele>
        <time>2021-04-23T17:20:30Z</time>
      </trkpt>
      <trkpt lat="43.73454" lon="5.60761">
        <ele>486.541</ele>
        <time>2021-04-23T17:20:50Z</time>
      </trkpt>
      <trkpt lat="43.73443" lon="5.60815">
        <ele>489.681</ele>
        <time>2021-04-23T17:21:10Z</time>
      </trkpt>
      <trkpt lat="43.73435" lon="5.60855">
        <ele>491.809</ele>
        <time>2021-04-23T17:21:30Z</time>
      </trkpt>
      <trkpt lat="43.73431" lon="5.60879">
        <ele>493.208</ele>
        <time>2021-04-23T17:21:50Z</time>
      </trkpt>
      <trkpt lat="43.73428" lon="5.60896">
        <ele>494.021</ele>
        <time>2021-04-23T17:22:10Z</time>
      </trkpt>
      <trkpt lat="43.73421" lon="5.60916">
        <ele>494.585</ele>
        <time>2021-04-23T17:22:30Z</time>
      </trkpt>
      <trkpt lat="43.73395" lon="5.60961">
        <ele>494.146</ele>
        <time>2021-04-23T17:22:50Z</time>
      </trkpt>
      <trkpt lat="43.7338" lon="5.60995">
        <ele>494.34</ele>
        <time>2021-04-23T17:23:10Z</time>
      </trkpt>
      <trkpt lat="43.73378" lon="5.61005">
        <ele>494.884</ele>
        <time>2021-04-23T17:23:30Z</time>
      </trkpt>
      <trkpt lat="43.73369" lon="5.61013">
        <ele>494.321</ele>
        <time>2021-04-23T17:23:50Z</time>
      </trkpt>
      <trkpt lat="43.73357" lon="5.61023">
        <ele>493.563</ele>
        <time>2021-04-23T17:24:10Z</time>
      </trkpt>
      <trkpt lat="43.7332" lon="5.61055">
        <ele>490.653</ele>
        <time>2021-04-23T17:24:30Z</time>
      </trkpt>
      <trkpt lat="43.73306" lon="5.61076">
        <ele>490.379</ele>
        <time>2021-04-23T17:24:50Z</time>
      </trkpt>
      <trkpt lat="43.7329" lon="5.61096">
        <ele>489.805</ele>
        <time>2021-04-23T17:25:10Z</time>
      </trkpt>
      <trkpt lat="43.73272" lon="5.61116">
        <ele>489.325</ele>
        <time>2021-04-23T17:25:30Z</time>
      </trkpt>
      <trkpt lat="43.73245" lon="5.61128">
        <ele>486.608</ele>
        <time>2021-04-23T17:25:50Z</time>
      </trkpt>
      <trkpt lat="43.73206" lon="5.61154">
        <ele>476.244</ele>
        <time>2021-04-23T17:26:10Z</time>
      </trkpt>
      <trkpt lat="43.7318" lon="5.61174">
        <ele>469.548</ele>
        <time>2021-04-23T17:26:30Z</time>
      </trkpt>
      <trkpt lat="43.73155" lon="5.61206">
        <ele>462.449</ele>
        <time>2021-04-23T17:26:50Z</time>
      </trkpt>
      <trkpt lat="43.73128" lon="5.61239">
        <ele>456.693</ele>
        <time>2021-04-23T17:27:10Z</time>
      </trkpt>
      <trkpt lat="43.73115" lon="5.61244">
        <ele>455.387</ele>
        <time>2021-04-23T17:27:30Z</time>
      </trkpt>
      <trkpt lat="43.73103" lon="5.61241">
        <ele>454.684</ele>
        <time>2021-04-23T17:27:50Z</time>
      </trkpt>
      <trkpt lat="43.73097" lon="5.61242">
        <ele>454.156</ele>
        <time>2021-04-23T17:28:10Z</time>
      </trkpt>
      <trkpt lat="43.7309" lon="5.61243">
        <ele>453.566</ele>
        <time>2021-04-23T17:28:30Z</time>
      </trkpt>
      <trkpt lat="43.73087" lon="5.61246">
        <ele>453.145</ele>
        <time>2021-04-23T17:28:50Z</time>
      </trkpt>
      <trkpt lat="43.73086" lon="5.61251">
        <ele>452.747</ele>
        <time>2021-04-23T17:29:10Z</time>
      </trkpt>
      <trkpt lat="43.73088" lon="5.61262">
        <ele>452.211</ele>
        <time>2021-04-23T17:29:30Z</time>
      </trkpt>
      <trkpt lat="43.73094" lon="5.61278">
        <ele>452.708</ele>
        <time>2021-04-23T17:29:50Z</time>
      </trkpt>
      <trkpt lat="43.7311" lon="5.61306">
        <ele>454.441</ele>
        <time>2021-04-23T17:30:10Z</time>
      </trkpt>
      <trkpt lat="43.73119" lon="5.6132">
        <ele>455.385</ele>
        <time>2021-04-23T17:30:30Z</time>
      </trkpt>
      <trkpt lat="43.73121" lon="5.6133">
        <ele>455.746</ele>
        <time>2021-04-23T17:30:50Z</time>
      </trkpt>
      <trkpt lat="43.73117" lon="5.61334">
        <ele>455.57</ele>
        <time>2021-04-23T17:31:10Z</time>
      </trkpt>
      <trkpt lat="43.73106" lon="5.61336">
        <ele>454.754</ele>
        <time>2021-04-23T17:31:30Z</time>
      </trkpt>
      <trkpt lat="43.73073" lon="5.61333">
        <ele>452.331</ele>
        <time>2021-04-23T17:31:50Z</time>
      </trkpt>
      <trkpt lat="43.7306" lon="5.61326">
        <ele>451.283</ele>
        <time>2021-04-23T17:32:10Z</time>
      </trkpt>
      <trkpt lat="43.73055" lon="5.61327">
        <ele>450.953</ele>
        <time>2021-04-23T17:32:30Z</time>
      </trkpt>
      <trkpt lat="43.73051" lon="5.61328">
        <ele>450.682</ele>
        <time>2021-04-23T17:32:50Z</time>
      </trkpt>
      <trkpt lat="43.73048" lon="5.61331">
        <ele>450.443</ele>
        <time>2021-04-23T17:33:10Z</time>
      </trkpt>
      <trkpt lat="43.73047" lon="5.61336">
        <ele>450.417</ele>
        <time>2021-04-23T17:33:30Z</time>
      </trkpt>
      <trkpt lat="43.73052" lon="5.61338">
        <ele>450.808</ele>
        <time>2021-04-23T17:33:50Z</time>
      </trkpt>
      <trkpt lat="43.73056" lon="5.6134">
        <ele>451.125</ele>
        <time>2021-04-23T17:34:10Z</time>
      </trkpt>
      <trkpt lat="43.73059" lon="5.61344">
        <ele>451.469</ele>
        <time>2021-04-23T17:34:30Z</time>
      </trkpt>
      <trkpt lat="43.7306" lon="5.61349">
        <ele>451.68</ele>
        <time>2021-04-23T17:34:50Z</time>
      </trkpt>
      <trkpt lat="43.73055" lon="5.61348">
        <ele>451.214</ele>
        <time>2021-04-23T17:35:10Z</time>
      </trkpt>
      <trkpt lat="43.73049" lon="5.61349">
        <ele>450.758</ele>
        <time>2021-04-23T17:35:30Z</time>
      </trkpt>
      <trkpt lat="43.73048" lon="5.61343">
        <ele>450.695</ele>
        <time>2021-04-23T17:35:50Z</time>
      </trkpt>
      <trkpt lat="43.73049" lon="5.61349">
        <ele>450.727</ele>
        <time>2021-04-23T17:36:10Z</time>
      </trkpt>
      <trkpt lat="43.73055" lon="5.61348">
        <ele>451.267</ele>
        <time>2021-04-23T17:36:30Z</time>
      </trkpt>
      <trkpt lat="43.7306" lon="5.61349">
        <ele>451.627</ele>
        <time>2021-04-23T17:36:50Z</time>
      </trkpt>
      <trkpt lat="43.73064" lon="5.6135">
        <ele>451.968</ele>
        <time>2021-04-23T17:37:10Z</time>
      </trkpt>
      <trkpt lat="43.73078" lon="5.61352">
        <ele>453.014</ele>
        <time>2021-04-23T17:37:30Z</time>
      </trkpt>
      <trkpt lat="43.73145" lon="5.61373">
        <ele>458.808</ele>
        <time>2021-04-23T17:37:50Z</time>
      </trkpt>
      <trkpt lat="43.73171" lon="5.61382">
        <ele>464.179</ele>
        <time>2021-04-23T17:38:10Z</time>
      </trkpt>
      <trkpt lat="43.73185" lon="5.61383">
        <ele>466.843</ele>
        <time>2021-04-23T17:38:30Z</time>
      </trkpt>
      <trkpt lat="43.73201" lon="5.61383">
        <ele>469.964</ele>
        <time>2021-04-23T17:38:50Z</time>
      </trkpt>
      <trkpt lat="43.73209" lon="5.61383">
        <ele>471.438</ele>
        <time>2021-04-23T17:39:10Z</time>
      </trkpt>
      <trkpt lat="43.73215" lon="5.61384">
        <ele>472.632</ele>
        <time>2021-04-23T17:39:30Z</time>
      </trkpt>
      <trkpt lat="43.73221" lon="5.61387">
        <ele>474.039</ele>
        <time>2021-04-23T17:39:50Z</time>
      </trkpt>
      <trkpt lat="43.73229" lon="5.61392">
        <ele>476.081</ele>
        <time>2021-04-23T17:40:10Z</time>
      </trkpt>
      <trkpt lat="43.73235" lon="5.61396">
        <ele>477.451</ele>
        <time>2021-04-23T17:40:30Z</time>
      </trkpt>
      <trkpt lat="43.73243" lon="5.61398">
        <ele>478.821</ele>
        <time>2021-04-23T17:40:50Z</time>
      </trkpt>
      <trkpt lat="43.7325" lon="5.61397">
        <ele>479.141</ele>
        <time>2021-04-23T17:41:10Z</time>
      </trkpt>
      <trkpt lat="43.7326" lon="5.61393">
        <ele>479.405</ele>
        <time>2021-04-23T17:41:30Z</time>
      </trkpt>
      <trkpt lat="43.73271" lon="5.61385">
        <ele>479.508</ele>
        <time>2021-04-23T17:41:50Z</time>
      </trkpt>
      <trkpt lat="43.73287" lon="5.6138">
        <ele>480.199</ele>
        <time>2021-04-23T17:42:10Z</time>
      </trkpt>
      <trkpt lat="43.73297" lon="5.61379">
        <ele>480.793</ele>
        <time>2021-04-23T17:42:30Z</time>
      </trkpt>
      <trkpt lat="43.73307" lon="5.61382">
        <ele>481.464</ele>
        <time>2021-04-23T17:42:50Z</time>
      </trkpt>
      <trkpt lat="43.73318" lon="5.61385">
        <ele>482.288</ele>
        <time>2021-04-23T17:43:10Z</time>
      </trkpt>
      <trkpt lat="43.73337" lon="5.614">
        <ele>483.912</ele>
        <time>2021-04-23T17:43:30Z</time>
      </trkpt>
      <trkpt lat="43.73357" lon="5.61411">
        <ele>484.359</ele>
        <time>2021-04-23T17:43:50Z</time>
      </trkpt>
      <trkpt lat="43.73377" lon="5.6142">
        <ele>483.431</ele>
        <time>2021-04-23T17:44:10Z</time>
      </trkpt>
      <trkpt lat="43.73385" lon="5.61426">
        <ele>483.861</ele>
        <time>2021-04-23T17:44:30Z</time>
      </trkpt>
      <trkpt lat="43.73391" lon="5.61434">
        <ele>484.673</ele>
        <time>2021-04-23T17:44:50Z</time>
      </trkpt>
      <trkpt lat="43.734" lon="5.61448">
        <ele>486.385</ele>
        <time>2021-04-23T17:45:10Z</time>
      </trkpt>
      <trkpt lat="43.73418" lon="5.61489">
        <ele>491.913</ele>
        <time>2021-04-23T17:45:30Z</time>
      </trkpt>
      <trkpt lat="43.73428" lon="5.61506">
        <ele>493.508</ele>
        <time>2021-04-23T17:45:50Z</time>
      </trkpt>
      <trkpt lat="43.73441" lon="5.6152">
        <ele>494.224</ele>
        <time>2021-04-23T17:46:10Z</time>
      </trkpt>
      <trkpt lat="43.73454" lon="5.6153">
        <ele>494.048</ele>
        <time>2021-04-23T17:46:30Z</time>
      </trkpt>
      <trkpt lat="43.7347" lon="5.61539">
        <ele>492.699</ele>
        <time>2021-04-23T17:46:50Z</time>
      </trkpt>
      <trkpt lat="43.73495" lon="5.61544">
        <ele>489.743</ele>
        <time>2021-04-23T17:47:10Z</time>
      </trkpt>
      <trkpt lat="43.73517" lon="5.61548">
        <ele>486.967</ele>
        <time>2021-04-23T17:47:30Z</time>
      </trkpt>
      <trkpt lat="43.73582" lon="5.61555">
        <ele>481.854</ele>
        <time>2021-04-23T17:47:50Z</time>
      </trkpt>
      <trkpt lat="43.73598" lon="5.61559">
        <ele>481.566</ele>
        <time>2021-04-23T17:48:10Z</time>
      </trkpt>
      <trkpt lat="43.73615" lon="5.61568">
        <ele>481.626</ele>
        <time>2021-04-23T17:48:30Z</time>
      </trkpt>
      <trkpt lat="43.73698" lon="5.61608">
        <ele>483.739</ele>
        <time>2021-04-23T17:48:50Z</time>
      </trkpt>
      <trkpt lat="43.73723" lon="5.61622">
        <ele>483.001</ele>
        <time>2021-04-23T17:49:10Z</time>
      </trkpt>
      <trkpt lat="43.73742" lon="5.61639">
        <ele>482.221</ele>
        <time>2021-04-23T17:49:30Z</time>
      </trkpt>
      <trkpt lat="43.73754" lon="5.61652">
        <ele>482.708</ele>
        <time>2021-04-23T17:49:50Z</time>
      </trkpt>
      <trkpt lat="43.73776" lon="5.61678">
        <ele>482.69</ele>
        <time>2021-04-23T17:50:10Z</time>
      </trkpt>
      <trkpt lat="43.73789" lon="5.6169">
        <ele>484.014</ele>
        <time>2021-04-23T17:50:30Z</time>
      </trkpt>
      <trkpt lat="43.73811" lon="5.61701">
        <ele>485.485</ele>
        <time>2021-04-23T17:50:50Z</time>
      </trkpt>
      <trkpt lat="43.73841" lon="5.61719">
        <ele>487.339</ele>
        <time>2021-04-23T17:51:10Z</time>
      </trkpt>
      <trkpt lat="43.73851" lon="5.61731">
        <ele>489.143</ele>
        <time>2021-04-23T17:51:30Z</time>
      </trkpt>
      <trkpt lat="43.73858" lon="5.61744">
        <ele>490.17</ele>
        <time>2021-04-23T17:51:50Z</time>
      </trkpt>
      <trkpt lat="43.73867" lon="5.61767">
        <ele>491.162</ele>
        <time>2021-04-23T17:52:10Z</time>
      </trkpt>
      <trkpt lat="43.73876" lon="5.61787">
        <ele>491.822</ele>
        <time>2021-04-23T17:52:30Z</time>
      </trkpt>
      <trkpt lat="43.73885" lon="5.61804">
        <ele>492.472</ele>
        <time>2021-04-23T17:52:50Z</time>
      </trkpt>
      <trkpt lat="43.73894" lon="5.61814">
        <ele>493.113</ele>
        <time>2021-04-23T17:53:10Z</time>
      </trkpt>
      <trkpt lat="43.73909" lon="5.6182">
        <ele>494.814</ele>
        <time>2021-04-23T17:53:30Z</time>
      </trkpt>
      <trkpt lat="43.73924" lon="5.61821">
        <ele>496.308</ele>
        <time>2021-04-23T17:53:50Z</time>
      </trkpt>
      <trkpt lat="43.73935" lon="5.61822">
        <ele>497.444</ele>
        <time>2021-04-23T17:54:10Z</time>
      </trkpt>
      <trkpt lat="43.73949" lon="5.61821">
        <ele>499.068</ele>
        <time>2021-04-23T17:54:30Z</time>
      </trkpt>
      <trkpt lat="43.73964" lon="5.61818">
        <ele>500.629</ele>
        <time>2021-04-23T17:54:50Z</time>
      </trkpt>
      <trkpt lat="43.73992" lon="5.61805">
        <ele>504.083</ele>
        <time>2021-04-23T17:55:10Z</time>
      </trkpt>
      <trkpt lat="43.74057" lon="5.61771">
        <ele>509.217</ele>
        <time>2021-04-23T17:55:30Z</time>
      </trkpt>
      <trkpt lat="43.74215" lon="5.61693">
        <ele>503.844</ele>
        <time>2021-04-23T17:55:50Z</time>
      </trkpt>
      <trkpt lat="43.74267" lon="5.61674">
        <ele>500.726</ele>
        <time>2021-04-23T17:56:10Z</time>
      </trkpt>
      <trkpt lat="43.74298" lon="5.61662">
        <ele>499.676</ele>
        <time>2021-04-23T17:56:30Z</time>
      </trkpt>
      <trkpt lat="43.74322" lon="5.61651">
        <ele>498.593</ele>
        <time>2021-04-23T17:56:50Z</time>
      </trkpt>
      <trkpt lat="43.74348" lon="5.61634">
        <ele>498.165</ele>
        <time>2021-04-23T17:57:10Z</time>
      </trkpt>
      <trkpt lat="43.74362" lon="5.61622">
        <ele>498.221</ele>
        <time>2021-04-23T17:57:30Z</time>
      </trkpt>
      <trkpt lat="43.74442" lon="5.6155">
        <ele>503.008</ele>
        <time>2021-04-23T17:57:50Z</time>
      </trkpt>
      <trkpt lat="43.7451" lon="5.61502">
        <ele>505.946</ele>
        <time>2021-04-23T17:58:10Z</time>
      </trkpt>
      <trkpt lat="43.74558" lon="5.61476">
        <ele>509.85</ele>
        <time>2021-04-23T17:58:30Z</time>
      </trkpt>
      <trkpt lat="43.7458" lon="5.61464">
        <ele>511.781</ele>
        <time>2021-04-23T17:58:50Z</time>
      </trkpt>
      <trkpt lat="43.74679" lon="5.6142">
        <ele>511.625</ele>
        <time>2021-04-23T17:59:10Z</time>
      </trkpt>
      <trkpt lat="43.74732" lon="5.61396">
        <ele>508.059</ele>
        <time>2021-04-23T17:59:30Z</time>
      </trkpt>
      <trkpt lat="43.74841" lon="5.61334">
        <ele>497.456</ele>
        <time>2021-04-23T17:59:50Z</time>
      </trkpt>
      <trkpt lat="43.74855" lon="5.61327">
        <ele>497.138</ele>
        <time>2021-04-23T18:00:10Z</time>
      </trkpt>
      <trkpt lat="43.7487" lon="5.61321">
        <ele>496.628</ele>
        <time>2021-04-23T18:00:30Z</time>
      </trkpt>
      <trkpt lat="43.74886" lon="5.61315">
        <ele>495.851</ele>
        <time>2021-04-23T18:00:50Z</time>
      </trkpt>
      <trkpt lat="43.74948" lon="5.61298">
        <ele>490.801</ele>
        <time>2021-04-23T18:01:10Z</time>
      </trkpt>
      <trkpt lat="43.74963" lon="5.61295">
        <ele>489.111</ele>
        <time>2021-04-23T18:01:30Z</time>
      </trkpt>
      <trkpt lat="43.74978" lon="5.61296">
        <ele>486.808</ele>
        <time>2021-04-23T18:01:50Z</time>
      </trkpt>
      <trkpt lat="43.74992" lon="5.613">
        <ele>484.112</ele>
        <time>2021-04-23T18:02:10Z</time>
      </trkpt>
      <trkpt lat="43.75007" lon="5.61308">
        <ele>480.796</ele>
        <time>2021-04-23T18:02:30Z</time>
      </trkpt>
      <trkpt lat="43.7502" lon="5.61319">
        <ele>476.997</ele>
        <time>2021-04-23T18:02:50Z</time>
      </trkpt>
      <trkpt lat="43.75031" lon="5.61333">
        <ele>473.861</ele>
        <time>2021-04-23T18:03:10Z</time>
      </trkpt>
      <trkpt lat="43.75041" lon="5.61349">
        <ele>471.865</ele>
        <time>2021-04-23T18:03:30Z</time>
      </trkpt>
      <trkpt lat="43.7505" lon="5.61365">
        <ele>469.882</ele>
        <time>2021-04-23T18:03:50Z</time>
      </trkpt>
      <trkpt lat="43.75056" lon="5.6138">
        <ele>468.034</ele>
        <time>2021-04-23T18:04:10Z</time>
      </trkpt>
      <trkpt lat="43.75065" lon="5.61406">
        <ele>465.124</ele>
        <time>2021-04-23T18:04:30Z</time>
      </trkpt>
      <trkpt lat="43.75071" lon="5.61414">
        <ele>464.532</ele>
        <time>2021-04-23T18:04:50Z</time>
      </trkpt>
      <trkpt lat="43.75077" lon="5.61417">
        <ele>464.792</ele>
        <time>2021-04-23T18:05:10Z</time>
      </trkpt>
      <trkpt lat="43.75085" lon="5.61415">
        <ele>465.711</ele>
        <time>2021-04-23T18:05:30Z</time>
      </trkpt>
      <trkpt lat="43.75092" lon="5.61408">
        <ele>467.408</ele>
        <time>2021-04-23T18:05:50Z</time>
      </trkpt>
      <trkpt lat="43.75097" lon="5.61397">
        <ele>469.64</ele>
        <time>2021-04-23T18:06:10Z</time>
      </trkpt>
      <trkpt lat="43.75102" lon="5.61383">
        <ele>471.854</ele>
        <time>2021-04-23T18:06:30Z</time>
      </trkpt>
      <trkpt lat="43.75105" lon="5.61367">
        <ele>474.195</ele>
        <time>2021-04-23T18:06:50Z</time>
      </trkpt>
      <trkpt lat="43.7511" lon="5.61309">
        <ele>481.539</ele>
        <time>2021-04-23T18:07:10Z</time>
      </trkpt>
      <trkpt lat="43.75114" lon="5.61206">
        <ele>490.083</ele>
        <time>2021-04-23T18:07:30Z</time>
      </trkpt>
      <trkpt lat="43.75116" lon="5.61185">
        <ele>490.63</ele>
        <time>2021-04-23T18:07:50Z</time>
      </trkpt>
      <trkpt lat="43.7512" lon="5.61165">
        <ele>490.822</ele>
        <time>2021-04-23T18:08:10Z</time>
      </trkpt>
      <trkpt lat="43.75126" lon="5.61144">
        <ele>490.372</ele>
        <time>2021-04-23T18:08:30Z</time>
      </trkpt>
      <trkpt lat="43.75138" lon="5.61104">
        <ele>487.521</ele>
        <time>2021-04-23T18:08:50Z</time>
      </trkpt>
      <trkpt lat="43.7515" lon="5.61062">
        <ele>485.041</ele>
        <time>2021-04-23T18:09:10Z</time>
      </trkpt>
      <trkpt lat="43.75165" lon="5.60997">
        <ele>481.805</ele>
        <time>2021-04-23T18:09:30Z</time>
      </trkpt>
      <trkpt lat="43.75171" lon="5.60976">
        <ele>480.408</ele>
        <time>2021-04-23T18:09:50Z</time>
      </trkpt>
      <trkpt lat="43.75179" lon="5.60956">
        <ele>478.769</ele>
        <time>2021-04-23T18:10:10Z</time>
      </trkpt>
      <trkpt lat="43.75197" lon="5.60918">
        <ele>474.323</ele>
        <time>2021-04-23T18:10:30Z</time>
      </trkpt>
      <trkpt lat="43.75229" lon="5.60841">
        <ele>466.634</ele>
        <time>2021-04-23T18:10:50Z</time>
      </trkpt>
      <trkpt lat="43.75238" lon="5.60827">
        <ele>464.978</ele>
        <time>2021-04-23T18:11:10Z</time>
      </trkpt>
      <trkpt lat="43.75248" lon="5.60815">
        <ele>462.782</ele>
        <time>2021-04-23T18:11:30Z</time>
      </trkpt>
      <trkpt lat="43.75261" lon="5.60807">
        <ele>460.059</ele>
        <time>2021-04-23T18:11:50Z</time>
      </trkpt>
      <trkpt lat="43.75273" lon="5.60801">
        <ele>457.371</ele>
        <time>2021-04-23T18:12:10Z</time>
      </trkpt>
      <trkpt lat="43.75315" lon="5.60789">
        <ele>448.051</ele>
        <time>2021-04-23T18:12:30Z</time>
      </trkpt>
      <trkpt lat="43.75329" lon="5.60783">
        <ele>445.572</ele>
        <time>2021-04-23T18:12:50Z</time>
      </trkpt>
      <trkpt lat="43.75341" lon="5.60774">
        <ele>444.113</ele>
        <time>2021-04-23T18:13:10Z</time>
      </trkpt>
      <trkpt lat="43.75353" lon="5.60763">
        <ele>442.814</ele>
        <time>2021-04-23T18:13:30Z</time>
      </trkpt>
      <trkpt lat="43.75362" lon="5.6075">
        <ele>441.908</ele>
        <time>2021-04-23T18:13:50Z</time>
      </trkpt>
      <trkpt lat="43.75372" lon="5.60737">
        <ele>441.274</ele>
        <time>2021-04-23T18:14:10Z</time>
      </trkpt>
      <trkpt lat="43.75381" lon="5.60725">
        <ele>440.358</ele>
        <time>2021-04-23T18:14:30Z</time>
      </trkpt>
      <trkpt lat="43.75391" lon="5.60716">
        <ele>439.249</ele>
        <time>2021-04-23T18:14:50Z</time>
      </trkpt>
      <trkpt lat="43.75403" lon="5.6071">
        <ele>438.083</ele>
        <time>2021-04-23T18:15:10Z</time>
      </trkpt>
      <trkpt lat="43.75414" lon="5.60705">
        <ele>436.677</ele>
        <time>2021-04-23T18:15:30Z</time>
      </trkpt>
      <trkpt lat="43.75427" lon="5.60704">
        <ele>434.794</ele>
        <time>2021-04-23T18:15:50Z</time>
      </trkpt>
      <trkpt lat="43.75441" lon="5.60705">
        <ele>432.546</ele>
        <time>2021-04-23T18:16:10Z</time>
      </trkpt>
      <trkpt lat="43.75454" lon="5.60709">
        <ele>430.296</ele>
        <time>2021-04-23T18:16:30Z</time>
      </trkpt>
      <trkpt lat="43.75481" lon="5.60719">
        <ele>425.662</ele>
        <time>2021-04-23T18:16:50Z</time>
      </trkpt>
      <trkpt lat="43.75495" lon="5.60723">
        <ele>423.583</ele>
        <time>2021-04-23T18:17:10Z</time>
      </trkpt>
      <trkpt lat="43.75508" lon="5.60725">
        <ele>421.511</ele>
        <time>2021-04-23T18:17:30Z</time>
      </trkpt>
      <trkpt lat="43.7552" lon="5.60724">
        <ele>419.708</ele>
        <time>2021-04-23T18:17:50Z</time>
      </trkpt>
      <trkpt lat="43.75532" lon="5.60722">
        <ele>418.443</ele>
        <time>2021-04-23T18:18:10Z</time>
      </trkpt>
      <trkpt lat="43.75544" lon="5.60716">
        <ele>417.347</ele>
        <time>2021-04-23T18:18:30Z</time>
      </trkpt>
      <trkpt lat="43.75556" lon="5.60708">
        <ele>416.528</ele>
        <time>2021-04-23T18:18:50Z</time>
      </trkpt>
      <trkpt lat="43.75567" lon="5.60698">
        <ele>415.732</ele>
        <time>2021-04-23T18:19:10Z</time>
      </trkpt>
      <trkpt lat="43.75578" lon="5.60685">
        <ele>415.136</ele>
        <time>2021-04-23T18:19:30Z</time>
      </trkpt>
      <trkpt lat="43.75583" lon="5.60675">
        <ele>414.983</ele>
        <time>2021-04-23T18:19:50Z</time>
      </trkpt>
      <trkpt lat="43.75588" lon="5.6068">
        <ele>414.385</ele>
        <time>2021-04-23T18:20:10Z</time>
      </trkpt>
      <trkpt lat="43.75583" lon="5.60675">
        <ele>414.975</ele>
        <time>2021-04-23T18:20:30Z</time>
      </trkpt>
      <trkpt lat="43.75586" lon="5.60669">
        <ele>414.793</ele>
        <time>2021-04-23T18:20:50Z</time>
      </trkpt>
      <trkpt lat="43.75594" lon="5.60651">
        <ele>414.565</ele>
        <time>2021-04-23T18:21:10Z</time>
      </trkpt>
      <trkpt lat="43.75597" lon="5.60639">
        <ele>414.521</ele>
        <time>2021-04-23T18:21:30Z</time>
      </trkpt>
      <trkpt lat="43.75644" lon="5.60667">
        <ele>409.108</ele>
        <time>2021-04-23T18:21:50Z</time>
      </trkpt>
      <trkpt lat="43.75654" lon="5.60663">
        <ele>408.396</ele>
        <time>2021-04-23T18:22:10Z</time>
      </trkpt>
      <trkpt lat="43.7568" lon="5.60607">
        <ele>407.93</ele>
        <time>2021-04-23T18:22:30Z</time>
      </trkpt>
      <trkpt lat="43.75774" lon="5.60602">
        <ele>401.471</ele>
        <time>2021-04-23T18:22:50Z</time>
      </trkpt>
      <trkpt lat="43.75835" lon="5.6058">
        <ele>398.135</ele>
        <time>2021-04-23T18:23:10Z</time>
      </trkpt>
      <trkpt lat="43.75869" lon="5.60583">
        <ele>394.759</ele>
        <time>2021-04-23T18:23:30Z</time>
      </trkpt>
      <trkpt lat="43.75874" lon="5.60568">
        <ele>394.476</ele>
        <time>2021-04-23T18:23:50Z</time>
      </trkpt>
      <trkpt lat="43.75871" lon="5.60502">
        <ele>395.768</ele>
        <time>2021-04-23T18:24:10Z</time>
      </trkpt>
      <trkpt lat="43.75898" lon="5.60428">
        <ele>393.178</ele>
        <time>2021-04-23T18:24:30Z</time>
      </trkpt>
      <trkpt lat="43.75968" lon="5.60402">
        <ele>386.495</ele>
        <time>2021-04-23T18:24:50Z</time>
      </trkpt>
      <trkpt lat="43.75968" lon="5.6041">
        <ele>386.549</ele>
        <time>2021-04-23T18:25:10Z</time>
      </trkpt>
      <trkpt lat="43.75975" lon="5.6041">
        <ele>386.023</ele>
        <time>2021-04-23T18:25:30Z</time>
      </trkpt>
      <trkpt lat="43.75968" lon="5.6041">
        <ele>386.508</ele>
        <time>2021-04-23T18:25:50Z</time>
      </trkpt>
      <trkpt lat="43.75969" lon="5.60424">
        <ele>386.646</ele>
        <time>2021-04-23T18:26:10Z</time>
      </trkpt>
      <trkpt lat="43.75974" lon="5.60451">
        <ele>386.39</ele>
        <time>2021-04-23T18:26:30Z</time>
      </trkpt>
      <trkpt lat="43.75998" lon="5.60509">
        <ele>383.731</ele>
        <time>2021-04-23T18:26:50Z</time>
      </trkpt>
      <trkpt lat="43.76052" lon="5.60641">
        <ele>381.895</ele>
        <time>2021-04-23T18:27:10Z</time>
      </trkpt>
      <trkpt lat="43.76086" lon="5.60698">
        <ele>382.099</ele>
        <time>2021-04-23T18:27:30Z</time>
      </trkpt>
      <trkpt lat="43.76097" lon="5.60716">
        <ele>382.016</ele>
        <time>2021-04-23T18:27:50Z</time>
      </trkpt>
      <trkpt lat="43.76101" lon="5.60723">
        <ele>382.068</ele>
        <time>2021-04-23T18:28:10Z</time>
      </trkpt>
      <trkpt lat="43.76111" lon="5.60739">
        <ele>382.198</ele>
        <time>2021-04-23T18:28:30Z</time>
      </trkpt>
      <trkpt lat="43.76105" lon="5.60745">
        <ele>382.574</ele>
        <time>2021-04-23T18:28:50Z</time>
      </trkpt>
      <trkpt lat="43.76111" lon="5.60739">
        <ele>382.156</ele>
        <time>2021-04-23T18:29:10Z</time>
      </trkpt>
      <trkpt lat="43.76101" lon="5.60723">
        <ele>382.021</ele>
        <time>2021-04-23T18:29:30Z</time>
      </trkpt>
      <trkpt lat="43.76097" lon="5.60716">
        <ele>382.008</ele>
        <time>2021-04-23T18:29:50Z</time>
      </trkpt>
      <trkpt lat="43.76092" lon="5.60735">
        <ele>382.654</ele>
        <time>2021-04-23T18:30:10Z</time>
      </trkpt>
      <trkpt lat="43.76088" lon="5.60756">
        <ele>383.238</ele>
        <time>2021-04-23T18:30:30Z</time>
      </trkpt>
      <trkpt lat="43.76082" lon="5.60803">
        <ele>384.499</ele>
        <time>2021-04-23T18:30:50Z</time>
      </trkpt>
      <trkpt lat="43.76071" lon="5.60907">
        <ele>386.523</ele>
        <time>2021-04-23T18:31:10Z</time>
      </trkpt>
      <trkpt lat="43.76052" lon="5.61001">
        <ele>388.237</ele>
        <time>2021-04-23T18:31:30Z</time>
      </trkpt>
      <trkpt lat="43.76048" lon="5.61042">
        <ele>388.934</ele>
        <time>2021-04-23T18:31:50Z</time>
      </trkpt>
      <trkpt lat="43.76047" lon="5.61085">
        <ele>389.736</ele>
        <time>2021-04-23T18:32:10Z</time>
      </trkpt>
      <trkpt lat="43.76049" lon="5.6128">
        <ele>398.426</ele>
        <time>2021-04-23T18:32:30Z</time>
      </trkpt>
      <trkpt lat="43.76048" lon="5.61301">
        <ele>399.925</ele>
        <time>2021-04-23T18:32:50Z</time>
      </trkpt>
      <trkpt lat="43.76047" lon="5.61322">
        <ele>401.326</ele>
        <time>2021-04-23T18:33:10Z</time>
      </trkpt>
      <trkpt lat="43.76043" lon="5.61342">
        <ele>402.808</ele>
        <time>2021-04-23T18:33:30Z</time>
      </trkpt>
      <trkpt lat="43.76038" lon="5.61362">
        <ele>404.208</ele>
        <time>2021-04-23T18:33:50Z</time>
      </trkpt>
      <trkpt lat="43.76026" lon="5.61402">
        <ele>407.599</ele>
        <time>2021-04-23T18:34:10Z</time>
      </trkpt>
      <trkpt lat="43.76015" lon="5.61403">
        <ele>407.243</ele>
        <time>2021-04-23T18:34:30Z</time>
      </trkpt>
      <trkpt lat="43.75996" lon="5.61419">
        <ele>406.284</ele>
        <time>2021-04-23T18:34:50Z</time>
      </trkpt>
      <trkpt lat="43.75984" lon="5.6142">
        <ele>404.968</ele>
        <time>2021-04-23T18:35:10Z</time>
      </trkpt>
      <trkpt lat="43.75969" lon="5.61441">
        <ele>404.692</ele>
        <time>2021-04-23T18:35:30Z</time>
      </trkpt>
      <trkpt lat="43.75956" lon="5.61458">
        <ele>404.359</ele>
        <time>2021-04-23T18:35:50Z</time>
      </trkpt>
      <trkpt lat="43.75942" lon="5.61472">
        <ele>403.631</ele>
        <time>2021-04-23T18:36:10Z</time>
      </trkpt>
      <trkpt lat="43.75932" lon="5.61483">
        <ele>403.331</ele>
        <time>2021-04-23T18:36:30Z</time>
      </trkpt>
      <trkpt lat="43.75917" lon="5.61507">
        <ele>403.417</ele>
        <time>2021-04-23T18:36:50Z</time>
      </trkpt>
      <trkpt lat="43.75903" lon="5.61525">
        <ele>403.587</ele>
        <time>2021-04-23T18:37:10Z</time>
      </trkpt>
      <trkpt lat="43.75887" lon="5.61532">
        <ele>402.715</ele>
        <time>2021-04-23T18:37:30Z</time>
      </trkpt>
      <trkpt lat="43.75875" lon="5.61546">
        <ele>402.608</ele>
        <time>2021-04-23T18:37:50Z</time>
      </trkpt>
      <trkpt lat="43.75842" lon="5.61605">
        <ele>403.928</ele>
        <time>2021-04-23T18:38:10Z</time>
      </trkpt>
      <trkpt lat="43.7583" lon="5.61629">
        <ele>404.382</ele>
        <time>2021-04-23T18:38:30Z</time>
      </trkpt>
      <trkpt lat="43.7582" lon="5.61634">
        <ele>403.643</ele>
        <time>2021-04-23T18:38:50Z</time>
      </trkpt>
      <trkpt lat="43.75813" lon="5.61642">
        <ele>403.997</ele>
        <time>2021-04-23T18:39:10Z</time>
      </trkpt>
      <trkpt lat="43.75788" lon="5.61677">
        <ele>404.611</ele>
        <time>2021-04-23T18:39:30Z</time>
      </trkpt>
      <trkpt lat="43.75776" lon="5.61684">
        <ele>404.328</ele>
        <time>2021-04-23T18:39:50Z</time>
      </trkpt>
      <trkpt lat="43.75767" lon="5.6168">
        <ele>403.77</ele>
        <time>2021-04-23T18:40:10Z</time>
      </trkpt>
      <trkpt lat="43.75755" lon="5.61685">
        <ele>403.39</ele>
        <time>2021-04-23T18:40:30Z</time>
      </trkpt>
      <trkpt lat="43.7575" lon="5.61691">
        <ele>403.416</ele>
        <time>2021-04-23T18:40:50Z</time>
      </trkpt>
      <trkpt lat="43.75745" lon="5.61705">
        <ele>403.976</ele>
        <time>2021-04-23T18:41:10Z</time>
      </trkpt>
      <trkpt lat="43.75752" lon="5.6171">
        <ele>404.513</ele>
        <time>2021-04-23T18:41:30Z</time>
      </trkpt>
      <trkpt lat="43.75745" lon="5.61705">
        <ele>403.908</ele>
        <time>2021-04-23T18:41:50Z</time>
      </trkpt>
      <trkpt lat="43.75734" lon="5.6173">
        <ele>404.918</ele>
        <time>2021-04-23T18:42:10Z</time>
      </trkpt>
      <trkpt lat="43.75734" lon="5.6175">
        <ele>406.072</ele>
        <time>2021-04-23T18:42:30Z</time>
      </trkpt>
      <trkpt lat="43.75737" lon="5.6178">
        <ele>407.873</ele>
        <time>2021-04-23T18:42:50Z</time>
      </trkpt>
      <trkpt lat="43.7574" lon="5.618">
        <ele>409.147</ele>
        <time>2021-04-23T18:43:10Z</time>
      </trkpt>
      <trkpt lat="43.75753" lon="5.6181">
        <ele>409.951</ele>
        <time>2021-04-23T18:43:30Z</time>
      </trkpt>
      <trkpt lat="43.7577" lon="5.61831">
        <ele>411.328</ele>
        <time>2021-04-23T18:43:50Z</time>
      </trkpt>
      <trkpt lat="43.75777" lon="5.61833">
        <ele>411.64</ele>
        <time>2021-04-23T18:44:10Z</time>
      </trkpt>
      <trkpt lat="43.75794" lon="5.61832">
        <ele>412.08</ele>
        <time>2021-04-23T18:44:30Z</time>
      </trkpt>
      <trkpt lat="43.75808" lon="5.61835">
        <ele>412.586</ele>
        <time>2021-04-23T18:44:50Z</time>
      </trkpt>
      <trkpt lat="43.75822" lon="5.61848">
        <ele>414.06</ele>
        <time>2021-04-23T18:45:10Z</time>
      </trkpt>
      <trkpt lat="43.75839" lon="5.61871">
        <ele>417.226</ele>
        <time>2021-04-23T18:45:30Z</time>
      </trkpt>
      <trkpt lat="43.75845" lon="5.61887">
        <ele>418.908</ele>
        <time>2021-04-23T18:45:50Z</time>
      </trkpt>
      <trkpt lat="43.75848" lon="5.61914">
        <ele>420.935</ele>
        <time>2021-04-23T18:46:10Z</time>
      </trkpt>
      <trkpt lat="43.75846" lon="5.61961">
        <ele>423.649</ele>
        <time>2021-04-23T18:46:30Z</time>
      </trkpt>
      <trkpt lat="43.75848" lon="5.61988">
        <ele>424.82</ele>
        <time>2021-04-23T18:46:50Z</time>
      </trkpt>
      <trkpt lat="43.75849" lon="5.62002">
        <ele>425.674</ele>
        <time>2021-04-23T18:47:10Z</time>
      </trkpt>
      <trkpt lat="43.7583" lon="5.62087">
        <ele>427.248</ele>
        <time>2021-04-23T18:47:30Z</time>
      </trkpt>
      <trkpt lat="43.75815" lon="5.62164">
        <ele>428.075</ele>
        <time>2021-04-23T18:47:50Z</time>
      </trkpt>
      <trkpt lat="43.7581" lon="5.622">
        <ele>428.837</ele>
        <time>2021-04-23T18:48:10Z</time>
      </trkpt>
      <trkpt lat="43.75823" lon="5.62204">
        <ele>429.847</ele>
        <time>2021-04-23T18:48:30Z</time>
      </trkpt>
      <trkpt lat="43.7581" lon="5.622">
        <ele>428.838</ele>
        <time>2021-04-23T18:48:50Z</time>
      </trkpt>
      <trkpt lat="43.75798" lon="5.6228">
        <ele>432.67</ele>
        <time>2021-04-23T18:49:10Z</time>
      </trkpt>
      <trkpt lat="43.7579" lon="5.62323">
        <ele>435.117</ele>
        <time>2021-04-23T18:49:30Z</time>
      </trkpt>
      <trkpt lat="43.75785" lon="5.62359">
        <ele>437.108</ele>
        <time>2021-04-23T18:49:50Z</time>
      </trkpt>
      <trkpt lat="43.75777" lon="5.62398">
        <ele>436.78</ele>
        <time>2021-04-23T18:50:10Z</time>
      </trkpt>
      <trkpt lat="43.75759" lon="5.62479">
        <ele>435.344</ele>
        <time>2021-04-23T18:50:30Z</time>
      </trkpt>
      <trkpt lat="43.75734" lon="5.62585">
        <ele>437.275</ele>
        <time>2021-04-23T18:50:50Z</time>
      </trkpt>
      <trkpt lat="43.75726" lon="5.62603">
        <ele>437.089</ele>
        <time>2021-04-23T18:51:10Z</time>
      </trkpt>
      <trkpt lat="43.75708" lon="5.62649">
        <ele>437.163</ele>
        <time>2021-04-23T18:51:30Z</time>
      </trkpt>
      <trkpt lat="43.75703" lon="5.62665">
        <ele>437.41</ele>
        <time>2021-04-23T18:51:50Z</time>
      </trkpt>
      <trkpt lat="43.757" lon="5.62682">
        <ele>437.792</ele>
        <time>2021-04-23T18:52:10Z</time>
      </trkpt>
      <trkpt lat="43.75698" lon="5.627">
        <ele>438.162</ele>
        <time>2021-04-23T18:52:30Z</time>
      </trkpt>
      <trkpt lat="43.75697" lon="5.62736">
        <ele>439.197</ele>
        <time>2021-04-23T18:52:50Z</time>
      </trkpt>
      <trkpt lat="43.75695" lon="5.62754">
        <ele>439.523</ele>
        <time>2021-04-23T18:53:10Z</time>
      </trkpt>
      <trkpt lat="43.75689" lon="5.62787">
        <ele>440.125</ele>
        <time>2021-04-23T18:53:30Z</time>
      </trkpt>
      <trkpt lat="43.7568" lon="5.62817">
        <ele>440.308</ele>
        <time>2021-04-23T18:53:50Z</time>
      </trkpt>
      <trkpt lat="43.75675" lon="5.62829">
        <ele>440.316</ele>
        <time>2021-04-23T18:54:10Z</time>
      </trkpt>
      <trkpt lat="43.75669" lon="5.62839">
        <ele>440.23</ele>
        <time>2021-04-23T18:54:30Z</time>
      </trkpt>
      <trkpt lat="43.75664" lon="5.62848">
        <ele>440.161</ele>
        <time>2021-04-23T18:54:50Z</time>
      </trkpt>
      <trkpt lat="43.7566" lon="5.62858">
        <ele>440.025</ele>
        <time>2021-04-23T18:55:10Z</time>
      </trkpt>
      <trkpt lat="43.75658" lon="5.62869">
        <ele>440.159</ele>
        <time>2021-04-23T18:55:30Z</time>
      </trkpt>
      <trkpt lat="43.75659" lon="5.6288">
        <ele>440.436</ele>
        <time>2021-04-23T18:55:50Z</time>
      </trkpt>
      <trkpt lat="43.75665" lon="5.62904">
        <ele>441.378</ele>
        <time>2021-04-23T18:56:10Z</time>
      </trkpt>
      <trkpt lat="43.75667" lon="5.62918">
        <ele>442.178</ele>
        <time>2021-04-23T18:56:30Z</time>
      </trkpt>
      <trkpt lat="43.75669" lon="5.62964">
        <ele>446.255</ele>
        <time>2021-04-23T18:56:50Z</time>
      </trkpt>
      <trkpt lat="43.75668" lon="5.63001">
        <ele>449.407</ele>
        <time>2021-04-23T18:57:10Z</time>
      </trkpt>
      <trkpt lat="43.7567" lon="5.6301">
        <ele>450.317</ele>
        <time>2021-04-23T18:57:30Z</time>
      </trkpt>
      <trkpt lat="43.75673" lon="5.63018">
        <ele>451.008</ele>
        <time>2021-04-23T18:57:50Z</time>
      </trkpt>
      <trkpt lat="43.75679" lon="5.63023">
        <ele>451.432</ele>
        <time>2021-04-23T18:58:10Z</time>
      </trkpt>
      <trkpt lat="43.75687" lon="5.63027">
        <ele>451.766</ele>
        <time>2021-04-23T18:58:30Z</time>
      </trkpt>
      <trkpt lat="43.75695" lon="5.63029">
        <ele>451.957</ele>
        <time>2021-04-23T18:58:50Z</time>
      </trkpt>
      <trkpt lat="43.75711" lon="5.6303">
        <ele>451.981</ele>
        <time>2021-04-23T18:59:10Z</time>
      </trkpt>
      <trkpt lat="43.75719" lon="5.63032">
        <ele>452.045</ele>
        <time>2021-04-23T18:59:30Z</time>
      </trkpt>
      <trkpt lat="43.75725" lon="5.63036">
        <ele>452.382</ele>
        <time>2021-04-23T18:59:50Z</time>
      </trkpt>
      <trkpt lat="43.75729" lon="5.63042">
        <ele>452.864</ele>
        <time>2021-04-23T19:00:10Z</time>
      </trkpt>
      <trkpt lat="43.7573" lon="5.63051">
        <ele>453.274</ele>
        <time>2021-04-23T19:00:30Z</time>
      </trkpt>
      <trkpt lat="43.75729" lon="5.63101">
        <ele>454.949</ele>
        <time>2021-04-23T19:00:50Z</time>
      </trkpt>
      <trkpt lat="43.7573" lon="5.6319">
        <ele>458.102</ele>
        <time>2021-04-23T19:01:10Z</time>
      </trkpt>
      <trkpt lat="43.75732" lon="5.632">
        <ele>459.022</ele>
        <time>2021-04-23T19:01:30Z</time>
      </trkpt>
      <trkpt lat="43.75735" lon="5.63209">
        <ele>459.908</ele>
        <time>2021-04-23T19:01:50Z</time>
      </trkpt>
      <trkpt lat="43.7574" lon="5.63216">
        <ele>460.851</ele>
        <time>2021-04-23T19:02:10Z</time>
      </trkpt>
      <trkpt lat="43.75747" lon="5.6322">
        <ele>461.555</ele>
        <time>2021-04-23T19:02:30Z</time>
      </trkpt>
      <trkpt lat="43.75756" lon="5.63221">
        <ele>461.926</ele>
        <time>2021-04-23T19:02:50Z</time>
      </trkpt>
      <trkpt lat="43.75792" lon="5.63212">
        <ele>462.69</ele>
        <time>2021-04-23T19:03:10Z</time>
      </trkpt>
      <trkpt lat="43.75799" lon="5.63211">
        <ele>462.994</ele>
        <time>2021-04-23T19:03:30Z</time>
      </trkpt>
      <trkpt lat="43.75806" lon="5.63213">
        <ele>463.491</ele>
        <time>2021-04-23T19:03:50Z</time>
      </trkpt>
      <trkpt lat="43.75811" lon="5.63217">
        <ele>464.173</ele>
        <time>2021-04-23T19:04:10Z</time>
      </trkpt>
      <trkpt lat="43.75815" lon="5.63225">
        <ele>465.193</ele>
        <time>2021-04-23T19:04:30Z</time>
      </trkpt>
      <trkpt lat="43.75816" lon="5.63233">
        <ele>466.082</ele>
        <time>2021-04-23T19:04:50Z</time>
      </trkpt>
      <trkpt lat="43.75815" lon="5.63243">
        <ele>467.143</ele>
        <time>2021-04-23T19:05:10Z</time>
      </trkpt>
      <trkpt lat="43.75815" lon="5.63254">
        <ele>468.217</ele>
        <time>2021-04-23T19:05:30Z</time>
      </trkpt>
      <trkpt lat="43.75818" lon="5.63275">
        <ele>470.708</ele>
        <time>2021-04-23T19:05:50Z</time>
      </trkpt>
      <trkpt lat="43.75818" lon="5.63284">
        <ele>471.725</ele>
        <time>2021-04-23T19:06:10Z</time>
      </trkpt>
      <trkpt lat="43.75817" lon="5.63293">
        <ele>472.539</ele>
        <time>2021-04-23T19:06:30Z</time>
      </trkpt>
      <trkpt lat="43.75813" lon="5.63299">
        <ele>473.09</ele>
        <time>2021-04-23T19:06:50Z</time>
      </trkpt>
      <trkpt lat="43.75807" lon="5.63303">
        <ele>472.924</ele>
        <time>2021-04-23T19:07:10Z</time>
      </trkpt>
      <trkpt lat="43.75782" lon="5.63309">
        <ele>471.878</ele>
        <time>2021-04-23T19:07:30Z</time>
      </trkpt>
      <trkpt lat="43.75773" lon="5.63312">
        <ele>471.485</ele>
        <time>2021-04-23T19:07:50Z</time>
      </trkpt>
      <trkpt lat="43.75754" lon="5.63321">
        <ele>470.957</ele>
        <time>2021-04-23T19:08:10Z</time>
      </trkpt>
      <trkpt lat="43.75735" lon="5.63333">
        <ele>470.797</ele>
        <time>2021-04-23T19:08:30Z</time>
      </trkpt>
      <trkpt lat="43.75726" lon="5.6334">
        <ele>470.868</ele>
        <time>2021-04-23T19:08:50Z</time>
      </trkpt>
      <trkpt lat="43.75718" lon="5.63349">
        <ele>471.142</ele>
        <time>2021-04-23T19:09:10Z</time>
      </trkpt>
      <trkpt lat="43.75695" lon="5.63382">
        <ele>472.626</ele>
        <time>2021-04-23T19:09:30Z</time>
      </trkpt>
      <trkpt lat="43.7566" lon="5.63443">
        <ele>474.308</ele>
        <time>2021-04-23T19:09:50Z</time>
      </trkpt>
      <trkpt lat="43.75641" lon="5.63479">
        <ele>476.063</ele>
        <time>2021-04-23T19:10:10Z</time>
      </trkpt>
      <trkpt lat="43.75636" lon="5.63492">
        <ele>477.187</ele>
        <time>2021-04-23T19:10:30Z</time>
      </trkpt>
      <trkpt lat="43.75628" lon="5.63518">
        <ele>480.178</ele>
        <time>2021-04-23T19:10:50Z</time>
      </trkpt>
      <trkpt lat="43.75619" lon="5.63544">
        <ele>483.212</ele>
        <time>2021-04-23T19:11:10Z</time>
      </trkpt>
      <trkpt lat="43.75614" lon="5.63554">
        <ele>484.246</ele>
        <time>2021-04-23T19:11:30Z</time>
      </trkpt>
      <trkpt lat="43.75622" lon="5.6356">
        <ele>485.723</ele>
        <time>2021-04-23T19:11:50Z</time>
      </trkpt>
      <trkpt lat="43.75614" lon="5.63554">
        <ele>484.295</ele>
        <time>2021-04-23T19:12:10Z</time>
      </trkpt>
      <trkpt lat="43.75607" lon="5.6357">
        <ele>485.865</ele>
        <time>2021-04-23T19:12:30Z</time>
      </trkpt>
      <trkpt lat="43.75559" lon="5.63664">
        <ele>491.247</ele>
        <time>2021-04-23T19:12:50Z</time>
      </trkpt>
      <trkpt lat="43.75548" lon="5.6369">
        <ele>492.629</ele>
        <time>2021-04-23T19:13:10Z</time>
      </trkpt>
      <trkpt lat="43.75541" lon="5.63712">
        <ele>494.121</ele>
        <time>2021-04-23T19:13:30Z</time>
      </trkpt>
      <trkpt lat="43.7554" lon="5.63718">
        <ele>494.708</ele>
        <time>2021-04-23T19:13:50Z</time>
      </trkpt>
      <trkpt lat="43.75542" lon="5.63722">
        <ele>495.571</ele>
        <time>2021-04-23T19:14:10Z</time>
      </trkpt>
      <trkpt lat="43.75546" lon="5.63724">
        <ele>496.325</ele>
        <time>2021-04-23T19:14:30Z</time>
      </trkpt>
      <trkpt lat="43.75551" lon="5.63722">
        <ele>496.996</ele>
        <time>2021-04-23T19:14:50Z</time>
      </trkpt>
      <trkpt lat="43.75568" lon="5.63712">
        <ele>498.55</ele>
        <time>2021-04-23T19:15:10Z</time>
      </trkpt>
      <trkpt lat="43.75575" lon="5.63711">
        <ele>499.494</ele>
        <time>2021-04-23T19:15:30Z</time>
      </trkpt>
      <trkpt lat="43.75582" lon="5.63712">
        <ele>500.871</ele>
        <time>2021-04-23T19:15:50Z</time>
      </trkpt>
      <trkpt lat="43.75589" lon="5.63716">
        <ele>502.313</ele>
        <time>2021-04-23T19:16:10Z</time>
      </trkpt>
      <trkpt lat="43.75594" lon="5.63722">
        <ele>504.093</ele>
        <time>2021-04-23T19:16:30Z</time>
      </trkpt>
      <trkpt lat="43.75605" lon="5.63738">
        <ele>507.766</ele>
        <time>2021-04-23T19:16:50Z</time>
      </trkpt>
      <trkpt lat="43.75618" lon="5.6376">
        <ele>511.229</ele>
        <time>2021-04-23T19:17:10Z</time>
      </trkpt>
      <trkpt lat="43.75621" lon="5.63766">
        <ele>512.021</ele>
        <time>2021-04-23T19:17:30Z</time>
      </trkpt>
      <trkpt lat="43.75622" lon="5.63772">
        <ele>512.508</ele>
        <time>2021-04-23T19:17:50Z</time>
      </trkpt>
      <trkpt lat="43.75621" lon="5.63779">
        <ele>512.713</ele>
        <time>2021-04-23T19:18:10Z</time>
      </trkpt>
      <trkpt lat="43.75619" lon="5.63786">
        <ele>512.947</ele>
        <time>2021-04-23T19:18:30Z</time>
      </trkpt>
      <trkpt lat="43.75616" lon="5.63792">
        <ele>512.818</ele>
        <time>2021-04-23T19:18:50Z</time>
      </trkpt>
      <trkpt lat="43.75599" lon="5.6381">
        <ele>511.852</ele>
        <time>2021-04-23T19:19:10Z</time>
      </trkpt>
      <trkpt lat="43.75595" lon="5.63817">
        <ele>511.866</ele>
        <time>2021-04-23T19:19:30Z</time>
      </trkpt>
      <trkpt lat="43.75586" lon="5.63836">
        <ele>512.243</ele>
        <time>2021-04-23T19:19:50Z</time>
      </trkpt>
      <trkpt lat="43.75583" lon="5.63845">
        <ele>512.795</ele>
        <time>2021-04-23T19:20:10Z</time>
      </trkpt>
      <trkpt lat="43.75581" lon="5.63856">
        <ele>513.355</ele>
        <time>2021-04-23T19:20:30Z</time>
      </trkpt>
      <trkpt lat="43.75581" lon="5.63865">
        <ele>514.195</ele>
        <time>2021-04-23T19:20:50Z</time>
      </trkpt>
      <trkpt lat="43.75583" lon="5.63873">
        <ele>514.949</ele>
        <time>2021-04-23T19:21:10Z</time>
      </trkpt>
      <trkpt lat="43.75586" lon="5.6388">
        <ele>515.423</ele>
        <time>2021-04-23T19:21:30Z</time>
      </trkpt>
      <trkpt lat="43.75591" lon="5.63886">
        <ele>515.808</ele>
        <time>2021-04-23T19:21:50Z</time>
      </trkpt>
      <trkpt lat="43.75612" lon="5.63906">
        <ele>517.246</ele>
        <time>2021-04-23T19:22:10Z</time>
      </trkpt>
      <trkpt lat="43.75648" lon="5.63945">
        <ele>516.93</ele>
        <time>2021-04-23T19:22:30Z</time>
      </trkpt>
      <trkpt lat="43.75722" lon="5.64014">
        <ele>514.651</ele>
        <time>2021-04-23T19:22:50Z</time>
      </trkpt>
      <trkpt lat="43.75745" lon="5.64032">
        <ele>514.175</ele>
        <time>2021-04-23T19:23:10Z</time>
      </trkpt>
      <trkpt lat="43.75752" lon="5.64036">
        <ele>513.979</ele>
        <time>2021-04-23T19:23:30Z</time>
      </trkpt>
      <trkpt lat="43.75761" lon="5.6404">
        <ele>513.826</ele>
        <time>2021-04-23T19:23:50Z</time>
      </trkpt>
      <trkpt lat="43.7577" lon="5.64043">
        <ele>513.778</ele>
        <time>2021-04-23T19:24:10Z</time>
      </trkpt>
      <trkpt lat="43.75807" lon="5.64053">
        <ele>513.358</ele>
        <time>2021-04-23T19:24:30Z</time>
      </trkpt>
      <trkpt lat="43.75859" lon="5.64068">
        <ele>510.712</ele>
        <time>2021-04-23T19:24:50Z</time>
      </trkpt>
      <trkpt lat="43.75882" lon="5.64074">
        <ele>509.432</ele>
        <time>2021-04-23T19:25:10Z</time>
      </trkpt>
      <trkpt lat="43.75881" lon="5.64085">
        <ele>508.805</ele>
        <time>2021-04-23T19:25:30Z</time>
      </trkpt>
      <trkpt lat="43.75875" lon="5.64107">
        <ele>507.608</ele>
        <time>2021-04-23T19:25:50Z</time>
      </trkpt>
      <trkpt lat="43.75819" lon="5.64253">
        <ele>504.898</ele>
        <time>2021-04-23T19:26:10Z</time>
      </trkpt>
      <trkpt lat="43.75664" lon="5.64536">
        <ele>491.322</ele>
        <time>2021-04-23T19:26:30Z</time>
      </trkpt>
      <trkpt lat="43.75654" lon="5.64559">
        <ele>490.623</ele>
        <time>2021-04-23T19:26:50Z</time>
      </trkpt>
      <trkpt lat="43.75647" lon="5.64565">
        <ele>490.337</ele>
        <time>2021-04-23T19:27:10Z</time>
      </trkpt>
      <trkpt lat="43.75616" lon="5.64582">
        <ele>489.791</ele>
        <time>2021-04-23T19:27:30Z</time>
      </trkpt>
      <trkpt lat="43.75615" lon="5.64602">
        <ele>488.358</ele>
        <time>2021-04-23T19:27:50Z</time>
      </trkpt>
      <trkpt lat="43.75617" lon="5.64646">
        <ele>485.14</ele>
        <time>2021-04-23T19:28:10Z</time>
      </trkpt>
      <trkpt lat="43.75617" lon="5.64666">
        <ele>483.64</ele>
        <time>2021-04-23T19:28:30Z</time>
      </trkpt>
      <trkpt lat="43.75612" lon="5.64679">
        <ele>483.018</ele>
        <time>2021-04-23T19:28:50Z</time>
      </trkpt>
      <trkpt lat="43.75599" lon="5.64695">
        <ele>482.598</ele>
        <time>2021-04-23T19:29:10Z</time>
      </trkpt>
      <trkpt lat="43.75549" lon="5.64762">
        <ele>481.817</ele>
        <time>2021-04-23T19:29:30Z</time>
      </trkpt>
      <trkpt lat="43.75512" lon="5.64809">
        <ele>483.608</ele>
        <time>2021-04-23T19:29:50Z</time>
      </trkpt>
      <trkpt lat="43.75499" lon="5.64806">
        <ele>486.138</ele>
        <time>2021-04-23T19:30:10Z</time>
      </trkpt>
      <trkpt lat="43.75489" lon="5.64803">
        <ele>487.932</ele>
        <time>2021-04-23T19:30:30Z</time>
      </trkpt>
      <trkpt lat="43.75467" lon="5.64803">
        <ele>491.823</ele>
        <time>2021-04-23T19:30:50Z</time>
      </trkpt>
      <trkpt lat="43.75443" lon="5.64804">
        <ele>495.837</ele>
        <time>2021-04-23T19:31:10Z</time>
      </trkpt>
      <trkpt lat="43.75436" lon="5.64806">
        <ele>496.861</ele>
        <time>2021-04-23T19:31:30Z</time>
      </trkpt>
      <trkpt lat="43.75431" lon="5.64812">
        <ele>497.048</ele>
        <time>2021-04-23T19:31:50Z</time>
      </trkpt>
      <trkpt lat="43.75429" lon="5.6482">
        <ele>496.41</ele>
        <time>2021-04-23T19:32:10Z</time>
      </trkpt>
      <trkpt lat="43.75431" lon="5.64844">
        <ele>493.45</ele>
        <time>2021-04-23T19:32:30Z</time>
      </trkpt>
      <trkpt lat="43.75432" lon="5.64853">
        <ele>492.589</ele>
        <time>2021-04-23T19:32:50Z</time>
      </trkpt>
      <trkpt lat="43.75427" lon="5.64873">
        <ele>491.306</ele>
        <time>2021-04-23T19:33:10Z</time>
      </trkpt>
      <trkpt lat="43.75423" lon="5.64892">
        <ele>489.726</ele>
        <time>2021-04-23T19:33:30Z</time>
      </trkpt>
      <trkpt lat="43.7542" lon="5.64903">
        <ele>489.308</ele>
        <time>2021-04-23T19:33:50Z</time>
      </trkpt>
      <trkpt lat="43.75426" lon="5.64908">
        <ele>488.025</ele>
        <time>2021-04-23T19:34:10Z</time>
      </trkpt>
      <trkpt lat="43.7542" lon="5.64903">
        <ele>489.389</ele>
        <time>2021-04-23T19:34:30Z</time>
      </trkpt>
      <trkpt lat="43.75418" lon="5.64906">
        <ele>489.28</ele>
        <time>2021-04-23T19:34:50Z</time>
      </trkpt>
      <trkpt lat="43.75415" lon="5.64925">
        <ele>487.914</ele>
        <time>2021-04-23T19:35:10Z</time>
      </trkpt>
      <trkpt lat="43.75408" lon="5.64943">
        <ele>487.478</ele>
        <time>2021-04-23T19:35:30Z</time>
      </trkpt>
      <trkpt lat="43.75399" lon="5.64968">
        <ele>486.335</ele>
        <time>2021-04-23T19:35:50Z</time>
      </trkpt>
      <trkpt lat="43.75391" lon="5.6498">
        <ele>487.287</ele>
        <time>2021-04-23T19:36:10Z</time>
      </trkpt>
      <trkpt lat="43.75381" lon="5.64997">
        <ele>488.327</ele>
        <time>2021-04-23T19:36:30Z</time>
      </trkpt>
      <trkpt lat="43.75372" lon="5.65007">
        <ele>489.177</ele>
        <time>2021-04-23T19:36:50Z</time>
      </trkpt>
      <trkpt lat="43.75365" lon="5.65015">
        <ele>489.761</ele>
        <time>2021-04-23T19:37:10Z</time>
      </trkpt>
      <trkpt lat="43.75354" lon="5.65023">
        <ele>490.527</ele>
        <time>2021-04-23T19:37:30Z</time>
      </trkpt>
      <trkpt lat="43.75349" lon="5.65029">
        <ele>490.708</ele>
        <time>2021-04-23T19:37:50Z</time>
      </trkpt>
      <trkpt lat="43.75342" lon="5.65043">
        <ele>490.354</ele>
        <time>2021-04-23T19:38:10Z</time>
      </trkpt>
      <trkpt lat="43.75333" lon="5.65064">
        <ele>489.328</ele>
        <time>2021-04-23T19:38:30Z</time>
      </trkpt>
      <trkpt lat="43.75327" lon="5.65092">
        <ele>487.159</ele>
        <time>2021-04-23T19:38:50Z</time>
      </trkpt>
      <trkpt lat="43.75324" lon="5.65119">
        <ele>485.543</ele>
        <time>2021-04-23T19:39:10Z</time>
      </trkpt>
      <trkpt lat="43.75318" lon="5.65126">
        <ele>487.427</ele>
        <time>2021-04-23T19:39:30Z</time>
      </trkpt>
      <trkpt lat="43.75311" lon="5.65152">
        <ele>489.544</ele>
        <time>2021-04-23T19:39:50Z</time>
      </trkpt>
      <trkpt lat="43.75307" lon="5.6516">
        <ele>490.456</ele>
        <time>2021-04-23T19:40:10Z</time>
      </trkpt>
      <trkpt lat="43.75305" lon="5.65167">
        <ele>491.176</ele>
        <time>2021-04-23T19:40:30Z</time>
      </trkpt>
      <trkpt lat="43.75297" lon="5.6519">
        <ele>493.293</ele>
        <time>2021-04-23T19:40:50Z</time>
      </trkpt>
      <trkpt lat="43.75282" lon="5.65221">
        <ele>497.265</ele>
        <time>2021-04-23T19:41:10Z</time>
      </trkpt>
      <trkpt lat="43.75232" lon="5.65349">
        <ele>501.221</ele>
        <time>2021-04-23T19:41:30Z</time>
      </trkpt>
      <trkpt lat="43.75194" lon="5.6545">
        <ele>503.708</ele>
        <time>2021-04-23T19:41:50Z</time>
      </trkpt>
      <trkpt lat="43.75183" lon="5.65515">
        <ele>500.556</ele>
        <time>2021-04-23T19:42:10Z</time>
      </trkpt>
      <trkpt lat="43.75177" lon="5.65578">
        <ele>498.87</ele>
        <time>2021-04-23T19:42:30Z</time>
      </trkpt>
      <trkpt lat="43.75166" lon="5.65641">
        <ele>496.591</ele>
        <time>2021-04-23T19:42:50Z</time>
      </trkpt>
      <trkpt lat="43.75155" lon="5.65686">
        <ele>493.185</ele>
        <time>2021-04-23T19:43:10Z</time>
      </trkpt>
      <trkpt lat="43.75127" lon="5.65751">
        <ele>483.799</ele>
        <time>2021-04-23T19:43:30Z</time>
      </trkpt>
      <trkpt lat="43.75107" lon="5.65849">
        <ele>477.796</ele>
        <time>2021-04-23T19:43:50Z</time>
      </trkpt>
      <trkpt lat="43.75099" lon="5.65933">
        <ele>471.758</ele>
        <time>2021-04-23T19:44:10Z</time>
      </trkpt>
      <trkpt lat="43.75094" lon="5.65962">
        <ele>469.388</ele>
        <time>2021-04-23T19:44:30Z</time>
      </trkpt>
      <trkpt lat="43.7509" lon="5.65999">
        <ele>466.049</ele>
        <time>2021-04-23T19:44:50Z</time>
      </trkpt>
      <trkpt lat="43.7509" lon="5.6601">
        <ele>464.802</ele>
        <time>2021-04-23T19:45:10Z</time>
      </trkpt>
      <trkpt lat="43.7509" lon="5.66033">
        <ele>462.422</ele>
        <time>2021-04-23T19:45:30Z</time>
      </trkpt>
      <trkpt lat="43.75091" lon="5.66059">
        <ele>459.408</ele>
        <time>2021-04-23T19:45:50Z</time>
      </trkpt>
      <trkpt lat="43.75091" lon="5.66089">
        <ele>456.891</ele>
        <time>2021-04-23T19:46:10Z</time>
      </trkpt>
      <trkpt lat="43.75093" lon="5.66103">
        <ele>455.545</ele>
        <time>2021-04-23T19:46:30Z</time>
      </trkpt>
      <trkpt lat="43.75098" lon="5.66114">
        <ele>454.186</ele>
        <time>2021-04-23T19:46:50Z</time>
      </trkpt>
      <trkpt lat="43.75109" lon="5.66127">
        <ele>452.22</ele>
        <time>2021-04-23T19:47:10Z</time>
      </trkpt>
      <trkpt lat="43.75144" lon="5.6617">
        <ele>452.684</ele>
        <time>2021-04-23T19:47:30Z</time>
      </trkpt>
      <trkpt lat="43.75152" lon="5.66178">
        <ele>453.661</ele>
        <time>2021-04-23T19:47:50Z</time>
      </trkpt>
      <trkpt lat="43.75154" lon="5.66186">
        <ele>453.963</ele>
        <time>2021-04-23T19:48:10Z</time>
      </trkpt>
      <trkpt lat="43.75156" lon="5.66197">
        <ele>453.943</ele>
        <time>2021-04-23T19:48:30Z</time>
      </trkpt>
      <trkpt lat="43.75161" lon="5.66221">
        <ele>454.462</ele>
        <time>2021-04-23T19:48:50Z</time>
      </trkpt>
      <trkpt lat="43.75162" lon="5.6623">
        <ele>454.483</ele>
        <time>2021-04-23T19:49:10Z</time>
      </trkpt>
      <trkpt lat="43.75162" lon="5.66246">
        <ele>454.211</ele>
        <time>2021-04-23T19:49:30Z</time>
      </trkpt>
      <trkpt lat="43.75158" lon="5.66258">
        <ele>453.708</ele>
        <time>2021-04-23T19:49:50Z</time>
      </trkpt>
      <trkpt lat="43.75156" lon="5.66268">
        <ele>453.433</ele>
        <time>2021-04-23T19:50:10Z</time>
      </trkpt>
      <trkpt lat="43.75156" lon="5.66275">
        <ele>453.417</ele>
        <time>2021-04-23T19:50:30Z</time>
      </trkpt>
      <trkpt lat="43.7515" lon="5.6628">
        <ele>452.778</ele>
        <time>2021-04-23T19:50:50Z</time>
      </trkpt>
      <trkpt lat="43.75139" lon="5.66309">
        <ele>452.172</ele>
        <time>2021-04-23T19:51:10Z</time>
      </trkpt>
      <trkpt lat="43.75133" lon="5.66318">
        <ele>451.816</ele>
        <time>2021-04-23T19:51:30Z</time>
      </trkpt>
      <trkpt lat="43.75124" lon="5.66325">
        <ele>451.593</ele>
        <time>2021-04-23T19:51:50Z</time>
      </trkpt>
      <trkpt lat="43.75114" lon="5.6633">
        <ele>450.455</ele>
        <time>2021-04-23T19:52:10Z</time>
      </trkpt>
      <trkpt lat="43.7508" lon="5.66344">
        <ele>446.475</ele>
        <time>2021-04-23T19:52:30Z</time>
      </trkpt>
      <trkpt lat="43.75067" lon="5.66349">
        <ele>444.842</ele>
        <time>2021-04-23T19:52:50Z</time>
      </trkpt>
      <trkpt lat="43.75059" lon="5.6636">
        <ele>443.622</ele>
        <time>2021-04-23T19:53:10Z</time>
      </trkpt>
      <trkpt lat="43.7505" lon="5.66385">
        <ele>442.314</ele>
        <time>2021-04-23T19:53:30Z</time>
      </trkpt>
      <trkpt lat="43.75039" lon="5.66431">
        <ele>440.808</ele>
        <time>2021-04-23T19:53:50Z</time>
      </trkpt>
      <trkpt lat="43.75034" lon="5.66466">
        <ele>440.361</ele>
        <time>2021-04-23T19:54:10Z</time>
      </trkpt>
      <trkpt lat="43.75034" lon="5.66494">
        <ele>439.675</ele>
        <time>2021-04-23T19:54:30Z</time>
      </trkpt>
      <trkpt lat="43.75031" lon="5.66533">
        <ele>437.626</ele>
        <time>2021-04-23T19:54:50Z</time>
      </trkpt>
      <trkpt lat="43.75031" lon="5.6656">
        <ele>436.37</ele>
        <time>2021-04-23T19:55:10Z</time>
      </trkpt>
      <trkpt lat="43.75029" lon="5.66578">
        <ele>435.424</ele>
        <time>2021-04-23T19:55:30Z</time>
      </trkpt>
      <trkpt lat="43.7502" lon="5.66598">
        <ele>433.991</ele>
        <time>2021-04-23T19:55:50Z</time>
      </trkpt>
      <trkpt lat="43.75012" lon="5.66618">
        <ele>432.693</ele>
        <time>2021-04-23T19:56:10Z</time>
      </trkpt>
      <trkpt lat="43.75009" lon="5.66634">
        <ele>431.593</ele>
        <time>2021-04-23T19:56:30Z</time>
      </trkpt>
      <trkpt lat="43.75013" lon="5.66646">
        <ele>430.937</ele>
        <time>2021-04-23T19:56:50Z</time>
      </trkpt>
      <trkpt lat="43.7502" lon="5.66665">
        <ele>429.949</ele>
        <time>2021-04-23T19:57:10Z</time>
      </trkpt>
      <trkpt lat="43.75022" lon="5.66682">
        <ele>428.913</ele>
        <time>2021-04-23T19:57:30Z</time>
      </trkpt>
      <trkpt lat="43.75017" lon="5.66694">
        <ele>427.908</ele>
        <time>2021-04-23T19:57:50Z</time>
      </trkpt>
      <trkpt lat="43.74986" lon="5.66753">
        <ele>423.09</ele>
        <time>2021-04-23T19:58:10Z</time>
      </trkpt>
      <trkpt lat="43.74927" lon="5.66868">
        <ele>417.384</ele>
        <time>2021-04-23T19:58:30Z</time>
      </trkpt>
      <trkpt lat="43.74923" lon="5.66879">
        <ele>417.045</ele>
        <time>2021-04-23T19:58:50Z</time>
      </trkpt>
      <trkpt lat="43.74921" lon="5.66887">
        <ele>416.839</ele>
        <time>2021-04-23T19:59:10Z</time>
      </trkpt>
      <trkpt lat="43.74919" lon="5.66897">
        <ele>416.493</ele>
        <time>2021-04-23T19:59:30Z</time>
      </trkpt>
      <trkpt lat="43.7492" lon="5.66918">
        <ele>415.67</ele>
        <time>2021-04-23T19:59:50Z</time>
      </trkpt>
      <trkpt lat="43.74923" lon="5.6693">
        <ele>415.292</ele>
        <time>2021-04-23T20:00:10Z</time>
      </trkpt>
      <trkpt lat="43.74926" lon="5.66934">
        <ele>414.962</ele>
        <time>2021-04-23T20:00:30Z</time>
      </trkpt>
      <trkpt lat="43.7493" lon="5.66936">
        <ele>414.814</ele>
        <time>2021-04-23T20:00:50Z</time>
      </trkpt>
      <trkpt lat="43.74936" lon="5.66935">
        <ele>414.654</ele>
        <time>2021-04-23T20:01:10Z</time>
      </trkpt>
      <trkpt lat="43.7494" lon="5.66933">
        <ele>414.509</ele>
        <time>2021-04-23T20:01:30Z</time>
      </trkpt>
      <trkpt lat="43.74944" lon="5.66928">
        <ele>414.608</ele>
        <time>2021-04-23T20:01:50Z</time>
      </trkpt>
      <trkpt lat="43.74956" lon="5.66907">
        <ele>414.998</ele>
        <time>2021-04-23T20:02:10Z</time>
      </trkpt>
      <trkpt lat="43.74968" lon="5.66884">
        <ele>415.392</ele>
        <time>2021-04-23T20:02:30Z</time>
      </trkpt>
      <trkpt lat="43.74984" lon="5.66863">
        <ele>416.013</ele>
        <time>2021-04-23T20:02:50Z</time>
      </trkpt>
      <trkpt lat="43.74997" lon="5.66851">
        <ele>416.547</ele>
        <time>2021-04-23T20:03:10Z</time>
      </trkpt>
      <trkpt lat="43.75001" lon="5.66849">
        <ele>416.681</ele>
        <time>2021-04-23T20:03:30Z</time>
      </trkpt>
      <trkpt lat="43.75006" lon="5.66854">
        <ele>416.258</ele>
        <time>2021-04-23T20:03:50Z</time>
      </trkpt>
      <trkpt lat="43.74992" lon="5.66874">
        <ele>415.14</ele>
        <time>2021-04-23T20:04:10Z</time>
      </trkpt>
      <trkpt lat="43.7499" lon="5.66877">
        <ele>414.96</ele>
        <time>2021-04-23T20:04:30Z</time>
      </trkpt>
      <trkpt lat="43.74999" lon="5.66886">
        <ele>414.017</ele>
        <time>2021-04-23T20:04:50Z</time>
      </trkpt>
      <trkpt lat="43.7499" lon="5.66877">
        <ele>414.987</ele>
        <time>2021-04-23T20:05:10Z</time>
      </trkpt>
      <trkpt lat="43.74992" lon="5.66874">
        <ele>415.115</ele>
        <time>2021-04-23T20:05:30Z</time>
      </trkpt>
      <trkpt lat="43.75006" lon="5.66854">
        <ele>416.208</ele>
        <time>2021-04-23T20:05:50Z</time>
      </trkpt>
      <trkpt lat="43.75012" lon="5.66846">
        <ele>416.778</ele>
        <time>2021-04-23T20:06:10Z</time>
      </trkpt>
      <trkpt lat="43.75022" lon="5.66834">
        <ele>417.592</ele>
        <time>2021-04-23T20:06:30Z</time>
      </trkpt>
      <trkpt lat="43.75034" lon="5.66823">
        <ele>418.343</ele>
        <time>2021-04-23T20:06:50Z</time>
      </trkpt>
      <trkpt lat="43.75045" lon="5.66814">
        <ele>418.847</ele>
        <time>2021-04-23T20:07:10Z</time>
      </trkpt>
      <trkpt lat="43.75056" lon="5.66807">
        <ele>419.111</ele>
        <time>2021-04-23T20:07:30Z</time>
      </trkpt>
      <trkpt lat="43.75067" lon="5.66802">
        <ele>419.218</ele>
        <time>2021-04-23T20:07:50Z</time>
      </trkpt>
      <trkpt lat="43.75079" lon="5.66801">
        <ele>419.08</ele>
        <time>2021-04-23T20:08:10Z</time>
      </trkpt>
      <trkpt lat="43.75103" lon="5.66804">
        <ele>418.37</ele>
        <time>2021-04-23T20:08:30Z</time>
      </trkpt>
      <trkpt lat="43.75118" lon="5.66801">
        <ele>418.039</ele>
        <time>2021-04-23T20:08:50Z</time>
      </trkpt>
      <trkpt lat="43.75127" lon="5.66793">
        <ele>418.201</ele>
        <time>2021-04-23T20:09:10Z</time>
      </trkpt>
      <trkpt lat="43.75134" lon="5.66782">
        <ele>419.621</ele>
        <time>2021-04-23T20:09:30Z</time>
      </trkpt>
      <trkpt lat="43.75142" lon="5.66765">
        <ele>421.208</ele>
        <time>2021-04-23T20:09:50Z</time>
      </trkpt>
      <trkpt lat="43.75149" lon="5.66745">
        <ele>423.93</ele>
        <time>2021-04-23T20:10:10Z</time>
      </trkpt>
      <trkpt lat="43.75162" lon="5.66705">
        <ele>429.174</ele>
        <time>2021-04-23T20:10:30Z</time>
      </trkpt>
      <trkpt lat="43.7519" lon="5.66617">
        <ele>435.195</ele>
        <time>2021-04-23T20:10:50Z</time>
      </trkpt>
      <trkpt lat="43.75201" lon="5.66583">
        <ele>435.619</ele>
        <time>2021-04-23T20:11:10Z</time>
      </trkpt>
      <trkpt lat="43.75208" lon="5.66569">
        <ele>435.553</ele>
        <time>2021-04-23T20:11:30Z</time>
      </trkpt>
      <trkpt lat="43.75217" lon="5.66558">
        <ele>435.05</ele>
        <time>2021-04-23T20:11:50Z</time>
      </trkpt>
      <trkpt lat="43.75222" lon="5.66555">
        <ele>434.662</ele>
        <time>2021-04-23T20:12:10Z</time>
      </trkpt>
      <trkpt lat="43.75233" lon="5.6655">
        <ele>435.782</ele>
        <time>2021-04-23T20:12:30Z</time>
      </trkpt>
      <trkpt lat="43.75259" lon="5.66544">
        <ele>439.769</ele>
        <time>2021-04-23T20:12:50Z</time>
      </trkpt>
      <trkpt lat="43.75269" lon="5.6654">
        <ele>441.104</ele>
        <time>2021-04-23T20:13:10Z</time>
      </trkpt>
      <trkpt lat="43.7528" lon="5.66532">
        <ele>442.424</ele>
        <time>2021-04-23T20:13:30Z</time>
      </trkpt>
      <trkpt lat="43.75291" lon="5.66522">
        <ele>443.408</ele>
        <time>2021-04-23T20:13:50Z</time>
      </trkpt>
      <trkpt lat="43.75301" lon="5.66508">
        <ele>443.943</ele>
        <time>2021-04-23T20:14:10Z</time>
      </trkpt>
      <trkpt lat="43.75309" lon="5.66491">
        <ele>443.837</ele>
        <time>2021-04-23T20:14:30Z</time>
      </trkpt>
      <trkpt lat="43.75317" lon="5.66475">
        <ele>444.088</ele>
        <time>2021-04-23T20:14:50Z</time>
      </trkpt>
      <trkpt lat="43.75334" lon="5.66432">
        <ele>445.542</ele>
        <time>2021-04-23T20:15:10Z</time>
      </trkpt>
      <trkpt lat="43.7534" lon="5.66417">
        <ele>445.826</ele>
        <time>2021-04-23T20:15:30Z</time>
      </trkpt>
      <trkpt lat="43.75356" lon="5.66385">
        <ele>446.023</ele>
        <time>2021-04-23T20:15:50Z</time>
      </trkpt>
      <trkpt lat="43.75361" lon="5.66371">
        <ele>445.895</ele>
        <time>2021-04-23T20:16:10Z</time>
      </trkpt>
      <trkpt lat="43.75365" lon="5.66356">
        <ele>445.335</ele>
        <time>2021-04-23T20:16:30Z</time>
      </trkpt>
      <trkpt lat="43.75371" lon="5.66324">
        <ele>445.798</ele>
        <time>2021-04-23T20:16:50Z</time>
      </trkpt>
      <trkpt lat="43.75376" lon="5.66311">
        <ele>445.915</ele>
        <time>2021-04-23T20:17:10Z</time>
      </trkpt>
      <trkpt lat="43.75381" lon="5.66302">
        <ele>445.926</ele>
        <time>2021-04-23T20:17:30Z</time>
      </trkpt>
      <trkpt lat="43.75388" lon="5.66294">
        <ele>445.508</ele>
        <time>2021-04-23T20:17:50Z</time>
      </trkpt>
      <trkpt lat="43.75423" lon="5.66256">
        <ele>441.256</ele>
        <time>2021-04-23T20:18:10Z</time>
      </trkpt>
      <trkpt lat="43.75435" lon="5.66242">
        <ele>442.38</ele>
        <time>2021-04-23T20:18:30Z</time>
      </trkpt>
      <trkpt lat="43.75462" lon="5.66203">
        <ele>445.291</ele>
        <time>2021-04-23T20:18:50Z</time>
      </trkpt>
      <trkpt lat="43.75467" lon="5.66195">
        <ele>445.885</ele>
        <time>2021-04-23T20:19:10Z</time>
      </trkpt>
      <trkpt lat="43.75469" lon="5.6619">
        <ele>446.199</ele>
        <time>2021-04-23T20:19:30Z</time>
      </trkpt>
      <trkpt lat="43.75474" lon="5.66176">
        <ele>446.596</ele>
        <time>2021-04-23T20:19:50Z</time>
      </trkpt>
      <trkpt lat="43.75474" lon="5.66165">
        <ele>446.448</ele>
        <time>2021-04-23T20:20:10Z</time>
      </trkpt>
      <trkpt lat="43.75473" lon="5.66147">
        <ele>446.078</ele>
        <time>2021-04-23T20:20:30Z</time>
      </trkpt>
      <trkpt lat="43.75474" lon="5.66109">
        <ele>445.595</ele>
        <time>2021-04-23T20:20:50Z</time>
      </trkpt>
      <trkpt lat="43.75475" lon="5.6609">
        <ele>445.349</ele>
        <time>2021-04-23T20:21:10Z</time>
      </trkpt>
      <trkpt lat="43.75478" lon="5.66071">
        <ele>444.923</ele>
        <time>2021-04-23T20:21:30Z</time>
      </trkpt>
      <trkpt lat="43.75483" lon="5.66052">
        <ele>445.408</ele>
        <time>2021-04-23T20:21:50Z</time>
      </trkpt>
      <trkpt lat="43.75489" lon="5.66032">
        <ele>445.836</ele>
        <time>2021-04-23T20:22:10Z</time>
      </trkpt>
      <trkpt lat="43.75496" lon="5.66013">
        <ele>446.04</ele>
        <time>2021-04-23T20:22:30Z</time>
      </trkpt>
      <trkpt lat="43.75505" lon="5.65994">
        <ele>445.971</ele>
        <time>2021-04-23T20:22:50Z</time>
      </trkpt>
      <trkpt lat="43.75515" lon="5.65977">
        <ele>445.645</ele>
        <time>2021-04-23T20:23:10Z</time>
      </trkpt>
      <trkpt lat="43.75529" lon="5.65956">
        <ele>446.269</ele>
        <time>2021-04-23T20:23:30Z</time>
      </trkpt>
      <trkpt lat="43.75573" lon="5.65894">
        <ele>452.476</ele>
        <time>2021-04-23T20:23:50Z</time>
      </trkpt>
      <trkpt lat="43.75583" lon="5.65883">
        <ele>453.188</ele>
        <time>2021-04-23T20:24:10Z</time>
      </trkpt>
      <trkpt lat="43.75592" lon="5.65876">
        <ele>453.858</ele>
        <time>2021-04-23T20:24:30Z</time>
      </trkpt>
      <trkpt lat="43.75604" lon="5.6587">
        <ele>454.635</ele>
        <time>2021-04-23T20:24:50Z</time>
      </trkpt>
      <trkpt lat="43.75616" lon="5.65866">
        <ele>455.486</ele>
        <time>2021-04-23T20:25:10Z</time>
      </trkpt>
      <trkpt lat="43.75699" lon="5.65844">
        <ele>463.514</ele>
        <time>2021-04-23T20:25:30Z</time>
      </trkpt>
      <trkpt lat="43.75712" lon="5.65839">
        <ele>464.808</ele>
        <time>2021-04-23T20:25:50Z</time>
      </trkpt>
      <trkpt lat="43.75723" lon="5.65831">
        <ele>465.95</ele>
        <time>2021-04-23T20:26:10Z</time>
      </trkpt>
      <trkpt lat="43.75733" lon="5.65819">
        <ele>466.584</ele>
        <time>2021-04-23T20:26:30Z</time>
      </trkpt>
      <trkpt lat="43.75742" lon="5.65802">
        <ele>467.175</ele>
        <time>2021-04-23T20:26:50Z</time>
      </trkpt>
      <trkpt lat="43.75766" lon="5.65757">
        <ele>467.479</ele>
        <time>2021-04-23T20:27:10Z</time>
      </trkpt>
      <trkpt lat="43.75775" lon="5.65747">
        <ele>467.773</ele>
        <time>2021-04-23T20:27:30Z</time>
      </trkpt>
      <trkpt lat="43.75783" lon="5.65741">
        <ele>468.22</ele>
        <time>2021-04-23T20:27:50Z</time>
      </trkpt>
      <trkpt lat="43.75794" lon="5.65737">
        <ele>469.092</ele>
        <time>2021-04-23T20:28:10Z</time>
      </trkpt>
      <trkpt lat="43.75807" lon="5.65733">
        <ele>469.912</ele>
        <time>2021-04-23T20:28:30Z</time>
      </trkpt>
      <trkpt lat="43.75826" lon="5.65729">
        <ele>471.284</ele>
        <time>2021-04-23T20:28:50Z</time>
      </trkpt>
      <trkpt lat="43.75859" lon="5.65719">
        <ele>472.907</ele>
        <time>2021-04-23T20:29:10Z</time>
      </trkpt>
      <trkpt lat="43.75872" lon="5.65718">
        <ele>473.917</ele>
        <time>2021-04-23T20:29:30Z</time>
      </trkpt>
      <trkpt lat="43.75885" lon="5.65721">
        <ele>475.008</ele>
        <time>2021-04-23T20:29:50Z</time>
      </trkpt>
      <trkpt lat="43.75899" lon="5.65727">
        <ele>476.335</ele>
        <time>2021-04-23T20:30:10Z</time>
      </trkpt>
      <trkpt lat="43.75913" lon="5.65736">
        <ele>477.699</ele>
        <time>2021-04-23T20:30:30Z</time>
      </trkpt>
      <trkpt lat="43.7594" lon="5.65756">
        <ele>479.71</ele>
        <time>2021-04-23T20:30:50Z</time>
      </trkpt>
      <trkpt lat="43.75952" lon="5.65764">
        <ele>480.724</ele>
        <time>2021-04-23T20:31:10Z</time>
      </trkpt>
      <trkpt lat="43.75968" lon="5.65771">
        <ele>481.928</ele>
        <time>2021-04-23T20:31:30Z</time>
      </trkpt>
      <trkpt lat="43.75982" lon="5.65778">
        <ele>483.325</ele>
        <time>2021-04-23T20:31:50Z</time>
      </trkpt>
      <trkpt lat="43.76023" lon="5.65807">
        <ele>487.557</ele>
        <time>2021-04-23T20:32:10Z</time>
      </trkpt>
      <trkpt lat="43.76041" lon="5.65815">
        <ele>488.087</ele>
        <time>2021-04-23T20:32:30Z</time>
      </trkpt>
      <trkpt lat="43.76058" lon="5.65819">
        <ele>488.494</ele>
        <time>2021-04-23T20:32:50Z</time>
      </trkpt>
      <trkpt lat="43.76071" lon="5.65822">
        <ele>488.857</ele>
        <time>2021-04-23T20:33:10Z</time>
      </trkpt>
      <trkpt lat="43.76094" lon="5.65823">
        <ele>489.422</ele>
        <time>2021-04-23T20:33:30Z</time>
      </trkpt>
      <trkpt lat="43.76106" lon="5.65822">
        <ele>489.708</ele>
        <time>2021-04-23T20:33:50Z</time>
      </trkpt>
      <trkpt lat="43.76118" lon="5.65818">
        <ele>489.816</ele>
        <time>2021-04-23T20:34:10Z</time>
      </trkpt>
      <trkpt lat="43.76132" lon="5.65812">
        <ele>489.74</ele>
        <time>2021-04-23T20:34:30Z</time>
      </trkpt>
      <trkpt lat="43.76292" lon="5.65738">
        <ele>485.031</ele>
        <time>2021-04-23T20:34:50Z</time>
      </trkpt>
      <trkpt lat="43.76306" lon="5.6573">
        <ele>485.025</ele>
        <time>2021-04-23T20:35:10Z</time>
      </trkpt>
      <trkpt lat="43.7632" lon="5.6572">
        <ele>485.429</ele>
        <time>2021-04-23T20:35:30Z</time>
      </trkpt>
      <trkpt lat="43.76332" lon="5.65709">
        <ele>486.156</ele>
        <time>2021-04-23T20:35:50Z</time>
      </trkpt>
      <trkpt lat="43.76345" lon="5.65697">
        <ele>486.898</ele>
        <time>2021-04-23T20:36:10Z</time>
      </trkpt>
      <trkpt lat="43.76394" lon="5.65641">
        <ele>490.098</ele>
        <time>2021-04-23T20:36:30Z</time>
      </trkpt>
      <trkpt lat="43.76417" lon="5.65619">
        <ele>491.977</ele>
        <time>2021-04-23T20:36:50Z</time>
      </trkpt>
      <trkpt lat="43.76431" lon="5.6561">
        <ele>492.361</ele>
        <time>2021-04-23T20:37:10Z</time>
      </trkpt>
      <trkpt lat="43.76447" lon="5.65602">
        <ele>492.327</ele>
        <time>2021-04-23T20:37:30Z</time>
      </trkpt>
      <trkpt lat="43.76462" lon="5.65595">
        <ele>492.108</ele>
        <time>2021-04-23T20:37:50Z</time>
      </trkpt>
      <trkpt lat="43.76522" lon="5.65572">
        <ele>490.464</ele>
        <time>2021-04-23T20:38:10Z</time>
      </trkpt>
      <trkpt lat="43.76532" lon="5.65567">
        <ele>490.568</ele>
        <time>2021-04-23T20:38:30Z</time>
      </trkpt>
      <trkpt lat="43.76547" lon="5.65558">
        <ele>490.829</ele>
        <time>2021-04-23T20:38:50Z</time>
      </trkpt>
      <trkpt lat="43.7656" lon="5.65545">
        <ele>491.423</ele>
        <time>2021-04-23T20:39:10Z</time>
      </trkpt>
      <trkpt lat="43.76572" lon="5.65533">
        <ele>492.167</ele>
        <time>2021-04-23T20:39:30Z</time>
      </trkpt>
      <trkpt lat="43.76584" lon="5.65518">
        <ele>493.154</ele>
        <time>2021-04-23T20:39:50Z</time>
      </trkpt>
      <trkpt lat="43.76594" lon="5.65501">
        <ele>494.456</ele>
        <time>2021-04-23T20:40:10Z</time>
      </trkpt>
      <trkpt lat="43.76636" lon="5.65431">
        <ele>499.036</ele>
        <time>2021-04-23T20:40:30Z</time>
      </trkpt>
      <trkpt lat="43.76699" lon="5.65323">
        <ele>500.086</ele>
        <time>2021-04-23T20:40:50Z</time>
      </trkpt>
      <trkpt lat="43.76709" lon="5.6531">
        <ele>499.66</ele>
        <time>2021-04-23T20:41:10Z</time>
      </trkpt>
      <trkpt lat="43.76716" lon="5.6532">
        <ele>498.826</ele>
        <time>2021-04-23T20:41:30Z</time>
      </trkpt>
      <trkpt lat="43.76709" lon="5.6531">
        <ele>499.608</ele>
        <time>2021-04-23T20:41:50Z</time>
      </trkpt>
      <trkpt lat="43.76719" lon="5.65296">
        <ele>499.885</ele>
        <time>2021-04-23T20:42:10Z</time>
      </trkpt>
      <trkpt lat="43.7675" lon="5.65345">
        <ele>498.669</ele>
        <time>2021-04-23T20:42:30Z</time>
      </trkpt>
      <trkpt lat="43.76787" lon="5.65398">
        <ele>498.03</ele>
        <time>2021-04-23T20:42:50Z</time>
      </trkpt>
      <trkpt lat="43.76791" lon="5.65394">
        <ele>498.284</ele>
        <time>2021-04-23T20:43:10Z</time>
      </trkpt>
      <trkpt lat="43.76798" lon="5.6539">
        <ele>498.578</ele>
        <time>2021-04-23T20:43:30Z</time>
      </trkpt>
      <trkpt lat="43.76815" lon="5.65371">
        <ele>499.595</ele>
        <time>2021-04-23T20:43:50Z</time>
      </trkpt>
      <trkpt lat="43.7683" lon="5.65346">
        <ele>501.137</ele>
        <time>2021-04-23T20:44:10Z</time>
      </trkpt>
      <trkpt lat="43.76845" lon="5.65332">
        <ele>502.367</ele>
        <time>2021-04-23T20:44:30Z</time>
      </trkpt>
      <trkpt lat="43.76868" lon="5.6531">
        <ele>504.213</ele>
        <time>2021-04-23T20:44:50Z</time>
      </trkpt>
      <trkpt lat="43.76881" lon="5.6529">
        <ele>505.343</ele>
        <time>2021-04-23T20:45:10Z</time>
      </trkpt>
      <trkpt lat="43.76906" lon="5.6527">
        <ele>507.107</ele>
        <time>2021-04-23T20:45:30Z</time>
      </trkpt>
      <trkpt lat="43.76948" lon="5.65221">
        <ele>513.008</ele>
        <time>2021-04-23T20:45:50Z</time>
      </trkpt>
      <trkpt lat="43.76978" lon="5.65189">
        <ele>516.838</ele>
        <time>2021-04-23T20:46:10Z</time>
      </trkpt>
      <trkpt lat="43.76993" lon="5.65179">
        <ele>518.712</ele>
        <time>2021-04-23T20:46:30Z</time>
      </trkpt>
      <trkpt lat="43.77009" lon="5.65172">
        <ele>520.673</ele>
        <time>2021-04-23T20:46:50Z</time>
      </trkpt>
      <trkpt lat="43.77034" lon="5.65169">
        <ele>524.217</ele>
        <time>2021-04-23T20:47:10Z</time>
      </trkpt>
      <trkpt lat="43.77056" lon="5.65154">
        <ele>526.981</ele>
        <time>2021-04-23T20:47:30Z</time>
      </trkpt>
      <trkpt lat="43.77076" lon="5.65133">
        <ele>529.168</ele>
        <time>2021-04-23T20:47:50Z</time>
      </trkpt>
      <trkpt lat="43.77078" lon="5.65126">
        <ele>529.24</ele>
        <time>2021-04-23T20:48:10Z</time>
      </trkpt>
      <trkpt lat="43.7709" lon="5.65113">
        <ele>530.46</ele>
        <time>2021-04-23T20:48:30Z</time>
      </trkpt>
      <trkpt lat="43.77092" lon="5.65111">
        <ele>530.689</ele>
        <time>2021-04-23T20:48:50Z</time>
      </trkpt>
      <trkpt lat="43.77101" lon="5.65087">
        <ele>532.006</ele>
        <time>2021-04-23T20:49:10Z</time>
      </trkpt>
      <trkpt lat="43.77105" lon="5.65077">
        <ele>532.526</ele>
        <time>2021-04-23T20:49:30Z</time>
      </trkpt>
      <trkpt lat="43.77117" lon="5.65045">
        <ele>531.808</ele>
        <time>2021-04-23T20:49:50Z</time>
      </trkpt>
      <trkpt lat="43.77123" lon="5.65032">
        <ele>530.775</ele>
        <time>2021-04-23T20:50:10Z</time>
      </trkpt>
      <trkpt lat="43.77143" lon="5.65007">
        <ele>527.139</ele>
        <time>2021-04-23T20:50:30Z</time>
      </trkpt>
      <trkpt lat="43.77146" lon="5.65">
        <ele>526.76</ele>
        <time>2021-04-23T20:50:50Z</time>
      </trkpt>
      <trkpt lat="43.77152" lon="5.6496">
        <ele>526.514</ele>
        <time>2021-04-23T20:51:10Z</time>
      </trkpt>
      <trkpt lat="43.77154" lon="5.64948">
        <ele>526.678</ele>
        <time>2021-04-23T20:51:30Z</time>
      </trkpt>
      <trkpt lat="43.77157" lon="5.64937">
        <ele>526.535</ele>
        <time>2021-04-23T20:51:50Z</time>
      </trkpt>
      <trkpt lat="43.77163" lon="5.64927">
        <ele>526.347</ele>
        <time>2021-04-23T20:52:10Z</time>
      </trkpt>
      <trkpt lat="43.77177" lon="5.64917">
        <ele>525.457</ele>
        <time>2021-04-23T20:52:30Z</time>
      </trkpt>
      <trkpt lat="43.77208" lon="5.64885">
        <ele>526.195</ele>
        <time>2021-04-23T20:52:50Z</time>
      </trkpt>
      <trkpt lat="43.77243" lon="5.64846">
        <ele>522.049</ele>
        <time>2021-04-23T20:53:10Z</time>
      </trkpt>
      <trkpt lat="43.77274" lon="5.64805">
        <ele>517.723</ele>
        <time>2021-04-23T20:53:30Z</time>
      </trkpt>
      <trkpt lat="43.77289" lon="5.6479">
        <ele>515.608</ele>
        <time>2021-04-23T20:53:50Z</time>
      </trkpt>
      <trkpt lat="43.7732" lon="5.64763">
        <ele>512.496</ele>
        <time>2021-04-23T20:54:10Z</time>
      </trkpt>
      <trkpt lat="43.77367" lon="5.64721">
        <ele>505.61</ele>
        <time>2021-04-23T20:54:30Z</time>
      </trkpt>
      <trkpt lat="43.77376" lon="5.64715">
        <ele>503.631</ele>
        <time>2021-04-23T20:54:50Z</time>
      </trkpt>
      <trkpt lat="43.77385" lon="5.64712">
        <ele>501.395</ele>
        <time>2021-04-23T20:55:10Z</time>
      </trkpt>
      <trkpt lat="43.77404" lon="5.64709">
        <ele>496.659</ele>
        <time>2021-04-23T20:55:30Z</time>
      </trkpt>
      <trkpt lat="43.7741" lon="5.64706">
        <ele>495.766</ele>
        <time>2021-04-23T20:55:50Z</time>
      </trkpt>
      <trkpt lat="43.77438" lon="5.64692">
        <ele>494.618</ele>
        <time>2021-04-23T20:56:10Z</time>
      </trkpt>
      <trkpt lat="43.7745" lon="5.6469">
        <ele>494.148</ele>
        <time>2021-04-23T20:56:30Z</time>
      </trkpt>
      <trkpt lat="43.77462" lon="5.64684">
        <ele>493.649</ele>
        <time>2021-04-23T20:56:50Z</time>
      </trkpt>
      <trkpt lat="43.77488" lon="5.64665">
        <ele>492.102</ele>
        <time>2021-04-23T20:57:10Z</time>
      </trkpt>
      <trkpt lat="43.7753" lon="5.64638">
        <ele>487.522</ele>
        <time>2021-04-23T20:57:30Z</time>
      </trkpt>
      <trkpt lat="43.77553" lon="5.64625">
        <ele>484.308</ele>
        <time>2021-04-23T20:57:50Z</time>
      </trkpt>
      <trkpt lat="43.77582" lon="5.64612">
        <ele>479.821</ele>
        <time>2021-04-23T20:58:10Z</time>
      </trkpt>
      <trkpt lat="43.77629" lon="5.64592">
        <ele>471.955</ele>
        <time>2021-04-23T20:58:30Z</time>
      </trkpt>
      <trkpt lat="43.77649" lon="5.6458">
        <ele>468.196</ele>
        <time>2021-04-23T20:58:50Z</time>
      </trkpt>
      <trkpt lat="43.77673" lon="5.64563">
        <ele>463.69</ele>
        <time>2021-04-23T20:59:10Z</time>
      </trkpt>
      <trkpt lat="43.77681" lon="5.64557">
        <ele>462.674</ele>
        <time>2021-04-23T20:59:30Z</time>
      </trkpt>
      <trkpt lat="43.77735" lon="5.64522">
        <ele>458.581</ele>
        <time>2021-04-23T20:59:50Z</time>
      </trkpt>
      <trkpt lat="43.77792" lon="5.64473">
        <ele>453.773</ele>
        <time>2021-04-23T21:00:10Z</time>
      </trkpt>
      <trkpt lat="43.77803" lon="5.64465">
        <ele>452.543</ele>
        <time>2021-04-23T21:00:30Z</time>
      </trkpt>
      <trkpt lat="43.77832" lon="5.64443">
        <ele>450.562</ele>
        <time>2021-04-23T21:00:50Z</time>
      </trkpt>
      <trkpt lat="43.77883" lon="5.64406">
        <ele>446.083</ele>
        <time>2021-04-23T21:01:10Z</time>
      </trkpt>
      <trkpt lat="43.77918" lon="5.64384">
        <ele>443.411</ele>
        <time>2021-04-23T21:01:30Z</time>
      </trkpt>
      <trkpt lat="43.77938" lon="5.64372">
        <ele>442.508</ele>
        <time>2021-04-23T21:01:50Z</time>
      </trkpt>
      <trkpt lat="43.77949" lon="5.64364">
        <ele>442.013</ele>
        <time>2021-04-23T21:02:10Z</time>
      </trkpt>
      <trkpt lat="43.77959" lon="5.64356">
        <ele>441.467</ele>
        <time>2021-04-23T21:02:30Z</time>
      </trkpt>
      <trkpt lat="43.7797" lon="5.64344">
        <ele>440.748</ele>
        <time>2021-04-23T21:02:50Z</time>
      </trkpt>
      <trkpt lat="43.77982" lon="5.64328">
        <ele>439.962</ele>
        <time>2021-04-23T21:03:10Z</time>
      </trkpt>
      <trkpt lat="43.78003" lon="5.64297">
        <ele>438.076</ele>
        <time>2021-04-23T21:03:30Z</time>
      </trkpt>
      <trkpt lat="43.78027" lon="5.64256">
        <ele>436.723</ele>
        <time>2021-04-23T21:03:50Z</time>
      </trkpt>
      <trkpt lat="43.78046" lon="5.64219">
        <ele>435.825</ele>
        <time>2021-04-23T21:04:10Z</time>
      </trkpt>
      <trkpt lat="43.78076" lon="5.64145">
        <ele>434.025</ele>
        <time>2021-04-23T21:04:30Z</time>
      </trkpt>
      <trkpt lat="43.78104" lon="5.64093">
        <ele>435.432</ele>
        <time>2021-04-23T21:04:50Z</time>
      </trkpt>
      <trkpt lat="43.78143" lon="5.64029">
        <ele>434.692</ele>
        <time>2021-04-23T21:05:10Z</time>
      </trkpt>
      <trkpt lat="43.78156" lon="5.6402">
        <ele>432.911</ele>
        <time>2021-04-23T21:05:30Z</time>
      </trkpt>
      <trkpt lat="43.78168" lon="5.64012">
        <ele>431.308</ele>
        <time>2021-04-23T21:05:50Z</time>
      </trkpt>
      <trkpt lat="43.78178" lon="5.64012">
        <ele>429.81</ele>
        <time>2021-04-23T21:06:10Z</time>
      </trkpt>
      <trkpt lat="43.7819" lon="5.64013">
        <ele>427.954</ele>
        <time>2021-04-23T21:06:30Z</time>
      </trkpt>
      <trkpt lat="43.78203" lon="5.64012">
        <ele>426.275</ele>
        <time>2021-04-23T21:06:50Z</time>
      </trkpt>
      <trkpt lat="43.78219" lon="5.64007">
        <ele>425.979</ele>
        <time>2021-04-23T21:07:10Z</time>
      </trkpt>
      <trkpt lat="43.78222" lon="5.64006">
        <ele>425.863</ele>
        <time>2021-04-23T21:07:30Z</time>
      </trkpt>
      <trkpt lat="43.78228" lon="5.63999">
        <ele>425.78</ele>
        <time>2021-04-23T21:07:50Z</time>
      </trkpt>
      <trkpt lat="43.78237" lon="5.63981">
        <ele>425.422</ele>
        <time>2021-04-23T21:08:10Z</time>
      </trkpt>
      <trkpt lat="43.78256" lon="5.63944">
        <ele>424.742</ele>
        <time>2021-04-23T21:08:30Z</time>
      </trkpt>
      <trkpt lat="43.78262" lon="5.63935">
        <ele>424.493</ele>
        <time>2021-04-23T21:08:50Z</time>
      </trkpt>
      <trkpt lat="43.78267" lon="5.63929">
        <ele>424.265</ele>
        <time>2021-04-23T21:09:10Z</time>
      </trkpt>
      <trkpt lat="43.78275" lon="5.63921">
        <ele>423.821</ele>
        <time>2021-04-23T21:09:30Z</time>
      </trkpt>
      <trkpt lat="43.78288" lon="5.63914">
        <ele>423.208</ele>
        <time>2021-04-23T21:09:50Z</time>
      </trkpt>
      <trkpt lat="43.78303" lon="5.63904">
        <ele>422.576</ele>
        <time>2021-04-23T21:10:10Z</time>
      </trkpt>
      <trkpt lat="43.78314" lon="5.63893">
        <ele>422.19</ele>
        <time>2021-04-23T21:10:30Z</time>
      </trkpt>
      <trkpt lat="43.78324" lon="5.63876">
        <ele>421.481</ele>
        <time>2021-04-23T21:10:50Z</time>
      </trkpt>
      <trkpt lat="43.78335" lon="5.63852">
        <ele>421.465</ele>
        <time>2021-04-23T21:11:10Z</time>
      </trkpt>
      <trkpt lat="43.7834" lon="5.63845">
        <ele>421.489</ele>
        <time>2021-04-23T21:11:30Z</time>
      </trkpt>
      <trkpt lat="43.78346" lon="5.63842">
        <ele>421.386</ele>
        <time>2021-04-23T21:11:50Z</time>
      </trkpt>
      <trkpt lat="43.78356" lon="5.63842">
        <ele>421.138</ele>
        <time>2021-04-23T21:12:10Z</time>
      </trkpt>
      <trkpt lat="43.78363" lon="5.63842">
        <ele>421.018</ele>
        <time>2021-04-23T21:12:30Z</time>
      </trkpt>
      <trkpt lat="43.78368" lon="5.63839">
        <ele>421.087</ele>
        <time>2021-04-23T21:12:50Z</time>
      </trkpt>
      <trkpt lat="43.78371" lon="5.63833">
        <ele>421.142</ele>
        <time>2021-04-23T21:13:10Z</time>
      </trkpt>
      <trkpt lat="43.78374" lon="5.63801">
        <ele>422.026</ele>
        <time>2021-04-23T21:13:30Z</time>
      </trkpt>
      <trkpt lat="43.78378" lon="5.63763">
        <ele>423.108</ele>
        <time>2021-04-23T21:13:50Z</time>
      </trkpt>
      <trkpt lat="43.78379" lon="5.6374">
        <ele>423.895</ele>
        <time>2021-04-23T21:14:10Z</time>
      </trkpt>
      <trkpt lat="43.78374" lon="5.63701">
        <ele>422.849</ele>
        <time>2021-04-23T21:14:30Z</time>
      </trkpt>
      <trkpt lat="43.78382" lon="5.63672">
        <ele>421.98</ele>
        <time>2021-04-23T21:14:50Z</time>
      </trkpt>
      <trkpt lat="43.78387" lon="5.63662">
        <ele>421.634</ele>
        <time>2021-04-23T21:15:10Z</time>
      </trkpt>
      <trkpt lat="43.7839" lon="5.63653">
        <ele>421.338</ele>
        <time>2021-04-23T21:15:30Z</time>
      </trkpt>
      <trkpt lat="43.78395" lon="5.63637">
        <ele>420.835</ele>
        <time>2021-04-23T21:15:50Z</time>
      </trkpt>
      <trkpt lat="43.78399" lon="5.63629">
        <ele>420.547</ele>
        <time>2021-04-23T21:16:10Z</time>
      </trkpt>
      <trkpt lat="43.78403" lon="5.63623">
        <ele>420.197</ele>
        <time>2021-04-23T21:16:30Z</time>
      </trkpt>
      <trkpt lat="43.78404" lon="5.63631">
        <ele>420.425</ele>
        <time>2021-04-23T21:16:50Z</time>
      </trkpt>
      <trkpt lat="43.78405" lon="5.63648">
        <ele>421.026</ele>
        <time>2021-04-23T21:17:10Z</time>
      </trkpt>
      <trkpt lat="43.7841" lon="5.6367">
        <ele>421.708</ele>
        <time>2021-04-23T21:17:30Z</time>
      </trkpt>
      <trkpt lat="43.78414" lon="5.63684">
        <ele>422.208</ele>
        <time>2021-04-23T21:17:50Z</time>
      </trkpt>
      <trkpt lat="43.78398" lon="5.63693">
        <ele>422.839</ele>
        <time>2021-04-23T21:18:10Z</time>
      </trkpt>
      <trkpt lat="43.78414" lon="5.63684">
        <ele>422.233</ele>
        <time>2021-04-23T21:18:30Z</time>
      </trkpt>
      <trkpt lat="43.7841" lon="5.6367">
        <ele>421.784</ele>
        <time>2021-04-23T21:18:50Z</time>
      </trkpt>
      <trkpt lat="43.78405" lon="5.63648">
        <ele>421.068</ele>
        <time>2021-04-23T21:19:10Z</time>
      </trkpt>
      <trkpt lat="43.78404" lon="5.63631">
        <ele>420.482</ele>
        <time>2021-04-23T21:19:30Z</time>
      </trkpt>
      <trkpt lat="43.78403" lon="5.63623">
        <ele>420.199</ele>
        <time>2021-04-23T21:19:50Z</time>
      </trkpt>
      <trkpt lat="43.78419" lon="5.63558">
        <ele>417.381</ele>
        <time>2021-04-23T21:20:10Z</time>
      </trkpt>
      <trkpt lat="43.78422" lon="5.63554">
        <ele>417.031</ele>
        <time>2021-04-23T21:20:30Z</time>
      </trkpt>
      <trkpt lat="43.78423" lon="5.63544">
        <ele>416.659</ele>
        <time>2021-04-23T21:20:50Z</time>
      </trkpt>
      <trkpt lat="43.78417" lon="5.63538">
        <ele>416.603</ele>
        <time>2021-04-23T21:21:10Z</time>
      </trkpt>
      <trkpt lat="43.78424" lon="5.63518">
        <ele>415.623</ele>
        <time>2021-04-23T21:21:30Z</time>
      </trkpt>
      <trkpt lat="43.7843" lon="5.63505">
        <ele>414.808</ele>
        <time>2021-04-23T21:21:50Z</time>
      </trkpt>
      <trkpt lat="43.78431" lon="5.63502">
        <ele>414.762</ele>
        <time>2021-04-23T21:22:10Z</time>
      </trkpt>
      <trkpt lat="43.78428" lon="5.63494">
        <ele>414.536</ele>
        <time>2021-04-23T21:22:30Z</time>
      </trkpt>
      <trkpt lat="43.78437" lon="5.6347">
        <ele>413.227</ele>
        <time>2021-04-23T21:22:50Z</time>
      </trkpt>
      <trkpt lat="43.78447" lon="5.63443">
        <ele>412.081</ele>
        <time>2021-04-23T21:23:10Z</time>
      </trkpt>
      <trkpt lat="43.78447" lon="5.63436">
        <ele>411.925</ele>
        <time>2021-04-23T21:23:30Z</time>
      </trkpt>
      <trkpt lat="43.78447" lon="5.63431">
        <ele>411.862</ele>
        <time>2021-04-23T21:23:50Z</time>
      </trkpt>
      <trkpt lat="43.78448" lon="5.63419">
        <ele>411.574</ele>
        <time>2021-04-23T21:24:10Z</time>
      </trkpt>
      <trkpt lat="43.7845" lon="5.63414">
        <ele>411.344</ele>
        <time>2021-04-23T21:24:30Z</time>
      </trkpt>
      <trkpt lat="43.7846" lon="5.63411">
        <ele>410.797</ele>
        <time>2021-04-23T21:24:50Z</time>
      </trkpt>
      <trkpt lat="43.78459" lon="5.63408">
        <ele>410.723</ele>
        <time>2021-04-23T21:25:10Z</time>
      </trkpt>
      <trkpt lat="43.78459" lon="5.63394">
        <ele>410.525</ele>
        <time>2021-04-23T21:25:30Z</time>
      </trkpt>
      <trkpt lat="43.78456" lon="5.63369">
        <ele>410.208</ele>
        <time>2021-04-23T21:25:50Z</time>
      </trkpt>
      <trkpt lat="43.78452" lon="5.63357">
        <ele>410.116</ele>
        <time>2021-04-23T21:26:10Z</time>
      </trkpt>
      <trkpt lat="43.78448" lon="5.63353">
        <ele>410.36</ele>
        <time>2021-04-23T21:26:30Z</time>
      </trkpt>
      <trkpt lat="43.78438" lon="5.63347">
        <ele>410.791</ele>
        <time>2021-04-23T21:26:50Z</time>
      </trkpt>
      <trkpt lat="43.78434" lon="5.6334">
        <ele>410.875</ele>
        <time>2021-04-23T21:27:10Z</time>
      </trkpt>
      <trkpt lat="43.78433" lon="5.63338">
        <ele>410.859</ele>
        <time>2021-04-23T21:27:30Z</time>
      </trkpt>
      <trkpt lat="43.78427" lon="5.63328">
        <ele>411.066</ele>
        <time>2021-04-23T21:27:50Z</time>
      </trkpt>
      <trkpt lat="43.78407" lon="5.633">
        <ele>410.128</ele>
        <time>2021-04-23T21:28:10Z</time>
      </trkpt>
      <trkpt lat="43.78402" lon="5.63292">
        <ele>409.618</ele>
        <time>2021-04-23T21:28:30Z</time>
      </trkpt>
      <trkpt lat="43.78396" lon="5.63285">
        <ele>409.298</ele>
        <time>2021-04-23T21:28:50Z</time>
      </trkpt>
      <trkpt lat="43.78392" lon="5.63272">
        <ele>408.515</ele>
        <time>2021-04-23T21:29:10Z</time>
      </trkpt>
      <trkpt lat="43.78389" lon="5.63254">
        <ele>407.426</ele>
        <time>2021-04-23T21:29:30Z</time>
      </trkpt>
      <trkpt lat="43.78387" lon="5.63234">
        <ele>406.008</ele>
        <time>2021-04-23T21:29:50Z</time>
      </trkpt>
      <trkpt lat="43.78384" lon="5.63192">
        <ele>403.096</ele>
        <time>2021-04-23T21:30:10Z</time>
      </trkpt>
      <trkpt lat="43.78387" lon="5.63187">
        <ele>402.12</ele>
        <time>2021-04-23T21:30:30Z</time>
      </trkpt>
      <trkpt lat="43.78389" lon="5.63184">
        <ele>401.631</ele>
        <time>2021-04-23T21:30:50Z</time>
      </trkpt>
      <trkpt lat="43.78395" lon="5.63181">
        <ele>400.515</ele>
        <time>2021-04-23T21:31:10Z</time>
      </trkpt>
      <trkpt lat="43.78395" lon="5.63177">
        <ele>400.479</ele>
        <time>2021-04-23T21:31:30Z</time>
      </trkpt>
      <trkpt lat="43.78395" lon="5.63164">
        <ele>399.896</ele>
        <time>2021-04-23T21:31:50Z</time>
      </trkpt>
      <trkpt lat="43.78403" lon="5.63108">
        <ele>396.948</ele>
        <time>2021-04-23T21:32:10Z</time>
      </trkpt>
      <trkpt lat="43.78423" lon="5.62971">
        <ele>391.958</ele>
        <time>2021-04-23T21:32:30Z</time>
      </trkpt>
      <trkpt lat="43.78434" lon="5.62917">
        <ele>390.317</ele>
        <time>2021-04-23T21:32:50Z</time>
      </trkpt>
      <trkpt lat="43.78448" lon="5.62865">
        <ele>390.287</ele>
        <time>2021-04-23T21:33:10Z</time>
      </trkpt>
      <trkpt lat="43.78483" lon="5.6274">
        <ele>391.315</ele>
        <time>2021-04-23T21:33:30Z</time>
      </trkpt>
      <trkpt lat="43.78493" lon="5.62698">
        <ele>390.408</ele>
        <time>2021-04-23T21:33:50Z</time>
      </trkpt>
      <trkpt lat="43.78498" lon="5.6266">
        <ele>389.088</ele>
        <time>2021-04-23T21:34:10Z</time>
      </trkpt>
      <trkpt lat="43.78504" lon="5.62636">
        <ele>388.242</ele>
        <time>2021-04-23T21:34:30Z</time>
      </trkpt>
      <trkpt lat="43.78511" lon="5.6262">
        <ele>387.913</ele>
        <time>2021-04-23T21:34:50Z</time>
      </trkpt>
      <trkpt lat="43.78516" lon="5.62617">
        <ele>388.077</ele>
        <time>2021-04-23T21:35:10Z</time>
      </trkpt>
      <trkpt lat="43.7852" lon="5.62612">
        <ele>388.021</ele>
        <time>2021-04-23T21:35:30Z</time>
      </trkpt>
      <trkpt lat="43.78523" lon="5.62603">
        <ele>387.868</ele>
        <time>2021-04-23T21:35:50Z</time>
      </trkpt>
      <trkpt lat="43.78523" lon="5.62596">
        <ele>387.73</ele>
        <time>2021-04-23T21:36:10Z</time>
      </trkpt>
      <trkpt lat="43.78519" lon="5.62585">
        <ele>387.26</ele>
        <time>2021-04-23T21:36:30Z</time>
      </trkpt>
      <trkpt lat="43.78515" lon="5.62581">
        <ele>387.077</ele>
        <time>2021-04-23T21:36:50Z</time>
      </trkpt>
      <trkpt lat="43.78508" lon="5.62579">
        <ele>386.761</ele>
        <time>2021-04-23T21:37:10Z</time>
      </trkpt>
      <trkpt lat="43.78506" lon="5.62579">
        <ele>386.627</ele>
        <time>2021-04-23T21:37:30Z</time>
      </trkpt>
      <trkpt lat="43.785" lon="5.62573">
        <ele>386.208</ele>
        <time>2021-04-23T21:37:50Z</time>
      </trkpt>
      <trkpt lat="43.78492" lon="5.62564">
        <ele>385.864</ele>
        <time>2021-04-23T21:38:10Z</time>
      </trkpt>
      <trkpt lat="43.78477" lon="5.62546">
        <ele>385.028</ele>
        <time>2021-04-23T21:38:30Z</time>
      </trkpt>
      <trkpt lat="43.78467" lon="5.62525">
        <ele>384.359</ele>
        <time>2021-04-23T21:38:50Z</time>
      </trkpt>
      <trkpt lat="43.78459" lon="5.62508">
        <ele>383.773</ele>
        <time>2021-04-23T21:39:10Z</time>
      </trkpt>
      <trkpt lat="43.7843" lon="5.62438">
        <ele>379.727</ele>
        <time>2021-04-23T21:39:30Z</time>
      </trkpt>
      <trkpt lat="43.78373" lon="5.62299">
        <ele>378.544</ele>
        <time>2021-04-23T21:39:50Z</time>
      </trkpt>
      <trkpt lat="43.78366" lon="5.62278">
        <ele>378.386</ele>
        <time>2021-04-23T21:40:10Z</time>
      </trkpt>
      <trkpt lat="43.78317" lon="5.62141">
        <ele>376.116</ele>
        <time>2021-04-23T21:40:30Z</time>
      </trkpt>
      <trkpt lat="43.78298" lon="5.62089">
        <ele>375.042</ele>
        <time>2021-04-23T21:40:50Z</time>
      </trkpt>
      <trkpt lat="43.78278" lon="5.62046">
        <ele>375.322</ele>
        <time>2021-04-23T21:41:10Z</time>
      </trkpt>
      <trkpt lat="43.78188" lon="5.61862">
        <ele>372.214</ele>
        <time>2021-04-23T21:41:30Z</time>
      </trkpt>
      <trkpt lat="43.78182" lon="5.61848">
        <ele>372.308</ele>
        <time>2021-04-23T21:41:50Z</time>
      </trkpt>
      <trkpt lat="43.78176" lon="5.61832">
        <ele>372.191</ele>
        <time>2021-04-23T21:42:10Z</time>
      </trkpt>
      <trkpt lat="43.78168" lon="5.6181">
        <ele>371.625</ele>
        <time>2021-04-23T21:42:30Z</time>
      </trkpt>
      <trkpt lat="43.78162" lon="5.6179">
        <ele>371.086</ele>
        <time>2021-04-23T21:42:50Z</time>
      </trkpt>
      <trkpt lat="43.78134" lon="5.61668">
        <ele>366.09</ele>
        <time>2021-04-23T21:43:10Z</time>
      </trkpt>
      <trkpt lat="43.78124" lon="5.61626">
        <ele>365.924</ele>
        <time>2021-04-23T21:43:30Z</time>
      </trkpt>
      <trkpt lat="43.78118" lon="5.61605">
        <ele>365.991</ele>
        <time>2021-04-23T21:43:50Z</time>
      </trkpt>
      <trkpt lat="43.78112" lon="5.61592">
        <ele>365.883</ele>
        <time>2021-04-23T21:44:10Z</time>
      </trkpt>
      <trkpt lat="43.78105" lon="5.6158">
        <ele>365.833</ele>
        <time>2021-04-23T21:44:30Z</time>
      </trkpt>
      <trkpt lat="43.78098" lon="5.61573">
        <ele>365.794</ele>
        <time>2021-04-23T21:44:50Z</time>
      </trkpt>
      <trkpt lat="43.78091" lon="5.61568">
        <ele>365.657</ele>
        <time>2021-04-23T21:45:10Z</time>
      </trkpt>
      <trkpt lat="43.78083" lon="5.61564">
        <ele>365.422</ele>
        <time>2021-04-23T21:45:30Z</time>
      </trkpt>
      <trkpt lat="43.78084" lon="5.6156">
        <ele>365.308</ele>
        <time>2021-04-23T21:45:50Z</time>
      </trkpt>
      <trkpt lat="43.78083" lon="5.61556">
        <ele>365.296</ele>
        <time>2021-04-23T21:46:10Z</time>
      </trkpt>
      <trkpt lat="43.7808" lon="5.61549">
        <ele>365.09</ele>
        <time>2021-04-23T21:46:30Z</time>
      </trkpt>
      <trkpt lat="43.78075" lon="5.61541">
        <ele>364.421</ele>
        <time>2021-04-23T21:46:50Z</time>
      </trkpt>
      <trkpt lat="43.78054" lon="5.61523">
        <ele>363.365</ele>
        <time>2021-04-23T21:47:10Z</time>
      </trkpt>
      <trkpt lat="43.78045" lon="5.61514">
        <ele>363.099</ele>
        <time>2021-04-23T21:47:30Z</time>
      </trkpt>
      <trkpt lat="43.78036" lon="5.61501">
        <ele>362.796</ele>
        <time>2021-04-23T21:47:50Z</time>
      </trkpt>
      <trkpt lat="43.78028" lon="5.61484">
        <ele>362.638</ele>
        <time>2021-04-23T21:48:10Z</time>
      </trkpt>
      <trkpt lat="43.78022" lon="5.61471">
        <ele>362.678</ele>
        <time>2021-04-23T21:48:30Z</time>
      </trkpt>
      <trkpt lat="43.78015" lon="5.6145">
        <ele>362.751</ele>
        <time>2021-04-23T21:48:50Z</time>
      </trkpt>
      <trkpt lat="43.78007" lon="5.61435">
        <ele>362.701</ele>
        <time>2021-04-23T21:49:10Z</time>
      </trkpt>
      <trkpt lat="43.77998" lon="5.61424">
        <ele>362.811</ele>
        <time>2021-04-23T21:49:30Z</time>
      </trkpt>
      <trkpt lat="43.77988" lon="5.61416">
        <ele>363.108</ele>
        <time>2021-04-23T21:49:50Z</time>
      </trkpt>
      <trkpt lat="43.77979" lon="5.61411">
        <ele>363.342</ele>
        <time>2021-04-23T21:50:10Z</time>
      </trkpt>
      <trkpt lat="43.7796" lon="5.61407">
        <ele>363.576</ele>
        <time>2021-04-23T21:50:30Z</time>
      </trkpt>
      <trkpt lat="43.77921" lon="5.61404">
        <ele>363.647</ele>
        <time>2021-04-23T21:50:50Z</time>
      </trkpt>
      <trkpt lat="43.77912" lon="5.61398">
        <ele>363.951</ele>
        <time>2021-04-23T21:51:10Z</time>
      </trkpt>
      <trkpt lat="43.7791" lon="5.61394">
        <ele>364.225</ele>
        <time>2021-04-23T21:51:30Z</time>
      </trkpt>
      <trkpt lat="43.7791" lon="5.61393">
        <ele>364.382</ele>
        <time>2021-04-23T21:51:50Z</time>
      </trkpt>
      <trkpt lat="43.7791" lon="5.61394">
        <ele>364.214</ele>
        <time>2021-04-23T21:52:10Z</time>
      </trkpt>
      <trkpt lat="43.77908" lon="5.61392">
        <ele>364.424</ele>
        <time>2021-04-23T21:52:30Z</time>
      </trkpt>
      <trkpt lat="43.77906" lon="5.61386">
        <ele>364.924</ele>
        <time>2021-04-23T21:52:50Z</time>
      </trkpt>
      <trkpt lat="43.7793" lon="5.61352">
        <ele>368.104</ele>
        <time>2021-04-23T21:53:10Z</time>
      </trkpt>
      <trkpt lat="43.77957" lon="5.61305">
        <ele>373.014</ele>
        <time>2021-04-23T21:53:30Z</time>
      </trkpt>
      <trkpt lat="43.78124" lon="5.60971">
        <ele>388.608</ele>
        <time>2021-04-23T21:53:50Z</time>
      </trkpt>
      <trkpt lat="43.78161" lon="5.60917">
        <ele>392.419</ele>
        <time>2021-04-23T21:54:10Z</time>
      </trkpt>
      <trkpt lat="43.78181" lon="5.609">
        <ele>394.683</ele>
        <time>2021-04-23T21:54:30Z</time>
      </trkpt>
      <trkpt lat="43.78184" lon="5.60892">
        <ele>395.524</ele>
        <time>2021-04-23T21:54:50Z</time>
      </trkpt>
      <trkpt lat="43.78209" lon="5.6086">
        <ele>398.458</ele>
        <time>2021-04-23T21:55:10Z</time>
      </trkpt>
      <trkpt lat="43.78213" lon="5.60844">
        <ele>398.782</ele>
        <time>2021-04-23T21:55:30Z</time>
      </trkpt>
      <trkpt lat="43.78216" lon="5.60814">
        <ele>398.539</ele>
        <time>2021-04-23T21:55:50Z</time>
      </trkpt>
      <trkpt lat="43.78218" lon="5.60779">
        <ele>398.611</ele>
        <time>2021-04-23T21:56:10Z</time>
      </trkpt>
      <trkpt lat="43.78225" lon="5.60743">
        <ele>399.351</ele>
        <time>2021-04-23T21:56:30Z</time>
      </trkpt>
      <trkpt lat="43.78232" lon="5.60691">
        <ele>400.637</ele>
        <time>2021-04-23T21:56:50Z</time>
      </trkpt>
      <trkpt lat="43.78236" lon="5.60669">
        <ele>401.049</ele>
        <time>2021-04-23T21:57:10Z</time>
      </trkpt>
      <trkpt lat="43.78235" lon="5.60647">
        <ele>400.813</ele>
        <time>2021-04-23T21:57:30Z</time>
      </trkpt>
      <trkpt lat="43.78236" lon="5.60625">
        <ele>401.008</ele>
        <time>2021-04-23T21:57:50Z</time>
      </trkpt>
      <trkpt lat="43.7825" lon="5.60568">
        <ele>403.14</ele>
        <time>2021-04-23T21:58:10Z</time>
      </trkpt>
      <trkpt lat="43.78253" lon="5.60564">
        <ele>403.584</ele>
        <time>2021-04-23T21:58:30Z</time>
      </trkpt>
      <trkpt lat="43.78259" lon="5.60548">
        <ele>404.265</ele>
        <time>2021-04-23T21:58:50Z</time>
      </trkpt>
      <trkpt lat="43.78271" lon="5.60529">
        <ele>404.999</ele>
        <time>2021-04-23T21:59:10Z</time>
      </trkpt>
      <trkpt lat="43.78276" lon="5.60516">
        <ele>404.833</ele>
        <time>2021-04-23T21:59:30Z</time>
      </trkpt>
      <trkpt lat="43.78278" lon="5.60488">
        <ele>403.52</ele>
        <time>2021-04-23T21:59:50Z</time>
      </trkpt>
      <trkpt lat="43.78274" lon="5.60475">
        <ele>402.892</ele>
        <time>2021-04-23T22:00:10Z</time>
      </trkpt>
      <trkpt lat="43.78268" lon="5.60444">
        <ele>401.752</ele>
        <time>2021-04-23T22:00:30Z</time>
      </trkpt>
      <trkpt lat="43.78265" lon="5.60418">
        <ele>403.542</ele>
        <time>2021-04-23T22:00:50Z</time>
      </trkpt>
      <trkpt lat="43.78267" lon="5.60404">
        <ele>404.422</ele>
        <time>2021-04-23T22:01:10Z</time>
      </trkpt>
      <trkpt lat="43.78279" lon="5.6038">
        <ele>404.814</ele>
        <time>2021-04-23T22:01:30Z</time>
      </trkpt>
      <trkpt lat="43.78288" lon="5.60365">
        <ele>404.608</ele>
        <time>2021-04-23T22:01:50Z</time>
      </trkpt>
      <trkpt lat="43.78296" lon="5.60345">
        <ele>404.521</ele>
        <time>2021-04-23T22:02:10Z</time>
      </trkpt>
      <trkpt lat="43.78297" lon="5.60305">
        <ele>406.135</ele>
        <time>2021-04-23T22:02:30Z</time>
      </trkpt>
      <trkpt lat="43.78292" lon="5.60293">
        <ele>407.226</ele>
        <time>2021-04-23T22:02:50Z</time>
      </trkpt>
      <trkpt lat="43.78281" lon="5.60261">
        <ele>409.13</ele>
        <time>2021-04-23T22:03:10Z</time>
      </trkpt>
      <trkpt lat="43.78273" lon="5.60223">
        <ele>410.524</ele>
        <time>2021-04-23T22:03:30Z</time>
      </trkpt>
      <trkpt lat="43.78277" lon="5.60197">
        <ele>409.881</ele>
        <time>2021-04-23T22:03:50Z</time>
      </trkpt>
      <trkpt lat="43.78285" lon="5.60172">
        <ele>408.383</ele>
        <time>2021-04-23T22:04:10Z</time>
      </trkpt>
      <trkpt lat="43.78285" lon="5.60151">
        <ele>407.623</ele>
        <time>2021-04-23T22:04:30Z</time>
      </trkpt>
      <trkpt lat="43.78288" lon="5.6015">
        <ele>407.183</ele>
        <time>2021-04-23T22:04:50Z</time>
      </trkpt>
      <trkpt lat="43.78246" lon="5.60079">
        <ele>409.125</ele>
        <time>2021-04-23T22:05:10Z</time>
      </trkpt>
      <trkpt lat="43.78178" lon="5.59993">
        <ele>403.517</ele>
        <time>2021-04-23T22:05:30Z</time>
      </trkpt>
      <trkpt lat="43.78168" lon="5.59981">
        <ele>400.808</ele>
        <time>2021-04-23T22:05:50Z</time>
      </trkpt>
      <trkpt lat="43.78099" lon="5.59946">
        <ele>387.815</ele>
        <time>2021-04-23T22:06:10Z</time>
      </trkpt>
      <trkpt lat="43.78041" lon="5.60043">
        <ele>383.359</ele>
        <time>2021-04-23T22:06:30Z</time>
      </trkpt>
      <trkpt lat="43.77982" lon="5.6014">
        <ele>379.73</ele>
        <time>2021-04-23T22:06:50Z</time>
      </trkpt>
      <trkpt lat="43.77969" lon="5.60162">
        <ele>379.734</ele>
        <time>2021-04-23T22:07:10Z</time>
      </trkpt>
      <trkpt lat="43.77937" lon="5.60155">
        <ele>376.168</ele>
        <time>2021-04-23T22:07:30Z</time>
      </trkpt>
      <trkpt lat="43.77937" lon="5.60159">
        <ele>376.355</ele>
        <time>2021-04-23T22:07:50Z</time>
      </trkpt>
      <trkpt lat="43.77943" lon="5.60158">
        <ele>376.947</ele>
        <time>2021-04-23T22:08:10Z</time>
      </trkpt>
      <trkpt lat="43.77972" lon="5.60125">
        <ele>377.867</ele>
        <time>2021-04-23T22:08:30Z</time>
      </trkpt>
      <trkpt lat="43.77972" lon="5.60119">
        <ele>377.475</ele>
        <time>2021-04-23T22:08:50Z</time>
      </trkpt>
      <trkpt lat="43.77972" lon="5.60081">
        <ele>374.928</ele>
        <time>2021-04-23T22:09:10Z</time>
      </trkpt>
      <trkpt lat="43.77973" lon="5.60056">
        <ele>373.42</ele>
        <time>2021-04-23T22:09:30Z</time>
      </trkpt>
      <trkpt lat="43.77977" lon="5.60035">
        <ele>372.408</ele>
        <time>2021-04-23T22:09:50Z</time>
      </trkpt>
      <trkpt lat="43.77984" lon="5.60026">
        <ele>372.344</ele>
        <time>2021-04-23T22:10:10Z</time>
      </trkpt>
      <trkpt lat="43.77998" lon="5.60007">
        <ele>372.128</ele>
        <time>2021-04-23T22:10:30Z</time>
      </trkpt>
      <trkpt lat="43.78011" lon="5.59993">
        <ele>373.459</ele>
        <time>2021-04-23T22:10:50Z</time>
      </trkpt>
      <trkpt lat="43.78018" lon="5.59962">
        <ele>373.133</ele>
        <time>2021-04-23T22:11:10Z</time>
      </trkpt>
      <trkpt lat="43.78017" lon="5.5994">
        <ele>371.637</ele>
        <time>2021-04-23T22:11:30Z</time>
      </trkpt>
      <trkpt lat="43.78017" lon="5.59919">
        <ele>370.484</ele>
        <time>2021-04-23T22:11:50Z</time>
      </trkpt>
      <trkpt lat="43.78022" lon="5.599">
        <ele>370.136</ele>
        <time>2021-04-23T22:12:10Z</time>
      </trkpt>
      <trkpt lat="43.7803" lon="5.59893">
        <ele>371.226</ele>
        <time>2021-04-23T22:12:30Z</time>
      </trkpt>
      <trkpt lat="43.78038" lon="5.59884">
        <ele>372.173</ele>
        <time>2021-04-23T22:12:50Z</time>
      </trkpt>
      <trkpt lat="43.78038" lon="5.59875">
        <ele>371.885</ele>
        <time>2021-04-23T22:13:10Z</time>
      </trkpt>
      <trkpt lat="43.78039" lon="5.59875">
        <ele>371.913</ele>
        <time>2021-04-23T22:13:30Z</time>
      </trkpt>
      <trkpt lat="43.78038" lon="5.59875">
        <ele>371.808</ele>
        <time>2021-04-23T22:13:50Z</time>
      </trkpt>
      <trkpt lat="43.78039" lon="5.59862">
        <ele>371.464</ele>
        <time>2021-04-23T22:14:10Z</time>
      </trkpt>
      <trkpt lat="43.78036" lon="5.59852">
        <ele>370.658</ele>
        <time>2021-04-23T22:14:30Z</time>
      </trkpt>
      <trkpt lat="43.78046" lon="5.59853">
        <ele>372.299</ele>
        <time>2021-04-23T22:14:50Z</time>
      </trkpt>
      <trkpt lat="43.78079" lon="5.59832">
        <ele>375.693</ele>
        <time>2021-04-23T22:15:10Z</time>
      </trkpt>
      <trkpt lat="43.78084" lon="5.59829">
        <ele>376.127</ele>
        <time>2021-04-23T22:15:30Z</time>
      </trkpt>
      <trkpt lat="43.78089" lon="5.59821">
        <ele>376.284</ele>
        <time>2021-04-23T22:15:50Z</time>
      </trkpt>
      <trkpt lat="43.78095" lon="5.59806">
        <ele>375.736</ele>
        <time>2021-04-23T22:16:10Z</time>
      </trkpt>
      <trkpt lat="43.781" lon="5.59799">
        <ele>375.846</ele>
        <time>2021-04-23T22:16:30Z</time>
      </trkpt>
      <trkpt lat="43.78107" lon="5.59796">
        <ele>376.167</ele>
        <time>2021-04-23T22:16:50Z</time>
      </trkpt>
      <trkpt lat="43.78193" lon="5.5977">
        <ele>379.981</ele>
        <time>2021-04-23T22:17:10Z</time>
      </trkpt>
      <trkpt lat="43.78203" lon="5.59782">
        <ele>381.919</ele>
        <time>2021-04-23T22:17:30Z</time>
      </trkpt>
      <trkpt lat="43.78202" lon="5.59785">
        <ele>382.308</ele>
        <time>2021-04-23T22:17:50Z</time>
      </trkpt>
      <trkpt lat="43.78203" lon="5.59782">
        <ele>381.913</ele>
        <time>2021-04-23T22:18:10Z</time>
      </trkpt>
      <trkpt lat="43.78207" lon="5.59788">
        <ele>382.597</ele>
        <time>2021-04-23T22:18:30Z</time>
      </trkpt>
      <trkpt lat="43.78222" lon="5.59797">
        <ele>383.158</ele>
        <time>2021-04-23T22:18:50Z</time>
      </trkpt>
      <trkpt lat="43.78237" lon="5.59804">
        <ele>383.482</ele>
        <time>2021-04-23T22:19:10Z</time>
      </trkpt>
      <trkpt lat="43.78247" lon="5.59809">
        <ele>383.666</ele>
        <time>2021-04-23T22:19:30Z</time>
      </trkpt>
      <trkpt lat="43.78269" lon="5.59804">
        <ele>382.213</ele>
        <time>2021-04-23T22:19:50Z</time>
      </trkpt>
      <trkpt lat="43.78294" lon="5.59792">
        <ele>379.915</ele>
        <time>2021-04-23T22:20:10Z</time>
      </trkpt>
      <trkpt lat="43.78305" lon="5.59794">
        <ele>378.845</ele>
        <time>2021-04-23T22:20:30Z</time>
      </trkpt>
      <trkpt lat="43.78303" lon="5.59771">
        <ele>376.751</ele>
        <time>2021-04-23T22:20:50Z</time>
      </trkpt>
      <trkpt lat="43.78306" lon="5.5975">
        <ele>374.401</ele>
        <time>2021-04-23T22:21:10Z</time>
      </trkpt>
      <trkpt lat="43.78306" lon="5.59717">
        <ele>374.511</ele>
        <time>2021-04-23T22:21:30Z</time>
      </trkpt>
      <trkpt lat="43.78307" lon="5.59671">
        <ele>374.508</ele>
        <time>2021-04-23T22:21:50Z</time>
      </trkpt>
      <trkpt lat="43.78312" lon="5.59626">
        <ele>373.772</ele>
        <time>2021-04-23T22:22:10Z</time>
      </trkpt>
      <trkpt lat="43.78296" lon="5.59605">
        <ele>376.376</ele>
        <time>2021-04-23T22:22:30Z</time>
      </trkpt>
      <trkpt lat="43.78288" lon="5.59593">
        <ele>376.527</ele>
        <time>2021-04-23T22:22:50Z</time>
      </trkpt>
      <trkpt lat="43.78288" lon="5.59576">
        <ele>375.281</ele>
        <time>2021-04-23T22:23:10Z</time>
      </trkpt>
      <trkpt lat="43.78293" lon="5.59548">
        <ele>372.545</ele>
        <time>2021-04-23T22:23:30Z</time>
      </trkpt>
      <trkpt lat="43.78292" lon="5.59532">
        <ele>371.562</ele>
        <time>2021-04-23T22:23:50Z</time>
      </trkpt>
      <trkpt lat="43.78285" lon="5.59514">
        <ele>371.224</ele>
        <time>2021-04-23T22:24:10Z</time>
      </trkpt>
      <trkpt lat="43.78277" lon="5.59497">
        <ele>371.234</ele>
        <time>2021-04-23T22:24:30Z</time>
      </trkpt>
      <trkpt lat="43.78274" lon="5.59475">
        <ele>369.935</ele>
        <time>2021-04-23T22:24:50Z</time>
      </trkpt>
      <trkpt lat="43.7827" lon="5.59455">
        <ele>367.786</ele>
        <time>2021-04-23T22:25:10Z</time>
      </trkpt>
      <trkpt lat="43.78262" lon="5.5944">
        <ele>366.714</ele>
        <time>2021-04-23T22:25:30Z</time>
      </trkpt>
      <trkpt lat="43.78254" lon="5.59429">
        <ele>366.508</ele>
        <time>2021-04-23T22:25:50Z</time>
      </trkpt>
      <trkpt lat="43.78244" lon="5.59416">
        <ele>365.97</ele>
        <time>2021-04-23T22:26:10Z</time>
      </trkpt>
      <trkpt lat="43.78239" lon="5.59408">
        <ele>365.584</ele>
        <time>2021-04-23T22:26:30Z</time>
      </trkpt>
      <trkpt lat="43.78237" lon="5.5941">
        <ele>366.085</ele>
        <time>2021-04-23T22:26:50Z</time>
      </trkpt>
      <trkpt lat="43.78239" lon="5.59408">
        <ele>365.559</ele>
        <time>2021-04-23T22:27:10Z</time>
      </trkpt>
      <trkpt lat="43.78237" lon="5.59406">
        <ele>365.463</ele>
        <time>2021-04-23T22:27:30Z</time>
        <extensions>
          <visugpx:TrkExtension xmlns:visugpx="https://www.visugpx.com/editgpx/">
            <visugpx:node>1</visugpx:node>
            </visugpx:TrkExtension>
        </extensions>
      </trkpt>
      <trkpt lat="43.78231" lon="5.59404">
        <ele>345.8</ele>
      </trkpt>
      <trkpt lat="43.78204" lon="5.59391">
        <ele>347.4</ele>
      </trkpt>
      <trkpt lat="43.78174" lon="5.59374">
        <ele>347.7</ele>
      </trkpt>
      <trkpt lat="43.78085" lon="5.59306">
        <ele>346.9</ele>
      </trkpt>
      <trkpt lat="43.77983" lon="5.59223">
        <ele>345</ele>
      </trkpt>
      <trkpt lat="43.77957" lon="5.59207">
        <ele>343.5</ele>
      </trkpt>
      <trkpt lat="43.77942" lon="5.59203">
        <ele>342.9</ele>
      </trkpt>
      <trkpt lat="43.77926" lon="5.59203">
        <ele>341.2</ele>
      </trkpt>
      <trkpt lat="43.77866" lon="5.59209">
        <ele>338.3</ele>
      </trkpt>
      <trkpt lat="43.77842" lon="5.59217">
        <ele>337.9</ele>
      </trkpt>
      <trkpt lat="43.7782" lon="5.5923">
        <ele>338.2</ele>
      </trkpt>
      <trkpt lat="43.77779" lon="5.59249">
        <ele>336</ele>
      </trkpt>
      <trkpt lat="43.77761" lon="5.59252">
        <ele>335.7</ele>
      </trkpt>
      <trkpt lat="43.77751" lon="5.59251">
        <ele>335.1</ele>
      </trkpt>
      <trkpt lat="43.77736" lon="5.59245">
        <ele>333.7</ele>
      </trkpt>
      <trkpt lat="43.77656" lon="5.59214">
        <ele>332</ele>
      </trkpt>
      <trkpt lat="43.77564" lon="5.59178">
        <ele>329.9</ele>
      </trkpt>
      <trkpt lat="43.77564" lon="5.59179">
        <ele>330</ele>
        <extensions>
          <visugpx:TrkExtension xmlns:visugpx="https://www.visugpx.com/editgpx/">
            <visugpx:node>2</visugpx:node>
            </visugpx:TrkExtension>
        </extensions>
      </trkpt>
      <trkpt lat="43.77564" lon="5.59178">
        <ele>332.458</ele>
        <time>2021-04-23T23:04:30Z</time>
      </trkpt>
      <trkpt lat="43.77591" lon="5.59154">
        <ele>332.418</ele>
        <time>2021-04-23T23:04:10Z</time>
      </trkpt>
      <trkpt lat="43.77615" lon="5.59127">
        <ele>331.446</ele>
        <time>2021-04-23T23:03:50Z</time>
      </trkpt>
      <trkpt lat="43.77629" lon="5.59101">
        <ele>329.989</ele>
        <time>2021-04-23T23:03:30Z</time>
      </trkpt>
      <trkpt lat="43.77636" lon="5.59088">
        <ele>329.275</ele>
        <time>2021-04-23T23:03:10Z</time>
      </trkpt>
      <trkpt lat="43.77646" lon="5.59087">
        <ele>329.411</ele>
        <time>2021-04-23T23:02:50Z</time>
      </trkpt>
      <trkpt lat="43.77656" lon="5.59097">
        <ele>330.28</ele>
        <time>2021-04-23T23:02:30Z</time>
      </trkpt>
      <trkpt lat="43.77672" lon="5.59114">
        <ele>331.586</ele>
        <time>2021-04-23T23:02:10Z</time>
      </trkpt>
      <trkpt lat="43.77688" lon="5.59121">
        <ele>332.308</ele>
        <time>2021-04-23T23:01:50Z</time>
      </trkpt>
      <trkpt lat="43.77703" lon="5.59124">
        <ele>332.722</ele>
        <time>2021-04-23T23:01:30Z</time>
      </trkpt>
      <trkpt lat="43.77717" lon="5.59115">
        <ele>332.457</ele>
        <time>2021-04-23T23:01:10Z</time>
      </trkpt>
      <trkpt lat="43.77734" lon="5.59084">
        <ele>330.694</ele>
        <time>2021-04-23T23:00:50Z</time>
      </trkpt>
      <trkpt lat="43.77739" lon="5.59062">
        <ele>329.646</ele>
        <time>2021-04-23T23:00:30Z</time>
      </trkpt>
      <trkpt lat="43.77734" lon="5.59021">
        <ele>330.516</ele>
        <time>2021-04-23T23:00:10Z</time>
      </trkpt>
      <trkpt lat="43.77729" lon="5.58975">
        <ele>331.534</ele>
        <time>2021-04-23T22:59:50Z</time>
      </trkpt>
      <trkpt lat="43.77741" lon="5.58945">
        <ele>332.527</ele>
        <time>2021-04-23T22:59:30Z</time>
      </trkpt>
      <trkpt lat="43.77769" lon="5.5892">
        <ele>334.483</ele>
        <time>2021-04-23T22:59:10Z</time>
      </trkpt>
      <trkpt lat="43.77794" lon="5.58906">
        <ele>336.279</ele>
        <time>2021-04-23T22:58:50Z</time>
      </trkpt>
      <trkpt lat="43.77793" lon="5.58904">
        <ele>336.468</ele>
        <time>2021-04-23T22:58:30Z</time>
      </trkpt>
      <trkpt lat="43.77794" lon="5.58906">
        <ele>336.264</ele>
        <time>2021-04-23T22:58:10Z</time>
      </trkpt>
      <trkpt lat="43.778" lon="5.58902">
        <ele>336.708</ele>
        <time>2021-04-23T22:57:50Z</time>
      </trkpt>
      <trkpt lat="43.77816" lon="5.58886">
        <ele>338.113</ele>
        <time>2021-04-23T22:57:30Z</time>
      </trkpt>
      <trkpt lat="43.77844" lon="5.58842">
        <ele>340.885</ele>
        <time>2021-04-23T22:57:10Z</time>
      </trkpt>
      <trkpt lat="43.77872" lon="5.58788">
        <ele>342.673</ele>
        <time>2021-04-23T22:56:50Z</time>
      </trkpt>
      <trkpt lat="43.77889" lon="5.58767">
        <ele>343.581</ele>
        <time>2021-04-23T22:56:30Z</time>
      </trkpt>
      <trkpt lat="43.77928" lon="5.58736">
        <ele>346.141</ele>
        <time>2021-04-23T22:56:10Z</time>
      </trkpt>
      <trkpt lat="43.77959" lon="5.58714">
        <ele>347.819</ele>
        <time>2021-04-23T22:55:50Z</time>
      </trkpt>
      <trkpt lat="43.7798" lon="5.58697">
        <ele>348.732</ele>
        <time>2021-04-23T22:55:30Z</time>
      </trkpt>
      <trkpt lat="43.77993" lon="5.58682">
        <ele>349.318</ele>
        <time>2021-04-23T22:55:10Z</time>
      </trkpt>
      <trkpt lat="43.78001" lon="5.58669">
        <ele>349.834</ele>
        <time>2021-04-23T22:54:50Z</time>
      </trkpt>
      <trkpt lat="43.78006" lon="5.58653">
        <ele>350.773</ele>
        <time>2021-04-23T22:54:30Z</time>
      </trkpt>
      <trkpt lat="43.78016" lon="5.58642">
        <ele>351.659</ele>
        <time>2021-04-23T22:54:10Z</time>
      </trkpt>
      <trkpt lat="43.78026" lon="5.58624">
        <ele>352.308</ele>
        <time>2021-04-23T22:53:50Z</time>
      </trkpt>
      <trkpt lat="43.78039" lon="5.58614">
        <ele>353.611</ele>
        <time>2021-04-23T22:53:30Z</time>
      </trkpt>
      <trkpt lat="43.78066" lon="5.58582">
        <ele>355.647</ele>
        <time>2021-04-23T22:53:10Z</time>
      </trkpt>
      <trkpt lat="43.78073" lon="5.58576">
        <ele>356.226</ele>
        <time>2021-04-23T22:52:50Z</time>
      </trkpt>
      <trkpt lat="43.78087" lon="5.58563">
        <ele>357.348</ele>
        <time>2021-04-23T22:52:30Z</time>
      </trkpt>
      <trkpt lat="43.78105" lon="5.58556">
        <ele>359.328</ele>
        <time>2021-04-23T22:52:10Z</time>
      </trkpt>
      <trkpt lat="43.78116" lon="5.58555">
        <ele>361.486</ele>
        <time>2021-04-23T22:51:50Z</time>
      </trkpt>
      <trkpt lat="43.78143" lon="5.58534">
        <ele>365.899</ele>
        <time>2021-04-23T22:51:30Z</time>
      </trkpt>
      <trkpt lat="43.78151" lon="5.58534">
        <ele>367.235</ele>
        <time>2021-04-23T22:51:10Z</time>
      </trkpt>
      <trkpt lat="43.78169" lon="5.58559">
        <ele>371.621</ele>
        <time>2021-04-23T22:50:50Z</time>
      </trkpt>
      <trkpt lat="43.7817" lon="5.58557">
        <ele>371.74</ele>
        <time>2021-04-23T22:50:30Z</time>
      </trkpt>
      <trkpt lat="43.78169" lon="5.58559">
        <ele>371.686</ele>
        <time>2021-04-23T22:50:10Z</time>
      </trkpt>
      <trkpt lat="43.78171" lon="5.58563">
        <ele>372.208</ele>
        <time>2021-04-23T22:49:50Z</time>
      </trkpt>
      <trkpt lat="43.78189" lon="5.58575">
        <ele>376.326</ele>
        <time>2021-04-23T22:49:30Z</time>
      </trkpt>
      <trkpt lat="43.78201" lon="5.58594">
        <ele>379.315</ele>
        <time>2021-04-23T22:49:10Z</time>
      </trkpt>
      <trkpt lat="43.78222" lon="5.58618">
        <ele>381.298</ele>
        <time>2021-04-23T22:48:50Z</time>
      </trkpt>
      <trkpt lat="43.78237" lon="5.58661">
        <ele>383.938</ele>
        <time>2021-04-23T22:48:30Z</time>
      </trkpt>
      <trkpt lat="43.78237" lon="5.58686">
        <ele>383.018</ele>
        <time>2021-04-23T22:48:10Z</time>
      </trkpt>
      <trkpt lat="43.78234" lon="5.58695">
        <ele>382.596</ele>
        <time>2021-04-23T22:47:50Z</time>
      </trkpt>
      <trkpt lat="43.78226" lon="5.58698">
        <ele>382.059</ele>
        <time>2021-04-23T22:47:30Z</time>
      </trkpt>
      <trkpt lat="43.78224" lon="5.58715">
        <ele>381.285</ele>
        <time>2021-04-23T22:47:10Z</time>
      </trkpt>
      <trkpt lat="43.78209" lon="5.58731">
        <ele>379.981</ele>
        <time>2021-04-23T22:46:50Z</time>
      </trkpt>
      <trkpt lat="43.78205" lon="5.58781">
        <ele>377.83</ele>
        <time>2021-04-23T22:46:30Z</time>
      </trkpt>
      <trkpt lat="43.78192" lon="5.58823">
        <ele>371.726</ele>
        <time>2021-04-23T22:46:10Z</time>
      </trkpt>
      <trkpt lat="43.78178" lon="5.58824">
        <ele>370.008</ele>
        <time>2021-04-23T22:45:50Z</time>
      </trkpt>
      <trkpt lat="43.78162" lon="5.58851">
        <ele>365.722</ele>
        <time>2021-04-23T22:45:30Z</time>
      </trkpt>
      <trkpt lat="43.7816" lon="5.58848">
        <ele>365.857</ele>
        <time>2021-04-23T22:45:10Z</time>
      </trkpt>
      <trkpt lat="43.78162" lon="5.58851">
        <ele>365.794</ele>
        <time>2021-04-23T22:44:50Z</time>
      </trkpt>
      <trkpt lat="43.78154" lon="5.58865">
        <ele>363.851</ele>
        <time>2021-04-23T22:44:30Z</time>
      </trkpt>
      <trkpt lat="43.78115" lon="5.58847">
        <ele>362.561</ele>
        <time>2021-04-23T22:44:10Z</time>
      </trkpt>
      <trkpt lat="43.78119" lon="5.5889">
        <ele>360.849</ele>
        <time>2021-04-23T22:43:50Z</time>
      </trkpt>
      <trkpt lat="43.78121" lon="5.58894">
        <ele>360.612</ele>
        <time>2021-04-23T22:43:30Z</time>
      </trkpt>
      <trkpt lat="43.78117" lon="5.58896">
        <ele>360.478</ele>
        <time>2021-04-23T22:43:10Z</time>
      </trkpt>
      <trkpt lat="43.78121" lon="5.58894">
        <ele>360.634</ele>
        <time>2021-04-23T22:42:50Z</time>
      </trkpt>
      <trkpt lat="43.78122" lon="5.58898">
        <ele>360.453</ele>
        <time>2021-04-23T22:42:30Z</time>
      </trkpt>
      <trkpt lat="43.78127" lon="5.58901">
        <ele>360.389</ele>
        <time>2021-04-23T22:42:10Z</time>
      </trkpt>
      <trkpt lat="43.78134" lon="5.58898">
        <ele>360.608</ele>
        <time>2021-04-23T22:41:50Z</time>
      </trkpt>
      <trkpt lat="43.78181" lon="5.58868">
        <ele>364.908</ele>
        <time>2021-04-23T22:41:30Z</time>
      </trkpt>
      <trkpt lat="43.78195" lon="5.58867">
        <ele>365.726</ele>
        <time>2021-04-23T22:41:10Z</time>
      </trkpt>
      <trkpt lat="43.78203" lon="5.58876">
        <ele>365.025</ele>
        <time>2021-04-23T22:40:50Z</time>
      </trkpt>
      <trkpt lat="43.78205" lon="5.58892">
        <ele>362.785</ele>
        <time>2021-04-23T22:40:30Z</time>
        <extensions>
          <visugpx:TrkExtension xmlns:visugpx="https://www.visugpx.com/editgpx/">
            <visugpx:node>8</visugpx:node>
            </visugpx:TrkExtension>
        </extensions>
      </trkpt>
      <trkpt lat="43.78202" lon="5.58905">
        <ele>360.683</ele>
        <time>2021-04-23T22:38:10Z</time>
        <extensions>
          <visugpx:TrkExtension xmlns:visugpx="https://www.visugpx.com/editgpx/">
            <visugpx:node>8</visugpx:node>
            </visugpx:TrkExtension>
        </extensions>
      </trkpt>
      <trkpt lat="43.7819" lon="5.58921">
        <ele>358.208</ele>
        <time>2021-04-23T22:37:50Z</time>
      </trkpt>
      <trkpt lat="43.78178" lon="5.58979">
        <ele>351.418</ele>
        <time>2021-04-23T22:37:30Z</time>
      </trkpt>
      <trkpt lat="43.78178" lon="5.5901">
        <ele>347.644</ele>
        <time>2021-04-23T22:37:10Z</time>
      </trkpt>
      <trkpt lat="43.78189" lon="5.59042">
        <ele>343.763</ele>
        <time>2021-04-23T22:36:50Z</time>
      </trkpt>
      <trkpt lat="43.78191" lon="5.59046">
        <ele>343.362</ele>
        <time>2021-04-23T22:36:30Z</time>
      </trkpt>
      <trkpt lat="43.7819" lon="5.59048">
        <ele>343.152</ele>
        <time>2021-04-23T22:36:10Z</time>
      </trkpt>
      <trkpt lat="43.78191" lon="5.59046">
        <ele>343.35</ele>
        <time>2021-04-23T22:35:50Z</time>
      </trkpt>
      <trkpt lat="43.78219" lon="5.59088">
        <ele>342.443</ele>
        <time>2021-04-23T22:35:30Z</time>
      </trkpt>
      <trkpt lat="43.78257" lon="5.59138">
        <ele>344.659</ele>
        <time>2021-04-23T22:35:10Z</time>
      </trkpt>
      <trkpt lat="43.78257" lon="5.59153">
        <ele>344.535</ele>
        <time>2021-04-23T22:34:50Z</time>
      </trkpt>
      <trkpt lat="43.78264" lon="5.59153">
        <ele>344.884</ele>
        <time>2021-04-23T22:34:30Z</time>
      </trkpt>
      <trkpt lat="43.78287" lon="5.59219">
        <ele>345.59</ele>
        <time>2021-04-23T22:34:10Z</time>
      </trkpt>
      <trkpt lat="43.78313" lon="5.59242">
        <ele>346.508</ele>
        <time>2021-04-23T22:33:50Z</time>
      </trkpt>
      <trkpt lat="43.78337" lon="5.59262">
        <ele>347.31</ele>
        <time>2021-04-23T22:33:30Z</time>
      </trkpt>
      <trkpt lat="43.78355" lon="5.59267">
        <ele>347.655</ele>
        <time>2021-04-23T22:33:10Z</time>
      </trkpt>
      <trkpt lat="43.78353" lon="5.59282">
        <ele>347.634</ele>
        <time>2021-04-23T22:32:50Z</time>
      </trkpt>
      <trkpt lat="43.78351" lon="5.593">
        <ele>347.723</ele>
        <time>2021-04-23T22:32:30Z</time>
      </trkpt>
      <trkpt lat="43.7835" lon="5.59303">
        <ele>347.733</ele>
        <time>2021-04-23T22:32:10Z</time>
      </trkpt>
      <trkpt lat="43.78349" lon="5.59302">
        <ele>347.731</ele>
        <time>2021-04-23T22:31:50Z</time>
      </trkpt>
      <trkpt lat="43.7835" lon="5.59303">
        <ele>347.774</ele>
        <time>2021-04-23T22:31:30Z</time>
      </trkpt>
      <trkpt lat="43.78347" lon="5.5931">
        <ele>347.79</ele>
        <time>2021-04-23T22:31:10Z</time>
      </trkpt>
      <trkpt lat="43.78345" lon="5.59314">
        <ele>347.776</ele>
        <time>2021-04-23T22:30:50Z</time>
      </trkpt>
      <trkpt lat="43.78333" lon="5.59346">
        <ele>348.465</ele>
        <time>2021-04-23T22:30:30Z</time>
        <extensions>
          <visugpx:TrkExtension xmlns:visugpx="https://www.visugpx.com/editgpx/">
            <visugpx:node>3</visugpx:node>
            </visugpx:TrkExtension>
        </extensions>
      </trkpt>
      <trkpt lat="43.78341" lon="5.59344">
        <ele>347.7</ele>
      </trkpt>
      <trkpt lat="43.78419" lon="5.59332">
        <ele>353.4</ele>
      </trkpt>
      <trkpt lat="43.78446" lon="5.59323">
        <ele>355.9</ele>
      </trkpt>
      <trkpt lat="43.78513" lon="5.59296">
        <ele>359.6</ele>
      </trkpt>
      <trkpt lat="43.78593" lon="5.59272">
        <ele>360.6</ele>
      </trkpt>
      <trkpt lat="43.786" lon="5.59271">
        <ele>360.7</ele>
      </trkpt>
      <trkpt lat="43.78643" lon="5.59262">
        <ele>362</ele>
      </trkpt>
      <trkpt lat="43.78688" lon="5.59258">
        <ele>361.4</ele>
      </trkpt>
      <trkpt lat="43.78782" lon="5.59238">
        <ele>361.2</ele>
      </trkpt>
      <trkpt lat="43.78835" lon="5.59229">
        <ele>362.1</ele>
      </trkpt>
      <trkpt lat="43.78873" lon="5.59222">
        <ele>363.4</ele>
      </trkpt>
      <trkpt lat="43.78918" lon="5.59223">
        <ele>365</ele>
      </trkpt>
      <trkpt lat="43.78963" lon="5.59229">
        <ele>365.8</ele>
      </trkpt>
      <trkpt lat="43.78983" lon="5.59236">
        <ele>366.5</ele>
      </trkpt>
      <trkpt lat="43.7904" lon="5.59259">
        <ele>367.8</ele>
      </trkpt>
      <trkpt lat="43.79052" lon="5.59263">
        <ele>367.9</ele>
      </trkpt>
      <trkpt lat="43.79076" lon="5.59268">
        <ele>368.8</ele>
      </trkpt>
      <trkpt lat="43.79112" lon="5.59274">
        <ele>370.7</ele>
      </trkpt>
      <trkpt lat="43.79145" lon="5.59289">
        <ele>373.5</ele>
      </trkpt>
      <trkpt lat="43.79148" lon="5.5929">
        <ele>373.6</ele>
      </trkpt>
      <trkpt lat="43.7915" lon="5.59276">
        <ele>372.8</ele>
        <extensions>
          <visugpx:TrkExtension xmlns:visugpx="https://www.visugpx.com/editgpx/">
            <visugpx:node>4</visugpx:node>
            </visugpx:TrkExtension>
        </extensions>
      </trkpt>
      <trkpt lat="43.79151" lon="5.59267">
        <ele>371.6</ele>
      </trkpt>
      <trkpt lat="43.79157" lon="5.59219">
        <ele>367.6</ele>
      </trkpt>
      <trkpt lat="43.7916" lon="5.59182">
        <ele>370.9</ele>
      </trkpt>
      <trkpt lat="43.79158" lon="5.5914">
        <ele>376.1</ele>
      </trkpt>
      <trkpt lat="43.79127" lon="5.58841">
        <ele>386.6</ele>
      </trkpt>
      <trkpt lat="43.79124" lon="5.58803">
        <ele>386.1</ele>
      </trkpt>
      <trkpt lat="43.79126" lon="5.58778">
        <ele>386.3</ele>
      </trkpt>
      <trkpt lat="43.79135" lon="5.58754">
        <ele>387.9</ele>
      </trkpt>
      <trkpt lat="43.79144" lon="5.58736">
        <ele>388.1</ele>
      </trkpt>
      <trkpt lat="43.79174" lon="5.58679">
        <ele>390.9</ele>
      </trkpt>
      <trkpt lat="43.79185" lon="5.5865">
        <ele>389.2</ele>
      </trkpt>
      <trkpt lat="43.79192" lon="5.58609">
        <ele>391.9</ele>
      </trkpt>
      <trkpt lat="43.79193" lon="5.58581">
        <ele>394</ele>
      </trkpt>
      <trkpt lat="43.79193" lon="5.58546">
        <ele>395.3</ele>
      </trkpt>
      <trkpt lat="43.7919" lon="5.58525">
        <ele>396.4</ele>
      </trkpt>
      <trkpt lat="43.79148" lon="5.58355">
        <ele>398.7</ele>
      </trkpt>
      <trkpt lat="43.79142" lon="5.58319">
        <ele>397.7</ele>
      </trkpt>
      <trkpt lat="43.79133" lon="5.58252">
        <ele>396.3</ele>
      </trkpt>
      <trkpt lat="43.79135" lon="5.58252">
        <ele>396.2</ele>
      </trkpt>
      <trkpt lat="43.79141" lon="5.5825">
        <ele>396.2</ele>
        <extensions>
          <visugpx:TrkExtension xmlns:visugpx="https://www.visugpx.com/editgpx/">
            <visugpx:node>5</visugpx:node>
            </visugpx:TrkExtension>
        </extensions>
      </trkpt>
      <trkpt lat="43.79199" lon="5.58238">
        <ele>401.6</ele>
      </trkpt>
      <trkpt lat="43.79224" lon="5.58235">
        <ele>403.6</ele>
      </trkpt>
      <trkpt lat="43.79238" lon="5.58229">
        <ele>404.6</ele>
      </trkpt>
      <trkpt lat="43.79262" lon="5.58207">
        <ele>405.7</ele>
      </trkpt>
      <trkpt lat="43.79284" lon="5.58178">
        <ele>406.6</ele>
      </trkpt>
      <trkpt lat="43.79299" lon="5.58162">
        <ele>407</ele>
      </trkpt>
      <trkpt lat="43.79314" lon="5.58151">
        <ele>406.7</ele>
      </trkpt>
      <trkpt lat="43.79323" lon="5.58147">
        <ele>407.3</ele>
      </trkpt>
      <trkpt lat="43.79342" lon="5.58142">
        <ele>408.8</ele>
      </trkpt>
      <trkpt lat="43.79405" lon="5.58134">
        <ele>412.9</ele>
      </trkpt>
      <trkpt lat="43.79463" lon="5.58124">
        <ele>418</ele>
      </trkpt>
      <trkpt lat="43.79509" lon="5.58104">
        <ele>421.5</ele>
      </trkpt>
      <trkpt lat="43.79532" lon="5.58096">
        <ele>424.1</ele>
      </trkpt>
      <trkpt lat="43.79583" lon="5.58085">
        <ele>426.9</ele>
      </trkpt>
      <trkpt lat="43.7959" lon="5.58081">
        <ele>427.3</ele>
      </trkpt>
      <trkpt lat="43.79615" lon="5.58058">
        <ele>428.4</ele>
      </trkpt>
      <trkpt lat="43.79625" lon="5.58053">
        <ele>428.8</ele>
      </trkpt>
      <trkpt lat="43.7969" lon="5.58026">
        <ele>431.6</ele>
      </trkpt>
      <trkpt lat="43.7972" lon="5.58014">
        <ele>433.8</ele>
      </trkpt>
      <trkpt lat="43.79736" lon="5.58012">
        <ele>434.4</ele>
      </trkpt>
      <trkpt lat="43.79742" lon="5.58013">
        <ele>434.7</ele>
      </trkpt>
      <trkpt lat="43.79753" lon="5.5802">
        <ele>436</ele>
      </trkpt>
      <trkpt lat="43.7978" lon="5.58044">
        <ele>441.1</ele>
      </trkpt>
      <trkpt lat="43.79792" lon="5.58052">
        <ele>441.8</ele>
      </trkpt>
      <trkpt lat="43.79801" lon="5.58054">
        <ele>442.6</ele>
      </trkpt>
      <trkpt lat="43.79818" lon="5.58054">
        <ele>443.5</ele>
      </trkpt>
      <trkpt lat="43.79829" lon="5.58057">
        <ele>444</ele>
      </trkpt>
      <trkpt lat="43.79849" lon="5.58066">
        <ele>444.9</ele>
        <extensions>
          <visugpx:TrkExtension xmlns:visugpx="https://www.visugpx.com/editgpx/">
            <visugpx:node>6</visugpx:node>
            </visugpx:TrkExtension>
        </extensions>
      </trkpt>
      <trkpt lat="43.79852" lon="5.58067">
        <ele>444.8</ele>
      </trkpt>
      <trkpt lat="43.79861" lon="5.58071">
        <ele>444.6</ele>
      </trkpt>
      <trkpt lat="43.79875" lon="5.58077">
        <ele>445.4</ele>
      </trkpt>
      <trkpt lat="43.79905" lon="5.58086">
        <ele>447</ele>
      </trkpt>
      <trkpt lat="43.79947" lon="5.58092">
        <ele>450.1</ele>
      </trkpt>
      <trkpt lat="43.79983" lon="5.58101">
        <ele>453.2</ele>
      </trkpt>
      <trkpt lat="43.80005" lon="5.58096">
        <ele>455.1</ele>
      </trkpt>
      <trkpt lat="43.8003" lon="5.58098">
        <ele>456.4</ele>
      </trkpt>
      <trkpt lat="43.80049" lon="5.58104">
        <ele>455.8</ele>
      </trkpt>
      <trkpt lat="43.80096" lon="5.58105">
        <ele>458.1</ele>
      </trkpt>
      <trkpt lat="43.80114" lon="5.5811">
        <ele>459.5</ele>
      </trkpt>
      <trkpt lat="43.80145" lon="5.58112">
        <ele>463.6</ele>
      </trkpt>
      <trkpt lat="43.80206" lon="5.58122">
        <ele>469.2</ele>
      </trkpt>
      <trkpt lat="43.80214" lon="5.58122">
        <ele>470.2</ele>
      </trkpt>
      <trkpt lat="43.8022" lon="5.5812">
        <ele>471.1</ele>
      </trkpt>
      <trkpt lat="43.80243" lon="5.58105">
        <ele>473.7</ele>
      </trkpt>
      <trkpt lat="43.80265" lon="5.58095">
        <ele>476</ele>
      </trkpt>
      <trkpt lat="43.80294" lon="5.58088">
        <ele>479.4</ele>
      </trkpt>
      <trkpt lat="43.80328" lon="5.58073">
        <ele>484.3</ele>
      </trkpt>
      <trkpt lat="43.80341" lon="5.58072">
        <ele>486.1</ele>
      </trkpt>
      <trkpt lat="43.80369" lon="5.58082">
        <ele>489</ele>
      </trkpt>
      <trkpt lat="43.80376" lon="5.58082">
        <ele>489.8</ele>
      </trkpt>
      <trkpt lat="43.80387" lon="5.58077">
        <ele>491.9</ele>
      </trkpt>
      <trkpt lat="43.80399" lon="5.58076">
        <ele>493.8</ele>
      </trkpt>
      <trkpt lat="43.80429" lon="5.58086">
        <ele>497.3</ele>
      </trkpt>
      <trkpt lat="43.80438" lon="5.5809">
        <ele>498.7</ele>
      </trkpt>
      <trkpt lat="43.80445" lon="5.58093">
        <ele>499.8</ele>
      </trkpt>
      <trkpt lat="43.80464" lon="5.58119">
        <ele>502.3</ele>
      </trkpt>
      <trkpt lat="43.8047" lon="5.58124">
        <ele>502.7</ele>
      </trkpt>
      <trkpt lat="43.80475" lon="5.58123">
        <ele>503.5</ele>
      </trkpt>
      <trkpt lat="43.80484" lon="5.58119">
        <ele>503.9</ele>
      </trkpt>
      <trkpt lat="43.80497" lon="5.58104">
        <ele>506.9</ele>
      </trkpt>
      <trkpt lat="43.80509" lon="5.58083">
        <ele>511.9</ele>
      </trkpt>
      <trkpt lat="43.80529" lon="5.58066">
        <ele>513.8</ele>
      </trkpt>
      <trkpt lat="43.80566" lon="5.58041">
        <ele>516.8</ele>
      </trkpt>
      <trkpt lat="43.80601" lon="5.58">
        <ele>521.3</ele>
      </trkpt>
      <trkpt lat="43.80621" lon="5.57945">
        <ele>526.3</ele>
      </trkpt>
      <trkpt lat="43.80651" lon="5.57878">
        <ele>532.3</ele>
      </trkpt>
      <trkpt lat="43.80659" lon="5.57853">
        <ele>535.6</ele>
      </trkpt>
      <trkpt lat="43.80665" lon="5.57846">
        <ele>535.7</ele>
      </trkpt>
      <trkpt lat="43.80683" lon="5.5783">
        <ele>536.3</ele>
      </trkpt>
      <trkpt lat="43.8069" lon="5.57819">
        <ele>536.8</ele>
      </trkpt>
      <trkpt lat="43.80716" lon="5.5776">
        <ele>542.9</ele>
      </trkpt>
      <trkpt lat="43.80769" lon="5.57666">
        <ele>551.4</ele>
      </trkpt>
      <trkpt lat="43.80841" lon="5.57594">
        <ele>558.5</ele>
      </trkpt>
      <trkpt lat="43.80888" lon="5.57564">
        <ele>561.9</ele>
      </trkpt>
      <trkpt lat="43.80941" lon="5.57528">
        <ele>568.3</ele>
      </trkpt>
      <trkpt lat="43.80989" lon="5.57504">
        <ele>573.9</ele>
      </trkpt>
      <trkpt lat="43.81025" lon="5.5749">
        <ele>577.5</ele>
      </trkpt>
      <trkpt lat="43.81051" lon="5.57471">
        <ele>580.6</ele>
      </trkpt>
      <trkpt lat="43.81063" lon="5.5746">
        <ele>582.5</ele>
      </trkpt>
      <trkpt lat="43.81081" lon="5.57435">
        <ele>584.2</ele>
      </trkpt>
      <trkpt lat="43.81105" lon="5.57384">
        <ele>592.9</ele>
      </trkpt>
      <trkpt lat="43.81124" lon="5.57353">
        <ele>597.3</ele>
      </trkpt>
      <trkpt lat="43.81128" lon="5.57342">
        <ele>598.7</ele>
      </trkpt>
      <trkpt lat="43.81136" lon="5.57335">
        <ele>599.1</ele>
      </trkpt>
      <trkpt lat="43.81144" lon="5.57336">
        <ele>600</ele>
      </trkpt>
      <trkpt lat="43.81147" lon="5.57342">
        <ele>600.4</ele>
      </trkpt>
      <trkpt lat="43.81149" lon="5.57345">
        <ele>600.6</ele>
      </trkpt>
      <trkpt lat="43.8115" lon="5.57363">
        <ele>599.8</ele>
      </trkpt>
      <trkpt lat="43.81148" lon="5.5739">
        <ele>598.7</ele>
      </trkpt>
      <trkpt lat="43.8115" lon="5.57433">
        <ele>600.6</ele>
      </trkpt>
      <trkpt lat="43.81166" lon="5.57467">
        <ele>603.9</ele>
      </trkpt>
      <trkpt lat="43.81168" lon="5.57488">
        <ele>605.3</ele>
      </trkpt>
      <trkpt lat="43.81162" lon="5.57507">
        <ele>606</ele>
      </trkpt>
      <trkpt lat="43.81163" lon="5.57519">
        <ele>606.5</ele>
      </trkpt>
      <trkpt lat="43.81169" lon="5.57532">
        <ele>607.4</ele>
      </trkpt>
      <trkpt lat="43.81178" lon="5.57535">
        <ele>608.5</ele>
      </trkpt>
      <trkpt lat="43.81183" lon="5.57542">
        <ele>609.3</ele>
      </trkpt>
      <trkpt lat="43.81184" lon="5.57563">
        <ele>609.9</ele>
      </trkpt>
      <trkpt lat="43.81209" lon="5.57593">
        <ele>614.6</ele>
      </trkpt>
      <trkpt lat="43.81216" lon="5.57614">
        <ele>615.9</ele>
      </trkpt>
      <trkpt lat="43.81225" lon="5.57659">
        <ele>617.5</ele>
      </trkpt>
      <trkpt lat="43.8124" lon="5.57683">
        <ele>619.8</ele>
      </trkpt>
      <trkpt lat="43.81257" lon="5.57725">
        <ele>622.4</ele>
      </trkpt>
      <trkpt lat="43.81264" lon="5.57739">
        <ele>623.5</ele>
      </trkpt>
      <trkpt lat="43.81262" lon="5.57749">
        <ele>623.4</ele>
      </trkpt>
      <trkpt lat="43.81256" lon="5.57752">
        <ele>623.4</ele>
      </trkpt>
      <trkpt lat="43.81246" lon="5.5775">
        <ele>623.3</ele>
      </trkpt>
      <trkpt lat="43.81241" lon="5.57755">
        <ele>624.2</ele>
      </trkpt>
      <trkpt lat="43.81246" lon="5.57773">
        <ele>625.9</ele>
      </trkpt>
      <trkpt lat="43.81271" lon="5.57811">
        <ele>629.6</ele>
      </trkpt>
      <trkpt lat="43.81276" lon="5.57819">
        <ele>630</ele>
      </trkpt>
      <trkpt lat="43.81285" lon="5.57824">
        <ele>630.8</ele>
      </trkpt>
      <trkpt lat="43.81312" lon="5.57828">
        <ele>633.2</ele>
      </trkpt>
      <trkpt lat="43.8132" lon="5.57836">
        <ele>634.7</ele>
      </trkpt>
      <trkpt lat="43.81326" lon="5.57858">
        <ele>635.7</ele>
      </trkpt>
      <trkpt lat="43.81333" lon="5.5789">
        <ele>637</ele>
      </trkpt>
      <trkpt lat="43.81335" lon="5.57916">
        <ele>635.1</ele>
      </trkpt>
      <trkpt lat="43.81338" lon="5.5793">
        <ele>634.2</ele>
      </trkpt>
      <trkpt lat="43.81344" lon="5.57941">
        <ele>633.6</ele>
      </trkpt>
      <trkpt lat="43.81351" lon="5.57959">
        <ele>632.6</ele>
      </trkpt>
      <trkpt lat="43.81355" lon="5.57976">
        <ele>631.5</ele>
      </trkpt>
      <trkpt lat="43.81358" lon="5.57986">
        <ele>630.8</ele>
      </trkpt>
      <trkpt lat="43.81373" lon="5.58033">
        <ele>631.9</ele>
      </trkpt>
      <trkpt lat="43.81369" lon="5.58046">
        <ele>632</ele>
      </trkpt>
      <trkpt lat="43.81355" lon="5.58061">
        <ele>630.4</ele>
      </trkpt>
      <trkpt lat="43.8135" lon="5.58069">
        <ele>630.4</ele>
      </trkpt>
      <trkpt lat="43.81346" lon="5.58103">
        <ele>633.1</ele>
      </trkpt>
      <trkpt lat="43.81347" lon="5.5812">
        <ele>634.3</ele>
      </trkpt>
      <trkpt lat="43.81356" lon="5.58172">
        <ele>638.5</ele>
      </trkpt>
      <trkpt lat="43.81358" lon="5.58181">
        <ele>638.7</ele>
      </trkpt>
      <trkpt lat="43.81365" lon="5.58192">
        <ele>640.6</ele>
      </trkpt>
      <trkpt lat="43.8138" lon="5.5821">
        <ele>643.7</ele>
      </trkpt>
      <trkpt lat="43.81384" lon="5.58218">
        <ele>644</ele>
      </trkpt>
      <trkpt lat="43.81383" lon="5.58231">
        <ele>644.2</ele>
      </trkpt>
      <trkpt lat="43.81377" lon="5.58252">
        <ele>645</ele>
      </trkpt>
      <trkpt lat="43.81376" lon="5.58266">
        <ele>644.8</ele>
      </trkpt>
      <trkpt lat="43.81378" lon="5.58277">
        <ele>645.3</ele>
      </trkpt>
      <trkpt lat="43.81382" lon="5.58286">
        <ele>646.3</ele>
      </trkpt>
      <trkpt lat="43.81407" lon="5.58319">
        <ele>650.6</ele>
      </trkpt>
      <trkpt lat="43.81412" lon="5.5832">
        <ele>651.5</ele>
      </trkpt>
      <trkpt lat="43.81415" lon="5.58318">
        <ele>652.3</ele>
      </trkpt>
      <trkpt lat="43.81417" lon="5.58313">
        <ele>653.3</ele>
      </trkpt>
      <trkpt lat="43.81417" lon="5.58306">
        <ele>654</ele>
      </trkpt>
      <trkpt lat="43.81412" lon="5.58295">
        <ele>653.9</ele>
      </trkpt>
      <trkpt lat="43.81411" lon="5.58287">
        <ele>654.4</ele>
      </trkpt>
      <trkpt lat="43.81417" lon="5.58258">
        <ele>657.8</ele>
      </trkpt>
      <trkpt lat="43.81422" lon="5.58249">
        <ele>659.6</ele>
      </trkpt>
      <trkpt lat="43.81427" lon="5.58247">
        <ele>661.1</ele>
      </trkpt>
      <trkpt lat="43.81432" lon="5.58249">
        <ele>662.9</ele>
      </trkpt>
      <trkpt lat="43.81442" lon="5.58277">
        <ele>664.3</ele>
      </trkpt>
      <trkpt lat="43.81448" lon="5.58285">
        <ele>664.8</ele>
      </trkpt>
      <trkpt lat="43.81479" lon="5.58306">
        <ele>668.9</ele>
      </trkpt>
      <trkpt lat="43.81495" lon="5.58326">
        <ele>669.9</ele>
      </trkpt>
      <trkpt lat="43.81521" lon="5.58346">
        <ele>672.9</ele>
      </trkpt>
      <trkpt lat="43.81524" lon="5.58353">
        <ele>672.9</ele>
      </trkpt>
      <trkpt lat="43.81525" lon="5.58363">
        <ele>672.2</ele>
      </trkpt>
      <trkpt lat="43.81523" lon="5.5839">
        <ele>672.3</ele>
      </trkpt>
      <trkpt lat="43.81519" lon="5.58408">
        <ele>674</ele>
      </trkpt>
      <trkpt lat="43.81504" lon="5.58433">
        <ele>673.2</ele>
      </trkpt>
      <trkpt lat="43.81488" lon="5.58475">
        <ele>673.6</ele>
      </trkpt>
      <trkpt lat="43.81459" lon="5.58534">
        <ele>668.5</ele>
      </trkpt>
      <trkpt lat="43.81458" lon="5.58546">
        <ele>667.8</ele>
      </trkpt>
      <trkpt lat="43.81461" lon="5.58555">
        <ele>667.6</ele>
      </trkpt>
      <trkpt lat="43.81466" lon="5.58557">
        <ele>667.5</ele>
      </trkpt>
      <trkpt lat="43.81473" lon="5.58554">
        <ele>668</ele>
      </trkpt>
      <trkpt lat="43.8151" lon="5.58513">
        <ele>667.4</ele>
      </trkpt>
      <trkpt lat="43.8157" lon="5.58482">
        <ele>665.4</ele>
      </trkpt>
      <trkpt lat="43.81578" lon="5.5848">
        <ele>664.3</ele>
      </trkpt>
      <trkpt lat="43.81585" lon="5.58482">
        <ele>662.8</ele>
      </trkpt>
      <trkpt lat="43.81591" lon="5.58486">
        <ele>662.5</ele>
      </trkpt>
      <trkpt lat="43.81597" lon="5.58496">
        <ele>660.6</ele>
      </trkpt>
      <trkpt lat="43.81632" lon="5.58521">
        <ele>658.2</ele>
      </trkpt>
      <trkpt lat="43.81651" lon="5.58564">
        <ele>652.2</ele>
      </trkpt>
      <trkpt lat="43.81656" lon="5.58574">
        <ele>651.1</ele>
      </trkpt>
      <trkpt lat="43.81663" lon="5.58582">
        <ele>650.8</ele>
      </trkpt>
      <trkpt lat="43.81675" lon="5.5859">
        <ele>650.2</ele>
      </trkpt>
      <trkpt lat="43.81698" lon="5.58599">
        <ele>649.6</ele>
      </trkpt>
      <trkpt lat="43.81705" lon="5.58604">
        <ele>648.4</ele>
      </trkpt>
      <trkpt lat="43.81708" lon="5.58613">
        <ele>646.2</ele>
      </trkpt>
      <trkpt lat="43.81707" lon="5.58624">
        <ele>644.3</ele>
      </trkpt>
      <trkpt lat="43.81696" lon="5.58644">
        <ele>642.1</ele>
      </trkpt>
      <trkpt lat="43.81684" lon="5.58658">
        <ele>639.8</ele>
      </trkpt>
      <trkpt lat="43.81677" lon="5.58661">
        <ele>639.1</ele>
      </trkpt>
      <trkpt lat="43.81665" lon="5.58667">
        <ele>637.8</ele>
      </trkpt>
      <trkpt lat="43.81666" lon="5.58674">
        <ele>637.4</ele>
      </trkpt>
      <trkpt lat="43.81668" lon="5.58685">
        <ele>636.7</ele>
      </trkpt>
      <trkpt lat="43.81671" lon="5.5869">
        <ele>636.3</ele>
      </trkpt>
      <trkpt lat="43.81675" lon="5.58692">
        <ele>636.2</ele>
      </trkpt>
      <trkpt lat="43.81685" lon="5.58689">
        <ele>636.5</ele>
      </trkpt>
      <trkpt lat="43.81708" lon="5.58691">
        <ele>635</ele>
      </trkpt>
      <trkpt lat="43.81727" lon="5.58697">
        <ele>632.1</ele>
      </trkpt>
      <trkpt lat="43.8175" lon="5.58707">
        <ele>628.5</ele>
      </trkpt>
      <trkpt lat="43.8177" lon="5.58719">
        <ele>623.6</ele>
      </trkpt>
      <trkpt lat="43.81795" lon="5.58738">
        <ele>617.7</ele>
      </trkpt>
      <trkpt lat="43.8182" lon="5.58751">
        <ele>612.4</ele>
      </trkpt>
      <trkpt lat="43.81829" lon="5.58755">
        <ele>610.8</ele>
      </trkpt>
      <trkpt lat="43.81832" lon="5.5875">
        <ele>610.2</ele>
      </trkpt>
      <trkpt lat="43.81838" lon="5.58748">
        <ele>609.8</ele>
      </trkpt>
      <trkpt lat="43.81872" lon="5.58754">
        <ele>604.4</ele>
      </trkpt>
      <trkpt lat="43.81891" lon="5.5878">
        <ele>598.9</ele>
      </trkpt>
      <trkpt lat="43.81894" lon="5.58797">
        <ele>595.5</ele>
      </trkpt>
      <trkpt lat="43.81901" lon="5.58808">
        <ele>593.1</ele>
      </trkpt>
      <trkpt lat="43.81909" lon="5.58806">
        <ele>592.1</ele>
      </trkpt>
      <trkpt lat="43.81912" lon="5.58795">
        <ele>592</ele>
      </trkpt>
      <trkpt lat="43.81919" lon="5.58738">
        <ele>588.8</ele>
      </trkpt>
      <trkpt lat="43.81921" lon="5.58707">
        <ele>588.2</ele>
      </trkpt>
      <trkpt lat="43.81927" lon="5.58697">
        <ele>587.7</ele>
      </trkpt>
      <trkpt lat="43.8194" lon="5.58692">
        <ele>587.1</ele>
      </trkpt>
      <trkpt lat="43.82001" lon="5.58696">
        <ele>580.7</ele>
      </trkpt>
      <trkpt lat="43.82009" lon="5.58702">
        <ele>580.1</ele>
      </trkpt>
      <trkpt lat="43.82014" lon="5.58714">
        <ele>579.1</ele>
      </trkpt>
      <trkpt lat="43.82013" lon="5.58738">
        <ele>577.5</ele>
      </trkpt>
      <trkpt lat="43.8201" lon="5.5876">
        <ele>576.3</ele>
      </trkpt>
      <trkpt lat="43.81997" lon="5.58865">
        <ele>568.5</ele>
      </trkpt>
      <trkpt lat="43.81988" lon="5.58886">
        <ele>565.7</ele>
      </trkpt>
      <trkpt lat="43.81984" lon="5.58904">
        <ele>564.1</ele>
      </trkpt>
      <trkpt lat="43.81983" lon="5.58928">
        <ele>562.7</ele>
      </trkpt>
      <trkpt lat="43.8197" lon="5.59002">
        <ele>555.6</ele>
      </trkpt>
      <trkpt lat="43.81962" lon="5.59021">
        <ele>556.4</ele>
      </trkpt>
      <trkpt lat="43.81949" lon="5.59043">
        <ele>553.6</ele>
      </trkpt>
      <trkpt lat="43.81907" lon="5.59101">
        <ele>548.4</ele>
      </trkpt>
      <trkpt lat="43.81904" lon="5.59111">
        <ele>547.9</ele>
      </trkpt>
      <trkpt lat="43.81907" lon="5.59128">
        <ele>547.3</ele>
      </trkpt>
      <trkpt lat="43.81922" lon="5.59169">
        <ele>542.9</ele>
      </trkpt>
      <trkpt lat="43.81928" lon="5.59186">
        <ele>540.8</ele>
      </trkpt>
      <trkpt lat="43.81961" lon="5.59183">
        <ele>544.2</ele>
      </trkpt>
      <trkpt lat="43.81998" lon="5.59181">
        <ele>550</ele>
      </trkpt>
      <trkpt lat="43.82034" lon="5.59184">
        <ele>554.8</ele>
      </trkpt>
      <trkpt lat="43.82064" lon="5.59179">
        <ele>559.6</ele>
      </trkpt>
      <trkpt lat="43.82091" lon="5.59184">
        <ele>562.8</ele>
      </trkpt>
      <trkpt lat="43.82115" lon="5.59193">
        <ele>564.9</ele>
      </trkpt>
      <trkpt lat="43.82173" lon="5.59221">
        <ele>570.1</ele>
      </trkpt>
      <trkpt lat="43.82242" lon="5.59263">
        <ele>579.2</ele>
      </trkpt>
      <trkpt lat="43.82269" lon="5.59288">
        <ele>580.3</ele>
      </trkpt>
      <trkpt lat="43.82297" lon="5.59295">
        <ele>585.1</ele>
      </trkpt>
      <trkpt lat="43.82326" lon="5.59308">
        <ele>590.3</ele>
      </trkpt>
      <trkpt lat="43.82357" lon="5.59329">
        <ele>595.8</ele>
      </trkpt>
      <trkpt lat="43.82366" lon="5.59333">
        <ele>597.1</ele>
        <extensions>
          <visugpx:TrkExtension xmlns:visugpx="https://www.visugpx.com/editgpx/">
            <visugpx:node>7</visugpx:node>
            </visugpx:TrkExtension>
        </extensions>
      </trkpt>
      <trkpt lat="43.82407" lon="5.59373">
        <ele>594.571</ele>
        <time>2021-01-02T16:25:38Z</time>
        <extensions>
          <visugpx:TrkExtension xmlns:visugpx="https://www.visugpx.com/editgpx/">
            <visugpx:node>16</visugpx:node>
            </visugpx:TrkExtension>
        </extensions>
      </trkpt>
      <trkpt lat="43.82417" lon="5.59368">
        <ele>595.284</ele>
        <time>2021-01-02T16:25:36Z</time>
      </trkpt>
      <trkpt lat="43.82422" lon="5.59366">
        <ele>595.794</ele>
        <time>2021-01-02T16:25:35Z</time>
      </trkpt>
      <trkpt lat="43.82427" lon="5.59365">
        <ele>596.137</ele>
        <time>2021-01-02T16:25:34Z</time>
      </trkpt>
      <trkpt lat="43.82435" lon="5.59364">
        <ele>596.508</ele>
        <time>2021-01-02T16:25:32Z</time>
      </trkpt>
      <trkpt lat="43.82443" lon="5.59363">
        <ele>597.315</ele>
        <time>2021-01-02T16:25:30Z</time>
      </trkpt>
      <trkpt lat="43.82451" lon="5.59363">
        <ele>598.187</ele>
        <time>2021-01-02T16:25:28Z</time>
      </trkpt>
      <trkpt lat="43.82458" lon="5.59362">
        <ele>598.817</ele>
        <time>2021-01-02T16:25:26Z</time>
      </trkpt>
      <trkpt lat="43.82465" lon="5.5936">
        <ele>599.442</ele>
        <time>2021-01-02T16:25:24Z</time>
      </trkpt>
      <trkpt lat="43.82473" lon="5.59359">
        <ele>600.159</ele>
        <time>2021-01-02T16:25:22Z</time>
      </trkpt>
      <trkpt lat="43.8248" lon="5.59357">
        <ele>600.874</ele>
        <time>2021-01-02T16:25:20Z</time>
      </trkpt>
      <trkpt lat="43.82487" lon="5.59355">
        <ele>601.712</ele>
        <time>2021-01-02T16:25:18Z</time>
      </trkpt>
      <trkpt lat="43.82493" lon="5.59356">
        <ele>602.519</ele>
        <time>2021-01-02T16:25:16Z</time>
      </trkpt>
      <trkpt lat="43.82499" lon="5.59359">
        <ele>603.122</ele>
        <time>2021-01-02T16:25:14Z</time>
      </trkpt>
      <trkpt lat="43.82506" lon="5.59361">
        <ele>605.015</ele>
        <time>2021-01-02T16:25:12Z</time>
      </trkpt>
      <trkpt lat="43.82512" lon="5.59363">
        <ele>605.808</ele>
        <time>2021-01-02T16:25:10Z</time>
      </trkpt>
      <trkpt lat="43.82518" lon="5.59367">
        <ele>606.515</ele>
        <time>2021-01-02T16:25:08Z</time>
      </trkpt>
      <trkpt lat="43.82526" lon="5.5937">
        <ele>608.198</ele>
        <time>2021-01-02T16:25:06Z</time>
      </trkpt>
      <trkpt lat="43.82532" lon="5.59374">
        <ele>609.241</ele>
        <time>2021-01-02T16:25:04Z</time>
      </trkpt>
      <trkpt lat="43.82538" lon="5.59378">
        <ele>610.388</ele>
        <time>2021-01-02T16:25:02Z</time>
      </trkpt>
      <trkpt lat="43.82544" lon="5.5938">
        <ele>611.571</ele>
        <time>2021-01-02T16:25:00Z</time>
      </trkpt>
      <trkpt lat="43.8255" lon="5.59379">
        <ele>614.118</ele>
        <time>2021-01-02T16:24:57Z</time>
      </trkpt>
      <trkpt lat="43.82555" lon="5.59376">
        <ele>615.061</ele>
        <time>2021-01-02T16:24:55Z</time>
      </trkpt>
      <trkpt lat="43.82561" lon="5.59373">
        <ele>615.908</ele>
        <time>2021-01-02T16:24:53Z</time>
      </trkpt>
      <trkpt lat="43.82566" lon="5.59371">
        <ele>616.425</ele>
        <time>2021-01-02T16:24:52Z</time>
      </trkpt>
      <trkpt lat="43.82571" lon="5.5937">
        <ele>617.241</ele>
        <time>2021-01-02T16:24:51Z</time>
      </trkpt>
      <trkpt lat="43.82582" lon="5.59369">
        <ele>618.563</ele>
        <time>2021-01-02T16:24:49Z</time>
      </trkpt>
      <trkpt lat="43.82587" lon="5.59367">
        <ele>619.368</ele>
        <time>2021-01-02T16:24:48Z</time>
      </trkpt>
      <trkpt lat="43.82593" lon="5.59367">
        <ele>620.511</ele>
        <time>2021-01-02T16:24:47Z</time>
      </trkpt>
      <trkpt lat="43.82605" lon="5.59366">
        <ele>622.208</ele>
        <time>2021-01-02T16:24:45Z</time>
      </trkpt>
      <trkpt lat="43.8261" lon="5.59365">
        <ele>623.925</ele>
        <time>2021-01-02T16:24:44Z</time>
      </trkpt>
      <trkpt lat="43.82619" lon="5.59365">
        <ele>626.111</ele>
        <time>2021-01-02T16:24:42Z</time>
      </trkpt>
      <trkpt lat="43.82625" lon="5.59366">
        <ele>627.968</ele>
        <time>2021-01-02T16:24:40Z</time>
      </trkpt>
      <trkpt lat="43.82636" lon="5.59366">
        <ele>628.641</ele>
        <time>2021-01-02T16:24:38Z</time>
      </trkpt>
      <trkpt lat="43.82646" lon="5.59366">
        <ele>630.451</ele>
        <time>2021-01-02T16:24:36Z</time>
      </trkpt>
      <trkpt lat="43.82651" lon="5.59364">
        <ele>632.171</ele>
        <time>2021-01-02T16:24:35Z</time>
      </trkpt>
      <trkpt lat="43.82662" lon="5.59362">
        <ele>633.344</ele>
        <time>2021-01-02T16:24:33Z</time>
      </trkpt>
      <trkpt lat="43.82672" lon="5.59362">
        <ele>634.426</ele>
        <time>2021-01-02T16:24:31Z</time>
      </trkpt>
      <trkpt lat="43.82682" lon="5.59361">
        <ele>635.888</ele>
        <time>2021-01-02T16:24:29Z</time>
      </trkpt>
      <trkpt lat="43.82688" lon="5.59361">
        <ele>637.126</ele>
        <time>2021-01-02T16:24:28Z</time>
      </trkpt>
      <trkpt lat="43.82698" lon="5.5936">
        <ele>638.133</ele>
        <time>2021-01-02T16:24:26Z</time>
      </trkpt>
      <trkpt lat="43.82707" lon="5.59359">
        <ele>639.058</ele>
        <time>2021-01-02T16:24:24Z</time>
      </trkpt>
      <trkpt lat="43.82715" lon="5.59361">
        <ele>640.186</ele>
        <time>2021-01-02T16:24:22Z</time>
      </trkpt>
      <trkpt lat="43.82725" lon="5.59361">
        <ele>641.156</ele>
        <time>2021-01-02T16:24:20Z</time>
      </trkpt>
      <trkpt lat="43.8273" lon="5.59361">
        <ele>643.076</ele>
        <time>2021-01-02T16:24:19Z</time>
      </trkpt>
      <trkpt lat="43.8274" lon="5.59361">
        <ele>644.049</ele>
        <time>2021-01-02T16:24:17Z</time>
      </trkpt>
      <trkpt lat="43.82751" lon="5.59361">
        <ele>644.808</ele>
        <time>2021-01-02T16:24:15Z</time>
      </trkpt>
      <trkpt lat="43.8276" lon="5.59363">
        <ele>645.521</ele>
        <time>2021-01-02T16:24:13Z</time>
      </trkpt>
      <trkpt lat="43.82766" lon="5.59364">
        <ele>645.839</ele>
        <time>2021-01-02T16:24:12Z</time>
      </trkpt>
      <trkpt lat="43.82776" lon="5.59367">
        <ele>646.519</ele>
        <time>2021-01-02T16:24:10Z</time>
      </trkpt>
      <trkpt lat="43.82781" lon="5.59369">
        <ele>647.156</ele>
        <time>2021-01-02T16:24:09Z</time>
      </trkpt>
      <trkpt lat="43.82786" lon="5.5937">
        <ele>647.721</ele>
        <time>2021-01-02T16:24:08Z</time>
      </trkpt>
      <trkpt lat="43.82791" lon="5.59371">
        <ele>648.369</ele>
        <time>2021-01-02T16:24:07Z</time>
      </trkpt>
      <trkpt lat="43.828" lon="5.59373">
        <ele>648.949</ele>
        <time>2021-01-02T16:24:05Z</time>
      </trkpt>
      <trkpt lat="43.82805" lon="5.59374">
        <ele>649.772</ele>
        <time>2021-01-02T16:24:04Z</time>
      </trkpt>
      <trkpt lat="43.82813" lon="5.59375">
        <ele>651.208</ele>
        <time>2021-01-02T16:24:02Z</time>
      </trkpt>
      <trkpt lat="43.8282" lon="5.59377">
        <ele>652.316</ele>
        <time>2021-01-02T16:24:00Z</time>
      </trkpt>
      <trkpt lat="43.82828" lon="5.59379">
        <ele>653.206</ele>
        <time>2021-01-02T16:23:58Z</time>
      </trkpt>
      <trkpt lat="43.82834" lon="5.59385">
        <ele>654.064</ele>
        <time>2021-01-02T16:23:56Z</time>
      </trkpt>
      <trkpt lat="43.82836" lon="5.59393">
        <ele>655.067</ele>
        <time>2021-01-02T16:23:54Z</time>
      </trkpt>
      <trkpt lat="43.82837" lon="5.59402">
        <ele>656.284</ele>
        <time>2021-01-02T16:23:52Z</time>
      </trkpt>
      <trkpt lat="43.82838" lon="5.59412">
        <ele>657.599</ele>
        <time>2021-01-02T16:23:50Z</time>
      </trkpt>
      <trkpt lat="43.82839" lon="5.59422">
        <ele>658.787</ele>
        <time>2021-01-02T16:23:48Z</time>
      </trkpt>
      <trkpt lat="43.8284" lon="5.5943">
        <ele>659.784</ele>
        <time>2021-01-02T16:23:46Z</time>
      </trkpt>
      <trkpt lat="43.8284" lon="5.5944">
        <ele>660.867</ele>
        <time>2021-01-02T16:23:44Z</time>
      </trkpt>
      <trkpt lat="43.82841" lon="5.59449">
        <ele>662.247</ele>
        <time>2021-01-02T16:23:42Z</time>
      </trkpt>
      <trkpt lat="43.82839" lon="5.5946">
        <ele>663.44</ele>
        <time>2021-01-02T16:23:40Z</time>
      </trkpt>
      <trkpt lat="43.82837" lon="5.5947">
        <ele>664.708</ele>
        <time>2021-01-02T16:23:38Z</time>
      </trkpt>
      <trkpt lat="43.82834" lon="5.59479">
        <ele>666.117</ele>
        <time>2021-01-02T16:23:36Z</time>
      </trkpt>
      <trkpt lat="43.82831" lon="5.59488">
        <ele>667.561</ele>
        <time>2021-01-02T16:23:34Z</time>
      </trkpt>
      <trkpt lat="43.82827" lon="5.59497">
        <ele>668.748</ele>
        <time>2021-01-02T16:23:32Z</time>
      </trkpt>
      <trkpt lat="43.82825" lon="5.59505">
        <ele>669.794</ele>
        <time>2021-01-02T16:23:30Z</time>
      </trkpt>
      <trkpt lat="43.82824" lon="5.59513">
        <ele>670.356</ele>
        <time>2021-01-02T16:23:28Z</time>
      </trkpt>
      <trkpt lat="43.82823" lon="5.59523">
        <ele>671.684</ele>
        <time>2021-01-02T16:23:26Z</time>
      </trkpt>
      <trkpt lat="43.82822" lon="5.59531">
        <ele>672.251</ele>
        <time>2021-01-02T16:23:24Z</time>
      </trkpt>
      <trkpt lat="43.82821" lon="5.59541">
        <ele>672.624</ele>
        <time>2021-01-02T16:23:22Z</time>
      </trkpt>
      <trkpt lat="43.82819" lon="5.59549">
        <ele>673.708</ele>
        <time>2021-01-02T16:23:20Z</time>
      </trkpt>
      <trkpt lat="43.82818" lon="5.59558">
        <ele>675.203</ele>
        <time>2021-01-02T16:23:18Z</time>
      </trkpt>
      <trkpt lat="43.82816" lon="5.59567">
        <ele>675.921</ele>
        <time>2021-01-02T16:23:16Z</time>
      </trkpt>
      <trkpt lat="43.82814" lon="5.59577">
        <ele>676.911</ele>
        <time>2021-01-02T16:23:14Z</time>
      </trkpt>
      <trkpt lat="43.82812" lon="5.59585">
        <ele>677.961</ele>
        <time>2021-01-02T16:23:12Z</time>
      </trkpt>
      <trkpt lat="43.82811" lon="5.59594">
        <ele>679.098</ele>
        <time>2021-01-02T16:23:10Z</time>
      </trkpt>
      <trkpt lat="43.82809" lon="5.59601">
        <ele>680.163</ele>
        <time>2021-01-02T16:23:08Z</time>
      </trkpt>
      <trkpt lat="43.82805" lon="5.59612">
        <ele>681.381</ele>
        <time>2021-01-02T16:23:06Z</time>
      </trkpt>
      <trkpt lat="43.82801" lon="5.5962">
        <ele>682.758</ele>
        <time>2021-01-02T16:23:04Z</time>
      </trkpt>
      <trkpt lat="43.82796" lon="5.59629">
        <ele>684.271</ele>
        <time>2021-01-02T16:23:02Z</time>
      </trkpt>
      <trkpt lat="43.82792" lon="5.59637">
        <ele>685.751</ele>
        <time>2021-01-02T16:23:00Z</time>
      </trkpt>
      <trkpt lat="43.82788" lon="5.59644">
        <ele>687.314</ele>
        <time>2021-01-02T16:22:58Z</time>
      </trkpt>
      <trkpt lat="43.82784" lon="5.59653">
        <ele>688.908</ele>
        <time>2021-01-02T16:22:56Z</time>
      </trkpt>
      <trkpt lat="43.82779" lon="5.5966">
        <ele>690.617</ele>
        <time>2021-01-02T16:22:54Z</time>
      </trkpt>
      <trkpt lat="43.82776" lon="5.59668">
        <ele>692.425</ele>
        <time>2021-01-02T16:22:52Z</time>
      </trkpt>
      <trkpt lat="43.82773" lon="5.59675">
        <ele>694.283</ele>
        <time>2021-01-02T16:22:50Z</time>
      </trkpt>
      <trkpt lat="43.82767" lon="5.59682">
        <ele>695.782</ele>
        <time>2021-01-02T16:22:48Z</time>
      </trkpt>
      <trkpt lat="43.8276" lon="5.59684">
        <ele>697.119</ele>
        <time>2021-01-02T16:22:46Z</time>
      </trkpt>
      <trkpt lat="43.82751" lon="5.5968">
        <ele>698.394</ele>
        <time>2021-01-02T16:22:44Z</time>
      </trkpt>
      <trkpt lat="43.82745" lon="5.59675">
        <ele>699.492</ele>
        <time>2021-01-02T16:22:42Z</time>
      </trkpt>
      <trkpt lat="43.8274" lon="5.59669">
        <ele>700.649</ele>
        <time>2021-01-02T16:22:40Z</time>
      </trkpt>
      <trkpt lat="43.82734" lon="5.59664">
        <ele>701.812</ele>
        <time>2021-01-02T16:22:38Z</time>
      </trkpt>
      <trkpt lat="43.82729" lon="5.59659">
        <ele>702.952</ele>
        <time>2021-01-02T16:22:36Z</time>
      </trkpt>
      <trkpt lat="43.82723" lon="5.59655">
        <ele>704.225</ele>
        <time>2021-01-02T16:22:34Z</time>
      </trkpt>
      <trkpt lat="43.82718" lon="5.59651">
        <ele>705.208</ele>
        <time>2021-01-02T16:22:32Z</time>
      </trkpt>
      <trkpt lat="43.82714" lon="5.59648">
        <ele>706.325</ele>
        <time>2021-01-02T16:22:31Z</time>
      </trkpt>
      <trkpt lat="43.82708" lon="5.59645">
        <ele>707.623</ele>
        <time>2021-01-02T16:22:29Z</time>
      </trkpt>
      <trkpt lat="43.82703" lon="5.59643">
        <ele>708.597</ele>
        <time>2021-01-02T16:22:28Z</time>
      </trkpt>
      <trkpt lat="43.82695" lon="5.59641">
        <ele>709.36</ele>
        <time>2021-01-02T16:22:26Z</time>
      </trkpt>
      <trkpt lat="43.82687" lon="5.59641">
        <ele>710.257</ele>
        <time>2021-01-02T16:22:24Z</time>
      </trkpt>
      <trkpt lat="43.82683" lon="5.59643">
        <ele>711.062</ele>
        <time>2021-01-02T16:22:23Z</time>
      </trkpt>
      <trkpt lat="43.82679" lon="5.59647">
        <ele>711.57</ele>
        <time>2021-01-02T16:22:21Z</time>
      </trkpt>
      <trkpt lat="43.82676" lon="5.59652">
        <ele>712.12</ele>
        <time>2021-01-02T16:22:20Z</time>
      </trkpt>
      <trkpt lat="43.82672" lon="5.59657">
        <ele>713.35</ele>
        <time>2021-01-02T16:22:18Z</time>
      </trkpt>
      <trkpt lat="43.82667" lon="5.59665">
        <ele>714.063</ele>
        <time>2021-01-02T16:22:16Z</time>
      </trkpt>
      <trkpt lat="43.82664" lon="5.5967">
        <ele>714.908</ele>
        <time>2021-01-02T16:22:15Z</time>
      </trkpt>
      <trkpt lat="43.82659" lon="5.59675">
        <ele>715.826</ele>
        <time>2021-01-02T16:22:13Z</time>
      </trkpt>
      <trkpt lat="43.82652" lon="5.59681">
        <ele>717.033</ele>
        <time>2021-01-02T16:22:11Z</time>
      </trkpt>
      <trkpt lat="43.82647" lon="5.59684">
        <ele>718.178</ele>
        <time>2021-01-02T16:22:10Z</time>
      </trkpt>
      <trkpt lat="43.82643" lon="5.59687">
        <ele>719.088</ele>
        <time>2021-01-02T16:22:08Z</time>
      </trkpt>
      <trkpt lat="43.82639" lon="5.59691">
        <ele>720.045</ele>
        <time>2021-01-02T16:22:07Z</time>
      </trkpt>
      <trkpt lat="43.82635" lon="5.59697">
        <ele>720.85</ele>
        <time>2021-01-02T16:22:05Z</time>
      </trkpt>
      <trkpt lat="43.82631" lon="5.59704">
        <ele>721.548</ele>
        <time>2021-01-02T16:22:03Z</time>
      </trkpt>
      <trkpt lat="43.82629" lon="5.59709">
        <ele>722.575</ele>
        <time>2021-01-02T16:22:02Z</time>
      </trkpt>
      <trkpt lat="43.82625" lon="5.59715">
        <ele>723.518</ele>
        <time>2021-01-02T16:22:00Z</time>
      </trkpt>
      <trkpt lat="43.8262" lon="5.59722">
        <ele>724.828</ele>
        <time>2021-01-02T16:21:58Z</time>
      </trkpt>
      <trkpt lat="43.82616" lon="5.59728">
        <ele>726.091</ele>
        <time>2021-01-02T16:21:56Z</time>
      </trkpt>
      <trkpt lat="43.82612" lon="5.59736">
        <ele>727.208</ele>
        <time>2021-01-02T16:21:54Z</time>
      </trkpt>
      <trkpt lat="43.8261" lon="5.59742">
        <ele>728.511</ele>
        <time>2021-01-02T16:21:52Z</time>
      </trkpt>
      <trkpt lat="43.82609" lon="5.59748">
        <ele>730.156</ele>
        <time>2021-01-02T16:21:50Z</time>
      </trkpt>
      <trkpt lat="43.8261" lon="5.59755">
        <ele>731.754</ele>
        <time>2021-01-02T16:21:48Z</time>
      </trkpt>
      <trkpt lat="43.82611" lon="5.59764">
        <ele>733.438</ele>
        <time>2021-01-02T16:21:45Z</time>
      </trkpt>
      <trkpt lat="43.82611" lon="5.59772">
        <ele>734.815</ele>
        <time>2021-01-02T16:21:43Z</time>
      </trkpt>
      <trkpt lat="43.82611" lon="5.59779">
        <ele>736.28</ele>
        <time>2021-01-02T16:21:41Z</time>
      </trkpt>
      <trkpt lat="43.82609" lon="5.59785">
        <ele>737.558</ele>
        <time>2021-01-02T16:21:39Z</time>
      </trkpt>
      <trkpt lat="43.82606" lon="5.59793">
        <ele>738.985</ele>
        <time>2021-01-02T16:21:36Z</time>
      </trkpt>
      <trkpt lat="43.82603" lon="5.59798">
        <ele>740.148</ele>
        <time>2021-01-02T16:21:34Z</time>
      </trkpt>
      <trkpt lat="43.82599" lon="5.59803">
        <ele>741.268</ele>
        <time>2021-01-02T16:21:32Z</time>
      </trkpt>
      <trkpt lat="43.82595" lon="5.59808">
        <ele>742.008</ele>
        <time>2021-01-02T16:21:30Z</time>
      </trkpt>
      <trkpt lat="43.82591" lon="5.59812">
        <ele>743.617</ele>
        <time>2021-01-02T16:21:28Z</time>
      </trkpt>
      <trkpt lat="43.82588" lon="5.59817">
        <ele>744.707</ele>
        <time>2021-01-02T16:21:26Z</time>
      </trkpt>
      <trkpt lat="43.82584" lon="5.59822">
        <ele>745.955</ele>
        <time>2021-01-02T16:21:24Z</time>
      </trkpt>
      <trkpt lat="43.8258" lon="5.59828">
        <ele>747.185</ele>
        <time>2021-01-02T16:21:22Z</time>
      </trkpt>
      <trkpt lat="43.82577" lon="5.59835">
        <ele>748.512</ele>
        <time>2021-01-02T16:21:19Z</time>
      </trkpt>
      <trkpt lat="43.82576" lon="5.59842">
        <ele>749.737</ele>
        <time>2021-01-02T16:21:17Z</time>
      </trkpt>
      <trkpt lat="43.82576" lon="5.59851">
        <ele>750.882</ele>
        <time>2021-01-02T16:21:14Z</time>
      </trkpt>
      <trkpt lat="43.82578" lon="5.59859">
        <ele>753.415</ele>
        <time>2021-01-02T16:21:11Z</time>
      </trkpt>
      <trkpt lat="43.82578" lon="5.59868">
        <ele>754.955</ele>
        <time>2021-01-02T16:21:08Z</time>
      </trkpt>
      <trkpt lat="43.82578" lon="5.59876">
        <ele>756.318</ele>
        <time>2021-01-02T16:21:05Z</time>
      </trkpt>
      <trkpt lat="43.82579" lon="5.59883">
        <ele>757.408</ele>
        <time>2021-01-02T16:21:02Z</time>
      </trkpt>
      <trkpt lat="43.82579" lon="5.5989">
        <ele>758.411</ele>
        <time>2021-01-02T16:20:59Z</time>
      </trkpt>
      <trkpt lat="43.8258" lon="5.59897">
        <ele>759.783</ele>
        <time>2021-01-02T16:20:56Z</time>
      </trkpt>
      <trkpt lat="43.82579" lon="5.59903">
        <ele>761.423</ele>
        <time>2021-01-02T16:20:45Z</time>
      </trkpt>
      <trkpt lat="43.82579" lon="5.59911">
        <ele>762.417</ele>
        <time>2021-01-02T16:20:43Z</time>
      </trkpt>
      <trkpt lat="43.82579" lon="5.59919">
        <ele>763.079</ele>
        <time>2021-01-02T16:20:41Z</time>
      </trkpt>
      <trkpt lat="43.82578" lon="5.59926">
        <ele>764.487</ele>
        <time>2021-01-02T16:20:39Z</time>
      </trkpt>
      <trkpt lat="43.82577" lon="5.59936">
        <ele>765.124</ele>
        <time>2021-01-02T16:20:37Z</time>
      </trkpt>
      <trkpt lat="43.82577" lon="5.59944">
        <ele>765.887</ele>
        <time>2021-01-02T16:20:35Z</time>
      </trkpt>
      <trkpt lat="43.82577" lon="5.59951">
        <ele>766.337</ele>
        <time>2021-01-02T16:20:33Z</time>
      </trkpt>
      <trkpt lat="43.82575" lon="5.59959">
        <ele>766.89</ele>
        <time>2021-01-02T16:20:31Z</time>
      </trkpt>
      <trkpt lat="43.82573" lon="5.5997">
        <ele>767.121</ele>
        <time>2021-01-02T16:20:29Z</time>
      </trkpt>
      <trkpt lat="43.82573" lon="5.59977">
        <ele>767.529</ele>
        <time>2021-01-02T16:20:28Z</time>
      </trkpt>
      <trkpt lat="43.82575" lon="5.59983">
        <ele>767.647</ele>
        <time>2021-01-02T16:20:27Z</time>
      </trkpt>
      <trkpt lat="43.82577" lon="5.59989">
        <ele>767.62</ele>
        <time>2021-01-02T16:20:26Z</time>
      </trkpt>
      <trkpt lat="43.82584" lon="5.60002">
        <ele>767.717</ele>
        <time>2021-01-02T16:20:24Z</time>
      </trkpt>
      <trkpt lat="43.82589" lon="5.60009">
        <ele>767.862</ele>
        <time>2021-01-02T16:20:23Z</time>
      </trkpt>
      <trkpt lat="43.82593" lon="5.60016">
        <ele>767.92</ele>
        <time>2021-01-02T16:20:22Z</time>
      </trkpt>
      <trkpt lat="43.82596" lon="5.60024">
        <ele>768.187</ele>
        <time>2021-01-02T16:20:21Z</time>
      </trkpt>
      <trkpt lat="43.826" lon="5.60041">
        <ele>768.34</ele>
        <time>2021-01-02T16:20:19Z</time>
      </trkpt>
      <trkpt lat="43.82602" lon="5.60049">
        <ele>768.62</ele>
        <time>2021-01-02T16:20:18Z</time>
      </trkpt>
      <trkpt lat="43.82605" lon="5.60067">
        <ele>768.933</ele>
        <time>2021-01-02T16:20:16Z</time>
      </trkpt>
      <trkpt lat="43.82606" lon="5.60086">
        <ele>769.008</ele>
        <time>2021-01-02T16:20:14Z</time>
      </trkpt>
      <trkpt lat="43.82605" lon="5.60103">
        <ele>769.105</ele>
        <time>2021-01-02T16:20:12Z</time>
      </trkpt>
      <trkpt lat="43.82603" lon="5.6011">
        <ele>768.779</ele>
        <time>2021-01-02T16:20:11Z</time>
      </trkpt>
      <trkpt lat="43.826" lon="5.60114">
        <ele>768.477</ele>
        <time>2021-01-02T16:20:10Z</time>
      </trkpt>
      <trkpt lat="43.8259" lon="5.60118">
        <ele>768.159</ele>
        <time>2021-01-02T16:20:08Z</time>
      </trkpt>
      <trkpt lat="43.82585" lon="5.60119">
        <ele>767.767</ele>
        <time>2021-01-02T16:20:07Z</time>
      </trkpt>
      <trkpt lat="43.82579" lon="5.6012">
        <ele>767.627</ele>
        <time>2021-01-02T16:20:06Z</time>
      </trkpt>
      <trkpt lat="43.82568" lon="5.60121">
        <ele>767.647</ele>
        <time>2021-01-02T16:20:04Z</time>
      </trkpt>
      <trkpt lat="43.82558" lon="5.60124">
        <ele>767.95</ele>
        <time>2021-01-02T16:20:02Z</time>
      </trkpt>
      <trkpt lat="43.82552" lon="5.60127">
        <ele>768.408</ele>
        <time>2021-01-02T16:20:01Z</time>
      </trkpt>
      <trkpt lat="43.82543" lon="5.60136">
        <ele>769.022</ele>
        <time>2021-01-02T16:19:59Z</time>
      </trkpt>
      <trkpt lat="43.82535" lon="5.60144">
        <ele>769.549</ele>
        <time>2021-01-02T16:19:57Z</time>
      </trkpt>
      <trkpt lat="43.82529" lon="5.6015">
        <ele>770.331</ele>
        <time>2021-01-02T16:19:55Z</time>
      </trkpt>
      <trkpt lat="43.82524" lon="5.60154">
        <ele>770.688</ele>
        <time>2021-01-02T16:19:53Z</time>
      </trkpt>
      <trkpt lat="43.82518" lon="5.6016">
        <ele>770.893</ele>
        <time>2021-01-02T16:19:51Z</time>
      </trkpt>
      <trkpt lat="43.82512" lon="5.60165">
        <ele>770.711</ele>
        <time>2021-01-02T16:19:49Z</time>
      </trkpt>
      <trkpt lat="43.82507" lon="5.60171">
        <ele>770.588</ele>
        <time>2021-01-02T16:19:47Z</time>
      </trkpt>
      <trkpt lat="43.82503" lon="5.60178">
        <ele>770.051</ele>
        <time>2021-01-02T16:19:45Z</time>
      </trkpt>
      <trkpt lat="43.82499" lon="5.60189">
        <ele>768.574</ele>
        <time>2021-01-02T16:19:43Z</time>
      </trkpt>
      <trkpt lat="43.82498" lon="5.60204">
        <ele>767.508</ele>
        <time>2021-01-02T16:19:41Z</time>
      </trkpt>
      <trkpt lat="43.82497" lon="5.60212">
        <ele>766.417</ele>
        <time>2021-01-02T16:19:40Z</time>
      </trkpt>
      <trkpt lat="43.82494" lon="5.60232">
        <ele>765.061</ele>
        <time>2021-01-02T16:19:38Z</time>
      </trkpt>
      <trkpt lat="43.8249" lon="5.60252">
        <ele>763.881</ele>
        <time>2021-01-02T16:19:36Z</time>
      </trkpt>
      <trkpt lat="43.82485" lon="5.60272">
        <ele>762.784</ele>
        <time>2021-01-02T16:19:34Z</time>
      </trkpt>
      <trkpt lat="43.82483" lon="5.60281">
        <ele>760.869</ele>
        <time>2021-01-02T16:19:33Z</time>
      </trkpt>
      <trkpt lat="43.82478" lon="5.60301">
        <ele>759.417</ele>
        <time>2021-01-02T16:19:31Z</time>
      </trkpt>
      <trkpt lat="43.82475" lon="5.60311">
        <ele>758.234</ele>
        <time>2021-01-02T16:19:30Z</time>
      </trkpt>
      <trkpt lat="43.82475" lon="5.60334">
        <ele>756.997</ele>
        <time>2021-01-02T16:19:28Z</time>
      </trkpt>
      <trkpt lat="43.82477" lon="5.60356">
        <ele>756.04</ele>
        <time>2021-01-02T16:19:26Z</time>
      </trkpt>
      <trkpt lat="43.82479" lon="5.60367">
        <ele>754.508</ele>
        <time>2021-01-02T16:19:25Z</time>
      </trkpt>
      <trkpt lat="43.8248" lon="5.60378">
        <ele>753.411</ele>
        <time>2021-01-02T16:19:24Z</time>
      </trkpt>
      <trkpt lat="43.82484" lon="5.60399">
        <ele>752.147</ele>
        <time>2021-01-02T16:19:22Z</time>
      </trkpt>
      <trkpt lat="43.82486" lon="5.6041">
        <ele>750.945</ele>
        <time>2021-01-02T16:19:21Z</time>
      </trkpt>
      <trkpt lat="43.82486" lon="5.6043">
        <ele>749.457</ele>
        <time>2021-01-02T16:19:19Z</time>
      </trkpt>
      <trkpt lat="43.82479" lon="5.60447">
        <ele>748.284</ele>
        <time>2021-01-02T16:19:17Z</time>
      </trkpt>
      <trkpt lat="43.82468" lon="5.6046">
        <ele>747.289</ele>
        <time>2021-01-02T16:19:15Z</time>
      </trkpt>
      <trkpt lat="43.82457" lon="5.60474">
        <ele>746.424</ele>
        <time>2021-01-02T16:19:13Z</time>
      </trkpt>
      <trkpt lat="43.82451" lon="5.60481">
        <ele>745.557</ele>
        <time>2021-01-02T16:19:12Z</time>
      </trkpt>
      <trkpt lat="43.82444" lon="5.60488">
        <ele>744.41</ele>
        <time>2021-01-02T16:19:11Z</time>
      </trkpt>
      <trkpt lat="43.82429" lon="5.60501">
        <ele>743.617</ele>
        <time>2021-01-02T16:19:09Z</time>
      </trkpt>
      <trkpt lat="43.82421" lon="5.60507">
        <ele>742.461</ele>
        <time>2021-01-02T16:19:08Z</time>
      </trkpt>
      <trkpt lat="43.82412" lon="5.6051">
        <ele>741.748</ele>
        <time>2021-01-02T16:19:07Z</time>
      </trkpt>
      <trkpt lat="43.82396" lon="5.6051">
        <ele>740.866</ele>
        <time>2021-01-02T16:19:05Z</time>
      </trkpt>
      <trkpt lat="43.82387" lon="5.6051">
        <ele>739.953</ele>
        <time>2021-01-02T16:19:04Z</time>
      </trkpt>
      <trkpt lat="43.82372" lon="5.60518">
        <ele>738.866</ele>
        <time>2021-01-02T16:19:02Z</time>
      </trkpt>
      <trkpt lat="43.82365" lon="5.60524">
        <ele>737.666</ele>
        <time>2021-01-02T16:19:01Z</time>
      </trkpt>
      <trkpt lat="43.8236" lon="5.6053">
        <ele>735.976</ele>
        <time>2021-01-02T16:19:00Z</time>
      </trkpt>
      <trkpt lat="43.82355" lon="5.60538">
        <ele>734.779</ele>
        <time>2021-01-02T16:18:59Z</time>
      </trkpt>
      <trkpt lat="43.82349" lon="5.60558">
        <ele>733.208</ele>
        <time>2021-01-02T16:18:57Z</time>
      </trkpt>
      <trkpt lat="43.8235" lon="5.60578">
        <ele>731.718</ele>
        <time>2021-01-02T16:18:55Z</time>
      </trkpt>
      <trkpt lat="43.82351" lon="5.60589">
        <ele>730.517</ele>
        <time>2021-01-02T16:18:54Z</time>
      </trkpt>
      <trkpt lat="43.82356" lon="5.6061">
        <ele>729.254</ele>
        <time>2021-01-02T16:18:52Z</time>
      </trkpt>
      <trkpt lat="43.82362" lon="5.60629">
        <ele>726.751</ele>
        <time>2021-01-02T16:18:50Z</time>
      </trkpt>
      <trkpt lat="43.82367" lon="5.60638">
        <ele>725.216</ele>
        <time>2021-01-02T16:18:49Z</time>
      </trkpt>
      <trkpt lat="43.82378" lon="5.60653">
        <ele>723.434</ele>
        <time>2021-01-02T16:18:47Z</time>
      </trkpt>
      <trkpt lat="43.82391" lon="5.60665">
        <ele>721.681</ele>
        <time>2021-01-02T16:18:45Z</time>
      </trkpt>
      <trkpt lat="43.82398" lon="5.6067">
        <ele>720.174</ele>
        <time>2021-01-02T16:18:44Z</time>
      </trkpt>
      <trkpt lat="43.82412" lon="5.60677">
        <ele>718.234</ele>
        <time>2021-01-02T16:18:42Z</time>
      </trkpt>
      <trkpt lat="43.82429" lon="5.60681">
        <ele>716.347</ele>
        <time>2021-01-02T16:18:40Z</time>
      </trkpt>
      <trkpt lat="43.82445" lon="5.60681">
        <ele>714.608</ele>
        <time>2021-01-02T16:18:38Z</time>
      </trkpt>
      <trkpt lat="43.82462" lon="5.6068">
        <ele>713.454</ele>
        <time>2021-01-02T16:18:36Z</time>
      </trkpt>
      <trkpt lat="43.8247" lon="5.60679">
        <ele>711.514</ele>
        <time>2021-01-02T16:18:35Z</time>
      </trkpt>
      <trkpt lat="43.82478" lon="5.60678">
        <ele>710.291</ele>
        <time>2021-01-02T16:18:34Z</time>
      </trkpt>
      <trkpt lat="43.82493" lon="5.60678">
        <ele>708.798</ele>
        <time>2021-01-02T16:18:32Z</time>
      </trkpt>
      <trkpt lat="43.825" lon="5.60678">
        <ele>707.543</ele>
        <time>2021-01-02T16:18:31Z</time>
      </trkpt>
      <trkpt lat="43.82515" lon="5.60677">
        <ele>706.131</ele>
        <time>2021-01-02T16:18:29Z</time>
      </trkpt>
      <trkpt lat="43.82527" lon="5.60669">
        <ele>705.038</ele>
        <time>2021-01-02T16:18:27Z</time>
      </trkpt>
      <trkpt lat="43.82532" lon="5.60662">
        <ele>704.171</ele>
        <time>2021-01-02T16:18:26Z</time>
      </trkpt>
      <trkpt lat="43.82539" lon="5.60644">
        <ele>703.141</ele>
        <time>2021-01-02T16:18:24Z</time>
      </trkpt>
      <trkpt lat="43.82543" lon="5.60624">
        <ele>702.264</ele>
        <time>2021-01-02T16:18:22Z</time>
      </trkpt>
      <trkpt lat="43.82545" lon="5.60614">
        <ele>701.726</ele>
        <time>2021-01-02T16:18:21Z</time>
      </trkpt>
      <trkpt lat="43.82547" lon="5.60604">
        <ele>700.706</ele>
        <time>2021-01-02T16:18:20Z</time>
      </trkpt>
      <trkpt lat="43.8255" lon="5.60594">
        <ele>700.089</ele>
        <time>2021-01-02T16:18:19Z</time>
      </trkpt>
      <trkpt lat="43.82558" lon="5.60577">
        <ele>699.358</ele>
        <time>2021-01-02T16:18:17Z</time>
      </trkpt>
      <trkpt lat="43.82563" lon="5.60568">
        <ele>698.153</ele>
        <time>2021-01-02T16:18:16Z</time>
      </trkpt>
      <trkpt lat="43.82568" lon="5.6056">
        <ele>697.371</ele>
        <time>2021-01-02T16:18:15Z</time>
      </trkpt>
      <trkpt lat="43.82579" lon="5.60545">
        <ele>696.388</ele>
        <time>2021-01-02T16:18:13Z</time>
      </trkpt>
      <trkpt lat="43.8259" lon="5.60532">
        <ele>695.291</ele>
        <time>2021-01-02T16:18:11Z</time>
      </trkpt>
      <trkpt lat="43.82596" lon="5.60529">
        <ele>694.371</ele>
        <time>2021-01-02T16:18:10Z</time>
      </trkpt>
      <trkpt lat="43.82603" lon="5.60528">
        <ele>693.234</ele>
        <time>2021-01-02T16:18:09Z</time>
      </trkpt>
      <trkpt lat="43.82617" lon="5.60531">
        <ele>691.808</ele>
        <time>2021-01-02T16:18:07Z</time>
      </trkpt>
      <trkpt lat="43.82629" lon="5.60538">
        <ele>690.717</ele>
        <time>2021-01-02T16:18:05Z</time>
      </trkpt>
      <trkpt lat="43.82635" lon="5.60541">
        <ele>689.989</ele>
        <time>2021-01-02T16:18:04Z</time>
      </trkpt>
      <trkpt lat="43.82641" lon="5.60545">
        <ele>689.085</ele>
        <time>2021-01-02T16:18:03Z</time>
      </trkpt>
      <trkpt lat="43.82652" lon="5.60553">
        <ele>688.084</ele>
        <time>2021-01-02T16:18:01Z</time>
      </trkpt>
      <trkpt lat="43.82662" lon="5.60564">
        <ele>687.051</ele>
        <time>2021-01-02T16:17:59Z</time>
      </trkpt>
      <trkpt lat="43.82671" lon="5.60576">
        <ele>686.066</ele>
        <time>2021-01-02T16:17:57Z</time>
      </trkpt>
      <trkpt lat="43.8268" lon="5.60589">
        <ele>685.454</ele>
        <time>2021-01-02T16:17:55Z</time>
      </trkpt>
      <trkpt lat="43.82685" lon="5.60594">
        <ele>684.971</ele>
        <time>2021-01-02T16:17:54Z</time>
      </trkpt>
      <trkpt lat="43.82691" lon="5.60595">
        <ele>684.544</ele>
        <time>2021-01-02T16:17:53Z</time>
      </trkpt>
      <trkpt lat="43.82702" lon="5.60592">
        <ele>683.764</ele>
        <time>2021-01-02T16:17:51Z</time>
      </trkpt>
      <trkpt lat="43.82707" lon="5.6059">
        <ele>683.057</ele>
        <time>2021-01-02T16:17:50Z</time>
      </trkpt>
      <trkpt lat="43.82718" lon="5.60587">
        <ele>682.308</ele>
        <time>2021-01-02T16:17:48Z</time>
      </trkpt>
      <trkpt lat="43.82724" lon="5.60586">
        <ele>681.817</ele>
        <time>2021-01-02T16:17:47Z</time>
      </trkpt>
      <trkpt lat="43.82735" lon="5.60581">
        <ele>681.298</ele>
        <time>2021-01-02T16:17:45Z</time>
      </trkpt>
      <trkpt lat="43.82746" lon="5.60571">
        <ele>680.618</ele>
        <time>2021-01-02T16:17:43Z</time>
      </trkpt>
      <trkpt lat="43.82751" lon="5.60566">
        <ele>680.27</ele>
        <time>2021-01-02T16:17:42Z</time>
      </trkpt>
      <trkpt lat="43.82756" lon="5.6056">
        <ele>679.857</ele>
        <time>2021-01-02T16:17:41Z</time>
      </trkpt>
      <trkpt lat="43.82765" lon="5.60548">
        <ele>679.492</ele>
        <time>2021-01-02T16:17:39Z</time>
      </trkpt>
      <trkpt lat="43.8277" lon="5.60543">
        <ele>679.26</ele>
        <time>2021-01-02T16:17:38Z</time>
      </trkpt>
      <trkpt lat="43.8278" lon="5.60532">
        <ele>679.267</ele>
        <time>2021-01-02T16:17:36Z</time>
      </trkpt>
      <trkpt lat="43.82785" lon="5.60526">
        <ele>679.24</ele>
        <time>2021-01-02T16:17:35Z</time>
      </trkpt>
      <trkpt lat="43.8279" lon="5.6052">
        <ele>679.27</ele>
        <time>2021-01-02T16:17:34Z</time>
      </trkpt>
      <trkpt lat="43.82794" lon="5.60512">
        <ele>679.213</ele>
        <time>2021-01-02T16:17:33Z</time>
      </trkpt>
      <trkpt lat="43.82798" lon="5.60505">
        <ele>679.308</ele>
        <time>2021-01-02T16:17:32Z</time>
      </trkpt>
      <trkpt lat="43.82808" lon="5.60497">
        <ele>679.456</ele>
        <time>2021-01-02T16:17:30Z</time>
      </trkpt>
      <trkpt lat="43.82814" lon="5.60495">
        <ele>679.574</ele>
        <time>2021-01-02T16:17:29Z</time>
      </trkpt>
      <trkpt lat="43.82825" lon="5.60496">
        <ele>679.43</ele>
        <time>2021-01-02T16:17:27Z</time>
      </trkpt>
      <trkpt lat="43.82829" lon="5.60501">
        <ele>679.187</ele>
        <time>2021-01-02T16:17:26Z</time>
      </trkpt>
      <trkpt lat="43.8283" lon="5.60507">
        <ele>678.812</ele>
        <time>2021-01-02T16:17:25Z</time>
      </trkpt>
      <trkpt lat="43.82831" lon="5.60514">
        <ele>678.54</ele>
        <time>2021-01-02T16:17:24Z</time>
      </trkpt>
      <trkpt lat="43.8283" lon="5.60531">
        <ele>678.357</ele>
        <time>2021-01-02T16:17:22Z</time>
      </trkpt>
      <trkpt lat="43.82829" lon="5.60539">
        <ele>678.25</ele>
        <time>2021-01-02T16:17:21Z</time>
      </trkpt>
      <trkpt lat="43.82828" lon="5.60548">
        <ele>678.13</ele>
        <time>2021-01-02T16:17:20Z</time>
      </trkpt>
      <trkpt lat="43.82828" lon="5.60565">
        <ele>677.923</ele>
        <time>2021-01-02T16:17:18Z</time>
      </trkpt>
      <trkpt lat="43.82827" lon="5.60574">
        <ele>677.808</ele>
        <time>2021-01-02T16:17:17Z</time>
      </trkpt>
      <trkpt lat="43.82827" lon="5.60583">
        <ele>677.815</ele>
        <time>2021-01-02T16:17:16Z</time>
      </trkpt>
      <trkpt lat="43.82827" lon="5.60599">
        <ele>677.941</ele>
        <time>2021-01-02T16:17:14Z</time>
      </trkpt>
      <trkpt lat="43.82828" lon="5.60607">
        <ele>678.171</ele>
        <time>2021-01-02T16:17:13Z</time>
      </trkpt>
      <trkpt lat="43.82829" lon="5.60623">
        <ele>678.461</ele>
        <time>2021-01-02T16:17:11Z</time>
      </trkpt>
      <trkpt lat="43.82831" lon="5.6063">
        <ele>678.828</ele>
        <time>2021-01-02T16:17:10Z</time>
      </trkpt>
      <trkpt lat="43.82833" lon="5.60638">
        <ele>679.263</ele>
        <time>2021-01-02T16:17:09Z</time>
      </trkpt>
      <trkpt lat="43.82838" lon="5.60653">
        <ele>679.691</ele>
        <time>2021-01-02T16:17:07Z</time>
      </trkpt>
      <trkpt lat="43.82841" lon="5.60661">
        <ele>679.888</ele>
        <time>2021-01-02T16:17:06Z</time>
      </trkpt>
      <trkpt lat="43.82844" lon="5.60668">
        <ele>680.031</ele>
        <time>2021-01-02T16:17:05Z</time>
      </trkpt>
      <trkpt lat="43.82849" lon="5.60682">
        <ele>680.341</ele>
        <time>2021-01-02T16:17:03Z</time>
      </trkpt>
      <trkpt lat="43.82851" lon="5.6069">
        <ele>680.574</ele>
        <time>2021-01-02T16:17:02Z</time>
      </trkpt>
      <trkpt lat="43.82854" lon="5.60704">
        <ele>680.708</ele>
        <time>2021-01-02T16:17:00Z</time>
      </trkpt>
      <trkpt lat="43.82856" lon="5.60712">
        <ele>680.817</ele>
        <time>2021-01-02T16:16:59Z</time>
      </trkpt>
      <trkpt lat="43.82859" lon="5.60727">
        <ele>680.961</ele>
        <time>2021-01-02T16:16:57Z</time>
      </trkpt>
      <trkpt lat="43.82862" lon="5.60742">
        <ele>681.09</ele>
        <time>2021-01-02T16:16:55Z</time>
      </trkpt>
      <trkpt lat="43.82863" lon="5.6075">
        <ele>681.287</ele>
        <time>2021-01-02T16:16:54Z</time>
      </trkpt>
      <trkpt lat="43.82865" lon="5.60764">
        <ele>681.412</ele>
        <time>2021-01-02T16:16:52Z</time>
      </trkpt>
      <trkpt lat="43.82866" lon="5.60779">
        <ele>681.62</ele>
        <time>2021-01-02T16:16:50Z</time>
      </trkpt>
      <trkpt lat="43.82867" lon="5.60787">
        <ele>681.76</ele>
        <time>2021-01-02T16:16:49Z</time>
      </trkpt>
      <trkpt lat="43.82869" lon="5.60802">
        <ele>681.71</ele>
        <time>2021-01-02T16:16:47Z</time>
      </trkpt>
      <trkpt lat="43.82871" lon="5.60817">
        <ele>681.563</ele>
        <time>2021-01-02T16:16:45Z</time>
      </trkpt>
      <trkpt lat="43.82873" lon="5.60829">
        <ele>681.215</ele>
        <time>2021-01-02T16:16:43Z</time>
      </trkpt>
      <trkpt lat="43.82873" lon="5.60841">
        <ele>681.041</ele>
        <time>2021-01-02T16:16:41Z</time>
      </trkpt>
      <trkpt lat="43.82872" lon="5.60856">
        <ele>680.971</ele>
        <time>2021-01-02T16:16:39Z</time>
      </trkpt>
      <trkpt lat="43.82872" lon="5.60863">
        <ele>680.935</ele>
        <time>2021-01-02T16:16:38Z</time>
      </trkpt>
      <trkpt lat="43.82872" lon="5.60873">
        <ele>680.852</ele>
        <time>2021-01-02T16:16:36Z</time>
      </trkpt>
      <trkpt lat="43.82872" lon="5.6088">
        <ele>680.887</ele>
        <time>2021-01-02T16:16:35Z</time>
      </trkpt>
      <trkpt lat="43.82872" lon="5.60887">
        <ele>681.045</ele>
        <time>2021-01-02T16:16:34Z</time>
      </trkpt>
      <trkpt lat="43.82873" lon="5.60894">
        <ele>681.165</ele>
        <time>2021-01-02T16:16:33Z</time>
      </trkpt>
      <trkpt lat="43.82873" lon="5.60901">
        <ele>681.315</ele>
        <time>2021-01-02T16:16:32Z</time>
      </trkpt>
      <trkpt lat="43.82875" lon="5.60911">
        <ele>681.488</ele>
        <time>2021-01-02T16:16:30Z</time>
      </trkpt>
      <trkpt lat="43.82877" lon="5.60923">
        <ele>681.608</ele>
        <time>2021-01-02T16:16:28Z</time>
      </trkpt>
      <trkpt lat="43.82877" lon="5.60929">
        <ele>681.717</ele>
        <time>2021-01-02T16:16:27Z</time>
      </trkpt>
      <trkpt lat="43.82878" lon="5.60942">
        <ele>681.728</ele>
        <time>2021-01-02T16:16:25Z</time>
      </trkpt>
      <trkpt lat="43.82879" lon="5.6095">
        <ele>681.816</ele>
        <time>2021-01-02T16:16:24Z</time>
      </trkpt>
      <trkpt lat="43.82879" lon="5.60964">
        <ele>681.923</ele>
        <time>2021-01-02T16:16:22Z</time>
      </trkpt>
      <trkpt lat="43.8288" lon="5.60979">
        <ele>681.828</ele>
        <time>2021-01-02T16:16:20Z</time>
      </trkpt>
      <trkpt lat="43.82883" lon="5.60996">
        <ele>681.623</ele>
        <time>2021-01-02T16:16:18Z</time>
      </trkpt>
      <trkpt lat="43.82885" lon="5.61014">
        <ele>681.476</ele>
        <time>2021-01-02T16:16:16Z</time>
      </trkpt>
      <trkpt lat="43.82886" lon="5.61031">
        <ele>681.546</ele>
        <time>2021-01-02T16:16:14Z</time>
      </trkpt>
      <trkpt lat="43.82887" lon="5.6105">
        <ele>681.608</ele>
        <time>2021-01-02T16:16:12Z</time>
      </trkpt>
      <trkpt lat="43.82887" lon="5.61059">
        <ele>681.91</ele>
        <time>2021-01-02T16:16:11Z</time>
      </trkpt>
      <trkpt lat="43.82888" lon="5.61077">
        <ele>682.255</ele>
        <time>2021-01-02T16:16:09Z</time>
      </trkpt>
      <trkpt lat="43.82889" lon="5.61086">
        <ele>682.534</ele>
        <time>2021-01-02T16:16:08Z</time>
      </trkpt>
      <trkpt lat="43.82889" lon="5.61104">
        <ele>682.957</ele>
        <time>2021-01-02T16:16:06Z</time>
      </trkpt>
      <trkpt lat="43.82886" lon="5.61122">
        <ele>683.344</ele>
        <time>2021-01-02T16:16:04Z</time>
      </trkpt>
      <trkpt lat="43.82881" lon="5.61139">
        <ele>683.859</ele>
        <time>2021-01-02T16:16:02Z</time>
      </trkpt>
      <trkpt lat="43.82877" lon="5.61147">
        <ele>684.347</ele>
        <time>2021-01-02T16:16:01Z</time>
      </trkpt>
      <trkpt lat="43.82869" lon="5.61162">
        <ele>684.867</ele>
        <time>2021-01-02T16:15:59Z</time>
      </trkpt>
      <trkpt lat="43.8286" lon="5.61175">
        <ele>685.78</ele>
        <time>2021-01-02T16:15:57Z</time>
      </trkpt>
      <trkpt lat="43.82855" lon="5.61182">
        <ele>686.708</ele>
        <time>2021-01-02T16:15:56Z</time>
      </trkpt>
      <trkpt lat="43.82846" lon="5.61197">
        <ele>687.415</ele>
        <time>2021-01-02T16:15:54Z</time>
      </trkpt>
      <trkpt lat="43.82836" lon="5.61211">
        <ele>688.144</ele>
        <time>2021-01-02T16:15:52Z</time>
      </trkpt>
      <trkpt lat="43.82831" lon="5.61217">
        <ele>689.027</ele>
        <time>2021-01-02T16:15:51Z</time>
      </trkpt>
      <trkpt lat="43.82822" lon="5.61231">
        <ele>689.644</ele>
        <time>2021-01-02T16:15:49Z</time>
      </trkpt>
      <trkpt lat="43.82813" lon="5.61245">
        <ele>690.149</ele>
        <time>2021-01-02T16:15:47Z</time>
      </trkpt>
      <trkpt lat="43.82807" lon="5.61261">
        <ele>690.667</ele>
        <time>2021-01-02T16:15:45Z</time>
      </trkpt>
      <trkpt lat="43.82805" lon="5.61269">
        <ele>691.034</ele>
        <time>2021-01-02T16:15:44Z</time>
      </trkpt>
      <trkpt lat="43.82804" lon="5.61278">
        <ele>691.547</ele>
        <time>2021-01-02T16:15:43Z</time>
      </trkpt>
      <trkpt lat="43.82801" lon="5.61295">
        <ele>692.117</ele>
        <time>2021-01-02T16:15:41Z</time>
      </trkpt>
      <trkpt lat="43.82799" lon="5.61303">
        <ele>692.78</ele>
        <time>2021-01-02T16:15:40Z</time>
      </trkpt>
      <trkpt lat="43.82794" lon="5.6132">
        <ele>693.416</ele>
        <time>2021-01-02T16:15:38Z</time>
      </trkpt>
      <trkpt lat="43.82793" lon="5.61329">
        <ele>694.588</ele>
        <time>2021-01-02T16:15:37Z</time>
      </trkpt>
      <trkpt lat="43.82791" lon="5.61338">
        <ele>695.246</ele>
        <time>2021-01-02T16:15:36Z</time>
      </trkpt>
      <trkpt lat="43.82787" lon="5.61356">
        <ele>696.016</ele>
        <time>2021-01-02T16:15:34Z</time>
      </trkpt>
      <trkpt lat="43.82783" lon="5.61375">
        <ele>696.753</ele>
        <time>2021-01-02T16:15:32Z</time>
      </trkpt>
      <trkpt lat="43.8278" lon="5.61393">
        <ele>697.466</ele>
        <time>2021-01-02T16:15:30Z</time>
      </trkpt>
      <trkpt lat="43.82775" lon="5.6141">
        <ele>698.253</ele>
        <time>2021-01-02T16:15:28Z</time>
      </trkpt>
      <trkpt lat="43.82773" lon="5.61418">
        <ele>698.576</ele>
        <time>2021-01-02T16:15:27Z</time>
      </trkpt>
      <trkpt lat="43.82771" lon="5.61427">
        <ele>698.956</ele>
        <time>2021-01-02T16:15:26Z</time>
      </trkpt>
      <trkpt lat="43.82766" lon="5.61444">
        <ele>699.408</ele>
        <time>2021-01-02T16:15:24Z</time>
      </trkpt>
      <trkpt lat="43.82763" lon="5.61452">
        <ele>700.211</ele>
        <time>2021-01-02T16:15:23Z</time>
      </trkpt>
      <trkpt lat="43.8276" lon="5.61461">
        <ele>700.792</ele>
        <time>2021-01-02T16:15:22Z</time>
      </trkpt>
      <trkpt lat="43.82758" lon="5.61469">
        <ele>701.232</ele>
        <time>2021-01-02T16:15:21Z</time>
      </trkpt>
      <trkpt lat="43.82753" lon="5.61485">
        <ele>701.735</ele>
        <time>2021-01-02T16:15:19Z</time>
      </trkpt>
      <trkpt lat="43.82749" lon="5.61493">
        <ele>701.952</ele>
        <time>2021-01-02T16:15:18Z</time>
      </trkpt>
      <trkpt lat="43.82746" lon="5.61501">
        <ele>702.125</ele>
        <time>2021-01-02T16:15:17Z</time>
      </trkpt>
      <trkpt lat="43.82742" lon="5.61508">
        <ele>702.712</ele>
        <time>2021-01-02T16:15:16Z</time>
      </trkpt>
      <trkpt lat="43.82738" lon="5.61513">
        <ele>703.025</ele>
        <time>2021-01-02T16:15:15Z</time>
      </trkpt>
      <trkpt lat="43.82729" lon="5.61525">
        <ele>703.485</ele>
        <time>2021-01-02T16:15:13Z</time>
      </trkpt>
      <trkpt lat="43.8272" lon="5.61535">
        <ele>703.568</ele>
        <time>2021-01-02T16:15:11Z</time>
      </trkpt>
      <trkpt lat="43.82711" lon="5.61542">
        <ele>703.508</ele>
        <time>2021-01-02T16:15:09Z</time>
      </trkpt>
      <trkpt lat="43.82706" lon="5.61545">
        <ele>703.562</ele>
        <time>2021-01-02T16:15:08Z</time>
      </trkpt>
      <trkpt lat="43.82701" lon="5.61548">
        <ele>703.522</ele>
        <time>2021-01-02T16:15:07Z</time>
      </trkpt>
      <trkpt lat="43.82691" lon="5.61555">
        <ele>703.539</ele>
        <time>2021-01-02T16:15:05Z</time>
      </trkpt>
      <trkpt lat="43.82687" lon="5.61558">
        <ele>703.552</ele>
        <time>2021-01-02T16:15:04Z</time>
      </trkpt>
      <trkpt lat="43.82677" lon="5.61565">
        <ele>703.059</ele>
        <time>2021-01-02T16:15:02Z</time>
      </trkpt>
      <trkpt lat="43.82666" lon="5.61571">
        <ele>702.692</ele>
        <time>2021-01-02T16:15:00Z</time>
      </trkpt>
      <trkpt lat="43.82661" lon="5.61574">
        <ele>702.312</ele>
        <time>2021-01-02T16:14:59Z</time>
      </trkpt>
      <trkpt lat="43.82651" lon="5.6158">
        <ele>702.065</ele>
        <time>2021-01-02T16:14:57Z</time>
      </trkpt>
      <trkpt lat="43.82641" lon="5.61585">
        <ele>701.708</ele>
        <time>2021-01-02T16:14:55Z</time>
      </trkpt>
      <trkpt lat="43.8263" lon="5.61591">
        <ele>701.326</ele>
        <time>2021-01-02T16:14:53Z</time>
      </trkpt>
      <trkpt lat="43.82624" lon="5.61595">
        <ele>700.815</ele>
        <time>2021-01-02T16:14:52Z</time>
      </trkpt>
      <trkpt lat="43.82614" lon="5.61604">
        <ele>700.298</ele>
        <time>2021-01-02T16:14:50Z</time>
      </trkpt>
      <trkpt lat="43.8261" lon="5.61608">
        <ele>699.682</ele>
        <time>2021-01-02T16:14:49Z</time>
      </trkpt>
      <trkpt lat="43.82605" lon="5.61613">
        <ele>698.819</ele>
        <time>2021-01-02T16:14:48Z</time>
      </trkpt>
      <trkpt lat="43.82599" lon="5.61621">
        <ele>697.924</ele>
        <time>2021-01-02T16:14:46Z</time>
      </trkpt>
      <trkpt lat="43.82595" lon="5.6163">
        <ele>697.032</ele>
        <time>2021-01-02T16:14:44Z</time>
      </trkpt>
      <trkpt lat="43.82593" lon="5.61639">
        <ele>696.119</ele>
        <time>2021-01-02T16:14:42Z</time>
      </trkpt>
      <trkpt lat="43.8259" lon="5.6165">
        <ele>695.122</ele>
        <time>2021-01-02T16:14:40Z</time>
      </trkpt>
      <trkpt lat="43.82588" lon="5.61658">
        <ele>694.132</ele>
        <time>2021-01-02T16:14:38Z</time>
      </trkpt>
      <trkpt lat="43.82584" lon="5.61667">
        <ele>693.308</ele>
        <time>2021-01-02T16:14:36Z</time>
      </trkpt>
      <trkpt lat="43.82581" lon="5.61677">
        <ele>691.427</ele>
        <time>2021-01-02T16:14:34Z</time>
      </trkpt>
      <trkpt lat="43.82579" lon="5.61687">
        <ele>690.207</ele>
        <time>2021-01-02T16:14:32Z</time>
      </trkpt>
      <trkpt lat="43.82577" lon="5.61695">
        <ele>689.199</ele>
        <time>2021-01-02T16:14:30Z</time>
      </trkpt>
      <trkpt lat="43.82574" lon="5.61705">
        <ele>688.159</ele>
        <time>2021-01-02T16:14:28Z</time>
      </trkpt>
      <trkpt lat="43.82573" lon="5.61714">
        <ele>687.186</ele>
        <time>2021-01-02T16:14:26Z</time>
      </trkpt>
      <trkpt lat="43.82574" lon="5.61724">
        <ele>686.111</ele>
        <time>2021-01-02T16:14:24Z</time>
      </trkpt>
      <trkpt lat="43.82577" lon="5.61732">
        <ele>685.026</ele>
        <time>2021-01-02T16:14:22Z</time>
      </trkpt>
      <trkpt lat="43.8258" lon="5.6174">
        <ele>682.999</ele>
        <time>2021-01-02T16:14:20Z</time>
      </trkpt>
      <trkpt lat="43.82582" lon="5.61747">
        <ele>681.679</ele>
        <time>2021-01-02T16:14:18Z</time>
      </trkpt>
      <trkpt lat="43.82584" lon="5.61757">
        <ele>680.412</ele>
        <time>2021-01-02T16:14:16Z</time>
      </trkpt>
      <trkpt lat="43.82585" lon="5.61766">
        <ele>679.208</ele>
        <time>2021-01-02T16:14:14Z</time>
      </trkpt>
      <trkpt lat="43.82586" lon="5.61775">
        <ele>678.124</ele>
        <time>2021-01-02T16:14:12Z</time>
      </trkpt>
      <trkpt lat="43.8259" lon="5.6178">
        <ele>677.369</ele>
        <time>2021-01-02T16:14:10Z</time>
      </trkpt>
      <trkpt lat="43.82595" lon="5.61778">
        <ele>676.352</ele>
        <time>2021-01-02T16:14:09Z</time>
      </trkpt>
      <trkpt lat="43.82606" lon="5.6177">
        <ele>675.539</ele>
        <time>2021-01-02T16:14:07Z</time>
      </trkpt>
      <trkpt lat="43.82611" lon="5.61765">
        <ele>674.944</ele>
        <time>2021-01-02T16:14:06Z</time>
      </trkpt>
      <trkpt lat="43.82617" lon="5.6176">
        <ele>674.222</ele>
        <time>2021-01-02T16:14:05Z</time>
      </trkpt>
      <trkpt lat="43.82623" lon="5.61754">
        <ele>673.539</ele>
        <time>2021-01-02T16:14:04Z</time>
      </trkpt>
      <trkpt lat="43.82628" lon="5.61749">
        <ele>672.892</ele>
        <time>2021-01-02T16:14:03Z</time>
      </trkpt>
      <trkpt lat="43.82639" lon="5.61739">
        <ele>671.982</ele>
        <time>2021-01-02T16:14:01Z</time>
      </trkpt>
      <trkpt lat="43.82645" lon="5.61733">
        <ele>671.275</ele>
        <time>2021-01-02T16:14:00Z</time>
      </trkpt>
      <trkpt lat="43.82656" lon="5.61724">
        <ele>670.508</ele>
        <time>2021-01-02T16:13:58Z</time>
      </trkpt>
      <trkpt lat="43.82661" lon="5.61719">
        <ele>670.021</ele>
        <time>2021-01-02T16:13:57Z</time>
      </trkpt>
      <trkpt lat="43.82671" lon="5.61709">
        <ele>669.593</ele>
        <time>2021-01-02T16:13:55Z</time>
      </trkpt>
      <trkpt lat="43.82676" lon="5.61704">
        <ele>668.795</ele>
        <time>2021-01-02T16:13:54Z</time>
      </trkpt>
      <trkpt lat="43.82682" lon="5.61699">
        <ele>668.272</ele>
        <time>2021-01-02T16:13:53Z</time>
      </trkpt>
      <trkpt lat="43.82694" lon="5.61691">
        <ele>667.655</ele>
        <time>2021-01-02T16:13:51Z</time>
      </trkpt>
      <trkpt lat="43.827" lon="5.61687">
        <ele>666.762</ele>
        <time>2021-01-02T16:13:50Z</time>
      </trkpt>
      <trkpt lat="43.82706" lon="5.61682">
        <ele>666.165</ele>
        <time>2021-01-02T16:13:49Z</time>
      </trkpt>
      <trkpt lat="43.8272" lon="5.61674">
        <ele>665.675</ele>
        <time>2021-01-02T16:13:47Z</time>
      </trkpt>
      <trkpt lat="43.82733" lon="5.61667">
        <ele>665.138</ele>
        <time>2021-01-02T16:13:45Z</time>
      </trkpt>
      <trkpt lat="43.82739" lon="5.61664">
        <ele>664.608</ele>
        <time>2021-01-02T16:13:44Z</time>
      </trkpt>
      <trkpt lat="43.82751" lon="5.61658">
        <ele>664.014</ele>
        <time>2021-01-02T16:13:42Z</time>
      </trkpt>
      <trkpt lat="43.82757" lon="5.61655">
        <ele>663.568</ele>
        <time>2021-01-02T16:13:41Z</time>
      </trkpt>
      <trkpt lat="43.82763" lon="5.61653">
        <ele>662.927</ele>
        <time>2021-01-02T16:13:40Z</time>
      </trkpt>
      <trkpt lat="43.82775" lon="5.61648">
        <ele>662.344</ele>
        <time>2021-01-02T16:13:38Z</time>
      </trkpt>
      <trkpt lat="43.82786" lon="5.61643">
        <ele>661.841</ele>
        <time>2021-01-02T16:13:36Z</time>
      </trkpt>
      <trkpt lat="43.82799" lon="5.6164">
        <ele>661.316</ele>
        <time>2021-01-02T16:13:34Z</time>
      </trkpt>
      <trkpt lat="43.82805" lon="5.61639">
        <ele>660.744</ele>
        <time>2021-01-02T16:13:33Z</time>
      </trkpt>
      <trkpt lat="43.82817" lon="5.61635">
        <ele>660.141</ele>
        <time>2021-01-02T16:13:31Z</time>
      </trkpt>
      <trkpt lat="43.82823" lon="5.61632">
        <ele>659.744</ele>
        <time>2021-01-02T16:13:30Z</time>
      </trkpt>
      <trkpt lat="43.82836" lon="5.61627">
        <ele>659.354</ele>
        <time>2021-01-02T16:13:28Z</time>
      </trkpt>
      <trkpt lat="43.82849" lon="5.61623">
        <ele>659.087</ele>
        <time>2021-01-02T16:13:26Z</time>
      </trkpt>
      <trkpt lat="43.82856" lon="5.6162">
        <ele>658.808</ele>
        <time>2021-01-02T16:13:25Z</time>
      </trkpt>
      <trkpt lat="43.82868" lon="5.61614">
        <ele>658.517</ele>
        <time>2021-01-02T16:13:23Z</time>
      </trkpt>
      <trkpt lat="43.82879" lon="5.61608">
        <ele>658.318</ele>
        <time>2021-01-02T16:13:21Z</time>
      </trkpt>
      <trkpt lat="43.8289" lon="5.61601">
        <ele>657.815</ele>
        <time>2021-01-02T16:13:19Z</time>
      </trkpt>
      <trkpt lat="43.82903" lon="5.61591">
        <ele>657.572</ele>
        <time>2021-01-02T16:13:17Z</time>
      </trkpt>
      <trkpt lat="43.82918" lon="5.61584">
        <ele>657.057</ele>
        <time>2021-01-02T16:13:15Z</time>
      </trkpt>
      <trkpt lat="43.82925" lon="5.61585">
        <ele>656.775</ele>
        <time>2021-01-02T16:13:14Z</time>
      </trkpt>
      <trkpt lat="43.82938" lon="5.61593">
        <ele>656.642</ele>
        <time>2021-01-02T16:13:12Z</time>
      </trkpt>
      <trkpt lat="43.82943" lon="5.61601">
        <ele>656.725</ele>
        <time>2021-01-02T16:13:11Z</time>
      </trkpt>
      <trkpt lat="43.82948" lon="5.6162">
        <ele>656.965</ele>
        <time>2021-01-02T16:13:09Z</time>
      </trkpt>
      <trkpt lat="43.82954" lon="5.61637">
        <ele>657.138</ele>
        <time>2021-01-02T16:13:07Z</time>
      </trkpt>
      <trkpt lat="43.82961" lon="5.61655">
        <ele>657.208</ele>
        <time>2021-01-02T16:13:05Z</time>
      </trkpt>
      <trkpt lat="43.82964" lon="5.61664">
        <ele>657.411</ele>
        <time>2021-01-02T16:13:04Z</time>
      </trkpt>
      <trkpt lat="43.82969" lon="5.61683">
        <ele>657.723</ele>
        <time>2021-01-02T16:13:02Z</time>
      </trkpt>
      <trkpt lat="43.82971" lon="5.61693">
        <ele>657.821</ele>
        <time>2021-01-02T16:13:01Z</time>
      </trkpt>
      <trkpt lat="43.82974" lon="5.61702">
        <ele>657.848</ele>
        <time>2021-01-02T16:13:00Z</time>
      </trkpt>
      <trkpt lat="43.82981" lon="5.61721">
        <ele>657.773</ele>
        <time>2021-01-02T16:12:58Z</time>
      </trkpt>
      <trkpt lat="43.82987" lon="5.61738">
        <ele>657.751</ele>
        <time>2021-01-02T16:12:56Z</time>
      </trkpt>
      <trkpt lat="43.82989" lon="5.61755">
        <ele>657.871</ele>
        <time>2021-01-02T16:12:54Z</time>
      </trkpt>
      <trkpt lat="43.8299" lon="5.61762">
        <ele>657.951</ele>
        <time>2021-01-02T16:12:53Z</time>
      </trkpt>
      <trkpt lat="43.82991" lon="5.61775">
        <ele>658.064</ele>
        <time>2021-01-02T16:12:51Z</time>
      </trkpt>
      <trkpt lat="43.82995" lon="5.61787">
        <ele>658.108</ele>
        <time>2021-01-02T16:12:49Z</time>
      </trkpt>
      <trkpt lat="43.83" lon="5.61797">
        <ele>658.16</ele>
        <time>2021-01-02T16:12:47Z</time>
      </trkpt>
      <trkpt lat="43.83007" lon="5.61814">
        <ele>658.586</ele>
        <time>2021-01-02T16:12:45Z</time>
      </trkpt>
      <trkpt lat="43.8301" lon="5.61825">
        <ele>658.837</ele>
        <time>2021-01-02T16:12:44Z</time>
      </trkpt>
      <trkpt lat="43.83017" lon="5.61846">
        <ele>659.184</ele>
        <time>2021-01-02T16:12:42Z</time>
      </trkpt>
      <trkpt lat="43.83021" lon="5.61857">
        <ele>659.127</ele>
        <time>2021-01-02T16:12:41Z</time>
      </trkpt>
      <trkpt lat="43.83024" lon="5.61868">
        <ele>658.974</ele>
        <time>2021-01-02T16:12:40Z</time>
      </trkpt>
      <trkpt lat="43.8303" lon="5.6189">
        <ele>658.717</ele>
        <time>2021-01-02T16:12:38Z</time>
      </trkpt>
      <trkpt lat="43.83036" lon="5.61913">
        <ele>658.487</ele>
        <time>2021-01-02T16:12:36Z</time>
      </trkpt>
      <trkpt lat="43.83041" lon="5.61935">
        <ele>658.02</ele>
        <time>2021-01-02T16:12:34Z</time>
      </trkpt>
      <trkpt lat="43.83045" lon="5.6196">
        <ele>657.608</ele>
        <time>2021-01-02T16:12:32Z</time>
      </trkpt>
      <trkpt lat="43.83048" lon="5.61972">
        <ele>657.309</ele>
        <time>2021-01-02T16:12:31Z</time>
      </trkpt>
      <trkpt lat="43.83051" lon="5.61995">
        <ele>656.941</ele>
        <time>2021-01-02T16:12:29Z</time>
      </trkpt>
      <trkpt lat="43.83051" lon="5.62007">
        <ele>656.294</ele>
        <time>2021-01-02T16:12:28Z</time>
      </trkpt>
      <trkpt lat="43.83051" lon="5.62019">
        <ele>655.631</ele>
        <time>2021-01-02T16:12:27Z</time>
      </trkpt>
      <trkpt lat="43.83051" lon="5.62031">
        <ele>654.926</ele>
        <time>2021-01-02T16:12:26Z</time>
      </trkpt>
      <trkpt lat="43.83048" lon="5.62055">
        <ele>654.184</ele>
        <time>2021-01-02T16:12:24Z</time>
      </trkpt>
      <trkpt lat="43.83045" lon="5.62079">
        <ele>653.551</ele>
        <time>2021-01-02T16:12:22Z</time>
      </trkpt>
      <trkpt lat="43.83044" lon="5.62092">
        <ele>653.144</ele>
        <time>2021-01-02T16:12:21Z</time>
      </trkpt>
      <trkpt lat="43.83044" lon="5.62116">
        <ele>652.694</ele>
        <time>2021-01-02T16:12:19Z</time>
      </trkpt>
      <trkpt lat="43.83047" lon="5.6214">
        <ele>652.247</ele>
        <time>2021-01-02T16:12:17Z</time>
      </trkpt>
      <trkpt lat="43.83049" lon="5.62152">
        <ele>651.708</ele>
        <time>2021-01-02T16:12:16Z</time>
      </trkpt>
      <trkpt lat="43.83054" lon="5.62177">
        <ele>651.213</ele>
        <time>2021-01-02T16:12:14Z</time>
      </trkpt>
      <trkpt lat="43.83057" lon="5.62202">
        <ele>650.776</ele>
        <time>2021-01-02T16:12:12Z</time>
      </trkpt>
      <trkpt lat="43.83058" lon="5.62214">
        <ele>650.316</ele>
        <time>2021-01-02T16:12:11Z</time>
      </trkpt>
      <trkpt lat="43.8306" lon="5.62239">
        <ele>649.828</ele>
        <time>2021-01-02T16:12:09Z</time>
      </trkpt>
      <trkpt lat="43.83061" lon="5.62251">
        <ele>649.735</ele>
        <time>2021-01-02T16:12:08Z</time>
      </trkpt>
      <trkpt lat="43.83065" lon="5.62276">
        <ele>649.64</ele>
        <time>2021-01-02T16:12:06Z</time>
      </trkpt>
      <trkpt lat="43.83067" lon="5.62288">
        <ele>649.528</ele>
        <time>2021-01-02T16:12:05Z</time>
      </trkpt>
      <trkpt lat="43.83071" lon="5.62311">
        <ele>649.385</ele>
        <time>2021-01-02T16:12:03Z</time>
      </trkpt>
      <trkpt lat="43.83074" lon="5.62335">
        <ele>649.228</ele>
        <time>2021-01-02T16:12:01Z</time>
      </trkpt>
      <trkpt lat="43.83076" lon="5.62358">
        <ele>649.138</ele>
        <time>2021-01-02T16:11:59Z</time>
      </trkpt>
      <trkpt lat="43.83076" lon="5.6237">
        <ele>649.111</ele>
        <time>2021-01-02T16:11:58Z</time>
      </trkpt>
      <trkpt lat="43.83077" lon="5.6239">
        <ele>649.108</ele>
        <time>2021-01-02T16:11:56Z</time>
      </trkpt>
      <trkpt lat="43.83077" lon="5.6241">
        <ele>648.908</ele>
        <time>2021-01-02T16:11:54Z</time>
      </trkpt>
      <trkpt lat="43.83078" lon="5.62429">
        <ele>648.753</ele>
        <time>2021-01-02T16:11:52Z</time>
      </trkpt>
      <trkpt lat="43.83077" lon="5.62438">
        <ele>648.652</ele>
        <time>2021-01-02T16:11:51Z</time>
      </trkpt>
      <trkpt lat="43.83076" lon="5.62447">
        <ele>648.669</ele>
        <time>2021-01-02T16:11:50Z</time>
      </trkpt>
      <trkpt lat="43.83079" lon="5.62461">
        <ele>648.626</ele>
        <time>2021-01-02T16:11:48Z</time>
      </trkpt>
      <trkpt lat="43.83082" lon="5.62472">
        <ele>648.541</ele>
        <time>2021-01-02T16:11:46Z</time>
      </trkpt>
      <trkpt lat="43.83085" lon="5.62485">
        <ele>648.529</ele>
        <time>2021-01-02T16:11:44Z</time>
      </trkpt>
      <trkpt lat="43.83087" lon="5.62502">
        <ele>648.526</ele>
        <time>2021-01-02T16:11:42Z</time>
      </trkpt>
      <trkpt lat="43.83088" lon="5.62513">
        <ele>648.519</ele>
        <time>2021-01-02T16:11:41Z</time>
      </trkpt>
      <trkpt lat="43.83089" lon="5.62523">
        <ele>648.529</ele>
        <time>2021-01-02T16:11:40Z</time>
      </trkpt>
      <trkpt lat="43.83093" lon="5.62545">
        <ele>648.412</ele>
        <time>2021-01-02T16:11:38Z</time>
      </trkpt>
      <trkpt lat="43.83095" lon="5.62566">
        <ele>648.308</ele>
        <time>2021-01-02T16:11:36Z</time>
      </trkpt>
      <trkpt lat="43.83097" lon="5.62585">
        <ele>648.016</ele>
        <time>2021-01-02T16:11:34Z</time>
      </trkpt>
      <trkpt lat="43.831" lon="5.62602">
        <ele>647.706</ele>
        <time>2021-01-02T16:11:32Z</time>
      </trkpt>
      <trkpt lat="43.83101" lon="5.6261">
        <ele>647.564</ele>
        <time>2021-01-02T16:11:31Z</time>
      </trkpt>
      <trkpt lat="43.83102" lon="5.62618">
        <ele>647.225</ele>
        <time>2021-01-02T16:11:30Z</time>
      </trkpt>
      <trkpt lat="43.83104" lon="5.62636">
        <ele>646.952</ele>
        <time>2021-01-02T16:11:28Z</time>
      </trkpt>
      <trkpt lat="43.83106" lon="5.62645">
        <ele>646.627</ele>
        <time>2021-01-02T16:11:27Z</time>
      </trkpt>
      <trkpt lat="43.83107" lon="5.62654">
        <ele>646.412</ele>
        <time>2021-01-02T16:11:26Z</time>
      </trkpt>
      <trkpt lat="43.8311" lon="5.62673">
        <ele>645.955</ele>
        <time>2021-01-02T16:11:24Z</time>
      </trkpt>
      <trkpt lat="43.83112" lon="5.62689">
        <ele>645.755</ele>
        <time>2021-01-02T16:11:22Z</time>
      </trkpt>
      <trkpt lat="43.83112" lon="5.627">
        <ele>645.788</ele>
        <time>2021-01-02T16:11:20Z</time>
      </trkpt>
      <trkpt lat="43.83112" lon="5.6271">
        <ele>645.708</ele>
        <time>2021-01-02T16:11:18Z</time>
      </trkpt>
      <trkpt lat="43.83112" lon="5.62718">
        <ele>645.908</ele>
        <time>2021-01-02T16:11:16Z</time>
      </trkpt>
      <trkpt lat="43.83113" lon="5.62724">
        <ele>646.526</ele>
        <time>2021-01-02T16:10:49Z</time>
      </trkpt>
      <trkpt lat="43.83112" lon="5.62735">
        <ele>647.325</ele>
        <time>2021-01-02T16:10:47Z</time>
      </trkpt>
      <trkpt lat="43.83111" lon="5.62745">
        <ele>648.088</ele>
        <time>2021-01-02T16:10:45Z</time>
      </trkpt>
      <trkpt lat="43.83109" lon="5.62751">
        <ele>648.665</ele>
        <time>2021-01-02T16:10:44Z</time>
      </trkpt>
      <trkpt lat="43.83107" lon="5.62757">
        <ele>649.33</ele>
        <time>2021-01-02T16:10:43Z</time>
      </trkpt>
      <trkpt lat="43.83101" lon="5.62768">
        <ele>650.218</ele>
        <time>2021-01-02T16:10:41Z</time>
      </trkpt>
      <trkpt lat="43.83097" lon="5.62773">
        <ele>651.085</ele>
        <time>2021-01-02T16:10:40Z</time>
      </trkpt>
      <trkpt lat="43.8309" lon="5.62778">
        <ele>651.878</ele>
        <time>2021-01-02T16:10:38Z</time>
      </trkpt>
      <trkpt lat="43.83083" lon="5.62781">
        <ele>653.151</ele>
        <time>2021-01-02T16:10:36Z</time>
      </trkpt>
      <trkpt lat="43.83078" lon="5.62781">
        <ele>653.708</ele>
        <time>2021-01-02T16:10:35Z</time>
      </trkpt>
      <trkpt lat="43.83072" lon="5.62781">
        <ele>654.317</ele>
        <time>2021-01-02T16:10:34Z</time>
      </trkpt>
      <trkpt lat="43.83058" lon="5.62783">
        <ele>655.007</ele>
        <time>2021-01-02T16:10:32Z</time>
      </trkpt>
      <trkpt lat="43.83051" lon="5.62785">
        <ele>655.755</ele>
        <time>2021-01-02T16:10:31Z</time>
      </trkpt>
      <trkpt lat="43.83038" lon="5.62793">
        <ele>656.847</ele>
        <time>2021-01-02T16:10:29Z</time>
      </trkpt>
      <trkpt lat="43.83027" lon="5.62806">
        <ele>657.714</ele>
        <time>2021-01-02T16:10:27Z</time>
      </trkpt>
      <trkpt lat="43.83022" lon="5.62812">
        <ele>658.449</ele>
        <time>2021-01-02T16:10:26Z</time>
      </trkpt>
      <trkpt lat="43.83017" lon="5.6282">
        <ele>659.367</ele>
        <time>2021-01-02T16:10:25Z</time>
      </trkpt>
      <trkpt lat="43.83007" lon="5.62834">
        <ele>660.424</ele>
        <time>2021-01-02T16:10:23Z</time>
      </trkpt>
      <trkpt lat="43.83001" lon="5.62842">
        <ele>661.477</ele>
        <time>2021-01-02T16:10:22Z</time>
      </trkpt>
      <trkpt lat="43.8299" lon="5.62856">
        <ele>662.627</ele>
        <time>2021-01-02T16:10:20Z</time>
      </trkpt>
      <trkpt lat="43.82985" lon="5.62863">
        <ele>663.67</ele>
        <time>2021-01-02T16:10:19Z</time>
      </trkpt>
      <trkpt lat="43.82975" lon="5.62877">
        <ele>664.808</ele>
        <time>2021-01-02T16:10:17Z</time>
      </trkpt>
      <trkpt lat="43.82964" lon="5.62891">
        <ele>665.822</ele>
        <time>2021-01-02T16:10:15Z</time>
      </trkpt>
      <trkpt lat="43.82959" lon="5.62898">
        <ele>666.549</ele>
        <time>2021-01-02T16:10:14Z</time>
      </trkpt>
      <trkpt lat="43.82948" lon="5.62911">
        <ele>668.141</ele>
        <time>2021-01-02T16:10:12Z</time>
      </trkpt>
      <trkpt lat="43.82943" lon="5.62918">
        <ele>668.848</ele>
        <time>2021-01-02T16:10:11Z</time>
      </trkpt>
      <trkpt lat="43.82938" lon="5.62925">
        <ele>669.543</ele>
        <time>2021-01-02T16:10:10Z</time>
      </trkpt>
      <trkpt lat="43.82928" lon="5.62938">
        <ele>670.491</ele>
        <time>2021-01-02T16:10:08Z</time>
      </trkpt>
      <trkpt lat="43.82919" lon="5.62951">
        <ele>671.021</ele>
        <time>2021-01-02T16:10:06Z</time>
      </trkpt>
      <trkpt lat="43.82914" lon="5.62958">
        <ele>672.181</ele>
        <time>2021-01-02T16:10:05Z</time>
      </trkpt>
      <trkpt lat="43.82909" lon="5.62965">
        <ele>672.844</ele>
        <time>2021-01-02T16:10:04Z</time>
      </trkpt>
      <trkpt lat="43.82901" lon="5.6298">
        <ele>673.508</ele>
        <time>2021-01-02T16:10:02Z</time>
      </trkpt>
      <trkpt lat="43.82897" lon="5.62988">
        <ele>674.217</ele>
        <time>2021-01-02T16:10:01Z</time>
      </trkpt>
      <trkpt lat="43.82894" lon="5.62995">
        <ele>675.043</ele>
        <time>2021-01-02T16:10:00Z</time>
      </trkpt>
      <trkpt lat="43.82889" lon="5.63013">
        <ele>676.082</ele>
        <time>2021-01-02T16:09:58Z</time>
      </trkpt>
      <trkpt lat="43.82882" lon="5.63028">
        <ele>677.271</ele>
        <time>2021-01-02T16:09:56Z</time>
      </trkpt>
      <trkpt lat="43.82873" lon="5.63031">
        <ele>678.248</ele>
        <time>2021-01-02T16:09:54Z</time>
      </trkpt>
      <trkpt lat="43.82863" lon="5.63024">
        <ele>679.233</ele>
        <time>2021-01-02T16:09:52Z</time>
      </trkpt>
      <trkpt lat="43.82858" lon="5.6302">
        <ele>680.011</ele>
        <time>2021-01-02T16:09:51Z</time>
      </trkpt>
      <trkpt lat="43.82846" lon="5.63013">
        <ele>681.018</ele>
        <time>2021-01-02T16:09:49Z</time>
      </trkpt>
      <trkpt lat="43.82833" lon="5.63008">
        <ele>681.981</ele>
        <time>2021-01-02T16:09:47Z</time>
      </trkpt>
      <trkpt lat="43.82821" lon="5.63001">
        <ele>682.741</ele>
        <time>2021-01-02T16:09:45Z</time>
      </trkpt>
      <trkpt lat="43.82817" lon="5.62995">
        <ele>683.374</ele>
        <time>2021-01-02T16:09:44Z</time>
      </trkpt>
      <trkpt lat="43.82815" lon="5.62989">
        <ele>684.008</ele>
        <time>2021-01-02T16:09:43Z</time>
      </trkpt>
      <trkpt lat="43.82813" lon="5.62972">
        <ele>684.817</ele>
        <time>2021-01-02T16:09:41Z</time>
      </trkpt>
      <trkpt lat="43.82812" lon="5.62963">
        <ele>685.507</ele>
        <time>2021-01-02T16:09:40Z</time>
      </trkpt>
      <trkpt lat="43.82809" lon="5.62943">
        <ele>686.484</ele>
        <time>2021-01-02T16:09:38Z</time>
      </trkpt>
      <trkpt lat="43.82808" lon="5.6292">
        <ele>687.194</ele>
        <time>2021-01-02T16:09:36Z</time>
      </trkpt>
      <trkpt lat="43.82806" lon="5.62909">
        <ele>687.831</ele>
        <time>2021-01-02T16:09:35Z</time>
      </trkpt>
      <trkpt lat="43.82801" lon="5.62885">
        <ele>688.826</ele>
        <time>2021-01-02T16:09:33Z</time>
      </trkpt>
      <trkpt lat="43.82797" lon="5.62875">
        <ele>689.481</ele>
        <time>2021-01-02T16:09:32Z</time>
      </trkpt>
      <trkpt lat="43.82791" lon="5.62868">
        <ele>690.414</ele>
        <time>2021-01-02T16:09:31Z</time>
      </trkpt>
      <trkpt lat="43.82779" lon="5.62863">
        <ele>691.054</ele>
        <time>2021-01-02T16:09:29Z</time>
      </trkpt>
      <trkpt lat="43.82764" lon="5.62867">
        <ele>691.627</ele>
        <time>2021-01-02T16:09:27Z</time>
      </trkpt>
      <trkpt lat="43.82747" lon="5.62875">
        <ele>692.508</ele>
        <time>2021-01-02T16:09:25Z</time>
      </trkpt>
      <trkpt lat="43.82738" lon="5.62881">
        <ele>693.207</ele>
        <time>2021-01-02T16:09:24Z</time>
      </trkpt>
      <trkpt lat="43.82721" lon="5.62891">
        <ele>694.043</ele>
        <time>2021-01-02T16:09:22Z</time>
      </trkpt>
      <trkpt lat="43.82704" lon="5.62898">
        <ele>694.713</ele>
        <time>2021-01-02T16:09:20Z</time>
      </trkpt>
      <trkpt lat="43.82686" lon="5.62897">
        <ele>695.249</ele>
        <time>2021-01-02T16:09:18Z</time>
      </trkpt>
      <trkpt lat="43.82669" lon="5.62893">
        <ele>695.626</ele>
        <time>2021-01-02T16:09:16Z</time>
      </trkpt>
      <trkpt lat="43.82653" lon="5.6289">
        <ele>696.061</ele>
        <time>2021-01-02T16:09:14Z</time>
      </trkpt>
      <trkpt lat="43.82638" lon="5.62892">
        <ele>696.389</ele>
        <time>2021-01-02T16:09:12Z</time>
      </trkpt>
      <trkpt lat="43.82631" lon="5.62896">
        <ele>696.436</ele>
        <time>2021-01-02T16:09:11Z</time>
      </trkpt>
      <trkpt lat="43.82624" lon="5.62901">
        <ele>696.549</ele>
        <time>2021-01-02T16:09:10Z</time>
      </trkpt>
      <trkpt lat="43.82618" lon="5.62908">
        <ele>696.552</ele>
        <time>2021-01-02T16:09:09Z</time>
      </trkpt>
      <trkpt lat="43.82614" lon="5.62916">
        <ele>696.408</ele>
        <time>2021-01-02T16:09:08Z</time>
      </trkpt>
      <trkpt lat="43.82609" lon="5.62936">
        <ele>696.316</ele>
        <time>2021-01-02T16:09:06Z</time>
      </trkpt>
      <trkpt lat="43.82608" lon="5.62957">
        <ele>696.106</ele>
        <time>2021-01-02T16:09:04Z</time>
      </trkpt>
      <trkpt lat="43.82608" lon="5.62968">
        <ele>695.964</ele>
        <time>2021-01-02T16:09:03Z</time>
      </trkpt>
      <trkpt lat="43.82608" lon="5.62989">
        <ele>695.774</ele>
        <time>2021-01-02T16:09:01Z</time>
      </trkpt>
      <trkpt lat="43.82608" lon="5.62999">
        <ele>695.661</ele>
        <time>2021-01-02T16:09:00Z</time>
      </trkpt>
      <trkpt lat="43.82612" lon="5.63017">
        <ele>695.436</ele>
        <time>2021-01-02T16:08:58Z</time>
      </trkpt>
      <trkpt lat="43.82622" lon="5.6303">
        <ele>695.234</ele>
        <time>2021-01-02T16:08:56Z</time>
      </trkpt>
      <trkpt lat="43.82635" lon="5.6304">
        <ele>695.031</ele>
        <time>2021-01-02T16:08:54Z</time>
      </trkpt>
      <trkpt lat="43.82648" lon="5.63051">
        <ele>694.894</ele>
        <time>2021-01-02T16:08:52Z</time>
      </trkpt>
      <trkpt lat="43.82655" lon="5.63056">
        <ele>694.714</ele>
        <time>2021-01-02T16:08:51Z</time>
      </trkpt>
      <trkpt lat="43.82662" lon="5.63062">
        <ele>694.677</ele>
        <time>2021-01-02T16:08:50Z</time>
      </trkpt>
      <trkpt lat="43.82677" lon="5.63073">
        <ele>694.508</ele>
        <time>2021-01-02T16:08:48Z</time>
      </trkpt>
      <trkpt lat="43.82691" lon="5.63085">
        <ele>694.411</ele>
        <time>2021-01-02T16:08:46Z</time>
      </trkpt>
      <trkpt lat="43.82705" lon="5.63096">
        <ele>694.365</ele>
        <time>2021-01-02T16:08:44Z</time>
      </trkpt>
      <trkpt lat="43.82718" lon="5.63106">
        <ele>694.115</ele>
        <time>2021-01-02T16:08:42Z</time>
      </trkpt>
      <trkpt lat="43.8273" lon="5.63116">
        <ele>694.026</ele>
        <time>2021-01-02T16:08:40Z</time>
      </trkpt>
      <trkpt lat="43.82741" lon="5.63126">
        <ele>693.953</ele>
        <time>2021-01-02T16:08:38Z</time>
      </trkpt>
      <trkpt lat="43.82746" lon="5.6313">
        <ele>693.948</ele>
        <time>2021-01-02T16:08:37Z</time>
      </trkpt>
      <trkpt lat="43.82758" lon="5.63139">
        <ele>693.826</ele>
        <time>2021-01-02T16:08:35Z</time>
      </trkpt>
      <trkpt lat="43.82763" lon="5.63143">
        <ele>693.813</ele>
        <time>2021-01-02T16:08:34Z</time>
      </trkpt>
      <trkpt lat="43.82774" lon="5.63152">
        <ele>693.846</ele>
        <time>2021-01-02T16:08:32Z</time>
      </trkpt>
      <trkpt lat="43.82783" lon="5.63163">
        <ele>694.066</ele>
        <time>2021-01-02T16:08:30Z</time>
      </trkpt>
      <trkpt lat="43.82787" lon="5.63169">
        <ele>694.379</ele>
        <time>2021-01-02T16:08:29Z</time>
      </trkpt>
      <trkpt lat="43.82794" lon="5.63181">
        <ele>694.808</ele>
        <time>2021-01-02T16:08:27Z</time>
      </trkpt>
      <trkpt lat="43.82802" lon="5.63193">
        <ele>695.411</ele>
        <time>2021-01-02T16:08:25Z</time>
      </trkpt>
      <trkpt lat="43.8281" lon="5.63208">
        <ele>696.092</ele>
        <time>2021-01-02T16:08:23Z</time>
      </trkpt>
      <trkpt lat="43.82815" lon="5.63226">
        <ele>696.632</ele>
        <time>2021-01-02T16:08:21Z</time>
      </trkpt>
      <trkpt lat="43.82817" lon="5.63235">
        <ele>697.146</ele>
        <time>2021-01-02T16:08:20Z</time>
      </trkpt>
      <trkpt lat="43.8282" lon="5.6325">
        <ele>697.633</ele>
        <time>2021-01-02T16:08:18Z</time>
      </trkpt>
      <trkpt lat="43.82821" lon="5.63257">
        <ele>697.848</ele>
        <time>2021-01-02T16:08:17Z</time>
      </trkpt>
      <trkpt lat="43.82824" lon="5.63267">
        <ele>697.896</ele>
        <time>2021-01-02T16:08:15Z</time>
      </trkpt>
      <trkpt lat="43.82827" lon="5.63274">
        <ele>697.793</ele>
        <time>2021-01-02T16:08:13Z</time>
      </trkpt>
      <trkpt lat="43.8283" lon="5.63285">
        <ele>697.756</ele>
        <time>2021-01-02T16:08:11Z</time>
      </trkpt>
      <trkpt lat="43.82831" lon="5.63294">
        <ele>697.546</ele>
        <time>2021-01-02T16:08:09Z</time>
      </trkpt>
      <trkpt lat="43.82831" lon="5.633">
        <ele>697.489</ele>
        <time>2021-01-02T16:08:08Z</time>
      </trkpt>
      <trkpt lat="43.82831" lon="5.63315">
        <ele>697.508</ele>
        <time>2021-01-02T16:08:06Z</time>
      </trkpt>
      <trkpt lat="43.82831" lon="5.63323">
        <ele>697.713</ele>
        <time>2021-01-02T16:08:05Z</time>
      </trkpt>
      <trkpt lat="43.82831" lon="5.63332">
        <ele>698.049</ele>
        <time>2021-01-02T16:08:04Z</time>
      </trkpt>
      <trkpt lat="43.8283" lon="5.6335">
        <ele>698.437</ele>
        <time>2021-01-02T16:08:02Z</time>
      </trkpt>
      <trkpt lat="43.82828" lon="5.63367">
        <ele>698.866</ele>
        <time>2021-01-02T16:08:00Z</time>
      </trkpt>
      <trkpt lat="43.82824" lon="5.63385">
        <ele>699.183</ele>
        <time>2021-01-02T16:07:58Z</time>
      </trkpt>
      <trkpt lat="43.82819" lon="5.634">
        <ele>699.356</ele>
        <time>2021-01-02T16:07:56Z</time>
      </trkpt>
      <trkpt lat="43.82816" lon="5.63407">
        <ele>699.476</ele>
        <time>2021-01-02T16:07:55Z</time>
      </trkpt>
      <trkpt lat="43.82813" lon="5.63414">
        <ele>699.489</ele>
        <time>2021-01-02T16:07:54Z</time>
      </trkpt>
      <trkpt lat="43.82808" lon="5.63429">
        <ele>699.514</ele>
        <time>2021-01-02T16:07:52Z</time>
      </trkpt>
      <trkpt lat="43.82806" lon="5.63437">
        <ele>699.735</ele>
        <time>2021-01-02T16:07:51Z</time>
      </trkpt>
      <trkpt lat="43.82804" lon="5.63444">
        <ele>699.718</ele>
        <time>2021-01-02T16:07:50Z</time>
      </trkpt>
      <trkpt lat="43.82801" lon="5.63452">
        <ele>699.631</ele>
        <time>2021-01-02T16:07:49Z</time>
      </trkpt>
      <trkpt lat="43.82796" lon="5.63467">
        <ele>699.548</ele>
        <time>2021-01-02T16:07:47Z</time>
      </trkpt>
      <trkpt lat="43.82793" lon="5.63475">
        <ele>699.441</ele>
        <time>2021-01-02T16:07:46Z</time>
      </trkpt>
      <trkpt lat="43.82788" lon="5.63491">
        <ele>699.474</ele>
        <time>2021-01-02T16:07:44Z</time>
      </trkpt>
      <trkpt lat="43.82786" lon="5.63498">
        <ele>699.317</ele>
        <time>2021-01-02T16:07:43Z</time>
      </trkpt>
      <trkpt lat="43.82784" lon="5.63506">
        <ele>698.825</ele>
        <time>2021-01-02T16:07:42Z</time>
      </trkpt>
      <trkpt lat="43.82779" lon="5.6352">
        <ele>698.429</ele>
        <time>2021-01-02T16:07:40Z</time>
      </trkpt>
      <trkpt lat="43.82773" lon="5.63535">
        <ele>697.756</ele>
        <time>2021-01-02T16:07:38Z</time>
      </trkpt>
      <trkpt lat="43.8277" lon="5.63543">
        <ele>697.369</ele>
        <time>2021-01-02T16:07:37Z</time>
      </trkpt>
      <trkpt lat="43.82768" lon="5.63551">
        <ele>696.486</ele>
        <time>2021-01-02T16:07:36Z</time>
      </trkpt>
      <trkpt lat="43.82764" lon="5.63568">
        <ele>695.849</ele>
        <time>2021-01-02T16:07:34Z</time>
      </trkpt>
      <trkpt lat="43.82763" lon="5.63576">
        <ele>695.329</ele>
        <time>2021-01-02T16:07:33Z</time>
      </trkpt>
      <trkpt lat="43.82761" lon="5.63585">
        <ele>694.722</ele>
        <time>2021-01-02T16:07:32Z</time>
      </trkpt>
      <trkpt lat="43.8276" lon="5.63602">
        <ele>693.908</ele>
        <time>2021-01-02T16:07:30Z</time>
      </trkpt>
      <trkpt lat="43.82759" lon="5.6361">
        <ele>693.311</ele>
        <time>2021-01-02T16:07:29Z</time>
      </trkpt>
      <trkpt lat="43.82757" lon="5.63628">
        <ele>692.783</ele>
        <time>2021-01-02T16:07:27Z</time>
      </trkpt>
      <trkpt lat="43.82756" lon="5.63637">
        <ele>692.362</ele>
        <time>2021-01-02T16:07:26Z</time>
      </trkpt>
      <trkpt lat="43.82755" lon="5.63646">
        <ele>692.085</ele>
        <time>2021-01-02T16:07:25Z</time>
      </trkpt>
      <trkpt lat="43.82755" lon="5.63654">
        <ele>691.552</ele>
        <time>2021-01-02T16:07:24Z</time>
      </trkpt>
      <trkpt lat="43.82754" lon="5.6367">
        <ele>691.067</ele>
        <time>2021-01-02T16:07:22Z</time>
      </trkpt>
      <trkpt lat="43.82752" lon="5.63678">
        <ele>690.732</ele>
        <time>2021-01-02T16:07:21Z</time>
      </trkpt>
      <trkpt lat="43.82751" lon="5.63685">
        <ele>690.195</ele>
        <time>2021-01-02T16:07:20Z</time>
      </trkpt>
      <trkpt lat="43.82749" lon="5.637">
        <ele>689.745</ele>
        <time>2021-01-02T16:07:18Z</time>
      </trkpt>
      <trkpt lat="43.82746" lon="5.63717">
        <ele>689.398</ele>
        <time>2021-01-02T16:07:16Z</time>
      </trkpt>
      <trkpt lat="43.82744" lon="5.63733">
        <ele>689.008</ele>
        <time>2021-01-02T16:07:14Z</time>
      </trkpt>
      <trkpt lat="43.82743" lon="5.6375">
        <ele>688.811</ele>
        <time>2021-01-02T16:07:12Z</time>
      </trkpt>
      <trkpt lat="43.82743" lon="5.63767">
        <ele>688.683</ele>
        <time>2021-01-02T16:07:10Z</time>
      </trkpt>
      <trkpt lat="43.82743" lon="5.63775">
        <ele>688.423</ele>
        <time>2021-01-02T16:07:09Z</time>
      </trkpt>
      <trkpt lat="43.82744" lon="5.63791">
        <ele>688.251</ele>
        <time>2021-01-02T16:07:07Z</time>
      </trkpt>
      <trkpt lat="43.82745" lon="5.638">
        <ele>688.163</ele>
        <time>2021-01-02T16:07:06Z</time>
      </trkpt>
      <trkpt lat="43.82746" lon="5.63808">
        <ele>688.178</ele>
        <time>2021-01-02T16:07:05Z</time>
      </trkpt>
      <trkpt lat="43.82747" lon="5.63816">
        <ele>688.081</ele>
        <time>2021-01-02T16:07:04Z</time>
      </trkpt>
      <trkpt lat="43.82747" lon="5.63822">
        <ele>687.981</ele>
        <time>2021-01-02T16:07:03Z</time>
      </trkpt>
      <trkpt lat="43.82748" lon="5.63833">
        <ele>687.814</ele>
        <time>2021-01-02T16:07:01Z</time>
      </trkpt>
      <trkpt lat="43.82749" lon="5.63842">
        <ele>687.608</ele>
        <time>2021-01-02T16:06:59Z</time>
      </trkpt>
      <trkpt lat="43.8275" lon="5.63851">
        <ele>687.526</ele>
        <time>2021-01-02T16:06:57Z</time>
      </trkpt>
      <trkpt lat="43.82751" lon="5.6386">
        <ele>687.489</ele>
        <time>2021-01-02T16:06:55Z</time>
      </trkpt>
      <trkpt lat="43.82752" lon="5.63868">
        <ele>687.079</ele>
        <time>2021-01-02T16:06:53Z</time>
      </trkpt>
      <trkpt lat="43.82753" lon="5.63876">
        <ele>686.846</ele>
        <time>2021-01-02T16:06:51Z</time>
      </trkpt>
      <trkpt lat="43.82754" lon="5.63884">
        <ele>686.671</ele>
        <time>2021-01-02T16:06:49Z</time>
      </trkpt>
      <trkpt lat="43.82755" lon="5.63892">
        <ele>686.429</ele>
        <time>2021-01-02T16:06:47Z</time>
      </trkpt>
      <trkpt lat="43.82756" lon="5.63902">
        <ele>686.396</ele>
        <time>2021-01-02T16:06:45Z</time>
      </trkpt>
      <trkpt lat="43.82758" lon="5.63909">
        <ele>686.179</ele>
        <time>2021-01-02T16:06:43Z</time>
      </trkpt>
      <trkpt lat="43.82759" lon="5.63916">
        <ele>686.099</ele>
        <time>2021-01-02T16:06:41Z</time>
      </trkpt>
      <trkpt lat="43.8276" lon="5.63925">
        <ele>685.842</ele>
        <time>2021-01-02T16:06:39Z</time>
      </trkpt>
      <trkpt lat="43.82761" lon="5.63934">
        <ele>685.608</ele>
        <time>2021-01-02T16:06:37Z</time>
      </trkpt>
      <trkpt lat="43.82761" lon="5.63943">
        <ele>685.511</ele>
        <time>2021-01-02T16:06:35Z</time>
      </trkpt>
      <trkpt lat="43.82762" lon="5.6395">
        <ele>685.583</ele>
        <time>2021-01-02T16:06:33Z</time>
      </trkpt>
      <trkpt lat="43.82762" lon="5.63958">
        <ele>685.462</ele>
        <time>2021-01-02T16:06:31Z</time>
      </trkpt>
      <trkpt lat="43.82763" lon="5.63965">
        <ele>685.414</ele>
        <time>2021-01-02T16:06:29Z</time>
      </trkpt>
      <trkpt lat="43.82763" lon="5.63974">
        <ele>685.879</ele>
        <time>2021-01-02T16:06:27Z</time>
      </trkpt>
      <trkpt lat="43.82763" lon="5.63981">
        <ele>686.187</ele>
        <time>2021-01-02T16:06:25Z</time>
      </trkpt>
      <trkpt lat="43.82763" lon="5.63988">
        <ele>686.677</ele>
        <time>2021-01-02T16:06:23Z</time>
      </trkpt>
      <trkpt lat="43.82763" lon="5.63995">
        <ele>700.087</ele>
        <time>2021-01-02T16:06:14Z</time>
      </trkpt>
      <trkpt lat="43.8276" lon="5.63997">
        <ele>688.55</ele>
        <time>2021-01-02T15:52:56Z</time>
      </trkpt>
      <trkpt lat="43.82757" lon="5.64004">
        <ele>688.508</ele>
        <time>2021-01-02T15:52:54Z</time>
      </trkpt>
      <trkpt lat="43.82753" lon="5.64011">
        <ele>688.51</ele>
        <time>2021-01-02T15:52:52Z</time>
      </trkpt>
      <trkpt lat="43.82748" lon="5.64021">
        <ele>688.564</ele>
        <time>2021-01-02T15:52:50Z</time>
      </trkpt>
      <trkpt lat="43.82745" lon="5.64027">
        <ele>688.543</ele>
        <time>2021-01-02T15:52:49Z</time>
      </trkpt>
      <trkpt lat="43.82739" lon="5.64039">
        <ele>688.567</ele>
        <time>2021-01-02T15:52:47Z</time>
      </trkpt>
      <trkpt lat="43.82736" lon="5.64045">
        <ele>688.344</ele>
        <time>2021-01-02T15:52:46Z</time>
      </trkpt>
      <trkpt lat="43.82731" lon="5.64056">
        <ele>687.919</ele>
        <time>2021-01-02T15:52:44Z</time>
      </trkpt>
      <trkpt lat="43.82727" lon="5.64064">
        <ele>687.557</ele>
        <time>2021-01-02T15:52:42Z</time>
      </trkpt>
      <trkpt lat="43.82721" lon="5.64075">
        <ele>687.117</ele>
        <time>2021-01-02T15:52:40Z</time>
      </trkpt>
      <trkpt lat="43.82716" lon="5.64086">
        <ele>686.417</ele>
        <time>2021-01-02T15:52:38Z</time>
      </trkpt>
      <trkpt lat="43.8271" lon="5.64098">
        <ele>685.94</ele>
        <time>2021-01-02T15:52:36Z</time>
      </trkpt>
      <trkpt lat="43.82708" lon="5.64104">
        <ele>685.608</ele>
        <time>2021-01-02T15:52:35Z</time>
      </trkpt>
      <trkpt lat="43.82705" lon="5.64109">
        <ele>685.309</ele>
        <time>2021-01-02T15:52:34Z</time>
      </trkpt>
      <trkpt lat="43.827" lon="5.64121">
        <ele>684.941</ele>
        <time>2021-01-02T15:52:32Z</time>
      </trkpt>
      <trkpt lat="43.82697" lon="5.64127">
        <ele>684.15</ele>
        <time>2021-01-02T15:52:31Z</time>
      </trkpt>
      <trkpt lat="43.82694" lon="5.64133">
        <ele>683.687</ele>
        <time>2021-01-02T15:52:30Z</time>
      </trkpt>
      <trkpt lat="43.82689" lon="5.64146">
        <ele>683.032</ele>
        <time>2021-01-02T15:52:28Z</time>
      </trkpt>
      <trkpt lat="43.82685" lon="5.64157">
        <ele>682.48</ele>
        <time>2021-01-02T15:52:26Z</time>
      </trkpt>
      <trkpt lat="43.82683" lon="5.64167">
        <ele>681.857</ele>
        <time>2021-01-02T15:52:24Z</time>
      </trkpt>
      <trkpt lat="43.82682" lon="5.6418">
        <ele>681.26</ele>
        <time>2021-01-02T15:52:22Z</time>
      </trkpt>
      <trkpt lat="43.82682" lon="5.64187">
        <ele>680.66</ele>
        <time>2021-01-02T15:52:21Z</time>
      </trkpt>
      <trkpt lat="43.82683" lon="5.64202">
        <ele>680.073</ele>
        <time>2021-01-02T15:52:19Z</time>
      </trkpt>
      <trkpt lat="43.82685" lon="5.64216">
        <ele>679.408</ele>
        <time>2021-01-02T15:52:17Z</time>
      </trkpt>
      <trkpt lat="43.82687" lon="5.64224">
        <ele>679.121</ele>
        <time>2021-01-02T15:52:16Z</time>
      </trkpt>
      <trkpt lat="43.82689" lon="5.64231">
        <ele>678.874</ele>
        <time>2021-01-02T15:52:15Z</time>
      </trkpt>
      <trkpt lat="43.82691" lon="5.64237">
        <ele>678.267</ele>
        <time>2021-01-02T15:52:14Z</time>
      </trkpt>
      <trkpt lat="43.82697" lon="5.64244">
        <ele>677.172</ele>
        <time>2021-01-02T15:52:12Z</time>
      </trkpt>
      <trkpt lat="43.82705" lon="5.64246">
        <ele>676.55</ele>
        <time>2021-01-02T15:52:10Z</time>
      </trkpt>
      <trkpt lat="43.82709" lon="5.64245">
        <ele>675.917</ele>
        <time>2021-01-02T15:52:09Z</time>
      </trkpt>
      <trkpt lat="43.82719" lon="5.64241">
        <ele>675.17</ele>
        <time>2021-01-02T15:52:07Z</time>
      </trkpt>
      <trkpt lat="43.8273" lon="5.64235">
        <ele>674.23</ele>
        <time>2021-01-02T15:52:05Z</time>
      </trkpt>
      <trkpt lat="43.8274" lon="5.64226">
        <ele>673.313</ele>
        <time>2021-01-02T15:52:03Z</time>
      </trkpt>
      <trkpt lat="43.8275" lon="5.64215">
        <ele>672.508</ele>
        <time>2021-01-02T15:52:01Z</time>
      </trkpt>
      <trkpt lat="43.82754" lon="5.6421">
        <ele>672.113</ele>
        <time>2021-01-02T15:52:00Z</time>
      </trkpt>
      <trkpt lat="43.82759" lon="5.64204">
        <ele>671.795</ele>
        <time>2021-01-02T15:51:59Z</time>
      </trkpt>
      <trkpt lat="43.82766" lon="5.64194">
        <ele>671.347</ele>
        <time>2021-01-02T15:51:57Z</time>
      </trkpt>
      <trkpt lat="43.82773" lon="5.64184">
        <ele>670.912</ele>
        <time>2021-01-02T15:51:55Z</time>
      </trkpt>
      <trkpt lat="43.82777" lon="5.64179">
        <ele>670.245</ele>
        <time>2021-01-02T15:51:54Z</time>
      </trkpt>
      <trkpt lat="43.82781" lon="5.64174">
        <ele>669.515</ele>
        <time>2021-01-02T15:51:53Z</time>
      </trkpt>
      <trkpt lat="43.82788" lon="5.64163">
        <ele>668.638</ele>
        <time>2021-01-02T15:51:51Z</time>
      </trkpt>
      <trkpt lat="43.82792" lon="5.64157">
        <ele>667.908</ele>
        <time>2021-01-02T15:51:50Z</time>
      </trkpt>
      <trkpt lat="43.82797" lon="5.64144">
        <ele>667.108</ele>
        <time>2021-01-02T15:51:48Z</time>
      </trkpt>
      <trkpt lat="43.82799" lon="5.64137">
        <ele>666.622</ele>
        <time>2021-01-02T15:51:47Z</time>
      </trkpt>
      <trkpt lat="43.82804" lon="5.64123">
        <ele>665.494</ele>
        <time>2021-01-02T15:51:45Z</time>
      </trkpt>
      <trkpt lat="43.82809" lon="5.64109">
        <ele>665.031</ele>
        <time>2021-01-02T15:51:43Z</time>
      </trkpt>
      <trkpt lat="43.82811" lon="5.64102">
        <ele>664.794</ele>
        <time>2021-01-02T15:51:42Z</time>
      </trkpt>
      <trkpt lat="43.82814" lon="5.64094">
        <ele>664.151</ele>
        <time>2021-01-02T15:51:41Z</time>
      </trkpt>
      <trkpt lat="43.82819" lon="5.64081">
        <ele>663.694</ele>
        <time>2021-01-02T15:51:39Z</time>
      </trkpt>
      <trkpt lat="43.82823" lon="5.64075">
        <ele>663.274</ele>
        <time>2021-01-02T15:51:38Z</time>
      </trkpt>
      <trkpt lat="43.82828" lon="5.6407">
        <ele>662.727</ele>
        <time>2021-01-02T15:51:37Z</time>
      </trkpt>
      <trkpt lat="43.82839" lon="5.64066">
        <ele>662.108</ele>
        <time>2021-01-02T15:51:35Z</time>
      </trkpt>
      <trkpt lat="43.82845" lon="5.64066">
        <ele>661.613</ele>
        <time>2021-01-02T15:51:34Z</time>
      </trkpt>
      <trkpt lat="43.82855" lon="5.6407">
        <ele>661.076</ele>
        <time>2021-01-02T15:51:32Z</time>
      </trkpt>
      <trkpt lat="43.82859" lon="5.64073">
        <ele>660.516</ele>
        <time>2021-01-02T15:51:31Z</time>
      </trkpt>
      <trkpt lat="43.82864" lon="5.64077">
        <ele>659.92</ele>
        <time>2021-01-02T15:51:30Z</time>
      </trkpt>
      <trkpt lat="43.82869" lon="5.6408">
        <ele>659.397</ele>
        <time>2021-01-02T15:51:29Z</time>
      </trkpt>
      <trkpt lat="43.82878" lon="5.64085">
        <ele>658.642</ele>
        <time>2021-01-02T15:51:27Z</time>
      </trkpt>
      <trkpt lat="43.82889" lon="5.64087">
        <ele>658.217</ele>
        <time>2021-01-02T15:51:25Z</time>
      </trkpt>
      <trkpt lat="43.82894" lon="5.64087">
        <ele>657.54</ele>
        <time>2021-01-02T15:51:24Z</time>
      </trkpt>
      <trkpt lat="43.82899" lon="5.64085">
        <ele>657.293</ele>
        <time>2021-01-02T15:51:23Z</time>
      </trkpt>
      <trkpt lat="43.82904" lon="5.64084">
        <ele>656.508</ele>
        <time>2021-01-02T15:51:22Z</time>
      </trkpt>
      <trkpt lat="43.82915" lon="5.64082">
        <ele>656.056</ele>
        <time>2021-01-02T15:51:20Z</time>
      </trkpt>
      <trkpt lat="43.82921" lon="5.64082">
        <ele>655.274</ele>
        <time>2021-01-02T15:51:19Z</time>
      </trkpt>
      <trkpt lat="43.82931" lon="5.64083">
        <ele>654.731</ele>
        <time>2021-01-02T15:51:17Z</time>
      </trkpt>
      <trkpt lat="43.82942" lon="5.64085">
        <ele>654.394</ele>
        <time>2021-01-02T15:51:15Z</time>
      </trkpt>
      <trkpt lat="43.82947" lon="5.64086">
        <ele>653.941</ele>
        <time>2021-01-02T15:51:14Z</time>
      </trkpt>
      <trkpt lat="43.82957" lon="5.64088">
        <ele>653.664</ele>
        <time>2021-01-02T15:51:12Z</time>
      </trkpt>
      <trkpt lat="43.82968" lon="5.64091">
        <ele>653.364</ele>
        <time>2021-01-02T15:51:10Z</time>
      </trkpt>
      <trkpt lat="43.82973" lon="5.64093">
        <ele>653.147</ele>
        <time>2021-01-02T15:51:09Z</time>
      </trkpt>
      <trkpt lat="43.82978" lon="5.64097">
        <ele>652.808</ele>
        <time>2021-01-02T15:51:08Z</time>
      </trkpt>
      <trkpt lat="43.82986" lon="5.64105">
        <ele>652.409</ele>
        <time>2021-01-02T15:51:06Z</time>
      </trkpt>
      <trkpt lat="43.82993" lon="5.64115">
        <ele>651.619</ele>
        <time>2021-01-02T15:51:04Z</time>
      </trkpt>
      <trkpt lat="43.82996" lon="5.6412">
        <ele>651.368</ele>
        <time>2021-01-02T15:51:03Z</time>
      </trkpt>
      <trkpt lat="43.83001" lon="5.6413">
        <ele>650.985</ele>
        <time>2021-01-02T15:51:01Z</time>
      </trkpt>
      <trkpt lat="43.83004" lon="5.64143">
        <ele>650.72</ele>
        <time>2021-01-02T15:50:59Z</time>
      </trkpt>
      <trkpt lat="43.83006" lon="5.6415">
        <ele>650.525</ele>
        <time>2021-01-02T15:50:58Z</time>
      </trkpt>
      <trkpt lat="43.83008" lon="5.64156">
        <ele>650.388</ele>
        <time>2021-01-02T15:50:57Z</time>
      </trkpt>
      <trkpt lat="43.83012" lon="5.64163">
        <ele>650.258</ele>
        <time>2021-01-02T15:50:56Z</time>
      </trkpt>
      <trkpt lat="43.83021" lon="5.64171">
        <ele>650.121</ele>
        <time>2021-01-02T15:50:54Z</time>
      </trkpt>
      <trkpt lat="43.8303" lon="5.64176">
        <ele>649.808</ele>
        <time>2021-01-02T15:50:52Z</time>
      </trkpt>
      <trkpt lat="43.83034" lon="5.64178">
        <ele>649.514</ele>
        <time>2021-01-02T15:50:51Z</time>
      </trkpt>
      <trkpt lat="43.83043" lon="5.64184">
        <ele>649.104</ele>
        <time>2021-01-02T15:50:49Z</time>
      </trkpt>
      <trkpt lat="43.83048" lon="5.64189">
        <ele>649.053</ele>
        <time>2021-01-02T15:50:48Z</time>
      </trkpt>
      <trkpt lat="43.83052" lon="5.64193">
        <ele>648.839</ele>
        <time>2021-01-02T15:50:47Z</time>
      </trkpt>
      <trkpt lat="43.83056" lon="5.64197">
        <ele>648.636</ele>
        <time>2021-01-02T15:50:46Z</time>
      </trkpt>
      <trkpt lat="43.83063" lon="5.64207">
        <ele>648.221</ele>
        <time>2021-01-02T15:50:44Z</time>
      </trkpt>
      <trkpt lat="43.8307" lon="5.64217">
        <ele>647.869</ele>
        <time>2021-01-02T15:50:42Z</time>
      </trkpt>
      <trkpt lat="43.83078" lon="5.64228">
        <ele>647.596</ele>
        <time>2021-01-02T15:50:40Z</time>
      </trkpt>
      <trkpt lat="43.83081" lon="5.64233">
        <ele>647.319</ele>
        <time>2021-01-02T15:50:39Z</time>
      </trkpt>
      <trkpt lat="43.83087" lon="5.64242">
        <ele>647.012</ele>
        <time>2021-01-02T15:50:37Z</time>
      </trkpt>
      <trkpt lat="43.8309" lon="5.64248">
        <ele>646.726</ele>
        <time>2021-01-02T15:50:36Z</time>
      </trkpt>
      <trkpt lat="43.83096" lon="5.64257">
        <ele>646.342</ele>
        <time>2021-01-02T15:50:34Z</time>
      </trkpt>
      <trkpt lat="43.83102" lon="5.64266">
        <ele>646.068</ele>
        <time>2021-01-02T15:50:32Z</time>
      </trkpt>
      <trkpt lat="43.83109" lon="5.64277">
        <ele>645.754</ele>
        <time>2021-01-02T15:50:30Z</time>
      </trkpt>
      <trkpt lat="43.83113" lon="5.64287">
        <ele>645.481</ele>
        <time>2021-01-02T15:50:28Z</time>
      </trkpt>
      <trkpt lat="43.83119" lon="5.64299">
        <ele>645.224</ele>
        <time>2021-01-02T15:50:26Z</time>
      </trkpt>
      <trkpt lat="43.83124" lon="5.64308">
        <ele>644.714</ele>
        <time>2021-01-02T15:50:24Z</time>
      </trkpt>
      <trkpt lat="43.83126" lon="5.64314">
        <ele>644.417</ele>
        <time>2021-01-02T15:50:23Z</time>
      </trkpt>
      <trkpt lat="43.83128" lon="5.64321">
        <ele>644.408</ele>
        <time>2021-01-02T15:50:22Z</time>
      </trkpt>
      <trkpt lat="43.83131" lon="5.64334">
        <ele>644.613</ele>
        <time>2021-01-02T15:50:20Z</time>
      </trkpt>
      <trkpt lat="43.83133" lon="5.64343">
        <ele>644.976</ele>
        <time>2021-01-02T15:50:18Z</time>
      </trkpt>
      <trkpt lat="43.83137" lon="5.64354">
        <ele>645.231</ele>
        <time>2021-01-02T15:50:16Z</time>
      </trkpt>
      <trkpt lat="43.83139" lon="5.6436">
        <ele>645.778</ele>
        <time>2021-01-02T15:50:15Z</time>
      </trkpt>
      <trkpt lat="43.83142" lon="5.64372">
        <ele>646.243</ele>
        <time>2021-01-02T15:50:13Z</time>
      </trkpt>
      <trkpt lat="43.83144" lon="5.6438">
        <ele>646.651</ele>
        <time>2021-01-02T15:50:12Z</time>
      </trkpt>
      <trkpt lat="43.83148" lon="5.64397">
        <ele>647.188</ele>
        <time>2021-01-02T15:50:10Z</time>
      </trkpt>
      <trkpt lat="43.8315" lon="5.64405">
        <ele>647.591</ele>
        <time>2021-01-02T15:50:09Z</time>
      </trkpt>
      <trkpt lat="43.83152" lon="5.64423">
        <ele>647.951</ele>
        <time>2021-01-02T15:50:07Z</time>
      </trkpt>
      <trkpt lat="43.83152" lon="5.64432">
        <ele>648.184</ele>
        <time>2021-01-02T15:50:06Z</time>
      </trkpt>
      <trkpt lat="43.83152" lon="5.64449">
        <ele>648.408</ele>
        <time>2021-01-02T15:50:04Z</time>
      </trkpt>
      <trkpt lat="43.83152" lon="5.64463">
        <ele>648.526</ele>
        <time>2021-01-02T15:50:02Z</time>
      </trkpt>
      <trkpt lat="43.83151" lon="5.6447">
        <ele>648.66</ele>
        <time>2021-01-02T15:50:01Z</time>
      </trkpt>
      <trkpt lat="43.8315" lon="5.64484">
        <ele>648.78</ele>
        <time>2021-01-02T15:49:59Z</time>
      </trkpt>
      <trkpt lat="43.83149" lon="5.64491">
        <ele>648.767</ele>
        <time>2021-01-02T15:49:58Z</time>
      </trkpt>
      <trkpt lat="43.83149" lon="5.64499">
        <ele>648.742</ele>
        <time>2021-01-02T15:49:57Z</time>
      </trkpt>
      <trkpt lat="43.83148" lon="5.64507">
        <ele>648.74</ele>
        <time>2021-01-02T15:49:56Z</time>
      </trkpt>
      <trkpt lat="43.83146" lon="5.64524">
        <ele>648.617</ele>
        <time>2021-01-02T15:49:54Z</time>
      </trkpt>
      <trkpt lat="43.83145" lon="5.6454">
        <ele>648.57</ele>
        <time>2021-01-02T15:49:52Z</time>
      </trkpt>
      <trkpt lat="43.83148" lon="5.64554">
        <ele>647.808</ele>
        <time>2021-01-02T15:49:50Z</time>
      </trkpt>
      <trkpt lat="43.83151" lon="5.6456">
        <ele>647.105</ele>
        <time>2021-01-02T15:49:49Z</time>
      </trkpt>
      <trkpt lat="43.83156" lon="5.6457">
        <ele>646.329</ele>
        <time>2021-01-02T15:49:47Z</time>
      </trkpt>
      <trkpt lat="43.8316" lon="5.64574">
        <ele>645.721</ele>
        <time>2021-01-02T15:49:46Z</time>
      </trkpt>
      <trkpt lat="43.83168" lon="5.64581">
        <ele>644.916</ele>
        <time>2021-01-02T15:49:44Z</time>
      </trkpt>
      <trkpt lat="43.83176" lon="5.64587">
        <ele>644.239</ele>
        <time>2021-01-02T15:49:42Z</time>
      </trkpt>
      <trkpt lat="43.83181" lon="5.64589">
        <ele>643.932</ele>
        <time>2021-01-02T15:49:41Z</time>
      </trkpt>
      <trkpt lat="43.83185" lon="5.64594">
        <ele>643.008</ele>
        <time>2021-01-02T15:49:40Z</time>
      </trkpt>
      <trkpt lat="43.83192" lon="5.64604">
        <ele>642.506</ele>
        <time>2021-01-02T15:49:38Z</time>
      </trkpt>
      <trkpt lat="43.83195" lon="5.64614">
        <ele>641.886</ele>
        <time>2021-01-02T15:49:36Z</time>
      </trkpt>
      <trkpt lat="43.83198" lon="5.64624">
        <ele>641.468</ele>
        <time>2021-01-02T15:49:34Z</time>
      </trkpt>
      <trkpt lat="43.832" lon="5.64634">
        <ele>641.026</ele>
        <time>2021-01-02T15:49:32Z</time>
      </trkpt>
      <trkpt lat="43.83204" lon="5.64643">
        <ele>640.966</ele>
        <time>2021-01-02T15:49:30Z</time>
      </trkpt>
      <trkpt lat="43.83207" lon="5.64651">
        <ele>640.469</ele>
        <time>2021-01-02T15:49:28Z</time>
      </trkpt>
      <trkpt lat="43.8321" lon="5.6466">
        <ele>640.008</ele>
        <time>2021-01-02T15:49:26Z</time>
      </trkpt>
      <trkpt lat="43.83211" lon="5.64667">
        <ele>639.714</ele>
        <time>2021-01-02T15:49:24Z</time>
      </trkpt>
      <trkpt lat="43.83212" lon="5.64675">
        <ele>639.586</ele>
        <time>2021-01-02T15:49:22Z</time>
      </trkpt>
      <trkpt lat="43.83212" lon="5.64684">
        <ele>639.335</ele>
        <time>2021-01-02T15:49:20Z</time>
      </trkpt>
      <trkpt lat="43.83212" lon="5.64694">
        <ele>639.058</ele>
        <time>2021-01-02T15:49:18Z</time>
      </trkpt>
      <trkpt lat="43.83211" lon="5.64705">
        <ele>638.625</ele>
        <time>2021-01-02T15:49:16Z</time>
      </trkpt>
      <trkpt lat="43.83208" lon="5.64716">
        <ele>638.02</ele>
        <time>2021-01-02T15:49:14Z</time>
      </trkpt>
      <trkpt lat="43.83204" lon="5.64722">
        <ele>637.438</ele>
        <time>2021-01-02T15:49:13Z</time>
      </trkpt>
      <trkpt lat="43.832" lon="5.64727">
        <ele>636.715</ele>
        <time>2021-01-02T15:49:11Z</time>
      </trkpt>
      <trkpt lat="43.83195" lon="5.64732">
        <ele>635.638</ele>
        <time>2021-01-02T15:49:09Z</time>
      </trkpt>
      <trkpt lat="43.83192" lon="5.6474">
        <ele>635.358</ele>
        <time>2021-01-02T15:49:06Z</time>
      </trkpt>
      <trkpt lat="43.83191" lon="5.64748">
        <ele>634.851</ele>
        <time>2021-01-02T15:49:04Z</time>
      </trkpt>
      <trkpt lat="43.83191" lon="5.64756">
        <ele>634.208</ele>
        <time>2021-01-02T15:49:02Z</time>
      </trkpt>
      <trkpt lat="43.83192" lon="5.64764">
        <ele>633.617</ele>
        <time>2021-01-02T15:49:00Z</time>
      </trkpt>
      <trkpt lat="43.83191" lon="5.64773">
        <ele>633.007</ele>
        <time>2021-01-02T15:48:58Z</time>
      </trkpt>
      <trkpt lat="43.83191" lon="5.64781">
        <ele>632.452</ele>
        <time>2021-01-02T15:48:56Z</time>
      </trkpt>
      <trkpt lat="43.83192" lon="5.64791">
        <ele>631.429</ele>
        <time>2021-01-02T15:48:54Z</time>
      </trkpt>
      <trkpt lat="43.83192" lon="5.64799">
        <ele>630.654</ele>
        <time>2021-01-02T15:48:52Z</time>
      </trkpt>
      <trkpt lat="43.83191" lon="5.64808">
        <ele>629.552</ele>
        <time>2021-01-02T15:48:50Z</time>
      </trkpt>
      <trkpt lat="43.83188" lon="5.64815">
        <ele>628.449</ele>
        <time>2021-01-02T15:48:48Z</time>
      </trkpt>
      <trkpt lat="43.83185" lon="5.64824">
        <ele>627.492</ele>
        <time>2021-01-02T15:48:46Z</time>
      </trkpt>
      <trkpt lat="43.83182" lon="5.6483">
        <ele>626.452</ele>
        <time>2021-01-02T15:48:44Z</time>
      </trkpt>
      <trkpt lat="43.83179" lon="5.64839">
        <ele>625.145</ele>
        <time>2021-01-02T15:48:42Z</time>
      </trkpt>
      <trkpt lat="43.83178" lon="5.6485">
        <ele>624.308</ele>
        <time>2021-01-02T15:48:40Z</time>
      </trkpt>
      <trkpt lat="43.83177" lon="5.64858">
        <ele>623.319</ele>
        <time>2021-01-02T15:48:38Z</time>
      </trkpt>
      <trkpt lat="43.83177" lon="5.64865">
        <ele>622.581</ele>
        <time>2021-01-02T15:48:36Z</time>
      </trkpt>
      <trkpt lat="43.83177" lon="5.64873">
        <ele>621.591</ele>
        <time>2021-01-02T15:48:34Z</time>
      </trkpt>
      <trkpt lat="43.83177" lon="5.64884">
        <ele>620.479</ele>
        <time>2021-01-02T15:48:32Z</time>
      </trkpt>
      <trkpt lat="43.83176" lon="5.64893">
        <ele>618.724</ele>
        <time>2021-01-02T15:48:30Z</time>
      </trkpt>
      <trkpt lat="43.83174" lon="5.64904">
        <ele>617.862</ele>
        <time>2021-01-02T15:48:28Z</time>
      </trkpt>
      <trkpt lat="43.83172" lon="5.64914">
        <ele>616.862</ele>
        <time>2021-01-02T15:48:26Z</time>
      </trkpt>
      <trkpt lat="43.83168" lon="5.64927">
        <ele>615.945</ele>
        <time>2021-01-02T15:48:24Z</time>
      </trkpt>
      <trkpt lat="43.83165" lon="5.64936">
        <ele>615.808</ele>
        <time>2021-01-02T15:48:22Z</time>
      </trkpt>
      <trkpt lat="43.83164" lon="5.64945">
        <ele>615.824</ele>
        <time>2021-01-02T15:48:21Z</time>
      </trkpt>
      <trkpt lat="43.83161" lon="5.64954">
        <ele>615.796</ele>
        <time>2021-01-02T15:48:20Z</time>
      </trkpt>
      <trkpt lat="43.83159" lon="5.6496">
        <ele>615.636</ele>
        <time>2021-01-02T15:48:18Z</time>
      </trkpt>
      <trkpt lat="43.83156" lon="5.64966">
        <ele>615.698</ele>
        <time>2021-01-02T15:48:15Z</time>
      </trkpt>
      <trkpt lat="43.83154" lon="5.64973">
        <ele>615.446</ele>
        <time>2021-01-02T15:48:12Z</time>
      </trkpt>
      <trkpt lat="43.83154" lon="5.64979">
        <ele>615.273</ele>
        <time>2021-01-02T15:48:09Z</time>
      </trkpt>
      <trkpt lat="43.83153" lon="5.64986">
        <ele>614.926</ele>
        <time>2021-01-02T15:48:07Z</time>
      </trkpt>
      <trkpt lat="43.83152" lon="5.64993">
        <ele>614.649</ele>
        <time>2021-01-02T15:48:05Z</time>
      </trkpt>
      <trkpt lat="43.8315" lon="5.65">
        <ele>614.308</ele>
        <time>2021-01-02T15:48:03Z</time>
      </trkpt>
      <trkpt lat="43.83148" lon="5.65005">
        <ele>613.921</ele>
        <time>2021-01-02T15:48:02Z</time>
      </trkpt>
      <trkpt lat="43.83145" lon="5.65011">
        <ele>613.601</ele>
        <time>2021-01-02T15:48:00Z</time>
      </trkpt>
      <trkpt lat="43.83142" lon="5.65017">
        <ele>613.539</ele>
        <time>2021-01-02T15:47:55Z</time>
      </trkpt>
      <trkpt lat="43.83142" lon="5.65023">
        <ele>613.296</ele>
        <time>2021-01-02T15:47:51Z</time>
      </trkpt>
      <trkpt lat="43.83139" lon="5.65031">
        <ele>613.283</ele>
        <time>2021-01-02T15:47:49Z</time>
      </trkpt>
      <trkpt lat="43.83138" lon="5.65037">
        <ele>613.216</ele>
        <time>2021-01-02T15:47:48Z</time>
      </trkpt>
      <trkpt lat="43.83136" lon="5.65044">
        <ele>614.043</ele>
        <time>2021-01-02T15:47:47Z</time>
      </trkpt>
      <trkpt lat="43.83133" lon="5.65055">
        <ele>613.736</ele>
        <time>2021-01-02T15:47:45Z</time>
      </trkpt>
      <trkpt lat="43.8313" lon="5.65062">
        <ele>613.546</ele>
        <time>2021-01-02T15:47:43Z</time>
      </trkpt>
      <trkpt lat="43.83128" lon="5.6507">
        <ele>613.269</ele>
        <time>2021-01-02T15:47:41Z</time>
      </trkpt>
      <trkpt lat="43.83125" lon="5.65077">
        <ele>612.708</ele>
        <time>2021-01-02T15:47:38Z</time>
      </trkpt>
      <trkpt lat="43.83126" lon="5.65083">
        <ele>612.01</ele>
        <time>2021-01-02T15:47:34Z</time>
      </trkpt>
      <trkpt lat="43.8313" lon="5.65087">
        <ele>611.555</ele>
        <time>2021-01-02T15:47:31Z</time>
      </trkpt>
      <trkpt lat="43.83135" lon="5.65087">
        <ele>611.334</ele>
        <time>2021-01-02T15:47:29Z</time>
      </trkpt>
      <trkpt lat="43.8314" lon="5.65083">
        <ele>610.911</ele>
        <time>2021-01-02T15:47:25Z</time>
      </trkpt>
      <trkpt lat="43.83144" lon="5.65079">
        <ele>610.498</ele>
        <time>2021-01-02T15:47:22Z</time>
      </trkpt>
      <trkpt lat="43.83149" lon="5.65072">
        <ele>609.983</ele>
        <time>2021-01-02T15:47:19Z</time>
      </trkpt>
      <trkpt lat="43.83153" lon="5.65068">
        <ele>609.821</ele>
        <time>2021-01-02T15:47:16Z</time>
      </trkpt>
      <trkpt lat="43.83157" lon="5.65063">
        <ele>609.768</ele>
        <time>2021-01-02T15:47:14Z</time>
      </trkpt>
      <trkpt lat="43.83161" lon="5.65059">
        <ele>609.321</ele>
        <time>2021-01-02T15:47:12Z</time>
      </trkpt>
      <trkpt lat="43.83165" lon="5.65053">
        <ele>608.761</ele>
        <time>2021-01-02T15:47:09Z</time>
      </trkpt>
      <trkpt lat="43.8317" lon="5.65047">
        <ele>607.974</ele>
        <time>2021-01-02T15:47:06Z</time>
      </trkpt>
      <trkpt lat="43.83174" lon="5.65042">
        <ele>607.108</ele>
        <time>2021-01-02T15:47:04Z</time>
      </trkpt>
      <trkpt lat="43.83178" lon="5.65036">
        <ele>606.317</ele>
        <time>2021-01-02T15:47:02Z</time>
      </trkpt>
      <trkpt lat="43.83182" lon="5.65029">
        <ele>605.525</ele>
        <time>2021-01-02T15:47:00Z</time>
      </trkpt>
      <trkpt lat="43.83186" lon="5.65023">
        <ele>604.783</ele>
        <time>2021-01-02T15:46:58Z</time>
      </trkpt>
      <trkpt lat="43.83189" lon="5.65018">
        <ele>604.089</ele>
        <time>2021-01-02T15:46:56Z</time>
      </trkpt>
      <trkpt lat="43.83193" lon="5.65013">
        <ele>602.424</ele>
        <time>2021-01-02T15:46:54Z</time>
      </trkpt>
      <trkpt lat="43.83198" lon="5.65009">
        <ele>601.352</ele>
        <time>2021-01-02T15:46:52Z</time>
      </trkpt>
      <trkpt lat="43.83203" lon="5.65009">
        <ele>600.419</ele>
        <time>2021-01-02T15:46:49Z</time>
      </trkpt>
      <trkpt lat="43.83208" lon="5.6501">
        <ele>599.672</ele>
        <time>2021-01-02T15:46:43Z</time>
      </trkpt>
      <trkpt lat="43.83212" lon="5.65008">
        <ele>599.392</ele>
        <time>2021-01-02T15:46:40Z</time>
      </trkpt>
      <trkpt lat="43.83217" lon="5.65006">
        <ele>598.885</ele>
        <time>2021-01-02T15:46:36Z</time>
      </trkpt>
      <trkpt lat="43.83222" lon="5.65005">
        <ele>597.908</ele>
        <time>2021-01-02T15:46:19Z</time>
      </trkpt>
      <trkpt lat="43.83226" lon="5.65002">
        <ele>596.949</ele>
        <time>2021-01-02T15:46:15Z</time>
      </trkpt>
      <trkpt lat="43.8323" lon="5.64996">
        <ele>595.742</ele>
        <time>2021-01-02T15:46:10Z</time>
      </trkpt>
      <trkpt lat="43.83236" lon="5.64989">
        <ele>593.859</ele>
        <time>2021-01-02T15:45:26Z</time>
      </trkpt>
      <trkpt lat="43.8324" lon="5.64985">
        <ele>593.244</ele>
        <time>2021-01-02T15:45:23Z</time>
      </trkpt>
      <trkpt lat="43.83245" lon="5.6498">
        <ele>592.662</ele>
        <time>2021-01-02T15:45:21Z</time>
      </trkpt>
      <trkpt lat="43.83251" lon="5.64975">
        <ele>592.139</ele>
        <time>2021-01-02T15:45:19Z</time>
      </trkpt>
      <trkpt lat="43.83255" lon="5.64972">
        <ele>591.462</ele>
        <time>2021-01-02T15:45:18Z</time>
      </trkpt>
      <trkpt lat="43.83263" lon="5.64966">
        <ele>590.462</ele>
        <time>2021-01-02T15:45:16Z</time>
      </trkpt>
      <trkpt lat="43.83267" lon="5.64963">
        <ele>589.465</ele>
        <time>2021-01-02T15:45:15Z</time>
      </trkpt>
      <trkpt lat="43.83275" lon="5.64958">
        <ele>588.008</ele>
        <time>2021-01-02T15:45:13Z</time>
      </trkpt>
      <trkpt lat="43.83281" lon="5.64953">
        <ele>586.625</ele>
        <time>2021-01-02T15:45:11Z</time>
      </trkpt>
      <trkpt lat="43.83286" lon="5.64949">
        <ele>585.123</ele>
        <time>2021-01-02T15:45:09Z</time>
      </trkpt>
      <trkpt lat="43.83293" lon="5.64943">
        <ele>583.597</ele>
        <time>2021-01-02T15:45:07Z</time>
      </trkpt>
      <trkpt lat="43.833" lon="5.64937">
        <ele>582.184</ele>
        <time>2021-01-02T15:45:05Z</time>
      </trkpt>
      <trkpt lat="43.83306" lon="5.64932">
        <ele>581.361</ele>
        <time>2021-01-02T15:45:03Z</time>
      </trkpt>
      <trkpt lat="43.83311" lon="5.64928">
        <ele>580.616</ele>
        <time>2021-01-02T15:45:01Z</time>
      </trkpt>
      <trkpt lat="43.83316" lon="5.64925">
        <ele>579.614</ele>
        <time>2021-01-02T15:44:58Z</time>
      </trkpt>
      <trkpt lat="43.83321" lon="5.64923">
        <ele>578.511</ele>
        <time>2021-01-02T15:44:56Z</time>
      </trkpt>
      <trkpt lat="43.83328" lon="5.64919">
        <ele>577.354</ele>
        <time>2021-01-02T15:44:54Z</time>
      </trkpt>
      <trkpt lat="43.83333" lon="5.64915">
        <ele>576.274</ele>
        <time>2021-01-02T15:44:52Z</time>
      </trkpt>
      <trkpt lat="43.83338" lon="5.6491">
        <ele>575.257</ele>
        <time>2021-01-02T15:44:50Z</time>
      </trkpt>
      <trkpt lat="43.83343" lon="5.64903">
        <ele>574.408</ele>
        <time>2021-01-02T15:44:48Z</time>
      </trkpt>
      <trkpt lat="43.83348" lon="5.64898">
        <ele>573.715</ele>
        <time>2021-01-02T15:44:46Z</time>
      </trkpt>
      <trkpt lat="43.83355" lon="5.64896">
        <ele>573.287</ele>
        <time>2021-01-02T15:44:44Z</time>
      </trkpt>
      <trkpt lat="43.83361" lon="5.64893">
        <ele>572.72</ele>
        <time>2021-01-02T15:44:42Z</time>
      </trkpt>
      <trkpt lat="43.83367" lon="5.64891">
        <ele>571.617</ele>
        <time>2021-01-02T15:44:40Z</time>
      </trkpt>
      <trkpt lat="43.83373" lon="5.64886">
        <ele>571.27</ele>
        <time>2021-01-02T15:44:38Z</time>
      </trkpt>
      <trkpt lat="43.83378" lon="5.64881">
        <ele>570.327</ele>
        <time>2021-01-02T15:44:36Z</time>
      </trkpt>
      <trkpt lat="43.83383" lon="5.64874">
        <ele>569.98</ele>
        <time>2021-01-02T15:44:34Z</time>
      </trkpt>
      <trkpt lat="43.83387" lon="5.64866">
        <ele>569.693</ele>
        <time>2021-01-02T15:44:32Z</time>
      </trkpt>
      <trkpt lat="43.83392" lon="5.64859">
        <ele>569.125</ele>
        <time>2021-01-02T15:44:30Z</time>
      </trkpt>
      <trkpt lat="43.83395" lon="5.64851">
        <ele>568.679</ele>
        <time>2021-01-02T15:44:28Z</time>
      </trkpt>
      <trkpt lat="43.83399" lon="5.64841">
        <ele>568.561</ele>
        <time>2021-01-02T15:44:26Z</time>
      </trkpt>
      <trkpt lat="43.83402" lon="5.64833">
        <ele>568.738</ele>
        <time>2021-01-02T15:44:24Z</time>
      </trkpt>
      <trkpt lat="43.83405" lon="5.64825">
        <ele>569.783</ele>
        <time>2021-01-02T15:44:22Z</time>
      </trkpt>
      <trkpt lat="43.8341" lon="5.64817">
        <ele>571.978</ele>
        <time>2021-01-02T15:44:20Z</time>
      </trkpt>
      <trkpt lat="43.83413" lon="5.64812">
        <ele>570.021</ele>
        <time>2021-01-02T15:44:19Z</time>
      </trkpt>
      <trkpt lat="43.83416" lon="5.64805">
        <ele>568.591</ele>
        <time>2021-01-02T15:44:17Z</time>
      </trkpt>
      <trkpt lat="43.83419" lon="5.64798">
        <ele>567.134</ele>
        <time>2021-01-02T15:44:15Z</time>
      </trkpt>
      <trkpt lat="43.83424" lon="5.64791">
        <ele>565.808</ele>
        <time>2021-01-02T15:44:13Z</time>
      </trkpt>
      <trkpt lat="43.83429" lon="5.64784">
        <ele>564.326</ele>
        <time>2021-01-02T15:44:11Z</time>
      </trkpt>
      <trkpt lat="43.83434" lon="5.64779">
        <ele>563.286</ele>
        <time>2021-01-02T15:44:09Z</time>
      </trkpt>
      <trkpt lat="43.83438" lon="5.64775">
        <ele>562.557</ele>
        <time>2021-01-02T15:44:07Z</time>
      </trkpt>
      <trkpt lat="43.83441" lon="5.64771">
        <ele>562.52</ele>
        <time>2021-01-02T15:44:05Z</time>
      </trkpt>
      <trkpt lat="43.83446" lon="5.64767">
        <ele>562.59</ele>
        <time>2021-01-02T15:44:03Z</time>
      </trkpt>
      <trkpt lat="43.8345" lon="5.64763">
        <ele>562.593</ele>
        <time>2021-01-02T15:44:01Z</time>
      </trkpt>
      <trkpt lat="43.83455" lon="5.64758">
        <ele>562.625</ele>
        <time>2021-01-02T15:43:59Z</time>
      </trkpt>
      <trkpt lat="43.83459" lon="5.64754">
        <ele>562.879</ele>
        <time>2021-01-02T15:43:57Z</time>
      </trkpt>
      <trkpt lat="43.83463" lon="5.6475">
        <ele>562.799</ele>
        <time>2021-01-02T15:43:55Z</time>
      </trkpt>
      <trkpt lat="43.83467" lon="5.64747">
        <ele>562.762</ele>
        <time>2021-01-02T15:43:53Z</time>
      </trkpt>
      <trkpt lat="43.83471" lon="5.64742">
        <ele>562.652</ele>
        <time>2021-01-02T15:43:51Z</time>
      </trkpt>
      <trkpt lat="43.83474" lon="5.64735">
        <ele>562.592</ele>
        <time>2021-01-02T15:43:47Z</time>
      </trkpt>
      <trkpt lat="43.83478" lon="5.6473">
        <ele>562.408</ele>
        <time>2021-01-02T15:43:45Z</time>
      </trkpt>
      <trkpt lat="43.83483" lon="5.64724">
        <ele>562.021</ele>
        <time>2021-01-02T15:43:43Z</time>
      </trkpt>
      <trkpt lat="43.83489" lon="5.64721">
        <ele>561.765</ele>
        <time>2021-01-02T15:43:41Z</time>
      </trkpt>
      <trkpt lat="43.83494" lon="5.64716">
        <ele>561.493</ele>
        <time>2021-01-02T15:43:39Z</time>
      </trkpt>
      <trkpt lat="43.835" lon="5.64711">
        <ele>561.327</ele>
        <time>2021-01-02T15:43:37Z</time>
      </trkpt>
      <trkpt lat="43.83505" lon="5.64704">
        <ele>561.284</ele>
        <time>2021-01-02T15:43:35Z</time>
      </trkpt>
      <trkpt lat="43.8351" lon="5.647">
        <ele>561.199</ele>
        <time>2021-01-02T15:43:33Z</time>
      </trkpt>
      <trkpt lat="43.83516" lon="5.64699">
        <ele>561.197</ele>
        <time>2021-01-02T15:43:31Z</time>
      </trkpt>
      <trkpt lat="43.83522" lon="5.64702">
        <ele>561.184</ele>
        <time>2021-01-02T15:43:29Z</time>
      </trkpt>
      <trkpt lat="43.83529" lon="5.64703">
        <ele>561.177</ele>
        <time>2021-01-02T15:43:27Z</time>
      </trkpt>
      <trkpt lat="43.83535" lon="5.64703">
        <ele>561.108</ele>
        <time>2021-01-02T15:43:25Z</time>
      </trkpt>
      <trkpt lat="43.83545" lon="5.64705">
        <ele>560.922</ele>
        <time>2021-01-02T15:43:23Z</time>
      </trkpt>
      <trkpt lat="43.83554" lon="5.64708">
        <ele>560.542</ele>
        <time>2021-01-02T15:43:21Z</time>
      </trkpt>
      <trkpt lat="43.83558" lon="5.64711">
        <ele>560.558</ele>
        <time>2021-01-02T15:43:20Z</time>
      </trkpt>
      <trkpt lat="43.83568" lon="5.64717">
        <ele>560.645</ele>
        <time>2021-01-02T15:43:18Z</time>
      </trkpt>
      <trkpt lat="43.83573" lon="5.64721">
        <ele>560.61</ele>
        <time>2021-01-02T15:43:17Z</time>
      </trkpt>
      <trkpt lat="43.83582" lon="5.64726">
        <ele>560.628</ele>
        <time>2021-01-02T15:43:15Z</time>
      </trkpt>
      <trkpt lat="43.83592" lon="5.64731">
        <ele>560.435</ele>
        <time>2021-01-02T15:43:13Z</time>
      </trkpt>
      <trkpt lat="43.83602" lon="5.64735">
        <ele>560.318</ele>
        <time>2021-01-02T15:43:11Z</time>
      </trkpt>
      <trkpt lat="43.83611" lon="5.64739">
        <ele>560.358</ele>
        <time>2021-01-02T15:43:09Z</time>
      </trkpt>
      <trkpt lat="43.83623" lon="5.64744">
        <ele>560.031</ele>
        <time>2021-01-02T15:43:07Z</time>
      </trkpt>
      <trkpt lat="43.83632" lon="5.64746">
        <ele>559.608</ele>
        <time>2021-01-02T15:43:05Z</time>
      </trkpt>
      <trkpt lat="43.83638" lon="5.64746">
        <ele>559.301</ele>
        <time>2021-01-02T15:43:04Z</time>
      </trkpt>
      <trkpt lat="43.83643" lon="5.64747">
        <ele>558.751</ele>
        <time>2021-01-02T15:43:03Z</time>
      </trkpt>
      <trkpt lat="43.83653" lon="5.64747">
        <ele>558.355</ele>
        <time>2021-01-02T15:43:01Z</time>
      </trkpt>
      <trkpt lat="43.83663" lon="5.64748">
        <ele>557.862</ele>
        <time>2021-01-02T15:42:59Z</time>
      </trkpt>
      <trkpt lat="43.83669" lon="5.64748">
        <ele>557.357</ele>
        <time>2021-01-02T15:42:58Z</time>
      </trkpt>
      <trkpt lat="43.83681" lon="5.64747">
        <ele>556.675</ele>
        <time>2021-01-02T15:42:56Z</time>
      </trkpt>
      <trkpt lat="43.83686" lon="5.64746">
        <ele>556.385</ele>
        <time>2021-01-02T15:42:55Z</time>
      </trkpt>
      <trkpt lat="43.83692" lon="5.64747">
        <ele>555.315</ele>
        <time>2021-01-02T15:42:54Z</time>
      </trkpt>
      <trkpt lat="43.83703" lon="5.64749">
        <ele>554.528</ele>
        <time>2021-01-02T15:42:52Z</time>
      </trkpt>
      <trkpt lat="43.83709" lon="5.6475">
        <ele>553.608</ele>
        <time>2021-01-02T15:42:51Z</time>
      </trkpt>
      <trkpt lat="43.83715" lon="5.64752">
        <ele>552.841</ele>
        <time>2021-01-02T15:42:50Z</time>
      </trkpt>
      <trkpt lat="43.83722" lon="5.64752">
        <ele>552.321</ele>
        <time>2021-01-02T15:42:49Z</time>
      </trkpt>
      <trkpt lat="43.83728" lon="5.64751">
        <ele>551.916</ele>
        <time>2021-01-02T15:42:47Z</time>
      </trkpt>
      <trkpt lat="43.83734" lon="5.64749">
        <ele>551.313</ele>
        <time>2021-01-02T15:42:46Z</time>
      </trkpt>
      <trkpt lat="43.83742" lon="5.64745">
        <ele>550.768</ele>
        <time>2021-01-02T15:42:44Z</time>
      </trkpt>
      <trkpt lat="43.83749" lon="5.64742">
        <ele>550.276</ele>
        <time>2021-01-02T15:42:41Z</time>
      </trkpt>
      <trkpt lat="43.83755" lon="5.6474">
        <ele>549.943</ele>
        <time>2021-01-02T15:42:40Z</time>
      </trkpt>
      <trkpt lat="43.83763" lon="5.64739">
        <ele>549.716</ele>
        <time>2021-01-02T15:42:38Z</time>
      </trkpt>
      <trkpt lat="43.8377" lon="5.64737">
        <ele>549.266</ele>
        <time>2021-01-02T15:42:36Z</time>
      </trkpt>
      <trkpt lat="43.83775" lon="5.64734">
        <ele>548.539</ele>
        <time>2021-01-02T15:42:34Z</time>
      </trkpt>
      <trkpt lat="43.83779" lon="5.64727">
        <ele>547.608</ele>
        <time>2021-01-02T15:42:32Z</time>
      </trkpt>
      <trkpt lat="43.83783" lon="5.64724">
        <ele>546.515</ele>
        <time>2021-01-02T15:42:31Z</time>
      </trkpt>
      <trkpt lat="43.83789" lon="5.64724">
        <ele>545.423</ele>
        <time>2021-01-02T15:42:29Z</time>
      </trkpt>
      <trkpt lat="43.83794" lon="5.64729">
        <ele>544.033</ele>
        <time>2021-01-02T15:42:27Z</time>
      </trkpt>
      <trkpt lat="43.83795" lon="5.64736">
        <ele>543.08</ele>
        <time>2021-01-02T15:42:26Z</time>
      </trkpt>
      <trkpt lat="43.83798" lon="5.64744">
        <ele>542.357</ele>
        <time>2021-01-02T15:42:24Z</time>
      </trkpt>
      <trkpt lat="43.838" lon="5.64753">
        <ele>541.662</ele>
        <time>2021-01-02T15:42:22Z</time>
      </trkpt>
      <trkpt lat="43.83801" lon="5.64761">
        <ele>541.22</ele>
        <time>2021-01-02T15:42:20Z</time>
      </trkpt>
      <trkpt lat="43.83803" lon="5.64767">
        <ele>540.967</ele>
        <time>2021-01-02T15:42:19Z</time>
      </trkpt>
      <trkpt lat="43.83805" lon="5.64774">
        <ele>540.75</ele>
        <time>2021-01-02T15:42:17Z</time>
      </trkpt>
      <trkpt lat="43.83807" lon="5.64783">
        <ele>540.45</ele>
        <time>2021-01-02T15:42:15Z</time>
      </trkpt>
      <trkpt lat="43.83808" lon="5.6479">
        <ele>540.013</ele>
        <time>2021-01-02T15:42:13Z</time>
      </trkpt>
      <trkpt lat="43.83811" lon="5.64796">
        <ele>539.408</ele>
        <time>2021-01-02T15:42:11Z</time>
      </trkpt>
      <trkpt lat="43.83813" lon="5.64802">
        <ele>538.921</ele>
        <time>2021-01-02T15:42:09Z</time>
      </trkpt>
      <trkpt lat="43.83816" lon="5.64807">
        <ele>538.156</ele>
        <time>2021-01-02T15:42:08Z</time>
      </trkpt>
      <trkpt lat="43.83819" lon="5.64815">
        <ele>537.274</ele>
        <time>2021-01-02T15:42:06Z</time>
      </trkpt>
      <trkpt lat="43.83819" lon="5.64821">
        <ele>536.285</ele>
        <time>2021-01-02T15:42:04Z</time>
      </trkpt>
      <trkpt lat="43.83817" lon="5.64827">
        <ele>534.892</ele>
        <time>2021-01-02T15:42:02Z</time>
      </trkpt>
      <trkpt lat="43.83815" lon="5.64832">
        <ele>533.517</ele>
        <time>2021-01-02T15:42:01Z</time>
      </trkpt>
      <trkpt lat="43.83814" lon="5.64839">
        <ele>532.545</ele>
        <time>2021-01-02T15:41:58Z</time>
      </trkpt>
      <trkpt lat="43.83818" lon="5.64842">
        <ele>531.772</ele>
        <time>2021-01-02T15:41:56Z</time>
      </trkpt>
      <trkpt lat="43.83823" lon="5.64838">
        <ele>531.115</ele>
        <time>2021-01-02T15:41:53Z</time>
      </trkpt>
      <trkpt lat="43.83827" lon="5.64834">
        <ele>530.585</ele>
        <time>2021-01-02T15:41:51Z</time>
      </trkpt>
      <trkpt lat="43.83832" lon="5.64829">
        <ele>530.398</ele>
        <time>2021-01-02T15:41:48Z</time>
      </trkpt>
      <trkpt lat="43.83836" lon="5.64824">
        <ele>530.008</ele>
        <time>2021-01-02T15:41:46Z</time>
      </trkpt>
      <trkpt lat="43.83841" lon="5.64819">
        <ele>529.611</ele>
        <time>2021-01-02T15:41:43Z</time>
      </trkpt>
      <trkpt lat="43.83844" lon="5.64814">
        <ele>529.183</ele>
        <time>2021-01-02T15:41:41Z</time>
      </trkpt>
      <trkpt lat="43.83848" lon="5.64806">
        <ele>528.823</ele>
        <time>2021-01-02T15:41:39Z</time>
      </trkpt>
      <trkpt lat="43.83849" lon="5.648">
        <ele>528.585</ele>
        <time>2021-01-02T15:41:37Z</time>
      </trkpt>
      <trkpt lat="43.8385" lon="5.64793">
        <ele>528.03</ele>
        <time>2021-01-02T15:41:35Z</time>
      </trkpt>
      <trkpt lat="43.83851" lon="5.64787">
        <ele>527.818</ele>
        <time>2021-01-02T15:41:33Z</time>
      </trkpt>
      <trkpt lat="43.83852" lon="5.64779">
        <ele>527.765</ele>
        <time>2021-01-02T15:41:31Z</time>
      </trkpt>
      <trkpt lat="43.83854" lon="5.64773">
        <ele>527.448</ele>
        <time>2021-01-02T15:41:29Z</time>
      </trkpt>
      <trkpt lat="43.83856" lon="5.64767">
        <ele>527.121</ele>
        <time>2021-01-02T15:41:27Z</time>
      </trkpt>
      <trkpt lat="43.83859" lon="5.64761">
        <ele>526.408</ele>
        <time>2021-01-02T15:41:25Z</time>
      </trkpt>
      <trkpt lat="43.83862" lon="5.64752">
        <ele>525.714</ele>
        <time>2021-01-02T15:41:22Z</time>
      </trkpt>
      <trkpt lat="43.83863" lon="5.64746">
        <ele>524.959</ele>
        <time>2021-01-02T15:41:20Z</time>
      </trkpt>
      <trkpt lat="43.83866" lon="5.64737">
        <ele>523.956</ele>
        <time>2021-01-02T15:41:17Z</time>
      </trkpt>
      <trkpt lat="43.83868" lon="5.64729">
        <ele>523.365</ele>
        <time>2021-01-02T15:41:10Z</time>
      </trkpt>
      <trkpt lat="43.83869" lon="5.64722">
        <ele>522.892</ele>
        <time>2021-01-02T15:41:08Z</time>
      </trkpt>
      <trkpt lat="43.83871" lon="5.64714">
        <ele>522.067</ele>
        <time>2021-01-02T15:41:05Z</time>
      </trkpt>
      <trkpt lat="43.83872" lon="5.64707">
        <ele>520.982</ele>
        <time>2021-01-02T15:40:59Z</time>
      </trkpt>
      <trkpt lat="43.83875" lon="5.64699">
        <ele>519.845</ele>
        <time>2021-01-02T15:40:57Z</time>
      </trkpt>
      <trkpt lat="43.83879" lon="5.6469">
        <ele>519.225</ele>
        <time>2021-01-02T15:40:55Z</time>
      </trkpt>
      <trkpt lat="43.83883" lon="5.64682">
        <ele>518.548</ele>
        <time>2021-01-02T15:40:53Z</time>
      </trkpt>
      <trkpt lat="43.83886" lon="5.64674">
        <ele>517.808</ele>
        <time>2021-01-02T15:40:51Z</time>
      </trkpt>
      <trkpt lat="43.83891" lon="5.64668">
        <ele>517.211</ele>
        <time>2021-01-02T15:40:49Z</time>
      </trkpt>
      <trkpt lat="43.83894" lon="5.64659">
        <ele>516.783</ele>
        <time>2021-01-02T15:40:46Z</time>
      </trkpt>
      <trkpt lat="43.83897" lon="5.6465">
        <ele>516.277</ele>
        <time>2021-01-02T15:40:44Z</time>
      </trkpt>
      <trkpt lat="43.83899" lon="5.64643">
        <ele>515.424</ele>
        <time>2021-01-02T15:40:43Z</time>
      </trkpt>
      <trkpt lat="43.83903" lon="5.64628">
        <ele>514.849</ele>
        <time>2021-01-02T15:40:41Z</time>
      </trkpt>
      <trkpt lat="43.83905" lon="5.6462">
        <ele>514.227</ele>
        <time>2021-01-02T15:40:40Z</time>
      </trkpt>
      <trkpt lat="43.8391" lon="5.64604">
        <ele>513.314</ele>
        <time>2021-01-02T15:40:38Z</time>
      </trkpt>
      <trkpt lat="43.83916" lon="5.64588">
        <ele>512.547</ele>
        <time>2021-01-02T15:40:36Z</time>
      </trkpt>
      <trkpt lat="43.8392" lon="5.6458">
        <ele>511.997</ele>
        <time>2021-01-02T15:40:35Z</time>
      </trkpt>
      <trkpt lat="43.83928" lon="5.64568">
        <ele>511.28</ele>
        <time>2021-01-02T15:40:33Z</time>
      </trkpt>
      <trkpt lat="43.83933" lon="5.64562">
        <ele>510.408</ele>
        <time>2021-01-02T15:40:32Z</time>
      </trkpt>
      <trkpt lat="43.83937" lon="5.64556">
        <ele>509.71</ele>
        <time>2021-01-02T15:40:31Z</time>
      </trkpt>
      <trkpt lat="43.83945" lon="5.64543">
        <ele>508.864</ele>
        <time>2021-01-02T15:40:29Z</time>
      </trkpt>
      <trkpt lat="43.83953" lon="5.6453">
        <ele>508.054</ele>
        <time>2021-01-02T15:40:27Z</time>
      </trkpt>
      <trkpt lat="43.83958" lon="5.64523">
        <ele>506.961</ele>
        <time>2021-01-02T15:40:26Z</time>
      </trkpt>
      <trkpt lat="43.83962" lon="5.64516">
        <ele>506.116</ele>
        <time>2021-01-02T15:40:25Z</time>
      </trkpt>
      <trkpt lat="43.8397" lon="5.64503">
        <ele>505.291</ele>
        <time>2021-01-02T15:40:23Z</time>
      </trkpt>
      <trkpt lat="43.83974" lon="5.64497">
        <ele>503.994</ele>
        <time>2021-01-02T15:40:22Z</time>
      </trkpt>
      <trkpt lat="43.83983" lon="5.64484">
        <ele>502.954</ele>
        <time>2021-01-02T15:40:20Z</time>
      </trkpt>
      <trkpt lat="43.83991" lon="5.64472">
        <ele>501.997</ele>
        <time>2021-01-02T15:40:18Z</time>
      </trkpt>
      <trkpt lat="43.84" lon="5.64458">
        <ele>501.108</ele>
        <time>2021-01-02T15:40:16Z</time>
      </trkpt>
      <trkpt lat="43.84008" lon="5.64445">
        <ele>500.413</ele>
        <time>2021-01-02T15:40:14Z</time>
      </trkpt>
      <trkpt lat="43.84012" lon="5.64438">
        <ele>499.976</ele>
        <time>2021-01-02T15:40:13Z</time>
      </trkpt>
      <trkpt lat="43.84016" lon="5.64431">
        <ele>499.416</ele>
        <time>2021-01-02T15:40:12Z</time>
      </trkpt>
      <trkpt lat="43.84022" lon="5.64422">
        <ele>498.874</ele>
        <time>2021-01-02T15:40:10Z</time>
      </trkpt>
      <trkpt lat="43.84024" lon="5.64416">
        <ele>498.041</ele>
        <time>2021-01-02T15:40:09Z</time>
      </trkpt>
      <trkpt lat="43.8403" lon="5.64408">
        <ele>496.956</ele>
        <time>2021-01-02T15:40:07Z</time>
      </trkpt>
      <trkpt lat="43.84034" lon="5.64404">
        <ele>495.634</ele>
        <time>2021-01-02T15:40:06Z</time>
      </trkpt>
      <trkpt lat="43.84041" lon="5.64399">
        <ele>494.081</ele>
        <time>2021-01-02T15:40:04Z</time>
      </trkpt>
      <trkpt lat="43.84048" lon="5.64396">
        <ele>492.774</ele>
        <time>2021-01-02T15:40:02Z</time>
      </trkpt>
      <trkpt lat="43.84055" lon="5.64396">
        <ele>491.444</ele>
        <time>2021-01-02T15:40:00Z</time>
      </trkpt>
      <trkpt lat="43.84061" lon="5.64396">
        <ele>490.047</ele>
        <time>2021-01-02T15:39:58Z</time>
      </trkpt>
      <trkpt lat="43.84068" lon="5.64395">
        <ele>488.408</ele>
        <time>2021-01-02T15:39:56Z</time>
      </trkpt>
      <trkpt lat="43.84073" lon="5.64394">
        <ele>486.919</ele>
        <time>2021-01-02T15:39:54Z</time>
      </trkpt>
      <trkpt lat="43.84081" lon="5.64391">
        <ele>485.409</ele>
        <time>2021-01-02T15:39:52Z</time>
      </trkpt>
      <trkpt lat="43.84087" lon="5.64384">
        <ele>484.019</ele>
        <time>2021-01-02T15:39:50Z</time>
      </trkpt>
      <trkpt lat="43.84095" lon="5.64376">
        <ele>482.853</ele>
        <time>2021-01-02T15:39:48Z</time>
      </trkpt>
      <trkpt lat="43.84099" lon="5.64371">
        <ele>481.178</ele>
        <time>2021-01-02T15:39:47Z</time>
      </trkpt>
      <trkpt lat="43.84104" lon="5.64368">
        <ele>479.956</ele>
        <time>2021-01-02T15:39:46Z</time>
      </trkpt>
      <trkpt lat="43.84114" lon="5.6436">
        <ele>478.686</ele>
        <time>2021-01-02T15:39:44Z</time>
      </trkpt>
      <trkpt lat="43.84123" lon="5.64357">
        <ele>476.456</ele>
        <time>2021-01-02T15:39:42Z</time>
      </trkpt>
      <trkpt lat="43.84132" lon="5.64354">
        <ele>475.379</ele>
        <time>2021-01-02T15:39:40Z</time>
      </trkpt>
      <trkpt lat="43.84137" lon="5.64353">
        <ele>474.511</ele>
        <time>2021-01-02T15:39:39Z</time>
      </trkpt>
      <trkpt lat="43.84142" lon="5.64352">
        <ele>472.992</ele>
        <time>2021-01-02T15:39:38Z</time>
      </trkpt>
      <trkpt lat="43.84154" lon="5.64348">
        <ele>471.932</ele>
        <time>2021-01-02T15:39:36Z</time>
      </trkpt>
      <trkpt lat="43.8416" lon="5.64347">
        <ele>471.252</ele>
        <time>2021-01-02T15:39:35Z</time>
      </trkpt>
      <trkpt lat="43.8417" lon="5.64349">
        <ele>469.447</ele>
        <time>2021-01-02T15:39:33Z</time>
      </trkpt>
      <trkpt lat="43.8418" lon="5.64355">
        <ele>468.382</ele>
        <time>2021-01-02T15:39:31Z</time>
      </trkpt>
      <trkpt lat="43.84185" lon="5.6436">
        <ele>466.485</ele>
        <time>2021-01-02T15:39:30Z</time>
      </trkpt>
      <trkpt lat="43.84188" lon="5.64365">
        <ele>465.025</ele>
        <time>2021-01-02T15:39:29Z</time>
      </trkpt>
      <trkpt lat="43.84195" lon="5.64375">
        <ele>463.148</ele>
        <time>2021-01-02T15:39:27Z</time>
      </trkpt>
      <trkpt lat="43.84204" lon="5.64384">
        <ele>461.308</ele>
        <time>2021-01-02T15:39:25Z</time>
      </trkpt>
      <trkpt lat="43.84214" lon="5.64388">
        <ele>460.02</ele>
        <time>2021-01-02T15:39:23Z</time>
      </trkpt>
      <trkpt lat="43.8422" lon="5.64389">
        <ele>459.429</ele>
        <time>2021-01-02T15:39:22Z</time>
      </trkpt>
      <trkpt lat="43.84225" lon="5.64389">
        <ele>458.21</ele>
        <time>2021-01-02T15:39:21Z</time>
      </trkpt>
      <trkpt lat="43.8423" lon="5.64389">
        <ele>457.477</ele>
        <time>2021-01-02T15:39:20Z</time>
      </trkpt>
      <trkpt lat="43.8424" lon="5.64393">
        <ele>456.63</ele>
        <time>2021-01-02T15:39:18Z</time>
      </trkpt>
      <trkpt lat="43.84243" lon="5.64397">
        <ele>455.357</ele>
        <time>2021-01-02T15:39:17Z</time>
      </trkpt>
      <trkpt lat="43.84249" lon="5.64408">
        <ele>454.45</ele>
        <time>2021-01-02T15:39:15Z</time>
      </trkpt>
      <trkpt lat="43.84251" lon="5.64414">
        <ele>453.84</ele>
        <time>2021-01-02T15:39:14Z</time>
      </trkpt>
      <trkpt lat="43.84258" lon="5.64425">
        <ele>452.823</ele>
        <time>2021-01-02T15:39:12Z</time>
      </trkpt>
      <trkpt lat="43.84263" lon="5.6443">
        <ele>451.808</ele>
        <time>2021-01-02T15:39:11Z</time>
      </trkpt>
      <trkpt lat="43.84274" lon="5.64437">
        <ele>450.414</ele>
        <time>2021-01-02T15:39:09Z</time>
      </trkpt>
      <trkpt lat="43.84283" lon="5.64448">
        <ele>448.713</ele>
        <time>2021-01-02T15:39:07Z</time>
      </trkpt>
      <trkpt lat="43.84288" lon="5.64457">
        <ele>446.072</ele>
        <time>2021-01-02T15:39:05Z</time>
      </trkpt>
      <trkpt lat="43.84293" lon="5.64462">
        <ele>445.63</ele>
        <time>2021-01-02T15:39:03Z</time>
      </trkpt>
      <trkpt lat="43.84298" lon="5.64459">
        <ele>445.327</ele>
        <time>2021-01-02T15:39:01Z</time>
      </trkpt>
      <trkpt lat="43.843" lon="5.64453">
        <ele>445.042</ele>
        <time>2021-01-02T15:38:59Z</time>
      </trkpt>
      <trkpt lat="43.84301" lon="5.64447">
        <ele>444.457</ele>
        <time>2021-01-02T15:38:57Z</time>
      </trkpt>
      <trkpt lat="43.843" lon="5.6444">
        <ele>441.96</ele>
        <time>2021-01-02T15:38:43Z</time>
      </trkpt>
      <trkpt lat="43.843" lon="5.6443">
        <ele>440.63</ele>
        <time>2021-01-02T15:38:41Z</time>
      </trkpt>
      <trkpt lat="43.843" lon="5.6442">
        <ele>439.493</ele>
        <time>2021-01-02T15:38:39Z</time>
      </trkpt>
      <trkpt lat="43.843" lon="5.6441">
        <ele>438.208</ele>
        <time>2021-01-02T15:38:37Z</time>
      </trkpt>
      <trkpt lat="43.84299" lon="5.64401">
        <ele>437.126</ele>
        <time>2021-01-02T15:38:35Z</time>
      </trkpt>
      <trkpt lat="43.84298" lon="5.64391">
        <ele>435.978</ele>
        <time>2021-01-02T15:38:33Z</time>
      </trkpt>
      <trkpt lat="43.84297" lon="5.6438">
        <ele>433.244</ele>
        <time>2021-01-02T15:38:31Z</time>
      </trkpt>
      <trkpt lat="43.84298" lon="5.64369">
        <ele>431.591</ele>
        <time>2021-01-02T15:38:29Z</time>
      </trkpt>
      <trkpt lat="43.84302" lon="5.64361">
        <ele>430.136</ele>
        <time>2021-01-02T15:38:27Z</time>
      </trkpt>
      <trkpt lat="43.84309" lon="5.64359">
        <ele>429.234</ele>
        <time>2021-01-02T15:38:25Z</time>
      </trkpt>
      <trkpt lat="43.84316" lon="5.64356">
        <ele>428.471</ele>
        <time>2021-01-02T15:38:23Z</time>
      </trkpt>
      <trkpt lat="43.84322" lon="5.64352">
        <ele>427.744</ele>
        <time>2021-01-02T15:38:21Z</time>
      </trkpt>
      <trkpt lat="43.84327" lon="5.64348">
        <ele>427.034</ele>
        <time>2021-01-02T15:38:19Z</time>
      </trkpt>
      <trkpt lat="43.84332" lon="5.64345">
        <ele>426.427</ele>
        <time>2021-01-02T15:38:17Z</time>
      </trkpt>
      <trkpt lat="43.84338" lon="5.6434">
        <ele>426.008</ele>
        <time>2021-01-02T15:38:15Z</time>
      </trkpt>
      <trkpt lat="43.84344" lon="5.64335">
        <ele>425.605</ele>
        <time>2021-01-02T15:38:13Z</time>
      </trkpt>
      <trkpt lat="43.84349" lon="5.64331">
        <ele>425.232</ele>
        <time>2021-01-02T15:38:11Z</time>
      </trkpt>
      <trkpt lat="43.84356" lon="5.64331">
        <ele>425.112</ele>
        <time>2021-01-02T15:38:09Z</time>
      </trkpt>
      <trkpt lat="43.84362" lon="5.64332">
        <ele>425.037</ele>
        <time>2021-01-02T15:38:07Z</time>
      </trkpt>
      <trkpt lat="43.84368" lon="5.64331">
        <ele>424.924</ele>
        <time>2021-01-02T15:38:05Z</time>
      </trkpt>
      <trkpt lat="43.84378" lon="5.6433">
        <ele>425.017</ele>
        <time>2021-01-02T15:38:03Z</time>
      </trkpt>
      <trkpt lat="43.84383" lon="5.6433">
        <ele>425.254</ele>
        <time>2021-01-02T15:38:02Z</time>
      </trkpt>
      <trkpt lat="43.84392" lon="5.6433">
        <ele>425.477</ele>
        <time>2021-01-02T15:38:00Z</time>
      </trkpt>
      <trkpt lat="43.844" lon="5.64329">
        <ele>425.64</ele>
        <time>2021-01-02T15:37:58Z</time>
      </trkpt>
      <trkpt lat="43.84405" lon="5.64328">
        <ele>426.908</ele>
        <time>2021-01-02T15:37:57Z</time>
      </trkpt>
      <trkpt lat="43.84415" lon="5.64325">
        <ele>428.117</ele>
        <time>2021-01-02T15:37:55Z</time>
      </trkpt>
      <trkpt lat="43.84427" lon="5.64319">
        <ele>429.461</ele>
        <time>2021-01-02T15:37:53Z</time>
      </trkpt>
      <trkpt lat="43.84437" lon="5.64313">
        <ele>430.748</ele>
        <time>2021-01-02T15:37:51Z</time>
      </trkpt>
      <trkpt lat="43.84441" lon="5.6431">
        <ele>431.769</ele>
        <time>2021-01-02T15:37:50Z</time>
      </trkpt>
      <trkpt lat="43.84449" lon="5.64301">
        <ele>432.861</ele>
        <time>2021-01-02T15:37:48Z</time>
      </trkpt>
      <trkpt lat="43.84453" lon="5.64296">
        <ele>434.519</ele>
        <time>2021-01-02T15:37:47Z</time>
      </trkpt>
      <trkpt lat="43.84461" lon="5.64284">
        <ele>435.826</ele>
        <time>2021-01-02T15:37:45Z</time>
      </trkpt>
      <trkpt lat="43.84465" lon="5.64277">
        <ele>437.049</ele>
        <time>2021-01-02T15:37:44Z</time>
      </trkpt>
      <trkpt lat="43.84472" lon="5.64261">
        <ele>438.399</ele>
        <time>2021-01-02T15:37:42Z</time>
      </trkpt>
      <trkpt lat="43.84476" lon="5.64254">
        <ele>439.252</ele>
        <time>2021-01-02T15:37:41Z</time>
      </trkpt>
      <trkpt lat="43.84482" lon="5.6425">
        <ele>440.211</ele>
        <time>2021-01-02T15:37:39Z</time>
      </trkpt>
      <trkpt lat="43.84486" lon="5.64256">
        <ele>441.683</ele>
        <time>2021-01-02T15:37:37Z</time>
      </trkpt>
      <trkpt lat="43.84487" lon="5.64262">
        <ele>442.285</ele>
        <time>2021-01-02T15:37:36Z</time>
      </trkpt>
      <trkpt lat="43.84493" lon="5.64275">
        <ele>443.852</ele>
        <time>2021-01-02T15:37:34Z</time>
      </trkpt>
      <trkpt lat="43.84501" lon="5.64287">
        <ele>444.887</ele>
        <time>2021-01-02T15:37:32Z</time>
      </trkpt>
      <trkpt lat="43.84509" lon="5.64302">
        <ele>445.895</ele>
        <time>2021-01-02T15:37:30Z</time>
      </trkpt>
      <trkpt lat="43.84514" lon="5.6431">
        <ele>446.842</ele>
        <time>2021-01-02T15:37:29Z</time>
      </trkpt>
      <trkpt lat="43.84523" lon="5.64325">
        <ele>448.165</ele>
        <time>2021-01-02T15:37:27Z</time>
      </trkpt>
      <trkpt lat="43.84532" lon="5.64341">
        <ele>449.335</ele>
        <time>2021-01-02T15:37:25Z</time>
      </trkpt>
      <trkpt lat="43.84539" lon="5.64357">
        <ele>450.528</ele>
        <time>2021-01-02T15:37:23Z</time>
      </trkpt>
      <trkpt lat="43.84543" lon="5.64364">
        <ele>451.508</ele>
        <time>2021-01-02T15:37:22Z</time>
      </trkpt>
      <trkpt lat="43.84546" lon="5.64372">
        <ele>452.511</ele>
        <time>2021-01-02T15:37:21Z</time>
      </trkpt>
      <trkpt lat="43.84548" lon="5.64379">
        <ele>453.647</ele>
        <time>2021-01-02T15:37:20Z</time>
      </trkpt>
      <trkpt lat="43.84554" lon="5.64392">
        <ele>454.826</ele>
        <time>2021-01-02T15:37:18Z</time>
      </trkpt>
      <trkpt lat="43.84556" lon="5.64397">
        <ele>455.886</ele>
        <time>2021-01-02T15:37:17Z</time>
      </trkpt>
      <trkpt lat="43.84563" lon="5.64409">
        <ele>456.943</ele>
        <time>2021-01-02T15:37:15Z</time>
      </trkpt>
      <trkpt lat="43.84568" lon="5.64415">
        <ele>457.978</ele>
        <time>2021-01-02T15:37:14Z</time>
      </trkpt>
      <trkpt lat="43.84575" lon="5.64429">
        <ele>459.296</ele>
        <time>2021-01-02T15:37:12Z</time>
      </trkpt>
      <trkpt lat="43.84582" lon="5.64445">
        <ele>460.613</ele>
        <time>2021-01-02T15:37:10Z</time>
      </trkpt>
      <trkpt lat="43.8459" lon="5.64458">
        <ele>462.216</ele>
        <time>2021-01-02T15:37:08Z</time>
      </trkpt>
      <trkpt lat="43.84597" lon="5.64458">
        <ele>463.736</ele>
        <time>2021-01-02T15:37:06Z</time>
      </trkpt>
      <trkpt lat="43.84602" lon="5.64448">
        <ele>465.069</ele>
        <time>2021-01-02T15:37:04Z</time>
      </trkpt>
      <trkpt lat="43.84603" lon="5.6444">
        <ele>465.908</ele>
        <time>2021-01-02T15:37:03Z</time>
      </trkpt>
      <trkpt lat="43.84605" lon="5.64431">
        <ele>466.914</ele>
        <time>2021-01-02T15:37:02Z</time>
      </trkpt>
      <trkpt lat="43.84608" lon="5.64409">
        <ele>468.086</ele>
        <time>2021-01-02T15:37:00Z</time>
      </trkpt>
      <trkpt lat="43.84611" lon="5.64397">
        <ele>469.035</ele>
        <time>2021-01-02T15:36:59Z</time>
      </trkpt>
      <trkpt lat="43.84615" lon="5.64373">
        <ele>470.372</ele>
        <time>2021-01-02T15:36:57Z</time>
      </trkpt>
      <trkpt lat="43.84617" lon="5.64361">
        <ele>471.599</ele>
        <time>2021-01-02T15:36:56Z</time>
      </trkpt>
      <trkpt lat="43.84622" lon="5.64338">
        <ele>473.064</ele>
        <time>2021-01-02T15:36:54Z</time>
      </trkpt>
      <trkpt lat="43.84626" lon="5.64313">
        <ele>474.312</ele>
        <time>2021-01-02T15:36:52Z</time>
      </trkpt>
      <trkpt lat="43.84629" lon="5.64301">
        <ele>475.459</ele>
        <time>2021-01-02T15:36:51Z</time>
      </trkpt>
      <trkpt lat="43.84633" lon="5.64276">
        <ele>476.682</ele>
        <time>2021-01-02T15:36:49Z</time>
      </trkpt>
      <trkpt lat="43.84635" lon="5.64264">
        <ele>477.792</ele>
        <time>2021-01-02T15:36:48Z</time>
      </trkpt>
      <trkpt lat="43.84638" lon="5.64243">
        <ele>478.808</ele>
        <time>2021-01-02T15:36:46Z</time>
      </trkpt>
      <trkpt lat="43.84639" lon="5.64233">
        <ele>480.521</ele>
        <time>2021-01-02T15:36:45Z</time>
      </trkpt>
      <trkpt lat="43.84639" lon="5.64223">
        <ele>481.765</ele>
        <time>2021-01-02T15:36:44Z</time>
      </trkpt>
      <trkpt lat="43.8464" lon="5.64213">
        <ele>483.193</ele>
        <time>2021-01-02T15:36:43Z</time>
      </trkpt>
      <trkpt lat="43.84645" lon="5.64191">
        <ele>484.686</ele>
        <time>2021-01-02T15:36:41Z</time>
      </trkpt>
      <trkpt lat="43.84647" lon="5.64179">
        <ele>485.953</ele>
        <time>2021-01-02T15:36:40Z</time>
      </trkpt>
      <trkpt lat="43.84649" lon="5.64167">
        <ele>487.488</ele>
        <time>2021-01-02T15:36:39Z</time>
      </trkpt>
      <trkpt lat="43.84653" lon="5.64141">
        <ele>489.216</ele>
        <time>2021-01-02T15:36:37Z</time>
      </trkpt>
      <trkpt lat="43.84656" lon="5.64129">
        <ele>490.643</ele>
        <time>2021-01-02T15:36:36Z</time>
      </trkpt>
      <trkpt lat="43.84661" lon="5.64105">
        <ele>492.246</ele>
        <time>2021-01-02T15:36:34Z</time>
      </trkpt>
      <trkpt lat="43.84667" lon="5.64081">
        <ele>493.126</ele>
        <time>2021-01-02T15:36:32Z</time>
      </trkpt>
      <trkpt lat="43.84669" lon="5.64068">
        <ele>493.999</ele>
        <time>2021-01-02T15:36:31Z</time>
      </trkpt>
      <trkpt lat="43.84674" lon="5.64045">
        <ele>494.808</ele>
        <time>2021-01-02T15:36:29Z</time>
      </trkpt>
      <trkpt lat="43.84679" lon="5.64021">
        <ele>495.718</ele>
        <time>2021-01-02T15:36:27Z</time>
      </trkpt>
      <trkpt lat="43.84685" lon="5.63998">
        <ele>496.817</ele>
        <time>2021-01-02T15:36:25Z</time>
      </trkpt>
      <trkpt lat="43.84687" lon="5.63987">
        <ele>497.588</ele>
        <time>2021-01-02T15:36:24Z</time>
      </trkpt>
      <trkpt lat="43.84691" lon="5.63967">
        <ele>499.395</ele>
        <time>2021-01-02T15:36:22Z</time>
      </trkpt>
      <trkpt lat="43.84693" lon="5.63957">
        <ele>500.35</ele>
        <time>2021-01-02T15:36:21Z</time>
      </trkpt>
      <trkpt lat="43.84697" lon="5.63941">
        <ele>501.698</ele>
        <time>2021-01-02T15:36:19Z</time>
      </trkpt>
      <trkpt lat="43.847" lon="5.63933">
        <ele>502.695</ele>
        <time>2021-01-02T15:36:18Z</time>
      </trkpt>
      <trkpt lat="43.84705" lon="5.63917">
        <ele>503.848</ele>
        <time>2021-01-02T15:36:16Z</time>
      </trkpt>
      <trkpt lat="43.84707" lon="5.6391">
        <ele>505.028</ele>
        <time>2021-01-02T15:36:15Z</time>
      </trkpt>
      <trkpt lat="43.84712" lon="5.63897">
        <ele>506.471</ele>
        <time>2021-01-02T15:36:13Z</time>
      </trkpt>
      <trkpt lat="43.84714" lon="5.63889">
        <ele>507.808</ele>
        <time>2021-01-02T15:36:12Z</time>
      </trkpt>
      <trkpt lat="43.84718" lon="5.63875">
        <ele>509.42</ele>
        <time>2021-01-02T15:36:10Z</time>
      </trkpt>
      <trkpt lat="43.84719" lon="5.63867">
        <ele>510.7</ele>
        <time>2021-01-02T15:36:09Z</time>
      </trkpt>
      <trkpt lat="43.84721" lon="5.63858">
        <ele>512.157</ele>
        <time>2021-01-02T15:36:08Z</time>
      </trkpt>
      <trkpt lat="43.84725" lon="5.6384">
        <ele>513.989</ele>
        <time>2021-01-02T15:36:06Z</time>
      </trkpt>
      <trkpt lat="43.84729" lon="5.63824">
        <ele>515.586</ele>
        <time>2021-01-02T15:36:04Z</time>
      </trkpt>
      <trkpt lat="43.84734" lon="5.63809">
        <ele>516.931</ele>
        <time>2021-01-02T15:36:02Z</time>
      </trkpt>
      <trkpt lat="43.84736" lon="5.63802">
        <ele>518.159</ele>
        <time>2021-01-02T15:36:01Z</time>
      </trkpt>
      <trkpt lat="43.84741" lon="5.63787">
        <ele>519.476</ele>
        <time>2021-01-02T15:35:59Z</time>
      </trkpt>
      <trkpt lat="43.84744" lon="5.6378">
        <ele>520.439</ele>
        <time>2021-01-02T15:35:58Z</time>
      </trkpt>
      <trkpt lat="43.8475" lon="5.63765">
        <ele>521.629</ele>
        <time>2021-01-02T15:35:56Z</time>
      </trkpt>
      <trkpt lat="43.84754" lon="5.63757">
        <ele>522.722</ele>
        <time>2021-01-02T15:35:55Z</time>
      </trkpt>
      <trkpt lat="43.8476" lon="5.63742">
        <ele>523.908</ele>
        <time>2021-01-02T15:35:53Z</time>
      </trkpt>
      <trkpt lat="43.84762" lon="5.63734">
        <ele>524.816</ele>
        <time>2021-01-02T15:35:52Z</time>
      </trkpt>
      <trkpt lat="43.84766" lon="5.63718">
        <ele>526.006</ele>
        <time>2021-01-02T15:35:50Z</time>
      </trkpt>
      <trkpt lat="43.84767" lon="5.63709">
        <ele>527.264</ele>
        <time>2021-01-02T15:35:49Z</time>
      </trkpt>
      <trkpt lat="43.84771" lon="5.63692">
        <ele>528.624</ele>
        <time>2021-01-02T15:35:47Z</time>
      </trkpt>
      <trkpt lat="43.84777" lon="5.63676">
        <ele>529.811</ele>
        <time>2021-01-02T15:35:45Z</time>
      </trkpt>
      <trkpt lat="43.8478" lon="5.63669">
        <ele>530.736</ele>
        <time>2021-01-02T15:35:44Z</time>
      </trkpt>
      <trkpt lat="43.84786" lon="5.63655">
        <ele>531.721</ele>
        <time>2021-01-02T15:35:42Z</time>
      </trkpt>
      <trkpt lat="43.84791" lon="5.63643">
        <ele>533.144</ele>
        <time>2021-01-02T15:35:40Z</time>
      </trkpt>
      <trkpt lat="43.84794" lon="5.63631">
        <ele>533.884</ele>
        <time>2021-01-02T15:35:38Z</time>
      </trkpt>
      <trkpt lat="43.84796" lon="5.63618">
        <ele>534.408</ele>
        <time>2021-01-02T15:35:36Z</time>
      </trkpt>
      <trkpt lat="43.84796" lon="5.63603">
        <ele>535.709</ele>
        <time>2021-01-02T15:35:34Z</time>
      </trkpt>
      <trkpt lat="43.84797" lon="5.63596">
        <ele>536.254</ele>
        <time>2021-01-02T15:35:33Z</time>
      </trkpt>
      <trkpt lat="43.84801" lon="5.63585">
        <ele>536.814</ele>
        <time>2021-01-02T15:35:31Z</time>
      </trkpt>
      <trkpt lat="43.84807" lon="5.63585">
        <ele>537.599</ele>
        <time>2021-01-02T15:35:29Z</time>
      </trkpt>
      <trkpt lat="43.84809" lon="5.63593">
        <ele>538.386</ele>
        <time>2021-01-02T15:35:27Z</time>
      </trkpt>
      <trkpt lat="43.8481" lon="5.63602">
        <ele>538.961</ele>
        <time>2021-01-02T15:35:25Z</time>
      </trkpt>
      <trkpt lat="43.84811" lon="5.6361">
        <ele>539.279</ele>
        <time>2021-01-02T15:35:23Z</time>
      </trkpt>
      <trkpt lat="43.84812" lon="5.63618">
        <ele>539.496</ele>
        <time>2021-01-02T15:35:21Z</time>
      </trkpt>
      <trkpt lat="43.84812" lon="5.63626">
        <ele>539.649</ele>
        <time>2021-01-02T15:35:19Z</time>
      </trkpt>
      <trkpt lat="43.84811" lon="5.63635">
        <ele>539.989</ele>
        <time>2021-01-02T15:35:16Z</time>
      </trkpt>
      <trkpt lat="43.8481" lon="5.63643">
        <ele>540.142</ele>
        <time>2021-01-02T15:35:14Z</time>
      </trkpt>
      <trkpt lat="43.8481" lon="5.63653">
        <ele>540.308</ele>
        <time>2021-01-02T15:35:12Z</time>
      </trkpt>
      <trkpt lat="43.8481" lon="5.63667">
        <ele>540.521</ele>
        <time>2021-01-02T15:35:10Z</time>
      </trkpt>
      <trkpt lat="43.84809" lon="5.63682">
        <ele>540.829</ele>
        <time>2021-01-02T15:35:08Z</time>
      </trkpt>
      <trkpt lat="43.84808" lon="5.6369">
        <ele>541.055</ele>
        <time>2021-01-02T15:35:07Z</time>
      </trkpt>
      <trkpt lat="43.84806" lon="5.63698">
        <ele>541.482</ele>
        <time>2021-01-02T15:35:06Z</time>
      </trkpt>
      <trkpt lat="43.84804" lon="5.63714">
        <ele>541.677</ele>
        <time>2021-01-02T15:35:04Z</time>
      </trkpt>
      <trkpt lat="43.84804" lon="5.6373">
        <ele>541.935</ele>
        <time>2021-01-02T15:35:02Z</time>
      </trkpt>
      <trkpt lat="43.84804" lon="5.63741">
        <ele>542.292</ele>
        <time>2021-01-02T15:35:00Z</time>
      </trkpt>
      <trkpt lat="43.84804" lon="5.6375">
        <ele>542.665</ele>
        <time>2021-01-02T15:34:58Z</time>
      </trkpt>
      <trkpt lat="43.84804" lon="5.63758">
        <ele>543.288</ele>
        <time>2021-01-02T15:34:48Z</time>
      </trkpt>
      <trkpt lat="43.84804" lon="5.63766">
        <ele>544.608</ele>
        <time>2021-01-02T15:34:46Z</time>
      </trkpt>
      <trkpt lat="43.84803" lon="5.63775">
        <ele>545.614</ele>
        <time>2021-01-02T15:34:44Z</time>
      </trkpt>
      <trkpt lat="43.84801" lon="5.63783">
        <ele>546.527</ele>
        <time>2021-01-02T15:34:42Z</time>
      </trkpt>
      <trkpt lat="43.84801" lon="5.6379">
        <ele>547.597</ele>
        <time>2021-01-02T15:34:40Z</time>
      </trkpt>
      <trkpt lat="43.848" lon="5.63798">
        <ele>548.184</ele>
        <time>2021-01-02T15:34:38Z</time>
      </trkpt>
      <trkpt lat="43.84799" lon="5.63805">
        <ele>548.689</ele>
        <time>2021-01-02T15:34:36Z</time>
      </trkpt>
      <trkpt lat="43.84797" lon="5.63813">
        <ele>549.137</ele>
        <time>2021-01-02T15:34:34Z</time>
      </trkpt>
      <trkpt lat="43.84795" lon="5.63822">
        <ele>549.594</ele>
        <time>2021-01-02T15:34:32Z</time>
      </trkpt>
      <trkpt lat="43.84794" lon="5.63832">
        <ele>549.897</ele>
        <time>2021-01-02T15:34:30Z</time>
      </trkpt>
      <trkpt lat="43.84793" lon="5.63842">
        <ele>550.097</ele>
        <time>2021-01-02T15:34:28Z</time>
      </trkpt>
      <trkpt lat="43.84792" lon="5.6385">
        <ele>550.06</ele>
        <time>2021-01-02T15:34:26Z</time>
      </trkpt>
      <trkpt lat="43.84791" lon="5.63861">
        <ele>550.208</ele>
        <time>2021-01-02T15:34:24Z</time>
      </trkpt>
      <trkpt lat="43.8479" lon="5.63874">
        <ele>550.421</ele>
        <time>2021-01-02T15:34:22Z</time>
      </trkpt>
      <trkpt lat="43.8479" lon="5.63881">
        <ele>550.629</ele>
        <time>2021-01-02T15:34:21Z</time>
      </trkpt>
      <trkpt lat="43.84789" lon="5.63895">
        <ele>550.847</ele>
        <time>2021-01-02T15:34:19Z</time>
      </trkpt>
      <trkpt lat="43.84788" lon="5.63902">
        <ele>550.919</ele>
        <time>2021-01-02T15:34:18Z</time>
      </trkpt>
      <trkpt lat="43.84787" lon="5.63917">
        <ele>551.036</ele>
        <time>2021-01-02T15:34:16Z</time>
      </trkpt>
      <trkpt lat="43.84786" lon="5.63933">
        <ele>551.381</ele>
        <time>2021-01-02T15:34:14Z</time>
      </trkpt>
      <trkpt lat="43.84785" lon="5.63941">
        <ele>551.589</ele>
        <time>2021-01-02T15:34:13Z</time>
      </trkpt>
      <trkpt lat="43.84784" lon="5.63956">
        <ele>551.596</ele>
        <time>2021-01-02T15:34:11Z</time>
      </trkpt>
      <trkpt lat="43.84784" lon="5.63964">
        <ele>551.599</ele>
        <time>2021-01-02T15:34:10Z</time>
      </trkpt>
      <trkpt lat="43.84783" lon="5.63977">
        <ele>551.569</ele>
        <time>2021-01-02T15:34:08Z</time>
      </trkpt>
      <trkpt lat="43.84782" lon="5.63991">
        <ele>551.532</ele>
        <time>2021-01-02T15:34:06Z</time>
      </trkpt>
      <trkpt lat="43.84781" lon="5.63997">
        <ele>551.508</ele>
        <time>2021-01-02T15:34:05Z</time>
      </trkpt>
      <trkpt lat="43.8478" lon="5.64012">
        <ele>551.514</ele>
        <time>2021-01-02T15:34:03Z</time>
      </trkpt>
      <trkpt lat="43.84778" lon="5.64024">
        <ele>551.665</ele>
        <time>2021-01-02T15:34:01Z</time>
      </trkpt>
      <trkpt lat="43.84777" lon="5.64035">
        <ele>551.982</ele>
        <time>2021-01-02T15:33:59Z</time>
      </trkpt>
      <trkpt lat="43.84777" lon="5.64046">
        <ele>552.169</ele>
        <time>2021-01-02T15:33:57Z</time>
      </trkpt>
      <trkpt lat="43.84778" lon="5.64056">
        <ele>552.254</ele>
        <time>2021-01-02T15:33:55Z</time>
      </trkpt>
      <trkpt lat="43.84778" lon="5.64065">
        <ele>552.382</ele>
        <time>2021-01-02T15:33:53Z</time>
      </trkpt>
      <trkpt lat="43.84778" lon="5.64077">
        <ele>552.629</ele>
        <time>2021-01-02T15:33:51Z</time>
      </trkpt>
      <trkpt lat="43.84776" lon="5.64091">
        <ele>552.942</ele>
        <time>2021-01-02T15:33:49Z</time>
      </trkpt>
      <trkpt lat="43.84775" lon="5.64098">
        <ele>553.092</ele>
        <time>2021-01-02T15:33:48Z</time>
      </trkpt>
      <trkpt lat="43.84772" lon="5.64108">
        <ele>553.108</ele>
        <time>2021-01-02T15:33:46Z</time>
      </trkpt>
      <trkpt lat="43.84771" lon="5.64115">
        <ele>552.827</ele>
        <time>2021-01-02T15:33:45Z</time>
      </trkpt>
      <trkpt lat="43.84768" lon="5.64127">
        <ele>552.807</ele>
        <time>2021-01-02T15:33:43Z</time>
      </trkpt>
      <trkpt lat="43.84767" lon="5.64139">
        <ele>553.099</ele>
        <time>2021-01-02T15:33:41Z</time>
      </trkpt>
      <trkpt lat="43.84766" lon="5.64152">
        <ele>553.114</ele>
        <time>2021-01-02T15:33:39Z</time>
      </trkpt>
      <trkpt lat="43.84765" lon="5.64163">
        <ele>553.191</ele>
        <time>2021-01-02T15:33:37Z</time>
      </trkpt>
      <trkpt lat="43.84766" lon="5.64173">
        <ele>553.126</ele>
        <time>2021-01-02T15:33:35Z</time>
      </trkpt>
      <trkpt lat="43.84766" lon="5.64183">
        <ele>553.184</ele>
        <time>2021-01-02T15:33:33Z</time>
      </trkpt>
      <trkpt lat="43.84766" lon="5.64192">
        <ele>553.094</ele>
        <time>2021-01-02T15:33:31Z</time>
      </trkpt>
      <trkpt lat="43.84765" lon="5.64199">
        <ele>553.044</ele>
        <time>2021-01-02T15:33:29Z</time>
      </trkpt>
      <trkpt lat="43.84764" lon="5.64207">
        <ele>552.908</ele>
        <time>2021-01-02T15:33:27Z</time>
      </trkpt>
      <trkpt lat="43.84764" lon="5.64216">
        <ele>553.015</ele>
        <time>2021-01-02T15:33:25Z</time>
      </trkpt>
      <trkpt lat="43.84764" lon="5.64226">
        <ele>552.987</ele>
        <time>2021-01-02T15:33:23Z</time>
      </trkpt>
      <trkpt lat="43.84765" lon="5.64235">
        <ele>552.817</ele>
        <time>2021-01-02T15:33:21Z</time>
      </trkpt>
      <trkpt lat="43.84766" lon="5.64246">
        <ele>552.722</ele>
        <time>2021-01-02T15:33:19Z</time>
      </trkpt>
      <trkpt lat="43.84766" lon="5.64257">
        <ele>552.639</ele>
        <time>2021-01-02T15:33:17Z</time>
      </trkpt>
      <trkpt lat="43.84767" lon="5.64273">
        <ele>552.444</ele>
        <time>2021-01-02T15:33:15Z</time>
      </trkpt>
      <trkpt lat="43.84768" lon="5.64285">
        <ele>552.332</ele>
        <time>2021-01-02T15:33:13Z</time>
      </trkpt>
      <trkpt lat="43.84769" lon="5.64296">
        <ele>552.299</ele>
        <time>2021-01-02T15:33:11Z</time>
      </trkpt>
      <trkpt lat="43.8477" lon="5.64306">
        <ele>552.382</ele>
        <time>2021-01-02T15:33:09Z</time>
      </trkpt>
      <trkpt lat="43.84771" lon="5.64312">
        <ele>552.392</ele>
        <time>2021-01-02T15:33:08Z</time>
      </trkpt>
      <trkpt lat="43.8477" lon="5.64324">
        <ele>552.265</ele>
        <time>2021-01-02T15:33:06Z</time>
      </trkpt>
      <trkpt lat="43.84769" lon="5.64333">
        <ele>552.027</ele>
        <time>2021-01-02T15:33:04Z</time>
      </trkpt>
      <trkpt lat="43.84768" lon="5.64343">
        <ele>552.107</ele>
        <time>2021-01-02T15:33:02Z</time>
      </trkpt>
      <trkpt lat="43.84767" lon="5.64355">
        <ele>552.399</ele>
        <time>2021-01-02T15:33:00Z</time>
      </trkpt>
      <trkpt lat="43.84767" lon="5.64362">
        <ele>552.698</ele>
        <time>2021-01-02T15:32:59Z</time>
      </trkpt>
      <trkpt lat="43.84766" lon="5.64375">
        <ele>552.925</ele>
        <time>2021-01-02T15:32:57Z</time>
      </trkpt>
      <trkpt lat="43.84766" lon="5.64387">
        <ele>553.07</ele>
        <time>2021-01-02T15:32:55Z</time>
      </trkpt>
      <trkpt lat="43.84766" lon="5.64396">
        <ele>553.158</ele>
        <time>2021-01-02T15:32:53Z</time>
      </trkpt>
      <trkpt lat="43.84765" lon="5.64404">
        <ele>553.248</ele>
        <time>2021-01-02T15:32:51Z</time>
      </trkpt>
      <trkpt lat="43.84764" lon="5.64414">
        <ele>553.578</ele>
        <time>2021-01-02T15:32:49Z</time>
      </trkpt>
      <trkpt lat="43.84764" lon="5.64424">
        <ele>553.431</ele>
        <time>2021-01-02T15:32:47Z</time>
      </trkpt>
      <trkpt lat="43.84763" lon="5.64435">
        <ele>553.408</ele>
        <time>2021-01-02T15:32:45Z</time>
      </trkpt>
      <trkpt lat="43.84762" lon="5.64444">
        <ele>553.517</ele>
        <time>2021-01-02T15:32:43Z</time>
      </trkpt>
      <trkpt lat="43.84762" lon="5.64454">
        <ele>553.207</ele>
        <time>2021-01-02T15:32:41Z</time>
      </trkpt>
      <trkpt lat="43.84762" lon="5.64462">
        <ele>552.655</ele>
        <time>2021-01-02T15:32:39Z</time>
      </trkpt>
      <trkpt lat="43.84761" lon="5.64469">
        <ele>551.652</ele>
        <time>2021-01-02T15:32:37Z</time>
      </trkpt>
      <trkpt lat="43.8476" lon="5.64478">
        <ele>550.639</ele>
        <time>2021-01-02T15:32:35Z</time>
      </trkpt>
      <trkpt lat="43.8476" lon="5.64485">
        <ele>549.522</ele>
        <time>2021-01-02T15:32:33Z</time>
      </trkpt>
      <trkpt lat="43.8476" lon="5.64495">
        <ele>549.539</ele>
        <time>2021-01-02T15:32:31Z</time>
      </trkpt>
      <trkpt lat="43.8476" lon="5.64508">
        <ele>549.672</ele>
        <time>2021-01-02T15:32:29Z</time>
      </trkpt>
      <trkpt lat="43.8476" lon="5.64518">
        <ele>549.752</ele>
        <time>2021-01-02T15:32:27Z</time>
      </trkpt>
      <trkpt lat="43.8476" lon="5.64528">
        <ele>549.745</ele>
        <time>2021-01-02T15:32:25Z</time>
      </trkpt>
      <trkpt lat="43.84761" lon="5.6454">
        <ele>549.708</ele>
        <time>2021-01-02T15:32:23Z</time>
      </trkpt>
      <trkpt lat="43.84762" lon="5.64551">
        <ele>549.624</ele>
        <time>2021-01-02T15:32:21Z</time>
      </trkpt>
      <trkpt lat="43.84764" lon="5.6456">
        <ele>549.531</ele>
        <time>2021-01-02T15:32:19Z</time>
      </trkpt>
      <trkpt lat="43.84767" lon="5.64569">
        <ele>549.596</ele>
        <time>2021-01-02T15:32:17Z</time>
      </trkpt>
      <trkpt lat="43.84769" lon="5.64579">
        <ele>549.631</ele>
        <time>2021-01-02T15:32:15Z</time>
      </trkpt>
      <trkpt lat="43.84769" lon="5.64588">
        <ele>549.738</ele>
        <time>2021-01-02T15:32:13Z</time>
      </trkpt>
      <trkpt lat="43.8477" lon="5.64596">
        <ele>549.913</ele>
        <time>2021-01-02T15:32:11Z</time>
      </trkpt>
      <trkpt lat="43.8477" lon="5.64605">
        <ele>550.261</ele>
        <time>2021-01-02T15:32:09Z</time>
      </trkpt>
      <trkpt lat="43.84769" lon="5.64613">
        <ele>550.638</ele>
        <time>2021-01-02T15:32:07Z</time>
      </trkpt>
      <trkpt lat="43.84769" lon="5.64619">
        <ele>551.371</ele>
        <time>2021-01-02T15:32:05Z</time>
      </trkpt>
      <trkpt lat="43.84768" lon="5.64628">
        <ele>551.921</ele>
        <time>2021-01-02T15:32:02Z</time>
      </trkpt>
      <trkpt lat="43.84767" lon="5.64636">
        <ele>552.514</ele>
        <time>2021-01-02T15:32:00Z</time>
      </trkpt>
      <trkpt lat="43.84766" lon="5.64644">
        <ele>553.208</ele>
        <time>2021-01-02T15:31:58Z</time>
      </trkpt>
      <trkpt lat="43.84766" lon="5.64653">
        <ele>553.826</ele>
        <time>2021-01-02T15:31:56Z</time>
      </trkpt>
      <trkpt lat="43.84766" lon="5.64659">
        <ele>554.788</ele>
        <time>2021-01-02T15:31:54Z</time>
      </trkpt>
      <trkpt lat="43.84766" lon="5.64669">
        <ele>555.128</ele>
        <time>2021-01-02T15:31:52Z</time>
      </trkpt>
      <trkpt lat="43.84766" lon="5.64679">
        <ele>555.49</ele>
        <time>2021-01-02T15:31:50Z</time>
      </trkpt>
      <trkpt lat="43.84766" lon="5.64686">
        <ele>555.758</ele>
        <time>2021-01-02T15:31:48Z</time>
      </trkpt>
      <trkpt lat="43.84768" lon="5.64694">
        <ele>556.095</ele>
        <time>2021-01-02T15:31:46Z</time>
      </trkpt>
      <trkpt lat="43.8477" lon="5.64704">
        <ele>556.348</ele>
        <time>2021-01-02T15:31:44Z</time>
      </trkpt>
      <trkpt lat="43.84771" lon="5.64713">
        <ele>556.688</ele>
        <time>2021-01-02T15:31:42Z</time>
      </trkpt>
      <trkpt lat="43.84772" lon="5.64721">
        <ele>556.808</ele>
        <time>2021-01-02T15:31:40Z</time>
      </trkpt>
      <trkpt lat="43.84774" lon="5.64729">
        <ele>556.904</ele>
        <time>2021-01-02T15:31:38Z</time>
      </trkpt>
      <trkpt lat="43.84776" lon="5.64738">
        <ele>556.819</ele>
        <time>2021-01-02T15:31:36Z</time>
      </trkpt>
      <trkpt lat="43.84778" lon="5.64746">
        <ele>556.236</ele>
        <time>2021-01-02T15:31:34Z</time>
      </trkpt>
      <trkpt lat="43.84779" lon="5.64756">
        <ele>555.561</ele>
        <time>2021-01-02T15:31:31Z</time>
      </trkpt>
      <trkpt lat="43.84779" lon="5.64764">
        <ele>554.869</ele>
        <time>2021-01-02T15:31:29Z</time>
      </trkpt>
      <trkpt lat="43.84779" lon="5.64773">
        <ele>554.016</ele>
        <time>2021-01-02T15:31:27Z</time>
      </trkpt>
      <trkpt lat="43.84779" lon="5.64781">
        <ele>553.349</ele>
        <time>2021-01-02T15:31:25Z</time>
      </trkpt>
      <trkpt lat="43.84779" lon="5.64788">
        <ele>552.759</ele>
        <time>2021-01-02T15:31:23Z</time>
      </trkpt>
      <trkpt lat="43.84778" lon="5.64799">
        <ele>552.008</ele>
        <time>2021-01-02T15:31:21Z</time>
      </trkpt>
      <trkpt lat="43.84777" lon="5.64806">
        <ele>550.611</ele>
        <time>2021-01-02T15:31:20Z</time>
      </trkpt>
      <trkpt lat="43.84776" lon="5.64818">
        <ele>549.483</ele>
        <time>2021-01-02T15:31:18Z</time>
      </trkpt>
      <trkpt lat="43.84776" lon="5.64827">
        <ele>549.162</ele>
        <time>2021-01-02T15:31:16Z</time>
      </trkpt>
      <trkpt lat="43.84775" lon="5.64836">
        <ele>548.997</ele>
        <time>2021-01-02T15:31:14Z</time>
      </trkpt>
      <trkpt lat="43.84775" lon="5.64845">
        <ele>548.839</ele>
        <time>2021-01-02T15:31:12Z</time>
      </trkpt>
      <trkpt lat="43.84776" lon="5.64853">
        <ele>548.587</ele>
        <time>2021-01-02T15:31:10Z</time>
      </trkpt>
      <trkpt lat="43.84776" lon="5.64859">
        <ele>548.447</ele>
        <time>2021-01-02T15:31:08Z</time>
      </trkpt>
      <trkpt lat="43.84776" lon="5.64867">
        <ele>548.457</ele>
        <time>2021-01-02T15:31:06Z</time>
      </trkpt>
      <trkpt lat="43.84776" lon="5.64874">
        <ele>548.49</ele>
        <time>2021-01-02T15:31:04Z</time>
      </trkpt>
      <trkpt lat="43.84777" lon="5.64882">
        <ele>548.408</ele>
        <time>2021-01-02T15:31:02Z</time>
      </trkpt>
      <trkpt lat="43.8478" lon="5.649">
        <ele>548.415</ele>
        <time>2021-01-02T15:31:00Z</time>
      </trkpt>
      <trkpt lat="43.84781" lon="5.64907">
        <ele>548.444</ele>
        <time>2021-01-02T15:30:58Z</time>
      </trkpt>
      <trkpt lat="43.84782" lon="5.64915">
        <ele>548.59</ele>
        <time>2021-01-02T15:30:56Z</time>
      </trkpt>
      <trkpt lat="43.84784" lon="5.64921">
        <ele>548.647</ele>
        <time>2021-01-02T15:30:54Z</time>
      </trkpt>
      <trkpt lat="43.84786" lon="5.64928">
        <ele>548.882</ele>
        <time>2021-01-02T15:30:52Z</time>
      </trkpt>
      <trkpt lat="43.84786" lon="5.64936">
        <ele>549.157</ele>
        <time>2021-01-02T15:30:50Z</time>
      </trkpt>
      <trkpt lat="43.84786" lon="5.64943">
        <ele>550.33</ele>
        <time>2021-01-02T15:30:48Z</time>
      </trkpt>
      <trkpt lat="43.84786" lon="5.64951">
        <ele>551.56</ele>
        <time>2021-01-02T15:30:45Z</time>
      </trkpt>
      <trkpt lat="43.84784" lon="5.64959">
        <ele>553.523</ele>
        <time>2021-01-02T15:30:41Z</time>
      </trkpt>
      <trkpt lat="43.84781" lon="5.64965">
        <ele>556.908</ele>
        <time>2021-01-02T15:30:39Z</time>
      </trkpt>
      <trkpt lat="43.84778" lon="5.64971">
        <ele>556.915</ele>
        <time>2021-01-02T15:30:36Z</time>
      </trkpt>
      <trkpt lat="43.84776" lon="5.64977">
        <ele>556.971</ele>
        <time>2021-01-02T15:30:33Z</time>
      </trkpt>
      <trkpt lat="43.84774" lon="5.64983">
        <ele>556.974</ele>
        <time>2021-01-02T15:30:30Z</time>
      </trkpt>
      <trkpt lat="43.84771" lon="5.6499">
        <ele>556.911</ele>
        <time>2021-01-02T15:30:27Z</time>
      </trkpt>
      <trkpt lat="43.84769" lon="5.64998">
        <ele>556.916</ele>
        <time>2021-01-02T15:30:24Z</time>
      </trkpt>
      <trkpt lat="43.84767" lon="5.65005">
        <ele>556.964</ele>
        <time>2021-01-02T15:30:21Z</time>
      </trkpt>
      <trkpt lat="43.84764" lon="5.6501">
        <ele>557.034</ele>
        <time>2021-01-02T15:30:18Z</time>
      </trkpt>
      <trkpt lat="43.84763" lon="5.65018">
        <ele>557.234</ele>
        <time>2021-01-02T15:30:15Z</time>
      </trkpt>
      <trkpt lat="43.84762" lon="5.65024">
        <ele>557.477</ele>
        <time>2021-01-02T15:30:12Z</time>
      </trkpt>
      <trkpt lat="43.84762" lon="5.65031">
        <ele>557.808</ele>
        <time>2021-01-02T15:30:09Z</time>
      </trkpt>
      <trkpt lat="43.84761" lon="5.65038">
        <ele>558.509</ele>
        <time>2021-01-02T15:30:06Z</time>
      </trkpt>
      <trkpt lat="43.8476" lon="5.65046">
        <ele>559.254</ele>
        <time>2021-01-02T15:30:03Z</time>
      </trkpt>
      <trkpt lat="43.84759" lon="5.65053">
        <ele>560.014</ele>
        <time>2021-01-02T15:30:01Z</time>
      </trkpt>
      <trkpt lat="43.84758" lon="5.65061">
        <ele>560.892</ele>
        <time>2021-01-02T15:29:59Z</time>
      </trkpt>
      <trkpt lat="43.84758" lon="5.65069">
        <ele>561.639</ele>
        <time>2021-01-02T15:29:57Z</time>
      </trkpt>
      <trkpt lat="43.84757" lon="5.65075">
        <ele>562.424</ele>
        <time>2021-01-02T15:29:55Z</time>
      </trkpt>
      <trkpt lat="43.84756" lon="5.65084">
        <ele>563.182</ele>
        <time>2021-01-02T15:29:53Z</time>
      </trkpt>
      <trkpt lat="43.84755" lon="5.65094">
        <ele>563.819</ele>
        <time>2021-01-02T15:29:51Z</time>
      </trkpt>
      <trkpt lat="43.84754" lon="5.65105">
        <ele>564.532</ele>
        <time>2021-01-02T15:29:49Z</time>
      </trkpt>
      <trkpt lat="43.84753" lon="5.65116">
        <ele>565.292</ele>
        <time>2021-01-02T15:29:47Z</time>
      </trkpt>
      <trkpt lat="43.84753" lon="5.65127">
        <ele>566.065</ele>
        <time>2021-01-02T15:29:45Z</time>
      </trkpt>
      <trkpt lat="43.84752" lon="5.65139">
        <ele>566.808</ele>
        <time>2021-01-02T15:29:43Z</time>
      </trkpt>
      <trkpt lat="43.84751" lon="5.65151">
        <ele>567.723</ele>
        <time>2021-01-02T15:29:41Z</time>
      </trkpt>
      <trkpt lat="43.8475" lon="5.65164">
        <ele>568.849</ele>
        <time>2021-01-02T15:29:39Z</time>
      </trkpt>
      <trkpt lat="43.84749" lon="5.65176">
        <ele>569.895</ele>
        <time>2021-01-02T15:29:37Z</time>
      </trkpt>
      <trkpt lat="43.84748" lon="5.65188">
        <ele>570.716</ele>
        <time>2021-01-02T15:29:35Z</time>
      </trkpt>
      <trkpt lat="43.84747" lon="5.652">
        <ele>571.563</ele>
        <time>2021-01-02T15:29:33Z</time>
      </trkpt>
      <trkpt lat="43.84746" lon="5.65213">
        <ele>571.938</ele>
        <time>2021-01-02T15:29:31Z</time>
      </trkpt>
      <trkpt lat="43.84745" lon="5.65223">
        <ele>572.346</ele>
        <time>2021-01-02T15:29:29Z</time>
      </trkpt>
      <trkpt lat="43.84744" lon="5.65234">
        <ele>572.426</ele>
        <time>2021-01-02T15:29:27Z</time>
      </trkpt>
      <trkpt lat="43.84744" lon="5.65244">
        <ele>572.349</ele>
        <time>2021-01-02T15:29:25Z</time>
      </trkpt>
      <trkpt lat="43.84743" lon="5.65254">
        <ele>572.408</ele>
        <time>2021-01-02T15:29:23Z</time>
      </trkpt>
      <trkpt lat="43.84742" lon="5.65263">
        <ele>572.621</ele>
        <time>2021-01-02T15:29:21Z</time>
      </trkpt>
      <trkpt lat="43.84741" lon="5.65276">
        <ele>572.701</ele>
        <time>2021-01-02T15:29:19Z</time>
      </trkpt>
      <trkpt lat="43.84739" lon="5.65288">
        <ele>573.039</ele>
        <time>2021-01-02T15:29:17Z</time>
      </trkpt>
      <trkpt lat="43.84738" lon="5.65297">
        <ele>573.314</ele>
        <time>2021-01-02T15:29:15Z</time>
      </trkpt>
      <trkpt lat="43.84737" lon="5.65306">
        <ele>573.521</ele>
        <time>2021-01-02T15:29:13Z</time>
      </trkpt>
      <trkpt lat="43.84736" lon="5.65315">
        <ele>573.696</ele>
        <time>2021-01-02T15:29:11Z</time>
      </trkpt>
      <trkpt lat="43.84735" lon="5.65326">
        <ele>573.624</ele>
        <time>2021-01-02T15:29:09Z</time>
      </trkpt>
      <trkpt lat="43.84734" lon="5.65336">
        <ele>573.471</ele>
        <time>2021-01-02T15:29:07Z</time>
      </trkpt>
      <trkpt lat="43.84734" lon="5.65347">
        <ele>573.194</ele>
        <time>2021-01-02T15:29:05Z</time>
      </trkpt>
      <trkpt lat="43.84734" lon="5.65354">
        <ele>572.844</ele>
        <time>2021-01-02T15:29:04Z</time>
      </trkpt>
      <trkpt lat="43.84734" lon="5.65368">
        <ele>572.417</ele>
        <time>2021-01-02T15:29:02Z</time>
      </trkpt>
      <trkpt lat="43.84734" lon="5.65375">
        <ele>572.108</ele>
        <time>2021-01-02T15:29:01Z</time>
      </trkpt>
      <trkpt lat="43.84733" lon="5.65388">
        <ele>571.817</ele>
        <time>2021-01-02T15:28:59Z</time>
      </trkpt>
      <trkpt lat="43.84733" lon="5.65395">
        <ele>571.798</ele>
        <time>2021-01-02T15:28:58Z</time>
      </trkpt>
      <trkpt lat="43.84731" lon="5.65408">
        <ele>571.618</ele>
        <time>2021-01-02T15:28:56Z</time>
      </trkpt>
      <trkpt lat="43.84729" lon="5.65421">
        <ele>571.422</ele>
        <time>2021-01-02T15:28:54Z</time>
      </trkpt>
      <trkpt lat="43.84728" lon="5.65435">
        <ele>571.329</ele>
        <time>2021-01-02T15:28:52Z</time>
      </trkpt>
      <trkpt lat="43.84727" lon="5.65442">
        <ele>571.314</ele>
        <time>2021-01-02T15:28:51Z</time>
      </trkpt>
      <trkpt lat="43.84726" lon="5.65457">
        <ele>571.462</ele>
        <time>2021-01-02T15:28:49Z</time>
      </trkpt>
      <trkpt lat="43.84725" lon="5.6547">
        <ele>571.349</ele>
        <time>2021-01-02T15:28:47Z</time>
      </trkpt>
      <trkpt lat="43.84725" lon="5.65476">
        <ele>570.912</ele>
        <time>2021-01-02T15:28:46Z</time>
      </trkpt>
      <trkpt lat="43.84724" lon="5.65484">
        <ele>570.432</ele>
        <time>2021-01-02T15:28:44Z</time>
      </trkpt>
      <trkpt lat="43.84724" lon="5.65493">
        <ele>569.725</ele>
        <time>2021-01-02T15:28:42Z</time>
      </trkpt>
      <trkpt lat="43.84725" lon="5.65503">
        <ele>569.308</ele>
        <time>2021-01-02T15:28:40Z</time>
      </trkpt>
      <trkpt lat="43.84725" lon="5.65511">
        <ele>568.822</ele>
        <time>2021-01-02T15:28:38Z</time>
      </trkpt>
      <trkpt lat="43.84725" lon="5.65519">
        <ele>568.457</ele>
        <time>2021-01-02T15:28:36Z</time>
      </trkpt>
      <trkpt lat="43.84726" lon="5.65528">
        <ele>568.394</ele>
        <time>2021-01-02T15:28:34Z</time>
      </trkpt>
      <trkpt lat="43.84726" lon="5.65536">
        <ele>568.354</ele>
        <time>2021-01-02T15:28:32Z</time>
      </trkpt>
      <trkpt lat="43.84727" lon="5.65545">
        <ele>568.857</ele>
        <time>2021-01-02T15:28:30Z</time>
      </trkpt>
      <trkpt lat="43.84728" lon="5.65553">
        <ele>569.634</ele>
        <time>2021-01-02T15:28:28Z</time>
      </trkpt>
      <trkpt lat="43.8473" lon="5.65561">
        <ele>569.837</ele>
        <time>2021-01-02T15:28:26Z</time>
      </trkpt>
      <trkpt lat="43.84731" lon="5.65568">
        <ele>570.25</ele>
        <time>2021-01-02T15:28:24Z</time>
      </trkpt>
      <trkpt lat="43.84734" lon="5.65577">
        <ele>570.408</ele>
        <time>2021-01-02T15:28:22Z</time>
      </trkpt>
      <trkpt lat="43.84737" lon="5.65586">
        <ele>570.522</ele>
        <time>2021-01-02T15:28:20Z</time>
      </trkpt>
      <trkpt lat="43.84741" lon="5.65593">
        <ele>570.602</ele>
        <time>2021-01-02T15:28:18Z</time>
      </trkpt>
      <trkpt lat="43.84744" lon="5.65601">
        <ele>570.541</ele>
        <time>2021-01-02T15:28:16Z</time>
      </trkpt>
      <trkpt lat="43.84747" lon="5.65609">
        <ele>571.028</ele>
        <time>2021-01-02T15:28:14Z</time>
      </trkpt>
      <trkpt lat="43.84751" lon="5.65617">
        <ele>571.353</ele>
        <time>2021-01-02T15:28:12Z</time>
      </trkpt>
      <trkpt lat="43.84754" lon="5.65626">
        <ele>571.731</ele>
        <time>2021-01-02T15:28:10Z</time>
      </trkpt>
      <trkpt lat="43.84755" lon="5.65635">
        <ele>572.318</ele>
        <time>2021-01-02T15:28:06Z</time>
      </trkpt>
      <trkpt lat="43.84753" lon="5.65643">
        <ele>572.931</ele>
        <time>2021-01-02T15:28:04Z</time>
      </trkpt>
      <trkpt lat="43.84749" lon="5.65651">
        <ele>573.611</ele>
        <time>2021-01-02T15:28:02Z</time>
      </trkpt>
      <trkpt lat="43.84744" lon="5.65656">
        <ele>574.234</ele>
        <time>2021-01-02T15:28:00Z</time>
      </trkpt>
      <trkpt lat="43.84741" lon="5.6566">
        <ele>574.808</ele>
        <time>2021-01-02T15:27:58Z</time>
      </trkpt>
      <trkpt lat="43.84738" lon="5.65665">
        <ele>575.326</ele>
        <time>2021-01-02T15:27:56Z</time>
      </trkpt>
      <trkpt lat="43.84735" lon="5.65672">
        <ele>575.942</ele>
        <time>2021-01-02T15:27:53Z</time>
      </trkpt>
      <trkpt lat="43.84731" lon="5.6568">
        <ele>576.787</ele>
        <time>2021-01-02T15:27:50Z</time>
      </trkpt>
      <trkpt lat="43.84728" lon="5.65685">
        <ele>577.58</ele>
        <time>2021-01-02T15:27:46Z</time>
      </trkpt>
      <trkpt lat="43.84725" lon="5.6569">
        <ele>578.237</ele>
        <time>2021-01-02T15:27:43Z</time>
      </trkpt>
      <trkpt lat="43.84723" lon="5.65696">
        <ele>579.082</ele>
        <time>2021-01-02T15:27:41Z</time>
      </trkpt>
      <trkpt lat="43.84721" lon="5.65704">
        <ele>579.86</ele>
        <time>2021-01-02T15:27:39Z</time>
      </trkpt>
      <trkpt lat="43.84718" lon="5.65712">
        <ele>580.567</ele>
        <time>2021-01-02T15:27:37Z</time>
      </trkpt>
      <trkpt lat="43.84716" lon="5.65719">
        <ele>581.02</ele>
        <time>2021-01-02T15:27:35Z</time>
      </trkpt>
      <trkpt lat="43.84715" lon="5.65728">
        <ele>581.52</ele>
        <time>2021-01-02T15:27:33Z</time>
      </trkpt>
      <trkpt lat="43.84714" lon="5.65735">
        <ele>581.973</ele>
        <time>2021-01-02T15:27:31Z</time>
      </trkpt>
      <trkpt lat="43.84713" lon="5.65743">
        <ele>582.208</ele>
        <time>2021-01-02T15:27:29Z</time>
      </trkpt>
      <trkpt lat="43.84712" lon="5.65752">
        <ele>582.426</ele>
        <time>2021-01-02T15:27:27Z</time>
      </trkpt>
      <trkpt lat="43.84711" lon="5.65761">
        <ele>582.878</ele>
        <time>2021-01-02T15:27:24Z</time>
      </trkpt>
      <trkpt lat="43.8471" lon="5.65769">
        <ele>583.525</ele>
        <time>2021-01-02T15:27:21Z</time>
      </trkpt>
      <trkpt lat="43.84711" lon="5.65777">
        <ele>583.972</ele>
        <time>2021-01-02T15:27:17Z</time>
      </trkpt>
      <trkpt lat="43.84711" lon="5.65784">
        <ele>584.177</ele>
        <time>2021-01-02T15:27:14Z</time>
      </trkpt>
      <trkpt lat="43.84712" lon="5.65791">
        <ele>584.335</ele>
        <time>2021-01-02T15:27:11Z</time>
      </trkpt>
      <trkpt lat="43.84712" lon="5.65799">
        <ele>584.792</ele>
        <time>2021-01-02T15:27:08Z</time>
      </trkpt>
      <trkpt lat="43.84713" lon="5.65806">
        <ele>585.165</ele>
        <time>2021-01-02T15:27:06Z</time>
      </trkpt>
      <trkpt lat="43.84714" lon="5.65815">
        <ele>585.435</ele>
        <time>2021-01-02T15:27:04Z</time>
      </trkpt>
      <trkpt lat="43.84714" lon="5.65824">
        <ele>585.558</ele>
        <time>2021-01-02T15:27:02Z</time>
      </trkpt>
      <trkpt lat="43.84715" lon="5.65834">
        <ele>585.608</ele>
        <time>2021-01-02T15:26:58Z</time>
      </trkpt>
      <trkpt lat="43.84715" lon="5.65841">
        <ele>585.614</ele>
        <time>2021-01-02T15:26:56Z</time>
      </trkpt>
      <trkpt lat="43.84714" lon="5.6585">
        <ele>585.668</ele>
        <time>2021-01-02T15:26:54Z</time>
      </trkpt>
      <trkpt lat="43.84714" lon="5.6586">
        <ele>585.727</ele>
        <time>2021-01-02T15:26:52Z</time>
      </trkpt>
      <trkpt lat="43.84714" lon="5.6587">
        <ele>586.057</ele>
        <time>2021-01-02T15:26:50Z</time>
      </trkpt>
      <trkpt lat="43.84713" lon="5.65881">
        <ele>586.474</ele>
        <time>2021-01-02T15:26:48Z</time>
      </trkpt>
      <trkpt lat="43.84712" lon="5.65888">
        <ele>586.659</ele>
        <time>2021-01-02T15:26:47Z</time>
      </trkpt>
      <trkpt lat="43.8471" lon="5.65901">
        <ele>586.867</ele>
        <time>2021-01-02T15:26:45Z</time>
      </trkpt>
      <trkpt lat="43.84709" lon="5.65907">
        <ele>586.864</ele>
        <time>2021-01-02T15:26:43Z</time>
      </trkpt>
      <trkpt lat="43.84708" lon="5.65915">
        <ele>586.977</ele>
        <time>2021-01-02T15:26:39Z</time>
      </trkpt>
      <trkpt lat="43.84708" lon="5.65922">
        <ele>587.257</ele>
        <time>2021-01-02T15:26:36Z</time>
      </trkpt>
      <trkpt lat="43.84708" lon="5.65929">
        <ele>587.93</ele>
        <time>2021-01-02T15:26:33Z</time>
      </trkpt>
      <trkpt lat="43.84708" lon="5.65937">
        <ele>588.808</ele>
        <time>2021-01-02T15:26:30Z</time>
      </trkpt>
      <trkpt lat="43.84707" lon="5.65944">
        <ele>589.61</ele>
        <time>2021-01-02T15:26:27Z</time>
      </trkpt>
      <trkpt lat="43.84706" lon="5.65952">
        <ele>589.864</ele>
        <time>2021-01-02T15:26:25Z</time>
      </trkpt>
      <trkpt lat="43.84705" lon="5.65963">
        <ele>590.037</ele>
        <time>2021-01-02T15:26:23Z</time>
      </trkpt>
      <trkpt lat="43.84705" lon="5.6597">
        <ele>590.299</ele>
        <time>2021-01-02T15:26:22Z</time>
      </trkpt>
      <trkpt lat="43.84705" lon="5.65979">
        <ele>590.567</ele>
        <time>2021-01-02T15:26:21Z</time>
      </trkpt>
      <trkpt lat="43.84706" lon="5.65989">
        <ele>590.744</ele>
        <time>2021-01-02T15:26:20Z</time>
      </trkpt>
      <trkpt lat="43.84706" lon="5.65997">
        <ele>590.997</ele>
        <time>2021-01-02T15:26:19Z</time>
      </trkpt>
      <trkpt lat="43.84706" lon="5.66007">
        <ele>591.33</ele>
        <time>2021-01-02T15:26:11Z</time>
      </trkpt>
      <trkpt lat="43.84704" lon="5.66017">
        <ele>591.608</ele>
        <time>2021-01-02T15:26:06Z</time>
      </trkpt>
      <trkpt lat="43.84701" lon="5.66026">
        <ele>592.215</ele>
        <time>2021-01-02T15:26:03Z</time>
      </trkpt>
      <trkpt lat="43.84698" lon="5.66035">
        <ele>592.805</ele>
        <time>2021-01-02T15:26:00Z</time>
      </trkpt>
      <trkpt lat="43.84696" lon="5.66043">
        <ele>593.444</ele>
        <time>2021-01-02T15:25:44Z</time>
      </trkpt>
      <trkpt lat="43.84696" lon="5.6605">
        <ele>593.438</ele>
        <time>2021-01-02T15:25:41Z</time>
      </trkpt>
      <trkpt lat="43.84697" lon="5.66057">
        <ele>593.335</ele>
        <time>2021-01-02T15:25:39Z</time>
      </trkpt>
      <trkpt lat="43.84698" lon="5.66067">
        <ele>593.24</ele>
        <time>2021-01-02T15:25:37Z</time>
      </trkpt>
      <trkpt lat="43.84699" lon="5.66077">
        <ele>593.348</ele>
        <time>2021-01-02T15:25:35Z</time>
      </trkpt>
      <trkpt lat="43.847" lon="5.66088">
        <ele>593.648</ele>
        <time>2021-01-02T15:25:33Z</time>
      </trkpt>
      <trkpt lat="43.847" lon="5.66094">
        <ele>594.378</ele>
        <time>2021-01-02T15:25:31Z</time>
      </trkpt>
      <trkpt lat="43.84698" lon="5.66101">
        <ele>594.441</ele>
        <time>2021-01-02T15:25:29Z</time>
      </trkpt>
      <trkpt lat="43.84696" lon="5.66109">
        <ele>594.408</ele>
        <time>2021-01-02T15:25:27Z</time>
      </trkpt>
      <trkpt lat="43.84695" lon="5.66116">
        <ele>594.32</ele>
        <time>2021-01-02T15:25:25Z</time>
      </trkpt>
      <trkpt lat="43.84695" lon="5.66125">
        <ele>594.5</ele>
        <time>2021-01-02T15:25:22Z</time>
      </trkpt>
      <trkpt lat="43.84695" lon="5.66132">
        <ele>594.957</ele>
        <time>2021-01-02T15:25:20Z</time>
      </trkpt>
      <trkpt lat="43.84694" lon="5.6614">
        <ele>595.518</ele>
        <time>2021-01-02T15:25:18Z</time>
      </trkpt>
      <trkpt lat="43.84693" lon="5.66146">
        <ele>596.015</ele>
        <time>2021-01-02T15:25:16Z</time>
      </trkpt>
      <trkpt lat="43.84693" lon="5.66153">
        <ele>596.71</ele>
        <time>2021-01-02T15:25:14Z</time>
      </trkpt>
      <trkpt lat="43.84692" lon="5.66161">
        <ele>597.548</ele>
        <time>2021-01-02T15:25:12Z</time>
      </trkpt>
      <trkpt lat="43.84692" lon="5.66171">
        <ele>598.325</ele>
        <time>2021-01-02T15:25:09Z</time>
      </trkpt>
      <trkpt lat="43.84692" lon="5.66179">
        <ele>599.078</ele>
        <time>2021-01-02T15:25:07Z</time>
      </trkpt>
      <trkpt lat="43.84694" lon="5.66186">
        <ele>599.738</ele>
        <time>2021-01-02T15:25:04Z</time>
      </trkpt>
      <trkpt lat="43.84694" lon="5.66194">
        <ele>600.051</ele>
        <time>2021-01-02T15:25:02Z</time>
      </trkpt>
      <trkpt lat="43.84695" lon="5.66204">
        <ele>600.208</ele>
        <time>2021-01-02T15:25:00Z</time>
      </trkpt>
      <trkpt lat="43.84696" lon="5.66219">
        <ele>600.314</ele>
        <time>2021-01-02T15:24:58Z</time>
      </trkpt>
      <trkpt lat="43.84696" lon="5.66236">
        <ele>600.404</ele>
        <time>2021-01-02T15:24:56Z</time>
      </trkpt>
      <trkpt lat="43.84697" lon="5.66254">
        <ele>600.653</ele>
        <time>2021-01-02T15:24:54Z</time>
      </trkpt>
      <trkpt lat="43.84698" lon="5.66272">
        <ele>600.652</ele>
        <time>2021-01-02T15:24:52Z</time>
      </trkpt>
      <trkpt lat="43.84699" lon="5.6629">
        <ele>600.524</ele>
        <time>2021-01-02T15:24:50Z</time>
      </trkpt>
      <trkpt lat="43.84699" lon="5.663">
        <ele>600.552</ele>
        <time>2021-01-02T15:24:49Z</time>
      </trkpt>
      <trkpt lat="43.84699" lon="5.66317">
        <ele>600.619</ele>
        <time>2021-01-02T15:24:47Z</time>
      </trkpt>
      <trkpt lat="43.847" lon="5.66326">
        <ele>600.832</ele>
        <time>2021-01-02T15:24:46Z</time>
      </trkpt>
      <trkpt lat="43.847" lon="5.66335">
        <ele>601.108</ele>
        <time>2021-01-02T15:24:45Z</time>
      </trkpt>
      <trkpt lat="43.84701" lon="5.66345">
        <ele>601.921</ele>
        <time>2021-01-02T15:24:44Z</time>
      </trkpt>
      <trkpt lat="43.84703" lon="5.66361">
        <ele>602.065</ele>
        <time>2021-01-02T15:24:42Z</time>
      </trkpt>
      <trkpt lat="43.84705" lon="5.66377">
        <ele>602.093</ele>
        <time>2021-01-02T15:24:40Z</time>
      </trkpt>
      <trkpt lat="43.84706" lon="5.66385">
        <ele>602.026</ele>
        <time>2021-01-02T15:24:39Z</time>
      </trkpt>
      <trkpt lat="43.84708" lon="5.66401">
        <ele>602.083</ele>
        <time>2021-01-02T15:24:37Z</time>
      </trkpt>
      <trkpt lat="43.84709" lon="5.66409">
        <ele>601.968</ele>
        <time>2021-01-02T15:24:36Z</time>
      </trkpt>
      <trkpt lat="43.84711" lon="5.66424">
        <ele>601.926</ele>
        <time>2021-01-02T15:24:34Z</time>
      </trkpt>
      <trkpt lat="43.84712" lon="5.66432">
        <ele>602.013</ele>
        <time>2021-01-02T15:24:33Z</time>
      </trkpt>
      <trkpt lat="43.84715" lon="5.66447">
        <ele>602.056</ele>
        <time>2021-01-02T15:24:31Z</time>
      </trkpt>
      <trkpt lat="43.84718" lon="5.66462">
        <ele>602.129</ele>
        <time>2021-01-02T15:24:29Z</time>
      </trkpt>
      <trkpt lat="43.84719" lon="5.66469">
        <ele>602.308</ele>
        <time>2021-01-02T15:24:28Z</time>
      </trkpt>
      <trkpt lat="43.84721" lon="5.66479">
        <ele>602.414</ele>
        <time>2021-01-02T15:24:26Z</time>
      </trkpt>
      <trkpt lat="43.84723" lon="5.66485">
        <ele>602.435</ele>
        <time>2021-01-02T15:24:25Z</time>
      </trkpt>
      <trkpt lat="43.84723" lon="5.66496">
        <ele>602.929</ele>
        <time>2021-01-02T15:24:23Z</time>
      </trkpt>
      <trkpt lat="43.84724" lon="5.66507">
        <ele>603.366</ele>
        <time>2021-01-02T15:24:21Z</time>
      </trkpt>
      <trkpt lat="43.84724" lon="5.66515">
        <ele>603.711</ele>
        <time>2021-01-02T15:24:19Z</time>
      </trkpt>
      <trkpt lat="43.84724" lon="5.66523">
        <ele>603.989</ele>
        <time>2021-01-02T15:24:17Z</time>
      </trkpt>
      <trkpt lat="43.84724" lon="5.66532">
        <ele>604.086</ele>
        <time>2021-01-02T15:24:15Z</time>
      </trkpt>
      <trkpt lat="43.84724" lon="5.6654">
        <ele>604.349</ele>
        <time>2021-01-02T15:24:13Z</time>
      </trkpt>
      <trkpt lat="43.84724" lon="5.66548">
        <ele>604.689</ele>
        <time>2021-01-02T15:24:10Z</time>
      </trkpt>
      <trkpt lat="43.84724" lon="5.66555">
        <ele>604.942</ele>
        <time>2021-01-02T15:24:08Z</time>
      </trkpt>
      <trkpt lat="43.84724" lon="5.66565">
        <ele>604.908</ele>
        <time>2021-01-02T15:24:06Z</time>
      </trkpt>
      <trkpt lat="43.84724" lon="5.66575">
        <ele>604.718</ele>
        <time>2021-01-02T15:24:04Z</time>
      </trkpt>
      <trkpt lat="43.84726" lon="5.66587">
        <ele>604.544</ele>
        <time>2021-01-02T15:24:02Z</time>
      </trkpt>
      <trkpt lat="43.84727" lon="5.66596">
        <ele>604.463</ele>
        <time>2021-01-02T15:24:00Z</time>
      </trkpt>
      <trkpt lat="43.84729" lon="5.66605">
        <ele>604.041</ele>
        <time>2021-01-02T15:23:58Z</time>
      </trkpt>
      <trkpt lat="43.84731" lon="5.66612">
        <ele>603.418</ele>
        <time>2021-01-02T15:23:56Z</time>
      </trkpt>
      <trkpt lat="43.84733" lon="5.66619">
        <ele>602.543</ele>
        <time>2021-01-02T15:23:54Z</time>
      </trkpt>
      <trkpt lat="43.84735" lon="5.66626">
        <ele>601.861</ele>
        <time>2021-01-02T15:23:52Z</time>
      </trkpt>
      <trkpt lat="43.84738" lon="5.66633">
        <ele>601.498</ele>
        <time>2021-01-02T15:23:50Z</time>
      </trkpt>
      <trkpt lat="43.84741" lon="5.6664">
        <ele>601.041</ele>
        <time>2021-01-02T15:23:48Z</time>
      </trkpt>
      <trkpt lat="43.84744" lon="5.66646">
        <ele>600.891</ele>
        <time>2021-01-02T15:23:46Z</time>
      </trkpt>
      <trkpt lat="43.84747" lon="5.66653">
        <ele>600.854</ele>
        <time>2021-01-02T15:23:44Z</time>
      </trkpt>
      <trkpt lat="43.8475" lon="5.66659">
        <ele>600.508</ele>
        <time>2021-01-02T15:23:42Z</time>
      </trkpt>
      <trkpt lat="43.84753" lon="5.66668">
        <ele>600.426</ele>
        <time>2021-01-02T15:23:40Z</time>
      </trkpt>
      <trkpt lat="43.84756" lon="5.66677">
        <ele>600.442</ele>
        <time>2021-01-02T15:23:38Z</time>
      </trkpt>
      <trkpt lat="43.8476" lon="5.66692">
        <ele>600.787</ele>
        <time>2021-01-02T15:23:36Z</time>
      </trkpt>
      <trkpt lat="43.84762" lon="5.66702">
        <ele>601.44</ele>
        <time>2021-01-02T15:23:34Z</time>
      </trkpt>
      <trkpt lat="43.84764" lon="5.6671">
        <ele>601.467</ele>
        <time>2021-01-02T15:23:32Z</time>
      </trkpt>
      <trkpt lat="43.84764" lon="5.66717">
        <ele>601.43</ele>
        <time>2021-01-02T15:23:30Z</time>
      </trkpt>
      <trkpt lat="43.84765" lon="5.66724">
        <ele>601.457</ele>
        <time>2021-01-02T15:23:28Z</time>
      </trkpt>
      <trkpt lat="43.84765" lon="5.6673">
        <ele>601.49</ele>
        <time>2021-01-02T15:23:26Z</time>
      </trkpt>
      <trkpt lat="43.84766" lon="5.66737">
        <ele>601.32</ele>
        <time>2021-01-02T15:23:24Z</time>
      </trkpt>
      <trkpt lat="43.84766" lon="5.66745">
        <ele>601.263</ele>
        <time>2021-01-02T15:23:22Z</time>
      </trkpt>
      <trkpt lat="43.84767" lon="5.66753">
        <ele>601.019</ele>
        <time>2021-01-02T15:23:20Z</time>
      </trkpt>
      <trkpt lat="43.84768" lon="5.66761">
        <ele>600.49</ele>
        <time>2021-01-02T15:23:18Z</time>
      </trkpt>
      <trkpt lat="43.84769" lon="5.66768">
        <ele>600.176</ele>
        <time>2021-01-02T15:23:16Z</time>
      </trkpt>
      <trkpt lat="43.8477" lon="5.66776">
        <ele>599.992</ele>
        <time>2021-01-02T15:23:14Z</time>
      </trkpt>
      <trkpt lat="43.84771" lon="5.66784">
        <ele>599.519</ele>
        <time>2021-01-02T15:23:12Z</time>
      </trkpt>
      <trkpt lat="43.84772" lon="5.66792">
        <ele>599.034</ele>
        <time>2021-01-02T15:23:10Z</time>
      </trkpt>
      <trkpt lat="43.84774" lon="5.668">
        <ele>598.522</ele>
        <time>2021-01-02T15:23:08Z</time>
      </trkpt>
      <trkpt lat="43.84775" lon="5.66807">
        <ele>598.059</ele>
        <time>2021-01-02T15:23:06Z</time>
      </trkpt>
      <trkpt lat="43.84777" lon="5.66815">
        <ele>597.532</ele>
        <time>2021-01-02T15:23:04Z</time>
      </trkpt>
      <trkpt lat="43.84779" lon="5.66823">
        <ele>597.052</ele>
        <time>2021-01-02T15:23:01Z</time>
      </trkpt>
      <trkpt lat="43.8478" lon="5.6683">
        <ele>596.655</ele>
        <time>2021-01-02T15:22:59Z</time>
      </trkpt>
      <trkpt lat="43.84782" lon="5.66838">
        <ele>596.308</ele>
        <time>2021-01-02T15:22:57Z</time>
      </trkpt>
      <trkpt lat="43.84784" lon="5.66846">
        <ele>596.022</ele>
        <time>2021-01-02T15:22:55Z</time>
      </trkpt>
      <trkpt lat="43.84786" lon="5.66854">
        <ele>595.757</ele>
        <time>2021-01-02T15:22:53Z</time>
      </trkpt>
      <trkpt lat="43.84787" lon="5.66864">
        <ele>595.994</ele>
        <time>2021-01-02T15:22:51Z</time>
      </trkpt>
      <trkpt lat="43.84788" lon="5.66873">
        <ele>596.289</ele>
        <time>2021-01-02T15:22:49Z</time>
      </trkpt>
      <trkpt lat="43.84788" lon="5.66882">
        <ele>596.566</ele>
        <time>2021-01-02T15:22:47Z</time>
      </trkpt>
      <trkpt lat="43.84788" lon="5.6689">
        <ele>596.839</ele>
        <time>2021-01-02T15:22:45Z</time>
      </trkpt>
      <trkpt lat="43.84788" lon="5.66897">
        <ele>597.396</ele>
        <time>2021-01-02T15:22:43Z</time>
      </trkpt>
      <trkpt lat="43.84787" lon="5.66905">
        <ele>597.649</ele>
        <time>2021-01-02T15:22:41Z</time>
      </trkpt>
      <trkpt lat="43.84785" lon="5.66913">
        <ele>598.059</ele>
        <time>2021-01-02T15:22:39Z</time>
      </trkpt>
      <trkpt lat="43.84783" lon="5.66921">
        <ele>598.432</ele>
        <time>2021-01-02T15:22:37Z</time>
      </trkpt>
      <trkpt lat="43.84782" lon="5.66926">
        <ele>599.308</ele>
        <time>2021-01-02T15:22:35Z</time>
      </trkpt>
      <trkpt lat="43.84779" lon="5.66934">
        <ele>599.816</ele>
        <time>2021-01-02T15:22:33Z</time>
      </trkpt>
      <trkpt lat="43.84776" lon="5.66942">
        <ele>600.106</ele>
        <time>2021-01-02T15:22:30Z</time>
      </trkpt>
      <trkpt lat="43.84774" lon="5.66949">
        <ele>600.364</ele>
        <time>2021-01-02T15:22:28Z</time>
      </trkpt>
      <trkpt lat="43.84771" lon="5.66954">
        <ele>600.585</ele>
        <time>2021-01-02T15:22:26Z</time>
      </trkpt>
      <trkpt lat="43.84769" lon="5.66962">
        <ele>600.742</ele>
        <time>2021-01-02T15:22:23Z</time>
      </trkpt>
      <trkpt lat="43.84767" lon="5.66969">
        <ele>600.917</ele>
        <time>2021-01-02T15:22:20Z</time>
      </trkpt>
      <trkpt lat="43.84764" lon="5.66976">
        <ele>601.145</ele>
        <time>2021-01-02T15:22:16Z</time>
      </trkpt>
      <trkpt lat="43.84763" lon="5.66983">
        <ele>600.762</ele>
        <time>2021-01-02T15:22:12Z</time>
      </trkpt>
      <trkpt lat="43.84761" lon="5.66991">
        <ele>600.715</ele>
        <time>2021-01-02T15:22:09Z</time>
      </trkpt>
      <trkpt lat="43.84759" lon="5.66999">
        <ele>600.775</ele>
        <time>2021-01-02T15:22:07Z</time>
      </trkpt>
      <trkpt lat="43.84758" lon="5.67011">
        <ele>600.688</ele>
        <time>2021-01-02T15:22:05Z</time>
      </trkpt>
      <trkpt lat="43.84758" lon="5.67021">
        <ele>600.408</ele>
        <time>2021-01-02T15:22:03Z</time>
      </trkpt>
      <trkpt lat="43.84758" lon="5.67032">
        <ele>600.162</ele>
        <time>2021-01-02T15:22:01Z</time>
      </trkpt>
      <trkpt lat="43.8476" lon="5.67044">
        <ele>599.922</ele>
        <time>2021-01-02T15:21:59Z</time>
      </trkpt>
      <trkpt lat="43.84761" lon="5.67056">
        <ele>599.736</ele>
        <time>2021-01-02T15:21:57Z</time>
      </trkpt>
      <trkpt lat="43.84762" lon="5.67066">
        <ele>599.593</ele>
        <time>2021-01-02T15:21:55Z</time>
      </trkpt>
      <trkpt lat="43.84763" lon="5.67079">
        <ele>599.518</ele>
        <time>2021-01-02T15:21:53Z</time>
      </trkpt>
      <trkpt lat="43.84763" lon="5.67086">
        <ele>599.626</ele>
        <time>2021-01-02T15:21:52Z</time>
      </trkpt>
      <trkpt lat="43.84763" lon="5.67096">
        <ele>599.933</ele>
        <time>2021-01-02T15:21:50Z</time>
      </trkpt>
      <trkpt lat="43.84763" lon="5.67105">
        <ele>600.346</ele>
        <time>2021-01-02T15:21:48Z</time>
      </trkpt>
      <trkpt lat="43.84763" lon="5.67114">
        <ele>600.676</ele>
        <time>2021-01-02T15:21:45Z</time>
      </trkpt>
      <trkpt lat="43.84761" lon="5.67121">
        <ele>601.199</ele>
        <time>2021-01-02T15:21:43Z</time>
      </trkpt>
      <trkpt lat="43.84759" lon="5.6713">
        <ele>601.708</ele>
        <time>2021-01-02T15:21:41Z</time>
      </trkpt>
      <trkpt lat="43.84757" lon="5.6714">
        <ele>602.11</ele>
        <time>2021-01-02T15:21:39Z</time>
      </trkpt>
      <trkpt lat="43.84756" lon="5.67151">
        <ele>602.455</ele>
        <time>2021-01-02T15:21:37Z</time>
      </trkpt>
      <trkpt lat="43.84755" lon="5.67164">
        <ele>602.734</ele>
        <time>2021-01-02T15:21:35Z</time>
      </trkpt>
      <trkpt lat="43.84753" lon="5.67176">
        <ele>602.922</ele>
        <time>2021-01-02T15:21:33Z</time>
      </trkpt>
      <trkpt lat="43.8475" lon="5.67188">
        <ele>602.984</ele>
        <time>2021-01-02T15:21:31Z</time>
      </trkpt>
      <trkpt lat="43.84747" lon="5.67198">
        <ele>602.532</ele>
        <time>2021-01-02T15:21:29Z</time>
      </trkpt>
      <trkpt lat="43.84744" lon="5.67208">
        <ele>602.269</ele>
        <time>2021-01-02T15:21:27Z</time>
      </trkpt>
      <trkpt lat="43.84741" lon="5.67214">
        <ele>601.972</ele>
        <time>2021-01-02T15:21:26Z</time>
      </trkpt>
      <trkpt lat="43.84738" lon="5.67225">
        <ele>601.562</ele>
        <time>2021-01-02T15:21:24Z</time>
      </trkpt>
      <trkpt lat="43.84737" lon="5.67236">
        <ele>601.395</ele>
        <time>2021-01-02T15:21:22Z</time>
      </trkpt>
      <trkpt lat="43.84737" lon="5.67247">
        <ele>601.308</ele>
        <time>2021-01-02T15:21:20Z</time>
      </trkpt>
      <trkpt lat="43.84737" lon="5.67259">
        <ele>601.224</ele>
        <time>2021-01-02T15:21:18Z</time>
      </trkpt>
      <trkpt lat="43.84737" lon="5.67266">
        <ele>601.331</ele>
        <time>2021-01-02T15:21:17Z</time>
      </trkpt>
      <trkpt lat="43.84737" lon="5.67273">
        <ele>601.596</ele>
        <time>2021-01-02T15:21:16Z</time>
      </trkpt>
      <trkpt lat="43.84736" lon="5.6728">
        <ele>601.83</ele>
        <time>2021-01-02T15:21:15Z</time>
      </trkpt>
      <trkpt lat="43.84735" lon="5.67293">
        <ele>602.027</ele>
        <time>2021-01-02T15:21:13Z</time>
      </trkpt>
      <trkpt lat="43.84734" lon="5.673">
        <ele>602.252</ele>
        <time>2021-01-02T15:21:12Z</time>
      </trkpt>
      <trkpt lat="43.84733" lon="5.67309">
        <ele>602.45</ele>
        <time>2021-01-02T15:21:10Z</time>
      </trkpt>
      <trkpt lat="43.84733" lon="5.67321">
        <ele>602.56</ele>
        <time>2021-01-02T15:21:08Z</time>
      </trkpt>
      <trkpt lat="43.84734" lon="5.67333">
        <ele>602.58</ele>
        <time>2021-01-02T15:21:06Z</time>
      </trkpt>
      <trkpt lat="43.84734" lon="5.67343">
        <ele>602.513</ele>
        <time>2021-01-02T15:21:04Z</time>
      </trkpt>
      <trkpt lat="43.84734" lon="5.67354">
        <ele>602.508</ele>
        <time>2021-01-02T15:21:02Z</time>
      </trkpt>
      <trkpt lat="43.84734" lon="5.67365">
        <ele>602.627</ele>
        <time>2021-01-02T15:21:00Z</time>
      </trkpt>
      <trkpt lat="43.84734" lon="5.67376">
        <ele>602.677</ele>
        <time>2021-01-02T15:20:58Z</time>
      </trkpt>
      <trkpt lat="43.84733" lon="5.67388">
        <ele>602.557</ele>
        <time>2021-01-02T15:20:56Z</time>
      </trkpt>
      <trkpt lat="43.84733" lon="5.674">
        <ele>602.334</ele>
        <time>2021-01-02T15:20:54Z</time>
      </trkpt>
      <trkpt lat="43.84733" lon="5.6741">
        <ele>602.159</ele>
        <time>2021-01-02T15:20:52Z</time>
      </trkpt>
      <trkpt lat="43.84734" lon="5.67419">
        <ele>601.957</ele>
        <time>2021-01-02T15:20:50Z</time>
      </trkpt>
      <trkpt lat="43.84734" lon="5.67429">
        <ele>601.957</ele>
        <time>2021-01-02T15:20:48Z</time>
      </trkpt>
      <trkpt lat="43.84733" lon="5.67441">
        <ele>602.087</ele>
        <time>2021-01-02T15:20:46Z</time>
      </trkpt>
      <trkpt lat="43.84731" lon="5.67451">
        <ele>602.008</ele>
        <time>2021-01-02T15:20:44Z</time>
      </trkpt>
      <trkpt lat="43.8473" lon="5.67458">
        <ele>602.115</ele>
        <time>2021-01-02T15:20:43Z</time>
      </trkpt>
      <trkpt lat="43.84726" lon="5.67469">
        <ele>602.105</ele>
        <time>2021-01-02T15:20:41Z</time>
      </trkpt>
      <trkpt lat="43.84723" lon="5.67477">
        <ele>602.144</ele>
        <time>2021-01-02T15:20:39Z</time>
      </trkpt>
      <trkpt lat="43.84721" lon="5.67484">
        <ele>602.074</ele>
        <time>2021-01-02T15:20:37Z</time>
      </trkpt>
      <trkpt lat="43.84718" lon="5.67491">
        <ele>601.971</ele>
        <time>2021-01-02T15:20:34Z</time>
      </trkpt>
      <trkpt lat="43.84714" lon="5.67497">
        <ele>601.816</ele>
        <time>2021-01-02T15:20:32Z</time>
      </trkpt>
      <trkpt lat="43.8471" lon="5.67506">
        <ele>601.774</ele>
        <time>2021-01-02T15:20:30Z</time>
      </trkpt>
      <trkpt lat="43.84706" lon="5.67515">
        <ele>601.621</ele>
        <time>2021-01-02T15:20:28Z</time>
      </trkpt>
      <trkpt lat="43.84702" lon="5.67526">
        <ele>601.464</ele>
        <time>2021-01-02T15:20:26Z</time>
      </trkpt>
      <trkpt lat="43.84699" lon="5.67535">
        <ele>601.374</ele>
        <time>2021-01-02T15:20:24Z</time>
      </trkpt>
      <trkpt lat="43.84695" lon="5.67545">
        <ele>601.277</ele>
        <time>2021-01-02T15:20:22Z</time>
      </trkpt>
      <trkpt lat="43.84693" lon="5.67555">
        <ele>601.208</ele>
        <time>2021-01-02T15:20:20Z</time>
      </trkpt>
      <trkpt lat="43.84691" lon="5.67561">
        <ele>601.317</ele>
        <time>2021-01-02T15:20:19Z</time>
      </trkpt>
      <trkpt lat="43.84689" lon="5.67572">
        <ele>601.418</ele>
        <time>2021-01-02T15:20:17Z</time>
      </trkpt>
      <trkpt lat="43.84688" lon="5.67583">
        <ele>601.785</ele>
        <time>2021-01-02T15:20:15Z</time>
      </trkpt>
      <trkpt lat="43.84686" lon="5.67594">
        <ele>602.08</ele>
        <time>2021-01-02T15:20:13Z</time>
      </trkpt>
      <trkpt lat="43.84683" lon="5.67604">
        <ele>602.348</ele>
        <time>2021-01-02T15:20:11Z</time>
      </trkpt>
      <trkpt lat="43.84683" lon="5.67613">
        <ele>602.495</ele>
        <time>2021-01-02T15:20:09Z</time>
      </trkpt>
      <trkpt lat="43.84683" lon="5.67623">
        <ele>602.528</ele>
        <time>2021-01-02T15:20:07Z</time>
      </trkpt>
      <trkpt lat="43.84681" lon="5.67634">
        <ele>602.658</ele>
        <time>2021-01-02T15:20:05Z</time>
      </trkpt>
      <trkpt lat="43.84679" lon="5.67643">
        <ele>602.991</ele>
        <time>2021-01-02T15:20:03Z</time>
      </trkpt>
      <trkpt lat="43.84678" lon="5.67652">
        <ele>603.108</ele>
        <time>2021-01-02T15:20:01Z</time>
      </trkpt>
      <trkpt lat="43.84675" lon="5.67662">
        <ele>603.2</ele>
        <time>2021-01-02T15:19:59Z</time>
      </trkpt>
      <trkpt lat="43.84673" lon="5.67667">
        <ele>603.357</ele>
        <time>2021-01-02T15:19:58Z</time>
      </trkpt>
      <trkpt lat="43.84669" lon="5.67679">
        <ele>603.347</ele>
        <time>2021-01-02T15:19:56Z</time>
      </trkpt>
      <trkpt lat="43.84666" lon="5.6769">
        <ele>603.319</ele>
        <time>2021-01-02T15:19:54Z</time>
      </trkpt>
      <trkpt lat="43.84663" lon="5.67699">
        <ele>603.267</ele>
        <time>2021-01-02T15:19:52Z</time>
      </trkpt>
      <trkpt lat="43.84661" lon="5.67709">
        <ele>603.244</ele>
        <time>2021-01-02T15:19:50Z</time>
      </trkpt>
      <trkpt lat="43.8466" lon="5.67718">
        <ele>603.397</ele>
        <time>2021-01-02T15:19:48Z</time>
      </trkpt>
      <trkpt lat="43.84658" lon="5.67727">
        <ele>603.547</ele>
        <time>2021-01-02T15:19:46Z</time>
      </trkpt>
      <trkpt lat="43.84658" lon="5.67737">
        <ele>603.99</ele>
        <time>2021-01-02T15:19:44Z</time>
      </trkpt>
      <trkpt lat="43.84656" lon="5.67748">
        <ele>604.408</ele>
        <time>2021-01-02T15:19:42Z</time>
      </trkpt>
      <trkpt lat="43.84653" lon="5.67758">
        <ele>604.822</ele>
        <time>2021-01-02T15:19:40Z</time>
      </trkpt>
      <trkpt lat="43.84649" lon="5.67767">
        <ele>605.202</ele>
        <time>2021-01-02T15:19:38Z</time>
      </trkpt>
      <trkpt lat="43.84647" lon="5.67776">
        <ele>605.649</ele>
        <time>2021-01-02T15:19:36Z</time>
      </trkpt>
      <trkpt lat="43.84646" lon="5.67784">
        <ele>605.921</ele>
        <time>2021-01-02T15:19:34Z</time>
      </trkpt>
      <trkpt lat="43.84645" lon="5.67792">
        <ele>606.198</ele>
        <time>2021-01-02T15:19:32Z</time>
      </trkpt>
      <trkpt lat="43.84643" lon="5.67799">
        <ele>606.533</ele>
        <time>2021-01-02T15:19:30Z</time>
      </trkpt>
      <trkpt lat="43.84638" lon="5.67805">
        <ele>607.141</ele>
        <time>2021-01-02T15:19:27Z</time>
      </trkpt>
      <trkpt lat="43.84633" lon="5.6781">
        <ele>607.568</ele>
        <time>2021-01-02T15:19:24Z</time>
      </trkpt>
      <trkpt lat="43.84631" lon="5.67816">
        <ele>607.861</ele>
        <time>2021-01-02T15:19:22Z</time>
      </trkpt>
      <trkpt lat="43.8463" lon="5.67826">
        <ele>608.171</ele>
        <time>2021-01-02T15:19:20Z</time>
      </trkpt>
      <trkpt lat="43.84629" lon="5.67836">
        <ele>608.314</ele>
        <time>2021-01-02T15:19:18Z</time>
      </trkpt>
      <trkpt lat="43.84628" lon="5.67847">
        <ele>608.508</ele>
        <time>2021-01-02T15:19:16Z</time>
      </trkpt>
      <trkpt lat="43.84628" lon="5.6786">
        <ele>608.717</ele>
        <time>2021-01-02T15:19:14Z</time>
      </trkpt>
      <trkpt lat="43.84627" lon="5.6787">
        <ele>608.943</ele>
        <time>2021-01-02T15:19:12Z</time>
      </trkpt>
      <trkpt lat="43.84625" lon="5.67882">
        <ele>609.282</ele>
        <time>2021-01-02T15:19:10Z</time>
      </trkpt>
      <trkpt lat="43.84624" lon="5.67894">
        <ele>609.477</ele>
        <time>2021-01-02T15:19:08Z</time>
      </trkpt>
      <trkpt lat="43.84624" lon="5.67901">
        <ele>609.484</ele>
        <time>2021-01-02T15:19:07Z</time>
      </trkpt>
      <trkpt lat="43.84623" lon="5.67914">
        <ele>609.569</ele>
        <time>2021-01-02T15:19:05Z</time>
      </trkpt>
      <trkpt lat="43.84623" lon="5.67924">
        <ele>609.747</ele>
        <time>2021-01-02T15:19:03Z</time>
      </trkpt>
      <trkpt lat="43.84624" lon="5.67934">
        <ele>609.944</ele>
        <time>2021-01-02T15:19:01Z</time>
      </trkpt>
      <trkpt lat="43.84625" lon="5.67946">
        <ele>610.327</ele>
        <time>2021-01-02T15:18:59Z</time>
      </trkpt>
      <trkpt lat="43.84625" lon="5.67959">
        <ele>610.817</ele>
        <time>2021-01-02T15:18:57Z</time>
      </trkpt>
      <trkpt lat="43.84624" lon="5.67969">
        <ele>611.34</ele>
        <time>2021-01-02T15:18:55Z</time>
      </trkpt>
      <trkpt lat="43.84621" lon="5.67979">
        <ele>611.908</ele>
        <time>2021-01-02T15:18:53Z</time>
      </trkpt>
      <trkpt lat="43.84618" lon="5.67987">
        <ele>612.514</ele>
        <time>2021-01-02T15:18:51Z</time>
      </trkpt>
      <trkpt lat="43.84617" lon="5.67993">
        <ele>613.022</ele>
        <time>2021-01-02T15:18:50Z</time>
      </trkpt>
      <trkpt lat="43.84614" lon="5.68005">
        <ele>613.542</ele>
        <time>2021-01-02T15:18:48Z</time>
      </trkpt>
      <trkpt lat="43.84613" lon="5.68012">
        <ele>613.924</ele>
        <time>2021-01-02T15:18:47Z</time>
      </trkpt>
      <trkpt lat="43.84612" lon="5.68026">
        <ele>614.461</ele>
        <time>2021-01-02T15:18:45Z</time>
      </trkpt>
      <trkpt lat="43.84611" lon="5.68039">
        <ele>615.146</ele>
        <time>2021-01-02T15:18:43Z</time>
      </trkpt>
      <trkpt lat="43.8461" lon="5.68051">
        <ele>615.734</ele>
        <time>2021-01-02T15:18:41Z</time>
      </trkpt>
      <trkpt lat="43.84608" lon="5.68063">
        <ele>616.261</ele>
        <time>2021-01-02T15:18:39Z</time>
      </trkpt>
      <trkpt lat="43.84607" lon="5.6807">
        <ele>616.654</ele>
        <time>2021-01-02T15:18:38Z</time>
      </trkpt>
      <trkpt lat="43.84605" lon="5.68084">
        <ele>617.757</ele>
        <time>2021-01-02T15:18:36Z</time>
      </trkpt>
      <trkpt lat="43.84604" lon="5.68091">
        <ele>618.308</ele>
        <time>2021-01-02T15:18:35Z</time>
      </trkpt>
      <trkpt lat="43.84603" lon="5.68097">
        <ele>618.903</ele>
        <time>2021-01-02T15:18:34Z</time>
      </trkpt>
      <trkpt lat="43.84602" lon="5.68107">
        <ele>619.511</ele>
        <time>2021-01-02T15:18:32Z</time>
      </trkpt>
      <trkpt lat="43.84601" lon="5.68114">
        <ele>620.228</ele>
        <time>2021-01-02T15:18:31Z</time>
      </trkpt>
      <trkpt lat="43.846" lon="5.6812">
        <ele>620.675</ele>
        <time>2021-01-02T15:18:30Z</time>
      </trkpt>
      <trkpt lat="43.84598" lon="5.68134">
        <ele>621.02</ele>
        <time>2021-01-02T15:18:28Z</time>
      </trkpt>
      <trkpt lat="43.84597" lon="5.68142">
        <ele>621.358</ele>
        <time>2021-01-02T15:18:27Z</time>
      </trkpt>
      <trkpt lat="43.84596" lon="5.68152">
        <ele>621.795</ele>
        <time>2021-01-02T15:18:25Z</time>
      </trkpt>
      <trkpt lat="43.84596" lon="5.6816">
        <ele>622.228</ele>
        <time>2021-01-02T15:18:24Z</time>
      </trkpt>
      <trkpt lat="43.84595" lon="5.68171">
        <ele>622.761</ele>
        <time>2021-01-02T15:18:22Z</time>
      </trkpt>
      <trkpt lat="43.84593" lon="5.68183">
        <ele>623.408</ele>
        <time>2021-01-02T15:18:20Z</time>
      </trkpt>
      <trkpt lat="43.8459" lon="5.68197">
        <ele>623.811</ele>
        <time>2021-01-02T15:18:18Z</time>
      </trkpt>
      <trkpt lat="43.84588" lon="5.68211">
        <ele>624.001</ele>
        <time>2021-01-02T15:18:16Z</time>
      </trkpt>
      <trkpt lat="43.84587" lon="5.68218">
        <ele>624.251</ele>
        <time>2021-01-02T15:18:15Z</time>
      </trkpt>
      <trkpt lat="43.84586" lon="5.68231">
        <ele>624.548</ele>
        <time>2021-01-02T15:18:13Z</time>
        <extensions>
          <visugpx:TrkExtension xmlns:visugpx="https://www.visugpx.com/editgpx/">
            <visugpx:node>2</visugpx:node>
            </visugpx:TrkExtension>
        </extensions>
      </trkpt>
      <trkpt lat="43.8458" lon="5.68358">
        <ele>635</ele>
        <extensions>
          <visugpx:TrkExtension xmlns:visugpx="https://www.visugpx.com/editgpx/">
            <visugpx:node>7</visugpx:node>
            </visugpx:TrkExtension>
        </extensions>
      </trkpt>
      <trkpt lat="43.84579" lon="5.68404">
        <ele>633.5</ele>
      </trkpt>
      <trkpt lat="43.84571" lon="5.68472">
        <ele>630.7</ele>
      </trkpt>
      <trkpt lat="43.84525" lon="5.68719">
        <ele>621</ele>
      </trkpt>
      <trkpt lat="43.84518" lon="5.68745">
        <ele>618.9</ele>
      </trkpt>
      <trkpt lat="43.84509" lon="5.68764">
        <ele>618.5</ele>
      </trkpt>
      <trkpt lat="43.84498" lon="5.68775">
        <ele>619.1</ele>
      </trkpt>
      <trkpt lat="43.84487" lon="5.68778">
        <ele>617.5</ele>
      </trkpt>
      <trkpt lat="43.84474" lon="5.68777">
        <ele>616.4</ele>
      </trkpt>
      <trkpt lat="43.84405" lon="5.68755">
        <ele>613.8</ele>
      </trkpt>
      <trkpt lat="43.84389" lon="5.68758">
        <ele>612.7</ele>
      </trkpt>
      <trkpt lat="43.84379" lon="5.68768">
        <ele>612.8</ele>
      </trkpt>
      <trkpt lat="43.84374" lon="5.68785">
        <ele>612.3</ele>
      </trkpt>
      <trkpt lat="43.84377" lon="5.68807">
        <ele>611.3</ele>
      </trkpt>
      <trkpt lat="43.84385" lon="5.68821">
        <ele>610.4</ele>
      </trkpt>
      <trkpt lat="43.84388" lon="5.68825">
        <ele>610.1</ele>
      </trkpt>
      <trkpt lat="43.84384" lon="5.68829">
        <ele>610.5</ele>
      </trkpt>
      <trkpt lat="43.84384" lon="5.68832">
        <ele>610.5</ele>
      </trkpt>
      <trkpt lat="43.84382" lon="5.68838">
        <ele>610.9</ele>
      </trkpt>
      <trkpt lat="43.84383" lon="5.68845">
        <ele>611.1</ele>
      </trkpt>
      <trkpt lat="43.84386" lon="5.68859">
        <ele>611.2</ele>
      </trkpt>
      <trkpt lat="43.84396" lon="5.68875">
        <ele>611.6</ele>
      </trkpt>
      <trkpt lat="43.84402" lon="5.68882">
        <ele>611.7</ele>
      </trkpt>
      <trkpt lat="43.84429" lon="5.68902">
        <ele>611.5</ele>
      </trkpt>
      <trkpt lat="43.84439" lon="5.68916">
        <ele>612.4</ele>
      </trkpt>
      <trkpt lat="43.84443" lon="5.68927">
        <ele>612.2</ele>
      </trkpt>
      <trkpt lat="43.8445" lon="5.68961">
        <ele>612.2</ele>
      </trkpt>
      <trkpt lat="43.84453" lon="5.68977">
        <ele>612.6</ele>
      </trkpt>
      <trkpt lat="43.84455" lon="5.69">
        <ele>614</ele>
      </trkpt>
      <trkpt lat="43.84458" lon="5.69031">
        <ele>615.7</ele>
      </trkpt>
      <trkpt lat="43.84455" lon="5.69076">
        <ele>617.3</ele>
      </trkpt>
      <trkpt lat="43.84441" lon="5.6916">
        <ele>622.4</ele>
      </trkpt>
      <trkpt lat="43.84439" lon="5.69179">
        <ele>623.2</ele>
      </trkpt>
      <trkpt lat="43.84438" lon="5.69219">
        <ele>624.4</ele>
      </trkpt>
      <trkpt lat="43.84439" lon="5.69349">
        <ele>631.2</ele>
      </trkpt>
      <trkpt lat="43.84438" lon="5.69406">
        <ele>634.5</ele>
      </trkpt>
      <trkpt lat="43.84428" lon="5.69572">
        <ele>640.6</ele>
      </trkpt>
      <trkpt lat="43.84427" lon="5.6961">
        <ele>642</ele>
      </trkpt>
      <trkpt lat="43.84428" lon="5.697">
        <ele>646.4</ele>
      </trkpt>
      <trkpt lat="43.84426" lon="5.69731">
        <ele>648.2</ele>
      </trkpt>
      <trkpt lat="43.84424" lon="5.69738">
        <ele>648.7</ele>
      </trkpt>
      <trkpt lat="43.84423" lon="5.69748">
        <ele>649.1</ele>
      </trkpt>
      <trkpt lat="43.84421" lon="5.69755">
        <ele>649.4</ele>
      </trkpt>
      <trkpt lat="43.84417" lon="5.69774">
        <ele>649.1</ele>
      </trkpt>
      <trkpt lat="43.84401" lon="5.6983">
        <ele>648</ele>
      </trkpt>
      <trkpt lat="43.84398" lon="5.69846">
        <ele>648</ele>
      </trkpt>
      <trkpt lat="43.84394" lon="5.69902">
        <ele>647</ele>
      </trkpt>
      <trkpt lat="43.8439" lon="5.69937">
        <ele>645.4</ele>
      </trkpt>
      <trkpt lat="43.84383" lon="5.6997">
        <ele>644.9</ele>
      </trkpt>
      <trkpt lat="43.84369" lon="5.70005">
        <ele>645</ele>
      </trkpt>
      <trkpt lat="43.84356" lon="5.70032">
        <ele>642.8</ele>
      </trkpt>
      <trkpt lat="43.84349" lon="5.70059">
        <ele>643.6</ele>
      </trkpt>
      <trkpt lat="43.84346" lon="5.70081">
        <ele>643.8</ele>
      </trkpt>
      <trkpt lat="43.84348" lon="5.70126">
        <ele>643.3</ele>
      </trkpt>
      <trkpt lat="43.84361" lon="5.70223">
        <ele>643.9</ele>
      </trkpt>
      <trkpt lat="43.84366" lon="5.70327">
        <ele>647.5</ele>
      </trkpt>
      <trkpt lat="43.84371" lon="5.70357">
        <ele>647.7</ele>
      </trkpt>
      <trkpt lat="43.84391" lon="5.70429">
        <ele>649.3</ele>
      </trkpt>
      <trkpt lat="43.84503" lon="5.70761">
        <ele>649</ele>
      </trkpt>
      <trkpt lat="43.8451" lon="5.70786">
        <ele>649</ele>
      </trkpt>
      <trkpt lat="43.84517" lon="5.70838">
        <ele>647.9</ele>
      </trkpt>
      <trkpt lat="43.84523" lon="5.70863">
        <ele>647.7</ele>
      </trkpt>
      <trkpt lat="43.84532" lon="5.70881">
        <ele>648.1</ele>
      </trkpt>
      <trkpt lat="43.84541" lon="5.70895">
        <ele>647.5</ele>
      </trkpt>
      <trkpt lat="43.84556" lon="5.70907">
        <ele>648.1</ele>
      </trkpt>
      <trkpt lat="43.84591" lon="5.7093">
        <ele>649.7</ele>
      </trkpt>
      <trkpt lat="43.84603" lon="5.70942">
        <ele>649.9</ele>
      </trkpt>
      <trkpt lat="43.84612" lon="5.70954">
        <ele>650.1</ele>
      </trkpt>
      <trkpt lat="43.84623" lon="5.70972">
        <ele>650.2</ele>
      </trkpt>
      <trkpt lat="43.84644" lon="5.71026">
        <ele>651.1</ele>
      </trkpt>
      <trkpt lat="43.84658" lon="5.71051">
        <ele>649.8</ele>
      </trkpt>
      <trkpt lat="43.84673" lon="5.71072">
        <ele>649</ele>
      </trkpt>
      <trkpt lat="43.84693" lon="5.71095">
        <ele>648.4</ele>
      </trkpt>
      <trkpt lat="43.84707" lon="5.7112">
        <ele>647</ele>
      </trkpt>
      <trkpt lat="43.84734" lon="5.71187">
        <ele>644.6</ele>
      </trkpt>
      <trkpt lat="43.84759" lon="5.71257">
        <ele>640.4</ele>
      </trkpt>
      <trkpt lat="43.84763" lon="5.71275">
        <ele>639.2</ele>
      </trkpt>
      <trkpt lat="43.8477" lon="5.71318">
        <ele>638.6</ele>
      </trkpt>
      <trkpt lat="43.84776" lon="5.71371">
        <ele>637.1</ele>
      </trkpt>
      <trkpt lat="43.84779" lon="5.7141">
        <ele>637.3</ele>
      </trkpt>
      <trkpt lat="43.84781" lon="5.7143">
        <ele>636.7</ele>
      </trkpt>
      <trkpt lat="43.84785" lon="5.71442">
        <ele>636.3</ele>
      </trkpt>
      <trkpt lat="43.84793" lon="5.7146">
        <ele>635</ele>
      </trkpt>
      <trkpt lat="43.84841" lon="5.71545">
        <ele>632.3</ele>
      </trkpt>
      <trkpt lat="43.8485" lon="5.71565">
        <ele>631.4</ele>
      </trkpt>
      <trkpt lat="43.84879" lon="5.71674">
        <ele>631.1</ele>
      </trkpt>
      <trkpt lat="43.8488" lon="5.71689">
        <ele>630.4</ele>
      </trkpt>
      <trkpt lat="43.84877" lon="5.71708">
        <ele>629.4</ele>
      </trkpt>
      <trkpt lat="43.84863" lon="5.71765">
        <ele>626.1</ele>
      </trkpt>
      <trkpt lat="43.8486" lon="5.71787">
        <ele>625.4</ele>
      </trkpt>
      <trkpt lat="43.8486" lon="5.71808">
        <ele>624.7</ele>
      </trkpt>
      <trkpt lat="43.8488" lon="5.71929">
        <ele>618.3</ele>
      </trkpt>
      <trkpt lat="43.84884" lon="5.71938">
        <ele>618</ele>
      </trkpt>
      <trkpt lat="43.84898" lon="5.71958">
        <ele>617.7</ele>
      </trkpt>
      <trkpt lat="43.84985" lon="5.72045">
        <ele>613.9</ele>
      </trkpt>
      <trkpt lat="43.84995" lon="5.72058">
        <ele>613.7</ele>
      </trkpt>
      <trkpt lat="43.85001" lon="5.72072">
        <ele>612.8</ele>
      </trkpt>
      <trkpt lat="43.85005" lon="5.72086">
        <ele>611.9</ele>
      </trkpt>
      <trkpt lat="43.85018" lon="5.72155">
        <ele>609.2</ele>
      </trkpt>
      <trkpt lat="43.85026" lon="5.72176">
        <ele>609.7</ele>
      </trkpt>
      <trkpt lat="43.85033" lon="5.7219">
        <ele>609.1</ele>
      </trkpt>
      <trkpt lat="43.85038" lon="5.72198">
        <ele>608.8</ele>
      </trkpt>
      <trkpt lat="43.85051" lon="5.7222">
        <ele>607.9</ele>
      </trkpt>
      <trkpt lat="43.85064" lon="5.72235">
        <ele>607.4</ele>
      </trkpt>
      <trkpt lat="43.8509" lon="5.72255">
        <ele>607</ele>
      </trkpt>
      <trkpt lat="43.85101" lon="5.72268">
        <ele>606.7</ele>
      </trkpt>
      <trkpt lat="43.85117" lon="5.7229">
        <ele>605.8</ele>
      </trkpt>
      <trkpt lat="43.85124" lon="5.72299">
        <ele>605.2</ele>
      </trkpt>
      <trkpt lat="43.85135" lon="5.72309">
        <ele>605.2</ele>
      </trkpt>
      <trkpt lat="43.85158" lon="5.72323">
        <ele>604.8</ele>
      </trkpt>
      <trkpt lat="43.85167" lon="5.72335">
        <ele>603.9</ele>
      </trkpt>
      <trkpt lat="43.85173" lon="5.72352">
        <ele>602.7</ele>
      </trkpt>
      <trkpt lat="43.85179" lon="5.72375">
        <ele>601</ele>
      </trkpt>
      <trkpt lat="43.85183" lon="5.7239">
        <ele>600.5</ele>
      </trkpt>
      <trkpt lat="43.85203" lon="5.7247">
        <ele>600.4</ele>
      </trkpt>
      <trkpt lat="43.85209" lon="5.72484">
        <ele>600</ele>
      </trkpt>
      <trkpt lat="43.85217" lon="5.72496">
        <ele>599.8</ele>
      </trkpt>
      <trkpt lat="43.85228" lon="5.72505">
        <ele>599.3</ele>
      </trkpt>
      <trkpt lat="43.85273" lon="5.72525">
        <ele>597.3</ele>
      </trkpt>
      <trkpt lat="43.85279" lon="5.72529">
        <ele>596.9</ele>
      </trkpt>
      <trkpt lat="43.85283" lon="5.72535">
        <ele>596.2</ele>
      </trkpt>
      <trkpt lat="43.85287" lon="5.72545">
        <ele>595.2</ele>
      </trkpt>
      <trkpt lat="43.85289" lon="5.72566">
        <ele>593.8</ele>
      </trkpt>
      <trkpt lat="43.85288" lon="5.72579">
        <ele>593.4</ele>
      </trkpt>
      <trkpt lat="43.85285" lon="5.72592">
        <ele>593.2</ele>
      </trkpt>
      <trkpt lat="43.85281" lon="5.72602">
        <ele>593.1</ele>
      </trkpt>
      <trkpt lat="43.85275" lon="5.72608">
        <ele>592.9</ele>
      </trkpt>
      <trkpt lat="43.85268" lon="5.7261">
        <ele>592.3</ele>
      </trkpt>
      <trkpt lat="43.85238" lon="5.72605">
        <ele>589.7</ele>
      </trkpt>
      <trkpt lat="43.85233" lon="5.72608">
        <ele>589.2</ele>
      </trkpt>
      <trkpt lat="43.85228" lon="5.72617">
        <ele>588.4</ele>
      </trkpt>
      <trkpt lat="43.85227" lon="5.72629">
        <ele>587.8</ele>
      </trkpt>
      <trkpt lat="43.8523" lon="5.7264">
        <ele>587.5</ele>
      </trkpt>
      <trkpt lat="43.85234" lon="5.72648">
        <ele>587.1</ele>
      </trkpt>
      <trkpt lat="43.85277" lon="5.72693">
        <ele>584</ele>
      </trkpt>
      <trkpt lat="43.85288" lon="5.72709">
        <ele>582.6</ele>
      </trkpt>
      <trkpt lat="43.85293" lon="5.7272">
        <ele>582.1</ele>
      </trkpt>
      <trkpt lat="43.85295" lon="5.72734">
        <ele>581.4</ele>
      </trkpt>
      <trkpt lat="43.85293" lon="5.7275">
        <ele>580.5</ele>
      </trkpt>
      <trkpt lat="43.85278" lon="5.72815">
        <ele>580</ele>
      </trkpt>
      <trkpt lat="43.8527" lon="5.72852">
        <ele>579.7</ele>
      </trkpt>
      <trkpt lat="43.85268" lon="5.72857">
        <ele>579.6</ele>
      </trkpt>
      <trkpt lat="43.85271" lon="5.72857">
        <ele>579.8</ele>
      </trkpt>
      <trkpt lat="43.85373" lon="5.72852">
        <ele>580.1</ele>
      </trkpt>
      <trkpt lat="43.85423" lon="5.72849">
        <ele>577.8</ele>
      </trkpt>
      <trkpt lat="43.85448" lon="5.72844">
        <ele>576.2</ele>
      </trkpt>
      <trkpt lat="43.85531" lon="5.72811">
        <ele>572.7</ele>
      </trkpt>
      <trkpt lat="43.85543" lon="5.7281">
        <ele>572.1</ele>
      </trkpt>
      <trkpt lat="43.85582" lon="5.72813">
        <ele>569.7</ele>
      </trkpt>
      <trkpt lat="43.8568" lon="5.72795">
        <ele>564</ele>
      </trkpt>
      <trkpt lat="43.85747" lon="5.728">
        <ele>559.9</ele>
      </trkpt>
      <trkpt lat="43.85789" lon="5.72801">
        <ele>558.5</ele>
      </trkpt>
      <trkpt lat="43.85846" lon="5.72808">
        <ele>554.2</ele>
      </trkpt>
      <trkpt lat="43.85914" lon="5.72807">
        <ele>551.5</ele>
      </trkpt>
      <trkpt lat="43.85969" lon="5.72788">
        <ele>548.7</ele>
      </trkpt>
      <trkpt lat="43.85997" lon="5.72782">
        <ele>546</ele>
      </trkpt>
      <trkpt lat="43.8604" lon="5.72777">
        <ele>544</ele>
      </trkpt>
      <trkpt lat="43.86082" lon="5.72777">
        <ele>541.8</ele>
      </trkpt>
      <trkpt lat="43.8611" lon="5.72775">
        <ele>539.6</ele>
      </trkpt>
      <trkpt lat="43.86135" lon="5.72767">
        <ele>538.4</ele>
      </trkpt>
      <trkpt lat="43.86157" lon="5.72755">
        <ele>536.8</ele>
      </trkpt>
      <trkpt lat="43.86166" lon="5.72753">
        <ele>536.5</ele>
      </trkpt>
      <trkpt lat="43.86176" lon="5.72756">
        <ele>535.5</ele>
      </trkpt>
      <trkpt lat="43.86206" lon="5.72773">
        <ele>534.2</ele>
      </trkpt>
      <trkpt lat="43.86238" lon="5.72783">
        <ele>532.3</ele>
      </trkpt>
      <trkpt lat="43.86248" lon="5.72789">
        <ele>531.6</ele>
      </trkpt>
      <trkpt lat="43.86351" lon="5.72883">
        <ele>526.5</ele>
      </trkpt>
      <trkpt lat="43.86374" lon="5.729">
        <ele>522.3</ele>
      </trkpt>
      <trkpt lat="43.86387" lon="5.72905">
        <ele>520.8</ele>
      </trkpt>
      <trkpt lat="43.86414" lon="5.72906">
        <ele>525</ele>
      </trkpt>
      <trkpt lat="43.86474" lon="5.72898">
        <ele>524</ele>
      </trkpt>
      <trkpt lat="43.86536" lon="5.72893">
        <ele>521.8</ele>
      </trkpt>
      <trkpt lat="43.8658" lon="5.72885">
        <ele>518.4</ele>
      </trkpt>
      <trkpt lat="43.86592" lon="5.72884">
        <ele>517.5</ele>
      </trkpt>
      <trkpt lat="43.86606" lon="5.72886">
        <ele>517.3</ele>
      </trkpt>
      <trkpt lat="43.86618" lon="5.72891">
        <ele>516.4</ele>
      </trkpt>
      <trkpt lat="43.86631" lon="5.729">
        <ele>514.9</ele>
      </trkpt>
      <trkpt lat="43.86641" lon="5.72911">
        <ele>514.6</ele>
      </trkpt>
      <trkpt lat="43.86666" lon="5.72952">
        <ele>513.1</ele>
      </trkpt>
      <trkpt lat="43.86674" lon="5.72952">
        <ele>512.8</ele>
      </trkpt>
      <trkpt lat="43.86677" lon="5.72952">
        <ele>512.8</ele>
      </trkpt>
      <trkpt lat="43.86685" lon="5.72951">
        <ele>512.7</ele>
      </trkpt>
      <trkpt lat="43.86707" lon="5.72932">
        <ele>511.2</ele>
      </trkpt>
      <trkpt lat="43.86715" lon="5.72916">
        <ele>511.8</ele>
      </trkpt>
      <trkpt lat="43.86715" lon="5.72906">
        <ele>512.8</ele>
      </trkpt>
      <trkpt lat="43.86712" lon="5.72895">
        <ele>512.8</ele>
      </trkpt>
      <trkpt lat="43.86706" lon="5.72884">
        <ele>511</ele>
      </trkpt>
      <trkpt lat="43.86668" lon="5.7282">
        <ele>503.9</ele>
      </trkpt>
      <trkpt lat="43.86665" lon="5.7281">
        <ele>502.5</ele>
      </trkpt>
      <trkpt lat="43.86665" lon="5.72801">
        <ele>502.1</ele>
      </trkpt>
      <trkpt lat="43.86669" lon="5.72793">
        <ele>502.4</ele>
      </trkpt>
      <trkpt lat="43.86675" lon="5.72787">
        <ele>502.3</ele>
      </trkpt>
      <trkpt lat="43.86684" lon="5.72783">
        <ele>502.1</ele>
      </trkpt>
      <trkpt lat="43.86703" lon="5.72779">
        <ele>500.7</ele>
      </trkpt>
      <trkpt lat="43.86717" lon="5.72779">
        <ele>499.7</ele>
      </trkpt>
      <trkpt lat="43.86724" lon="5.7278">
        <ele>499.4</ele>
      </trkpt>
      <trkpt lat="43.8673" lon="5.72787">
        <ele>500.5</ele>
      </trkpt>
      <trkpt lat="43.86739" lon="5.72794">
        <ele>501.3</ele>
      </trkpt>
      <trkpt lat="43.86821" lon="5.72836">
        <ele>504</ele>
      </trkpt>
      <trkpt lat="43.8683" lon="5.72838">
        <ele>504.7</ele>
      </trkpt>
      <trkpt lat="43.86863" lon="5.72838">
        <ele>504.3</ele>
      </trkpt>
      <trkpt lat="43.86884" lon="5.7284">
        <ele>504.8</ele>
      </trkpt>
      <trkpt lat="43.86904" lon="5.7285">
        <ele>504.5</ele>
      </trkpt>
      <trkpt lat="43.86987" lon="5.72914">
        <ele>509.8</ele>
      </trkpt>
      <trkpt lat="43.87046" lon="5.72956">
        <ele>511</ele>
      </trkpt>
      <trkpt lat="43.87054" lon="5.72964">
        <ele>510.9</ele>
      </trkpt>
      <trkpt lat="43.8706" lon="5.72973">
        <ele>510.8</ele>
      </trkpt>
      <trkpt lat="43.87065" lon="5.72985">
        <ele>510.7</ele>
      </trkpt>
      <trkpt lat="43.87068" lon="5.72999">
        <ele>511</ele>
      </trkpt>
      <trkpt lat="43.8707" lon="5.7303">
        <ele>511.8</ele>
      </trkpt>
      <trkpt lat="43.87073" lon="5.73098">
        <ele>513.2</ele>
      </trkpt>
      <trkpt lat="43.87072" lon="5.73114">
        <ele>513.3</ele>
      </trkpt>
      <trkpt lat="43.87064" lon="5.73145">
        <ele>513.1</ele>
      </trkpt>
      <trkpt lat="43.87049" lon="5.73187">
        <ele>514.9</ele>
      </trkpt>
      <trkpt lat="43.87036" lon="5.73211">
        <ele>514.4</ele>
      </trkpt>
      <trkpt lat="43.87027" lon="5.7322">
        <ele>514.9</ele>
      </trkpt>
      <trkpt lat="43.86989" lon="5.73247">
        <ele>516.4</ele>
      </trkpt>
      <trkpt lat="43.86981" lon="5.73255">
        <ele>516.3</ele>
      </trkpt>
      <trkpt lat="43.86973" lon="5.73264">
        <ele>516.9</ele>
      </trkpt>
      <trkpt lat="43.86967" lon="5.73275">
        <ele>517.2</ele>
      </trkpt>
      <trkpt lat="43.86962" lon="5.73288">
        <ele>517.6</ele>
      </trkpt>
      <trkpt lat="43.8696" lon="5.73303">
        <ele>518</ele>
      </trkpt>
      <trkpt lat="43.86958" lon="5.7335">
        <ele>520.7</ele>
      </trkpt>
      <trkpt lat="43.86952" lon="5.73406">
        <ele>521.1</ele>
      </trkpt>
      <trkpt lat="43.86952" lon="5.73431">
        <ele>519.8</ele>
      </trkpt>
      <trkpt lat="43.86955" lon="5.73443">
        <ele>518.7</ele>
      </trkpt>
      <trkpt lat="43.86964" lon="5.73464">
        <ele>518.1</ele>
      </trkpt>
      <trkpt lat="43.86974" lon="5.73481">
        <ele>521.6</ele>
      </trkpt>
      <trkpt lat="43.8698" lon="5.73486">
        <ele>523.1</ele>
      </trkpt>
      <trkpt lat="43.86987" lon="5.73488">
        <ele>523.6</ele>
      </trkpt>
      <trkpt lat="43.86994" lon="5.73485">
        <ele>523.2</ele>
      </trkpt>
      <trkpt lat="43.87" lon="5.73478">
        <ele>522.6</ele>
      </trkpt>
      <trkpt lat="43.87019" lon="5.73446">
        <ele>524.6</ele>
      </trkpt>
      <trkpt lat="43.87035" lon="5.73424">
        <ele>526.2</ele>
      </trkpt>
      <trkpt lat="43.87069" lon="5.7339">
        <ele>530.5</ele>
      </trkpt>
      <trkpt lat="43.87076" lon="5.7338">
        <ele>531.4</ele>
      </trkpt>
      <trkpt lat="43.87099" lon="5.73333">
        <ele>534.9</ele>
      </trkpt>
      <trkpt lat="43.87112" lon="5.73311">
        <ele>535.9</ele>
      </trkpt>
      <trkpt lat="43.8712" lon="5.73303">
        <ele>536.3</ele>
      </trkpt>
      <trkpt lat="43.87138" lon="5.73291">
        <ele>538.5</ele>
      </trkpt>
      <trkpt lat="43.87157" lon="5.73284">
        <ele>538.8</ele>
      </trkpt>
      <trkpt lat="43.87167" lon="5.73283">
        <ele>539.9</ele>
      </trkpt>
      <trkpt lat="43.87178" lon="5.73284">
        <ele>539.8</ele>
      </trkpt>
      <trkpt lat="43.87231" lon="5.73306">
        <ele>544.2</ele>
      </trkpt>
      <trkpt lat="43.87274" lon="5.73311">
        <ele>546.5</ele>
      </trkpt>
      <trkpt lat="43.87306" lon="5.73321">
        <ele>549.8</ele>
      </trkpt>
      <trkpt lat="43.87327" lon="5.73322">
        <ele>551.8</ele>
      </trkpt>
      <trkpt lat="43.87347" lon="5.73318">
        <ele>552.8</ele>
      </trkpt>
      <trkpt lat="43.87355" lon="5.73314">
        <ele>553.1</ele>
      </trkpt>
      <trkpt lat="43.87369" lon="5.73305">
        <ele>552.4</ele>
      </trkpt>
      <trkpt lat="43.87376" lon="5.73299">
        <ele>551.7</ele>
      </trkpt>
      <trkpt lat="43.87386" lon="5.73284">
        <ele>551</ele>
      </trkpt>
      <trkpt lat="43.87394" lon="5.73268">
        <ele>550.7</ele>
      </trkpt>
      <trkpt lat="43.87402" lon="5.73259">
        <ele>550.4</ele>
      </trkpt>
      <trkpt lat="43.87407" lon="5.73259">
        <ele>550.1</ele>
      </trkpt>
      <trkpt lat="43.87411" lon="5.73262">
        <ele>549.9</ele>
      </trkpt>
      <trkpt lat="43.87419" lon="5.73273">
        <ele>548.9</ele>
      </trkpt>
      <trkpt lat="43.87423" lon="5.7328">
        <ele>548.4</ele>
      </trkpt>
      <trkpt lat="43.87428" lon="5.7329">
        <ele>548.4</ele>
      </trkpt>
      <trkpt lat="43.8742" lon="5.7331">
        <ele>549.9</ele>
      </trkpt>
      <trkpt lat="43.87416" lon="5.7332">
        <ele>550.5</ele>
      </trkpt>
      <trkpt lat="43.8741" lon="5.73333">
        <ele>551</ele>
      </trkpt>
      <trkpt lat="43.87407" lon="5.73339">
        <ele>551.1</ele>
      </trkpt>
      <trkpt lat="43.87364" lon="5.73441">
        <ele>556.9</ele>
      </trkpt>
      <trkpt lat="43.87355" lon="5.73467">
        <ele>559.4</ele>
      </trkpt>
      <trkpt lat="43.87347" lon="5.73502">
        <ele>561.1</ele>
      </trkpt>
      <trkpt lat="43.87345" lon="5.73523">
        <ele>562</ele>
      </trkpt>
      <trkpt lat="43.87347" lon="5.73536">
        <ele>562.9</ele>
      </trkpt>
      <trkpt lat="43.87352" lon="5.73551">
        <ele>564.5</ele>
      </trkpt>
      <trkpt lat="43.87361" lon="5.73561">
        <ele>565.2</ele>
      </trkpt>
      <trkpt lat="43.87371" lon="5.73572">
        <ele>565.2</ele>
      </trkpt>
      <trkpt lat="43.87327" lon="5.73581">
        <ele>568.5</ele>
      </trkpt>
      <trkpt lat="43.87313" lon="5.73584">
        <ele>570.2</ele>
      </trkpt>
      <trkpt lat="43.87304" lon="5.73583">
        <ele>571.4</ele>
      </trkpt>
      <trkpt lat="43.87295" lon="5.73578">
        <ele>573.3</ele>
      </trkpt>
      <trkpt lat="43.87288" lon="5.73569">
        <ele>574.4</ele>
      </trkpt>
      <trkpt lat="43.87279" lon="5.73546">
        <ele>575.3</ele>
      </trkpt>
      <trkpt lat="43.87278" lon="5.73539">
        <ele>575.3</ele>
      </trkpt>
      <trkpt lat="43.87274" lon="5.73506">
        <ele>576.8</ele>
      </trkpt>
      <trkpt lat="43.87269" lon="5.73465">
        <ele>579.6</ele>
      </trkpt>
      <trkpt lat="43.87266" lon="5.73453">
        <ele>580.5</ele>
      </trkpt>
      <trkpt lat="43.87261" lon="5.73442">
        <ele>581.5</ele>
      </trkpt>
      <trkpt lat="43.87254" lon="5.73436">
        <ele>582.6</ele>
      </trkpt>
      <trkpt lat="43.87237" lon="5.73428">
        <ele>585.3</ele>
      </trkpt>
      <trkpt lat="43.87214" lon="5.73422">
        <ele>588.4</ele>
      </trkpt>
      <trkpt lat="43.87192" lon="5.73422">
        <ele>590.1</ele>
      </trkpt>
      <trkpt lat="43.87184" lon="5.73424">
        <ele>589.2</ele>
      </trkpt>
      <trkpt lat="43.87177" lon="5.7343">
        <ele>589.1</ele>
      </trkpt>
      <trkpt lat="43.87172" lon="5.73436">
        <ele>589.1</ele>
      </trkpt>
      <trkpt lat="43.8717" lon="5.73445">
        <ele>590</ele>
      </trkpt>
      <trkpt lat="43.8717" lon="5.7347">
        <ele>592.4</ele>
      </trkpt>
      <trkpt lat="43.8718" lon="5.73531">
        <ele>595.8</ele>
      </trkpt>
      <trkpt lat="43.87186" lon="5.73615">
        <ele>601.5</ele>
      </trkpt>
      <trkpt lat="43.87186" lon="5.73664">
        <ele>604.5</ele>
      </trkpt>
      <trkpt lat="43.87182" lon="5.73703">
        <ele>605.9</ele>
      </trkpt>
      <trkpt lat="43.87175" lon="5.73737">
        <ele>607</ele>
      </trkpt>
      <trkpt lat="43.87119" lon="5.73926">
        <ele>610.7</ele>
      </trkpt>
      <trkpt lat="43.87091" lon="5.73982">
        <ele>611.7</ele>
      </trkpt>
      <trkpt lat="43.87089" lon="5.7399">
        <ele>611.5</ele>
      </trkpt>
      <trkpt lat="43.87088" lon="5.73997">
        <ele>611.4</ele>
      </trkpt>
      <trkpt lat="43.87114" lon="5.73998">
        <ele>613.1</ele>
        <extensions>
          <visugpx:TrkExtension xmlns:visugpx="https://www.visugpx.com/editgpx/">
            <visugpx:node>6</visugpx:node>
            </visugpx:TrkExtension>
        </extensions>
      </trkpt>
      <trkpt lat="43.87121" lon="5.73998">
        <ele>613.1</ele>
      </trkpt>
      <trkpt lat="43.87147" lon="5.73991">
        <ele>615.3</ele>
      </trkpt>
      <trkpt lat="43.87178" lon="5.73992">
        <ele>619.2</ele>
      </trkpt>
      <trkpt lat="43.87208" lon="5.73998">
        <ele>619.9</ele>
      </trkpt>
      <trkpt lat="43.87223" lon="5.73991">
        <ele>620.2</ele>
      </trkpt>
      <trkpt lat="43.87247" lon="5.73984">
        <ele>619.4</ele>
      </trkpt>
      <trkpt lat="43.87281" lon="5.73984">
        <ele>620.9</ele>
      </trkpt>
      <trkpt lat="43.87329" lon="5.73987">
        <ele>624.7</ele>
      </trkpt>
      <trkpt lat="43.87398" lon="5.73994">
        <ele>631</ele>
      </trkpt>
      <trkpt lat="43.87449" lon="5.73991">
        <ele>632.2</ele>
      </trkpt>
      <trkpt lat="43.87456" lon="5.7399">
        <ele>632.1</ele>
        <extensions>
          <visugpx:TrkExtension xmlns:visugpx="https://www.visugpx.com/editgpx/">
            <visugpx:node>5</visugpx:node>
            </visugpx:TrkExtension>
        </extensions>
      </trkpt>
      <trkpt lat="43.8748" lon="5.73989">
        <ele>632.8</ele>
      </trkpt>
      <trkpt lat="43.87514" lon="5.73987">
        <ele>637.7</ele>
      </trkpt>
      <trkpt lat="43.87534" lon="5.73974">
        <ele>641.5</ele>
      </trkpt>
      <trkpt lat="43.87627" lon="5.7396">
        <ele>638.5</ele>
      </trkpt>
      <trkpt lat="43.87669" lon="5.73953">
        <ele>632.4</ele>
        <extensions>
          <visugpx:TrkExtension xmlns:visugpx="https://www.visugpx.com/editgpx/">
            <visugpx:node>4</visugpx:node>
            </visugpx:TrkExtension>
        </extensions>
      </trkpt>
      <trkpt lat="43.87681" lon="5.73951">
        <ele>630.9</ele>
      </trkpt>
      <trkpt lat="43.87692" lon="5.73949">
        <ele>629.7</ele>
      </trkpt>
      <trkpt lat="43.87704" lon="5.73955">
        <ele>628.3</ele>
      </trkpt>
      <trkpt lat="43.87714" lon="5.73975">
        <ele>625.4</ele>
      </trkpt>
      <trkpt lat="43.87717" lon="5.73977">
        <ele>624.9</ele>
      </trkpt>
      <trkpt lat="43.8776" lon="5.74034">
        <ele>619</ele>
      </trkpt>
      <trkpt lat="43.87778" lon="5.74122">
        <ele>616.2</ele>
      </trkpt>
      <trkpt lat="43.87815" lon="5.7425">
        <ele>612.3</ele>
      </trkpt>
      <trkpt lat="43.87817" lon="5.74257">
        <ele>612.6</ele>
      </trkpt>
      <trkpt lat="43.87835" lon="5.74306">
        <ele>613.8</ele>
      </trkpt>
      <trkpt lat="43.8786" lon="5.74354">
        <ele>611</ele>
      </trkpt>
      <trkpt lat="43.87885" lon="5.74398">
        <ele>609.7</ele>
      </trkpt>
      <trkpt lat="43.87908" lon="5.74431">
        <ele>610.2</ele>
      </trkpt>
      <trkpt lat="43.87982" lon="5.74483">
        <ele>614.1</ele>
      </trkpt>
      <trkpt lat="43.8803" lon="5.74547">
        <ele>621.5</ele>
      </trkpt>
      <trkpt lat="43.88075" lon="5.74583">
        <ele>622.7</ele>
      </trkpt>
      <trkpt lat="43.88117" lon="5.74611">
        <ele>624.6</ele>
      </trkpt>
      <trkpt lat="43.88157" lon="5.74661">
        <ele>625.6</ele>
      </trkpt>
      <trkpt lat="43.88213" lon="5.74823">
        <ele>628.9</ele>
      </trkpt>
      <trkpt lat="43.88237" lon="5.74882">
        <ele>627.3</ele>
      </trkpt>
      <trkpt lat="43.88266" lon="5.74919">
        <ele>623.2</ele>
      </trkpt>
      <trkpt lat="43.88318" lon="5.75019">
        <ele>611</ele>
      </trkpt>
      <trkpt lat="43.88352" lon="5.75094">
        <ele>601.5</ele>
      </trkpt>
      <trkpt lat="43.88377" lon="5.75159">
        <ele>595</ele>
      </trkpt>
      <trkpt lat="43.8839" lon="5.75238">
        <ele>589.3</ele>
      </trkpt>
      <trkpt lat="43.88394" lon="5.75277">
        <ele>589</ele>
      </trkpt>
      <trkpt lat="43.88389" lon="5.75305">
        <ele>589</ele>
      </trkpt>
      <trkpt lat="43.8839" lon="5.75321">
        <ele>589.1</ele>
      </trkpt>
      <trkpt lat="43.88418" lon="5.7537">
        <ele>589.1</ele>
      </trkpt>
      <trkpt lat="43.88446" lon="5.75426">
        <ele>585.5</ele>
      </trkpt>
      <trkpt lat="43.88457" lon="5.75463">
        <ele>582.9</ele>
      </trkpt>
      <trkpt lat="43.88463" lon="5.75507">
        <ele>581.6</ele>
      </trkpt>
      <trkpt lat="43.88465" lon="5.75558">
        <ele>577.9</ele>
      </trkpt>
      <trkpt lat="43.88466" lon="5.75587">
        <ele>575</ele>
      </trkpt>
      <trkpt lat="43.88485" lon="5.75608">
        <ele>571.5</ele>
      </trkpt>
      <trkpt lat="43.88588" lon="5.75638">
        <ele>558.6</ele>
      </trkpt>
      <trkpt lat="43.88624" lon="5.75682">
        <ele>558.7</ele>
      </trkpt>
      <trkpt lat="43.88675" lon="5.75885">
        <ele>567.2</ele>
      </trkpt>
      <trkpt lat="43.88694" lon="5.75946">
        <ele>563.1</ele>
      </trkpt>
      <trkpt lat="43.88702" lon="5.76084">
        <ele>562.3</ele>
      </trkpt>
      <trkpt lat="43.88716" lon="5.76154">
        <ele>560.2</ele>
      </trkpt>
      <trkpt lat="43.88744" lon="5.76261">
        <ele>557.2</ele>
      </trkpt>
      <trkpt lat="43.88786" lon="5.76417">
        <ele>548</ele>
      </trkpt>
      <trkpt lat="43.88805" lon="5.76491">
        <ele>542.2</ele>
      </trkpt>
      <trkpt lat="43.88869" lon="5.76631">
        <ele>525.6</ele>
      </trkpt>
      <trkpt lat="43.88915" lon="5.76746">
        <ele>513.8</ele>
      </trkpt>
      <trkpt lat="43.88992" lon="5.77016">
        <ele>487.9</ele>
      </trkpt>
      <trkpt lat="43.89007" lon="5.77078">
        <ele>483.3</ele>
      </trkpt>
      <trkpt lat="43.89032" lon="5.77205">
        <ele>472</ele>
      </trkpt>
      <trkpt lat="43.8905" lon="5.77249">
        <ele>465.4</ele>
      </trkpt>
      <trkpt lat="43.89057" lon="5.77315">
        <ele>460.5</ele>
      </trkpt>
      <trkpt lat="43.89075" lon="5.77373">
        <ele>452</ele>
      </trkpt>
      <trkpt lat="43.89082" lon="5.77362">
        <ele>449.5</ele>
      </trkpt>
      <trkpt lat="43.89096" lon="5.77331">
        <ele>445.4</ele>
      </trkpt>
      <trkpt lat="43.89105" lon="5.77331">
        <ele>442.2</ele>
      </trkpt>
      <trkpt lat="43.89115" lon="5.77343">
        <ele>438.3</ele>
      </trkpt>
      <trkpt lat="43.89125" lon="5.7737">
        <ele>433.9</ele>
      </trkpt>
      <trkpt lat="43.89135" lon="5.77425">
        <ele>425.9</ele>
      </trkpt>
      <trkpt lat="43.89144" lon="5.77459">
        <ele>419.3</ele>
      </trkpt>
      <trkpt lat="43.89153" lon="5.77488">
        <ele>413.6</ele>
      </trkpt>
      <trkpt lat="43.89163" lon="5.7751">
        <ele>410</ele>
      </trkpt>
      <trkpt lat="43.89166" lon="5.77513">
        <ele>409.2</ele>
      </trkpt>
      <trkpt lat="43.89169" lon="5.77521">
        <ele>407.9</ele>
      </trkpt>
      <trkpt lat="43.89176" lon="5.77542">
        <ele>404.6</ele>
      </trkpt>
      <trkpt lat="43.89177" lon="5.77552">
        <ele>404.2</ele>
      </trkpt>
      <trkpt lat="43.89179" lon="5.77593">
        <ele>402.7</ele>
      </trkpt>
      <trkpt lat="43.89186" lon="5.77615">
        <ele>400.8</ele>
      </trkpt>
      <trkpt lat="43.89208" lon="5.77666">
        <ele>395.6</ele>
      </trkpt>
      <trkpt lat="43.89218" lon="5.77701">
        <ele>392.5</ele>
      </trkpt>
      <trkpt lat="43.89225" lon="5.77707">
        <ele>390.9</ele>
      </trkpt>
      <trkpt lat="43.89238" lon="5.77714">
        <ele>388.1</ele>
      </trkpt>
      <trkpt lat="43.89241" lon="5.77717">
        <ele>387.6</ele>
      </trkpt>
      <trkpt lat="43.8925" lon="5.77757">
        <ele>385.7</ele>
      </trkpt>
      <trkpt lat="43.8925" lon="5.77762">
        <ele>385.6</ele>
      </trkpt>
      <trkpt lat="43.89302" lon="5.77769">
        <ele>384</ele>
      </trkpt>
      <trkpt lat="43.89329" lon="5.77768">
        <ele>383.7</ele>
      </trkpt>
      <trkpt lat="43.8934" lon="5.77768">
        <ele>382.9</ele>
      </trkpt>
      <trkpt lat="43.89357" lon="5.77765">
        <ele>381</ele>
      </trkpt>
      <trkpt lat="43.89385" lon="5.77758">
        <ele>382.1</ele>
      </trkpt>
      <trkpt lat="43.89416" lon="5.77744">
        <ele>383.5</ele>
      </trkpt>
      <trkpt lat="43.89428" lon="5.77735">
        <ele>383</ele>
      </trkpt>
      <trkpt lat="43.89441" lon="5.77721">
        <ele>382.9</ele>
      </trkpt>
      <trkpt lat="43.89466" lon="5.7768">
        <ele>383</ele>
      </trkpt>
      <trkpt lat="43.89485" lon="5.77642">
        <ele>383.4</ele>
      </trkpt>
      <trkpt lat="43.89491" lon="5.77622">
        <ele>383.7</ele>
      </trkpt>
      <trkpt lat="43.89506" lon="5.77631">
        <ele>387.5</ele>
      </trkpt>
      <trkpt lat="43.89509" lon="5.77641">
        <ele>389.8</ele>
      </trkpt>
      <trkpt lat="43.89545" lon="5.7778">
        <ele>389</ele>
      </trkpt>
      <trkpt lat="43.89631" lon="5.77929">
        <ele>396.3</ele>
      </trkpt>
      <trkpt lat="43.89651" lon="5.7797">
        <ele>397.9</ele>
      </trkpt>
      <trkpt lat="43.89662" lon="5.78006">
        <ele>399.1</ele>
      </trkpt>
      <trkpt lat="43.89671" lon="5.78043">
        <ele>399.5</ele>
      </trkpt>
      <trkpt lat="43.89686" lon="5.78122">
        <ele>401.5</ele>
      </trkpt>
      <trkpt lat="43.89703" lon="5.78179">
        <ele>405</ele>
      </trkpt>
      <trkpt lat="43.89728" lon="5.78248">
        <ele>408.4</ele>
      </trkpt>
      <trkpt lat="43.89749" lon="5.78315">
        <ele>411.1</ele>
      </trkpt>
      <trkpt lat="43.89764" lon="5.78369">
        <ele>414.6</ele>
      </trkpt>
      <trkpt lat="43.89769" lon="5.78386">
        <ele>415</ele>
      </trkpt>
      <trkpt lat="43.89771" lon="5.78398">
        <ele>414.5</ele>
      </trkpt>
      <trkpt lat="43.89776" lon="5.78431">
        <ele>412.1</ele>
      </trkpt>
      <trkpt lat="43.8978" lon="5.78437">
        <ele>412</ele>
      </trkpt>
      <trkpt lat="43.89794" lon="5.78455">
        <ele>410.4</ele>
      </trkpt>
      <trkpt lat="43.8981" lon="5.78466">
        <ele>409.5</ele>
      </trkpt>
      <trkpt lat="43.89963" lon="5.78541">
        <ele>398.7</ele>
      </trkpt>
      <trkpt lat="43.90004" lon="5.78564">
        <ele>396.5</ele>
      </trkpt>
      <trkpt lat="43.90046" lon="5.78594">
        <ele>392.5</ele>
      </trkpt>
      <trkpt lat="43.90094" lon="5.78609">
        <ele>389.8</ele>
      </trkpt>
      <trkpt lat="43.90133" lon="5.78618">
        <ele>389</ele>
      </trkpt>
      <trkpt lat="43.90136" lon="5.7862">
        <ele>388.7</ele>
      </trkpt>
      <trkpt lat="43.90151" lon="5.78628">
        <ele>387.3</ele>
      </trkpt>
      <trkpt lat="43.90186" lon="5.78648">
        <ele>385.8</ele>
      </trkpt>
      <trkpt lat="43.90208" lon="5.78655">
        <ele>385.5</ele>
      </trkpt>
      <trkpt lat="43.90219" lon="5.78654">
        <ele>385.8</ele>
      </trkpt>
      <trkpt lat="43.90228" lon="5.78652">
        <ele>386.3</ele>
      </trkpt>
      <trkpt lat="43.90228" lon="5.78651">
        <ele>386.3</ele>
      </trkpt>
      <trkpt lat="43.90229" lon="5.78646">
        <ele>386.7</ele>
      </trkpt>
      <trkpt lat="43.90231" lon="5.78644">
        <ele>386.9</ele>
      </trkpt>
      <trkpt lat="43.90233" lon="5.78644">
        <ele>387</ele>
      </trkpt>
      <trkpt lat="43.90235" lon="5.78644">
        <ele>387.1</ele>
      </trkpt>
      <trkpt lat="43.90237" lon="5.78647">
        <ele>386.9</ele>
      </trkpt>
      <trkpt lat="43.90238" lon="5.78652">
        <ele>386.6</ele>
      </trkpt>
      <trkpt lat="43.90238" lon="5.78653">
        <ele>386.6</ele>
      </trkpt>
      <trkpt lat="43.9025" lon="5.78661">
        <ele>386.4</ele>
      </trkpt>
      <trkpt lat="43.90279" lon="5.78675">
        <ele>387</ele>
      </trkpt>
      <trkpt lat="43.90308" lon="5.7868">
        <ele>384.9</ele>
      </trkpt>
      <trkpt lat="43.90321" lon="5.78684">
        <ele>381.8</ele>
        <extensions>
          <visugpx:TrkExtension xmlns:visugpx="https://www.visugpx.com/editgpx/">
            <visugpx:node>48</visugpx:node>
            </visugpx:TrkExtension>
        </extensions>
      </trkpt>
      <trkpt lat="43.90341" lon="5.78704">
        <ele>380.7</ele>
      </trkpt>
      <trkpt lat="43.90344" lon="5.78708">
        <ele>381.1</ele>
      </trkpt>
      <trkpt lat="43.9034" lon="5.78713">
        <ele>381.2</ele>
      </trkpt>
      <trkpt lat="43.90328" lon="5.78731">
        <ele>381.2</ele>
      </trkpt>
      <trkpt lat="43.90238" lon="5.78909">
        <ele>379.3</ele>
      </trkpt>
      <trkpt lat="43.90235" lon="5.7892">
        <ele>379.5</ele>
      </trkpt>
      <trkpt lat="43.90233" lon="5.78933">
        <ele>379.7</ele>
      </trkpt>
      <trkpt lat="43.90237" lon="5.78959">
        <ele>380</ele>
      </trkpt>
      <trkpt lat="43.90249" lon="5.78988">
        <ele>380.5</ele>
      </trkpt>
      <trkpt lat="43.90253" lon="5.78996">
        <ele>380.8</ele>
      </trkpt>
      <trkpt lat="43.90263" lon="5.79019">
        <ele>380.9</ele>
      </trkpt>
      <trkpt lat="43.90264" lon="5.7903">
        <ele>381</ele>
      </trkpt>
      <trkpt lat="43.90269" lon="5.79053">
        <ele>381.6</ele>
      </trkpt>
      <trkpt lat="43.9027" lon="5.79055">
        <ele>381.7</ele>
      </trkpt>
      <trkpt lat="43.9026" lon="5.7907">
        <ele>381.9</ele>
      </trkpt>
      <trkpt lat="43.90217" lon="5.79141">
        <ele>381</ele>
      </trkpt>
      <trkpt lat="43.90207" lon="5.79156">
        <ele>381</ele>
      </trkpt>
      <trkpt lat="43.90195" lon="5.79168">
        <ele>381</ele>
      </trkpt>
      <trkpt lat="43.90175" lon="5.79184">
        <ele>381</ele>
      </trkpt>
      <trkpt lat="43.90142" lon="5.79206">
        <ele>381</ele>
      </trkpt>
      <trkpt lat="43.90115" lon="5.7922">
        <ele>381</ele>
      </trkpt>
      <trkpt lat="43.90091" lon="5.79229">
        <ele>380.5</ele>
      </trkpt>
      <trkpt lat="43.90012" lon="5.79255">
        <ele>379.4</ele>
      </trkpt>
      <trkpt lat="43.89984" lon="5.79267">
        <ele>378.8</ele>
      </trkpt>
      <trkpt lat="43.89963" lon="5.79279">
        <ele>378.3</ele>
      </trkpt>
      <trkpt lat="43.89931" lon="5.79303">
        <ele>377.5</ele>
      </trkpt>
      <trkpt lat="43.89918" lon="5.79317">
        <ele>377.5</ele>
      </trkpt>
      <trkpt lat="43.899" lon="5.79339">
        <ele>377.4</ele>
      </trkpt>
      <trkpt lat="43.89889" lon="5.79354">
        <ele>377.3</ele>
      </trkpt>
      <trkpt lat="43.89863" lon="5.79402">
        <ele>376.4</ele>
      </trkpt>
      <trkpt lat="43.89848" lon="5.79445">
        <ele>375.1</ele>
      </trkpt>
      <trkpt lat="43.89842" lon="5.79468">
        <ele>374.9</ele>
      </trkpt>
      <trkpt lat="43.89835" lon="5.79512">
        <ele>376.7</ele>
      </trkpt>
      <trkpt lat="43.89832" lon="5.79562">
        <ele>375.8</ele>
      </trkpt>
      <trkpt lat="43.89833" lon="5.79599">
        <ele>375.4</ele>
      </trkpt>
      <trkpt lat="43.89836" lon="5.79631">
        <ele>374.4</ele>
      </trkpt>
      <trkpt lat="43.89873" lon="5.79979">
        <ele>371.3</ele>
      </trkpt>
      <trkpt lat="43.89884" lon="5.80091">
        <ele>371.5</ele>
      </trkpt>
      <trkpt lat="43.89893" lon="5.80175">
        <ele>371.3</ele>
      </trkpt>
      <trkpt lat="43.89894" lon="5.80227">
        <ele>370</ele>
      </trkpt>
      <trkpt lat="43.89892" lon="5.80269">
        <ele>371.4</ele>
      </trkpt>
      <trkpt lat="43.89889" lon="5.80292">
        <ele>372</ele>
      </trkpt>
      <trkpt lat="43.89881" lon="5.80333">
        <ele>369.4</ele>
      </trkpt>
      <trkpt lat="43.89877" lon="5.80348">
        <ele>368.7</ele>
      </trkpt>
      <trkpt lat="43.89871" lon="5.80366">
        <ele>369.1</ele>
      </trkpt>
      <trkpt lat="43.89861" lon="5.80394">
        <ele>369.9</ele>
      </trkpt>
      <trkpt lat="43.8985" lon="5.80424">
        <ele>367</ele>
      </trkpt>
      <trkpt lat="43.8983" lon="5.80482">
        <ele>371.8</ele>
      </trkpt>
      <trkpt lat="43.89818" lon="5.80513">
        <ele>370.5</ele>
      </trkpt>
      <trkpt lat="43.89794" lon="5.80566">
        <ele>371.9</ele>
      </trkpt>
      <trkpt lat="43.89781" lon="5.8059">
        <ele>371.2</ele>
      </trkpt>
      <trkpt lat="43.8977" lon="5.8061">
        <ele>371.9</ele>
      </trkpt>
      <trkpt lat="43.89751" lon="5.80646">
        <ele>370</ele>
      </trkpt>
      <trkpt lat="43.89739" lon="5.80669">
        <ele>369</ele>
      </trkpt>
      <trkpt lat="43.89729" lon="5.80693">
        <ele>368</ele>
      </trkpt>
      <trkpt lat="43.89721" lon="5.80717">
        <ele>368.9</ele>
      </trkpt>
      <trkpt lat="43.89716" lon="5.80741">
        <ele>368.2</ele>
      </trkpt>
      <trkpt lat="43.89711" lon="5.80786">
        <ele>367.7</ele>
      </trkpt>
      <trkpt lat="43.89711" lon="5.80828">
        <ele>367.6</ele>
      </trkpt>
      <trkpt lat="43.89718" lon="5.80872">
        <ele>367.8</ele>
      </trkpt>
      <trkpt lat="43.89723" lon="5.80894">
        <ele>367.8</ele>
      </trkpt>
      <trkpt lat="43.89742" lon="5.80942">
        <ele>367.2</ele>
      </trkpt>
      <trkpt lat="43.89752" lon="5.80961">
        <ele>367.5</ele>
      </trkpt>
      <trkpt lat="43.89763" lon="5.80978">
        <ele>364.7</ele>
      </trkpt>
      <trkpt lat="43.89781" lon="5.80999">
        <ele>363.5</ele>
      </trkpt>
      <trkpt lat="43.89797" lon="5.81015">
        <ele>367.1</ele>
      </trkpt>
      <trkpt lat="43.89812" lon="5.81027">
        <ele>368.3</ele>
      </trkpt>
      <trkpt lat="43.89834" lon="5.81038">
        <ele>367.5</ele>
      </trkpt>
      <trkpt lat="43.89851" lon="5.81045">
        <ele>367.1</ele>
      </trkpt>
      <trkpt lat="43.89874" lon="5.81051">
        <ele>367.4</ele>
      </trkpt>
      <trkpt lat="43.89983" lon="5.81062">
        <ele>366.8</ele>
      </trkpt>
      <trkpt lat="43.90005" lon="5.81069">
        <ele>366.4</ele>
      </trkpt>
      <trkpt lat="43.90015" lon="5.81074">
        <ele>366.6</ele>
      </trkpt>
      <trkpt lat="43.90026" lon="5.81079">
        <ele>367.1</ele>
      </trkpt>
      <trkpt lat="43.90037" lon="5.81087">
        <ele>368.4</ele>
      </trkpt>
      <trkpt lat="43.90059" lon="5.8111">
        <ele>368.1</ele>
      </trkpt>
      <trkpt lat="43.90069" lon="5.81124">
        <ele>368.1</ele>
      </trkpt>
      <trkpt lat="43.9008" lon="5.8114">
        <ele>367.3</ele>
      </trkpt>
      <trkpt lat="43.90093" lon="5.81165">
        <ele>369.2</ele>
      </trkpt>
      <trkpt lat="43.90115" lon="5.81218">
        <ele>367.8</ele>
      </trkpt>
      <trkpt lat="43.90123" lon="5.81245">
        <ele>367.8</ele>
      </trkpt>
      <trkpt lat="43.9013" lon="5.81273">
        <ele>366.4</ele>
      </trkpt>
      <trkpt lat="43.90134" lon="5.81297">
        <ele>365.9</ele>
      </trkpt>
      <trkpt lat="43.90135" lon="5.81312">
        <ele>365.9</ele>
      </trkpt>
      <trkpt lat="43.90136" lon="5.8132">
        <ele>366.2</ele>
      </trkpt>
      <trkpt lat="43.90138" lon="5.81346">
        <ele>366.9</ele>
      </trkpt>
      <trkpt lat="43.90139" lon="5.81372">
        <ele>367</ele>
      </trkpt>
      <trkpt lat="43.90137" lon="5.81417">
        <ele>366.9</ele>
      </trkpt>
      <trkpt lat="43.90129" lon="5.81472">
        <ele>366.3</ele>
      </trkpt>
      <trkpt lat="43.9012" lon="5.81507">
        <ele>366.4</ele>
      </trkpt>
      <trkpt lat="43.90089" lon="5.81599">
        <ele>365.8</ele>
      </trkpt>
      <trkpt lat="43.90069" lon="5.81656">
        <ele>365.7</ele>
      </trkpt>
      <trkpt lat="43.90057" lon="5.8169">
        <ele>364.5</ele>
      </trkpt>
      <trkpt lat="43.90046" lon="5.81713">
        <ele>364.7</ele>
      </trkpt>
      <trkpt lat="43.90036" lon="5.81732">
        <ele>364.6</ele>
      </trkpt>
      <trkpt lat="43.90011" lon="5.81766">
        <ele>364.8</ele>
      </trkpt>
      <trkpt lat="43.89937" lon="5.81847">
        <ele>364.5</ele>
      </trkpt>
      <trkpt lat="43.89927" lon="5.81862">
        <ele>365.7</ele>
      </trkpt>
      <trkpt lat="43.8992" lon="5.81878">
        <ele>366.1</ele>
      </trkpt>
      <trkpt lat="43.89914" lon="5.81894">
        <ele>364.7</ele>
      </trkpt>
      <trkpt lat="43.89909" lon="5.81924">
        <ele>364.3</ele>
      </trkpt>
      <trkpt lat="43.8991" lon="5.81957">
        <ele>364.1</ele>
      </trkpt>
      <trkpt lat="43.89917" lon="5.81991">
        <ele>365.1</ele>
      </trkpt>
      <trkpt lat="43.89954" lon="5.82105">
        <ele>364.2</ele>
      </trkpt>
      <trkpt lat="43.8997" lon="5.82154">
        <ele>365.2</ele>
      </trkpt>
      <trkpt lat="43.89979" lon="5.82184">
        <ele>366.7</ele>
      </trkpt>
      <trkpt lat="43.89988" lon="5.82228">
        <ele>367</ele>
      </trkpt>
      <trkpt lat="43.89993" lon="5.82272">
        <ele>366.3</ele>
      </trkpt>
      <trkpt lat="43.89993" lon="5.823">
        <ele>366.3</ele>
      </trkpt>
      <trkpt lat="43.89989" lon="5.82344">
        <ele>367.1</ele>
      </trkpt>
      <trkpt lat="43.89978" lon="5.82398">
        <ele>366.4</ele>
      </trkpt>
      <trkpt lat="43.89945" lon="5.82532">
        <ele>362.2</ele>
      </trkpt>
      <trkpt lat="43.89937" lon="5.82563">
        <ele>361</ele>
      </trkpt>
      <trkpt lat="43.89929" lon="5.82585">
        <ele>362.2</ele>
      </trkpt>
      <trkpt lat="43.89912" lon="5.82619">
        <ele>362.1</ele>
      </trkpt>
      <trkpt lat="43.89898" lon="5.82638">
        <ele>362.4</ele>
      </trkpt>
      <trkpt lat="43.89855" lon="5.82687">
        <ele>360.7</ele>
      </trkpt>
      <trkpt lat="43.89807" lon="5.82737">
        <ele>357.5</ele>
      </trkpt>
      <trkpt lat="43.89784" lon="5.82762">
        <ele>356.2</ele>
      </trkpt>
      <trkpt lat="43.89749" lon="5.82807">
        <ele>355.9</ele>
      </trkpt>
      <trkpt lat="43.89728" lon="5.82846">
        <ele>355.6</ele>
      </trkpt>
      <trkpt lat="43.89722" lon="5.82861">
        <ele>356</ele>
      </trkpt>
      <trkpt lat="43.89712" lon="5.82889">
        <ele>355</ele>
      </trkpt>
      <trkpt lat="43.89701" lon="5.82929">
        <ele>355.4</ele>
      </trkpt>
      <trkpt lat="43.89697" lon="5.82957">
        <ele>355.8</ele>
      </trkpt>
      <trkpt lat="43.89688" lon="5.83028">
        <ele>354.8</ele>
      </trkpt>
      <trkpt lat="43.89677" lon="5.83114">
        <ele>354.3</ele>
      </trkpt>
      <trkpt lat="43.89674" lon="5.83149">
        <ele>354</ele>
      </trkpt>
      <trkpt lat="43.89673" lon="5.83177">
        <ele>353.6</ele>
      </trkpt>
      <trkpt lat="43.89675" lon="5.83198">
        <ele>353</ele>
      </trkpt>
      <trkpt lat="43.89679" lon="5.83219">
        <ele>352.6</ele>
      </trkpt>
      <trkpt lat="43.89691" lon="5.83264">
        <ele>351.9</ele>
      </trkpt>
      <trkpt lat="43.89709" lon="5.83312">
        <ele>351.8</ele>
      </trkpt>
      <trkpt lat="43.8971" lon="5.83317">
        <ele>351.7</ele>
      </trkpt>
      <trkpt lat="43.89734" lon="5.83379">
        <ele>352</ele>
      </trkpt>
      <trkpt lat="43.89761" lon="5.83453">
        <ele>351.9</ele>
      </trkpt>
      <trkpt lat="43.89767" lon="5.83473">
        <ele>350.6</ele>
      </trkpt>
      <trkpt lat="43.89773" lon="5.83507">
        <ele>350.7</ele>
      </trkpt>
      <trkpt lat="43.89775" lon="5.83542">
        <ele>349.7</ele>
      </trkpt>
      <trkpt lat="43.89774" lon="5.83562">
        <ele>349.6</ele>
      </trkpt>
      <trkpt lat="43.89769" lon="5.83597">
        <ele>348.9</ele>
      </trkpt>
      <trkpt lat="43.89759" lon="5.83636">
        <ele>349.8</ele>
      </trkpt>
      <trkpt lat="43.89752" lon="5.83656">
        <ele>350.7</ele>
      </trkpt>
      <trkpt lat="43.89743" lon="5.83675">
        <ele>349.7</ele>
      </trkpt>
      <trkpt lat="43.89732" lon="5.83692">
        <ele>347.2</ele>
      </trkpt>
      <trkpt lat="43.89722" lon="5.83706">
        <ele>346.3</ele>
      </trkpt>
      <trkpt lat="43.8971" lon="5.83719">
        <ele>348.6</ele>
      </trkpt>
      <trkpt lat="43.89701" lon="5.83728">
        <ele>349.2</ele>
      </trkpt>
      <trkpt lat="43.89687" lon="5.83738">
        <ele>348.5</ele>
      </trkpt>
      <trkpt lat="43.89676" lon="5.83746">
        <ele>348.9</ele>
      </trkpt>
      <trkpt lat="43.89658" lon="5.83754">
        <ele>349</ele>
      </trkpt>
      <trkpt lat="43.89641" lon="5.83758">
        <ele>348.1</ele>
      </trkpt>
      <trkpt lat="43.89622" lon="5.83761">
        <ele>348</ele>
      </trkpt>
      <trkpt lat="43.89553" lon="5.83764">
        <ele>347.5</ele>
      </trkpt>
      <trkpt lat="43.89517" lon="5.83766">
        <ele>347.6</ele>
      </trkpt>
      <trkpt lat="43.89508" lon="5.83767">
        <ele>347.3</ele>
      </trkpt>
      <trkpt lat="43.89486" lon="5.83771">
        <ele>347.4</ele>
      </trkpt>
      <trkpt lat="43.89468" lon="5.83779">
        <ele>347.8</ele>
      </trkpt>
      <trkpt lat="43.8945" lon="5.83793">
        <ele>347.1</ele>
      </trkpt>
      <trkpt lat="43.89435" lon="5.83807">
        <ele>353.1</ele>
      </trkpt>
      <trkpt lat="43.89423" lon="5.83825">
        <ele>353.2</ele>
      </trkpt>
      <trkpt lat="43.8941" lon="5.83853">
        <ele>357.1</ele>
      </trkpt>
      <trkpt lat="43.89385" lon="5.83923">
        <ele>353.3</ele>
      </trkpt>
      <trkpt lat="43.89372" lon="5.83954">
        <ele>353.9</ele>
      </trkpt>
      <trkpt lat="43.89349" lon="5.83992">
        <ele>352.8</ele>
      </trkpt>
      <trkpt lat="43.8932" lon="5.84032">
        <ele>351.7</ele>
      </trkpt>
      <trkpt lat="43.89315" lon="5.84039">
        <ele>351.3</ele>
      </trkpt>
      <trkpt lat="43.89288" lon="5.84077">
        <ele>351.5</ele>
      </trkpt>
      <trkpt lat="43.89274" lon="5.84097">
        <ele>351.7</ele>
      </trkpt>
      <trkpt lat="43.89229" lon="5.8416">
        <ele>350.4</ele>
      </trkpt>
      <trkpt lat="43.89225" lon="5.84165">
        <ele>350.1</ele>
      </trkpt>
      <trkpt lat="43.89192" lon="5.84211">
        <ele>349.5</ele>
      </trkpt>
      <trkpt lat="43.89177" lon="5.84233">
        <ele>349.2</ele>
      </trkpt>
      <trkpt lat="43.8916" lon="5.84257">
        <ele>349</ele>
      </trkpt>
      <trkpt lat="43.89135" lon="5.84292">
        <ele>348.6</ele>
      </trkpt>
      <trkpt lat="43.89115" lon="5.84316">
        <ele>347.9</ele>
      </trkpt>
      <trkpt lat="43.89072" lon="5.84355">
        <ele>347.4</ele>
      </trkpt>
      <trkpt lat="43.8905" lon="5.8437">
        <ele>346.4</ele>
      </trkpt>
      <trkpt lat="43.89007" lon="5.84392">
        <ele>345.7</ele>
      </trkpt>
      <trkpt lat="43.88576" lon="5.84526">
        <ele>341</ele>
      </trkpt>
      <trkpt lat="43.88523" lon="5.84534">
        <ele>340.8</ele>
      </trkpt>
      <trkpt lat="43.88465" lon="5.8454">
        <ele>340.3</ele>
      </trkpt>
      <trkpt lat="43.88125" lon="5.84573">
        <ele>339.1</ele>
      </trkpt>
      <trkpt lat="43.88099" lon="5.84575">
        <ele>339.3</ele>
      </trkpt>
      <trkpt lat="43.88086" lon="5.84576">
        <ele>339.3</ele>
      </trkpt>
      <trkpt lat="43.88075" lon="5.84575">
        <ele>339.2</ele>
      </trkpt>
      <trkpt lat="43.88054" lon="5.84569">
        <ele>339</ele>
      </trkpt>
      <trkpt lat="43.8803" lon="5.84557">
        <ele>339.8</ele>
      </trkpt>
      <trkpt lat="43.87968" lon="5.84514">
        <ele>341</ele>
      </trkpt>
      <trkpt lat="43.8795" lon="5.84507">
        <ele>341.9</ele>
      </trkpt>
      <trkpt lat="43.87932" lon="5.84509">
        <ele>342.9</ele>
      </trkpt>
      <trkpt lat="43.87925" lon="5.84513">
        <ele>343.2</ele>
      </trkpt>
      <trkpt lat="43.87918" lon="5.84519">
        <ele>343.5</ele>
      </trkpt>
      <trkpt lat="43.8791" lon="5.84522">
        <ele>345.7</ele>
      </trkpt>
      <trkpt lat="43.87904" lon="5.8453">
        <ele>346.7</ele>
      </trkpt>
      <trkpt lat="43.87885" lon="5.84569">
        <ele>344.5</ele>
      </trkpt>
      <trkpt lat="43.87884" lon="5.84572">
        <ele>344.3</ele>
      </trkpt>
      <trkpt lat="43.8788" lon="5.84569">
        <ele>344.5</ele>
      </trkpt>
      <trkpt lat="43.87857" lon="5.84555">
        <ele>346.9</ele>
      </trkpt>
      <trkpt lat="43.87871" lon="5.84569">
        <ele>344.6</ele>
      </trkpt>
      <trkpt lat="43.87886" lon="5.84581">
        <ele>343.9</ele>
      </trkpt>
      <trkpt lat="43.8789" lon="5.84584">
        <ele>343.7</ele>
        <extensions>
          <visugpx:TrkExtension xmlns:visugpx="https://www.visugpx.com/editgpx/">
            <visugpx:node>49</visugpx:node>
            </visugpx:TrkExtension>
        </extensions>
      </trkpt>
    </trkseg>
  </trk>
</gpx>